<?xml version='1.0' encoding='UTF-8'?><gpx version="1.1" creator="JPX - https://github.com/jenetics/jpx" xmlns="http://www.topografix.com/GPX/1/1"><trk><trkseg><trkpt lat="48.8012127" lon="4.9566278"><ele>133.0</ele><time>2026-05-01T13:39:27.027Z</time></trkpt><trkpt lat="48.8011552" lon="4.9566734"><ele>133.0</ele><time>2026-05-01T13:40:48.956Z</time></trkpt><trkpt lat="48.8010971" lon="4.9567337"><ele>133.0</ele><time>2026-05-01T13:40:55.967Z</time></trkpt><trkpt lat="48.801044" lon="4.9567982"><ele>133.0</ele><time>2026-05-01T13:41:01.954Z</time></trkpt><trkpt lat="48.800984" lon="4.9568286"><ele>133.0</ele><time>2026-05-01T13:41:07.956Z</time></trkpt><trkpt lat="48.800927" lon="4.9568934"><ele>133.0</ele><time>2026-05-01T13:41:16.956Z</time></trkpt><trkpt lat="48.8008679" lon="4.9569472"><ele>133.0</ele><time>2026-05-01T13:41:25.964Z</time></trkpt><trkpt lat="48.8008195" lon="4.9570189"><ele>133.0</ele><time>2026-05-01T13:41:33.013Z</time></trkpt><trkpt lat="48.800758" lon="4.9570709"><ele>133.0</ele><time>2026-05-01T13:41:39.955Z</time></trkpt><trkpt lat="48.8006847" lon="4.9569877"><ele>133.0</ele><time>2026-05-01T13:42:03.957Z</time></trkpt><trkpt lat="48.8006571" lon="4.9568932"><ele>133.0</ele><time>2026-05-01T13:42:10.914Z</time></trkpt><trkpt lat="48.800627" lon="4.9568075"><ele>133.0</ele><time>2026-05-01T13:42:16.955Z</time></trkpt><trkpt lat="48.8006286" lon="4.956703"><ele>133.0</ele><time>2026-05-01T13:42:27.874Z</time></trkpt><trkpt lat="48.8006525" lon="4.9565985"><ele>133.0</ele><time>2026-05-01T13:42:33.954Z</time></trkpt><trkpt lat="48.8006697" lon="4.9564976"><ele>133.14285714285714</ele><time>2026-05-01T13:42:38.96Z</time></trkpt><trkpt lat="48.8006842" lon="4.9563915"><ele>133.28571428571428</ele><time>2026-05-01T13:42:44.962Z</time></trkpt><trkpt lat="48.8006872" lon="4.956291"><ele>133.42857142857144</ele><time>2026-05-01T13:42:52.069Z</time></trkpt><trkpt lat="48.8006848" lon="4.9561869"><ele>133.57142857142856</ele><time>2026-05-01T13:42:59.958Z</time></trkpt><trkpt lat="48.8006819" lon="4.9560906"><ele>133.71428571428572</ele><time>2026-05-01T13:43:05.958Z</time></trkpt><trkpt lat="48.8006442" lon="4.9560077"><ele>133.85714285714286</ele><time>2026-05-01T13:43:24.97Z</time></trkpt><trkpt lat="48.8005977" lon="4.955936"><ele>134.0</ele><time>2026-05-01T13:43:33.893Z</time></trkpt><trkpt lat="48.8005635" lon="4.9560242"><ele>134.0</ele><time>2026-05-01T13:43:56.958Z</time></trkpt><trkpt lat="48.8005698" lon="4.9558983"><ele>134.0</ele><time>2026-05-01T13:44:07.953Z</time></trkpt><trkpt lat="48.8005583" lon="4.9557871"><ele>134.0</ele><time>2026-05-01T13:44:10.954Z</time></trkpt><trkpt lat="48.8004817" lon="4.9557595"><ele>134.0</ele><time>2026-05-01T13:44:18.943Z</time></trkpt><trkpt lat="48.8004123" lon="4.9556473"><ele>134.0</ele><time>2026-05-01T13:44:23.007Z</time></trkpt><trkpt lat="48.8005402" lon="4.9558837"><ele>134.0</ele><time>2026-05-01T13:44:48.172Z</time></trkpt><trkpt lat="48.8005915" lon="4.9559542"><ele>134.0</ele><time>2026-05-01T13:51:14.962Z</time></trkpt><trkpt lat="48.800656" lon="4.9559759"><ele>134.0</ele><time>2026-05-01T13:51:23.87Z</time></trkpt><trkpt lat="48.8006526" lon="4.9558698"><ele>134.0</ele><time>2026-05-01T13:51:30.95Z</time></trkpt><trkpt lat="48.8005713" lon="4.9558845"><ele>134.0</ele><time>2026-05-01T13:51:55.953Z</time></trkpt><trkpt lat="48.800505" lon="4.955937"><ele>134.0</ele><time>2026-05-01T13:52:32.95Z</time></trkpt><trkpt lat="48.8004466" lon="4.9560178"><ele>134.0</ele><time>2026-05-01T13:52:34.953Z</time></trkpt><trkpt lat="48.8003649" lon="4.956094"><ele>134.0</ele><time>2026-05-01T13:52:36.952Z</time></trkpt><trkpt lat="48.8003073" lon="4.9561839"><ele>134.0</ele><time>2026-05-01T13:52:38.946Z</time></trkpt><trkpt lat="48.8004481" lon="4.9560102"><ele>134.0</ele><time>2026-05-01T13:52:45.956Z</time></trkpt><trkpt lat="48.8005335" lon="4.955952"><ele>134.0</ele><time>2026-05-01T13:52:48.951Z</time></trkpt><trkpt lat="48.8005843" lon="4.9558741"><ele>134.0</ele><time>2026-05-01T13:52:53.963Z</time></trkpt><trkpt lat="48.8005287" lon="4.9558044"><ele>134.0</ele><time>2026-05-01T13:56:04.967Z</time></trkpt><trkpt lat="48.800585" lon="4.955853"><ele>134.0</ele><time>2026-05-01T14:06:13.962Z</time></trkpt><trkpt lat="48.8006117" lon="4.9559424"><ele>134.0</ele><time>2026-05-01T14:06:24.965Z</time></trkpt><trkpt lat="48.80062" lon="4.9560523"><ele>134.0</ele><time>2026-05-01T14:08:00.952Z</time></trkpt><trkpt lat="48.8006306" lon="4.9561617"><ele>134.0</ele><time>2026-05-01T14:08:08.961Z</time></trkpt><trkpt lat="48.8005981" lon="4.9562836"><ele>134.0</ele><time>2026-05-01T14:08:15.872Z</time></trkpt><trkpt lat="48.8006358" lon="4.9563646"><ele>134.0</ele><time>2026-05-01T14:08:22.956Z</time></trkpt><trkpt lat="48.8006397" lon="4.9564627"><ele>134.0</ele><time>2026-05-01T14:08:30.955Z</time></trkpt><trkpt lat="48.8006225" lon="4.9565674"><ele>134.0</ele><time>2026-05-01T14:08:36.957Z</time></trkpt><trkpt lat="48.8006192" lon="4.9566676"><ele>134.0</ele><time>2026-05-01T14:08:44.003Z</time></trkpt><trkpt lat="48.8006262" lon="4.9567657"><ele>134.0</ele><time>2026-05-01T14:08:52.951Z</time></trkpt><trkpt lat="48.8006174" lon="4.9568614"><ele>134.0</ele><time>2026-05-01T14:08:58.952Z</time></trkpt><trkpt lat="48.8006165" lon="4.9569606"><ele>134.0</ele><time>2026-05-01T14:09:08.96Z</time></trkpt><trkpt lat="48.8006614" lon="4.9570385"><ele>134.0</ele><time>2026-05-01T14:09:18.95Z</time></trkpt><trkpt lat="48.8007384" lon="4.9570559"><ele>133.85714285714286</ele><time>2026-05-01T14:09:34.95Z</time></trkpt><trkpt lat="48.8007971" lon="4.9570038"><ele>133.71428571428572</ele><time>2026-05-01T14:09:43.962Z</time></trkpt><trkpt lat="48.800856" lon="4.9569556"><ele>133.57142857142856</ele><time>2026-05-01T14:09:51.959Z</time></trkpt><trkpt lat="48.8009156" lon="4.9569098"><ele>133.42857142857144</ele><time>2026-05-01T14:10:00.949Z</time></trkpt><trkpt lat="48.8009552" lon="4.9568203"><ele>133.28571428571428</ele><time>2026-05-01T14:10:09.886Z</time></trkpt><trkpt lat="48.8010112" lon="4.9567634"><ele>133.14285714285714</ele><time>2026-05-01T14:10:18.957Z</time></trkpt><trkpt lat="48.8010756" lon="4.9567189"><ele>133.0</ele><time>2026-05-01T14:10:26.949Z</time></trkpt><trkpt lat="48.801138" lon="4.9566702"><ele>133.0</ele><time>2026-05-01T14:10:37.971Z</time></trkpt><trkpt lat="48.8012006" lon="4.9566495"><ele>133.0</ele><time>2026-05-01T14:10:46.957Z</time></trkpt><trkpt lat="48.8012226" lon="4.9565558"><ele>133.0</ele><time>2026-05-01T14:11:01.871Z</time></trkpt><trkpt lat="48.8011738" lon="4.9566298"><ele>133.0</ele><time>2026-05-01T14:21:37.973Z</time></trkpt><trkpt lat="48.8011198" lon="4.9566948"><ele>133.0</ele><time>2026-05-01T14:21:45.965Z</time></trkpt><trkpt lat="48.8010563" lon="4.9567499"><ele>133.0</ele><time>2026-05-01T14:21:52.967Z</time></trkpt><trkpt lat="48.8009893" lon="4.9567927"><ele>133.0</ele><time>2026-05-01T14:21:59.958Z</time></trkpt><trkpt lat="48.8009236" lon="4.9568315"><ele>133.0</ele><time>2026-05-01T14:22:06.958Z</time></trkpt><trkpt lat="48.8008709" lon="4.9568916"><ele>133.0</ele><time>2026-05-01T14:22:12.963Z</time></trkpt><trkpt lat="48.800812" lon="4.9569408"><ele>133.0</ele><time>2026-05-01T14:22:18.958Z</time></trkpt><trkpt lat="48.8007496" lon="4.9569889"><ele>133.0</ele><time>2026-05-01T14:22:24.97Z</time></trkpt><trkpt lat="48.8006847" lon="4.9569885"><ele>133.0</ele><time>2026-05-01T14:22:30.965Z</time></trkpt><trkpt lat="48.8006171" lon="4.9570231"><ele>133.0</ele><time>2026-05-01T14:22:37.901Z</time></trkpt><trkpt lat="48.8005645" lon="4.9570799"><ele>133.0</ele><time>2026-05-01T14:22:44.956Z</time></trkpt><trkpt lat="48.8005631" lon="4.9569758"><ele>133.0</ele><time>2026-05-01T14:26:50.977Z</time></trkpt><trkpt lat="48.8005028" lon="4.9568961"><ele>133.0</ele><time>2026-05-01T14:27:03.97Z</time></trkpt><trkpt lat="48.8004486" lon="4.9569884"><ele>133.0</ele><time>2026-05-01T14:27:06.968Z</time></trkpt><trkpt lat="48.8004135" lon="4.9571183"><ele>133.0</ele><time>2026-05-01T14:27:08.965Z</time></trkpt><trkpt lat="48.800373" lon="4.9572014"><ele>133.0</ele><time>2026-05-01T14:27:09.969Z</time></trkpt><trkpt lat="48.8002914" lon="4.9573144"><ele>133.0</ele><time>2026-05-01T14:27:11.971Z</time></trkpt><trkpt lat="48.8002068" lon="4.9574158"><ele>133.20000000000002</ele><time>2026-05-01T14:27:13.96Z</time></trkpt><trkpt lat="48.8001325" lon="4.9575073"><ele>133.4</ele><time>2026-05-01T14:27:15.961Z</time></trkpt><trkpt lat="48.800048" lon="4.9575858"><ele>133.60000000000002</ele><time>2026-05-01T14:27:17.972Z</time></trkpt><trkpt lat="48.7999364" lon="4.9576767"><ele>133.8</ele><time>2026-05-01T14:27:19.967Z</time></trkpt><trkpt lat="48.7998681" lon="4.9577298"><ele>134.0</ele><time>2026-05-01T14:27:20.97Z</time></trkpt><trkpt lat="48.7998001" lon="4.957785"><ele>134.0</ele><time>2026-05-01T14:27:21.968Z</time></trkpt><trkpt lat="48.7997369" lon="4.9578522"><ele>134.0</ele><time>2026-05-01T14:27:22.969Z</time></trkpt><trkpt lat="48.7996741" lon="4.9579151"><ele>134.0</ele><time>2026-05-01T14:27:23.961Z</time></trkpt><trkpt lat="48.7996075" lon="4.9579728"><ele>134.0</ele><time>2026-05-01T14:27:24.967Z</time></trkpt><trkpt lat="48.7995397" lon="4.95803"><ele>134.0</ele><time>2026-05-01T14:27:25.981Z</time></trkpt><trkpt lat="48.7994714" lon="4.9580884"><ele>134.0</ele><time>2026-05-01T14:27:26.958Z</time></trkpt><trkpt lat="48.7994074" lon="4.9581504"><ele>134.0</ele><time>2026-05-01T14:27:27.963Z</time></trkpt><trkpt lat="48.7993501" lon="4.958209"><ele>134.0</ele><time>2026-05-01T14:27:28.962Z</time></trkpt><trkpt lat="48.7992888" lon="4.9582602"><ele>134.0</ele><time>2026-05-01T14:27:29.975Z</time></trkpt><trkpt lat="48.7992245" lon="4.9583077"><ele>134.0</ele><time>2026-05-01T14:27:30.965Z</time></trkpt><trkpt lat="48.799162" lon="4.9583508"><ele>134.0</ele><time>2026-05-01T14:27:31.962Z</time></trkpt><trkpt lat="48.7991031" lon="4.9583995"><ele>134.0</ele><time>2026-05-01T14:27:32.967Z</time></trkpt><trkpt lat="48.7990441" lon="4.9584577"><ele>134.0</ele><time>2026-05-01T14:27:33.965Z</time></trkpt><trkpt lat="48.7989861" lon="4.9585199"><ele>133.71428571428572</ele><time>2026-05-01T14:27:34.976Z</time></trkpt><trkpt lat="48.7989301" lon="4.9585767"><ele>133.42857142857142</ele><time>2026-05-01T14:27:35.982Z</time></trkpt><trkpt lat="48.7988696" lon="4.9586275"><ele>133.14285714285714</ele><time>2026-05-01T14:27:36.962Z</time></trkpt><trkpt lat="48.7988104" lon="4.9586814"><ele>132.85714285714286</ele><time>2026-05-01T14:27:37.97Z</time></trkpt><trkpt lat="48.7987512" lon="4.9587247"><ele>132.57142857142858</ele><time>2026-05-01T14:27:38.971Z</time></trkpt><trkpt lat="48.7986897" lon="4.9587695"><ele>132.28571428571428</ele><time>2026-05-01T14:27:39.97Z</time></trkpt><trkpt lat="48.7986247" lon="4.958814"><ele>132.0</ele><time>2026-05-01T14:27:40.975Z</time></trkpt><trkpt lat="48.7985587" lon="4.9588555"><ele>132.0</ele><time>2026-05-01T14:27:41.964Z</time></trkpt><trkpt lat="48.7984935" lon="4.9588912"><ele>132.0</ele><time>2026-05-01T14:27:42.966Z</time></trkpt><trkpt lat="48.7984302" lon="4.9589188"><ele>132.0</ele><time>2026-05-01T14:27:43.965Z</time></trkpt><trkpt lat="48.7983344" lon="4.9589691"><ele>132.0</ele><time>2026-05-01T14:27:45.957Z</time></trkpt><trkpt lat="48.7982438" lon="4.9590025"><ele>132.0</ele><time>2026-05-01T14:27:48.97Z</time></trkpt><trkpt lat="48.7981388" lon="4.959019"><ele>132.0</ele><time>2026-05-01T14:27:50.972Z</time></trkpt><trkpt lat="48.7980661" lon="4.9590394"><ele>132.0</ele><time>2026-05-01T14:27:51.959Z</time></trkpt><trkpt lat="48.797982" lon="4.9590616"><ele>132.0</ele><time>2026-05-01T14:27:52.964Z</time></trkpt><trkpt lat="48.7978913" lon="4.959104"><ele>132.0</ele><time>2026-05-01T14:27:53.956Z</time></trkpt><trkpt lat="48.7977907" lon="4.9591362"><ele>132.0</ele><time>2026-05-01T14:27:54.962Z</time></trkpt><trkpt lat="48.7976801" lon="4.9591611"><ele>132.0</ele><time>2026-05-01T14:27:55.974Z</time></trkpt><trkpt lat="48.797567" lon="4.9591938"><ele>132.0</ele><time>2026-05-01T14:27:56.965Z</time></trkpt><trkpt lat="48.7974419" lon="4.9592366"><ele>132.0</ele><time>2026-05-01T14:27:57.959Z</time></trkpt><trkpt lat="48.7973149" lon="4.9592888"><ele>132.0</ele><time>2026-05-01T14:27:58.978Z</time></trkpt><trkpt lat="48.79718" lon="4.9593497"><ele>132.0</ele><time>2026-05-01T14:27:59.965Z</time></trkpt><trkpt lat="48.7970408" lon="4.9594134"><ele>132.0</ele><time>2026-05-01T14:28:00.962Z</time></trkpt><trkpt lat="48.7968968" lon="4.9594807"><ele>132.0</ele><time>2026-05-01T14:28:01.963Z</time></trkpt><trkpt lat="48.7967495" lon="4.9595537"><ele>132.0</ele><time>2026-05-01T14:28:02.973Z</time></trkpt><trkpt lat="48.7965972" lon="4.9596246"><ele>132.0</ele><time>2026-05-01T14:28:03.964Z</time></trkpt><trkpt lat="48.7964424" lon="4.9597006"><ele>132.0</ele><time>2026-05-01T14:28:04.96Z</time></trkpt><trkpt lat="48.796287" lon="4.9597905"><ele>132.0</ele><time>2026-05-01T14:28:05.969Z</time></trkpt><trkpt lat="48.7961323" lon="4.9598915"><ele>132.0</ele><time>2026-05-01T14:28:06.955Z</time></trkpt><trkpt lat="48.7959784" lon="4.9599982"><ele>132.0</ele><time>2026-05-01T14:28:07.98Z</time></trkpt><trkpt lat="48.795827" lon="4.9601076"><ele>132.0</ele><time>2026-05-01T14:28:08.965Z</time></trkpt><trkpt lat="48.7956699" lon="4.9602233"><ele>132.33333333333334</ele><time>2026-05-01T14:28:09.967Z</time></trkpt><trkpt lat="48.7955123" lon="4.9603375"><ele>132.66666666666669</ele><time>2026-05-01T14:28:10.962Z</time></trkpt><trkpt lat="48.7953496" lon="4.9604506"><ele>133.0</ele><time>2026-05-01T14:28:11.97Z</time></trkpt><trkpt lat="48.7951858" lon="4.9605509"><ele>133.66666666666669</ele><time>2026-05-01T14:28:12.962Z</time></trkpt><trkpt lat="48.7950232" lon="4.9606474"><ele>134.33333333333334</ele><time>2026-05-01T14:28:13.965Z</time></trkpt><trkpt lat="48.7948616" lon="4.9607407"><ele>135.0</ele><time>2026-05-01T14:28:14.976Z</time></trkpt><trkpt lat="48.7946982" lon="4.9608214"><ele>135.33333333333334</ele><time>2026-05-01T14:28:15.972Z</time></trkpt><trkpt lat="48.7945279" lon="4.9608876"><ele>135.66666666666669</ele><time>2026-05-01T14:28:16.968Z</time></trkpt><trkpt lat="48.7943596" lon="4.9609334"><ele>136.0</ele><time>2026-05-01T14:28:18.003Z</time></trkpt><trkpt lat="48.7941897" lon="4.9609664"><ele>137.66666666666669</ele><time>2026-05-01T14:28:18.961Z</time></trkpt><trkpt lat="48.7940183" lon="4.9609745"><ele>139.33333333333334</ele><time>2026-05-01T14:28:19.971Z</time></trkpt><trkpt lat="48.793843" lon="4.9609554"><ele>141.0</ele><time>2026-05-01T14:28:20.966Z</time></trkpt><trkpt lat="48.793669" lon="4.9609109"><ele>142.33333333333334</ele><time>2026-05-01T14:28:21.961Z</time></trkpt><trkpt lat="48.7935032" lon="4.9608447"><ele>143.66666666666669</ele><time>2026-05-01T14:28:22.964Z</time></trkpt><trkpt lat="48.7933444" lon="4.9607399"><ele>145.0</ele><time>2026-05-01T14:28:23.969Z</time></trkpt><trkpt lat="48.7931936" lon="4.960587"><ele>145.0</ele><time>2026-05-01T14:28:24.965Z</time></trkpt><trkpt lat="48.7930568" lon="4.9604159"><ele>145.0</ele><time>2026-05-01T14:28:25.962Z</time></trkpt><trkpt lat="48.7929397" lon="4.9602089"><ele>145.0</ele><time>2026-05-01T14:28:26.968Z</time></trkpt><trkpt lat="48.7928517" lon="4.9599654"><ele>146.0</ele><time>2026-05-01T14:28:27.964Z</time></trkpt><trkpt lat="48.7927862" lon="4.9597196"><ele>147.0</ele><time>2026-05-01T14:28:28.96Z</time></trkpt><trkpt lat="48.7927348" lon="4.9594875"><ele>148.0</ele><time>2026-05-01T14:28:29.961Z</time></trkpt><trkpt lat="48.7926982" lon="4.9592585"><ele>148.5</ele><time>2026-05-01T14:28:30.966Z</time></trkpt><trkpt lat="48.7926672" lon="4.9590508"><ele>149.0</ele><time>2026-05-01T14:28:31.968Z</time></trkpt><trkpt lat="48.7926394" lon="4.958851"><ele>149.5</ele><time>2026-05-01T14:28:32.961Z</time></trkpt><trkpt lat="48.7926109" lon="4.9586626"><ele>150.0</ele><time>2026-05-01T14:28:34.007Z</time></trkpt><trkpt lat="48.7925833" lon="4.9584944"><ele>150.0</ele><time>2026-05-01T14:28:34.964Z</time></trkpt><trkpt lat="48.7925521" lon="4.9583512"><ele>150.0</ele><time>2026-05-01T14:28:35.963Z</time></trkpt><trkpt lat="48.7925171" lon="4.9582112"><ele>150.0</ele><time>2026-05-01T14:28:36.961Z</time></trkpt><trkpt lat="48.7924752" lon="4.958072"><ele>150.0</ele><time>2026-05-01T14:28:37.96Z</time></trkpt><trkpt lat="48.7924252" lon="4.9579396"><ele>150.0</ele><time>2026-05-01T14:28:38.963Z</time></trkpt><trkpt lat="48.7923621" lon="4.9578089"><ele>150.0</ele><time>2026-05-01T14:28:39.961Z</time></trkpt><trkpt lat="48.7922965" lon="4.9576723"><ele>150.0</ele><time>2026-05-01T14:28:40.959Z</time></trkpt><trkpt lat="48.7922279" lon="4.9575381"><ele>150.0</ele><time>2026-05-01T14:28:41.973Z</time></trkpt><trkpt lat="48.7921633" lon="4.9573945"><ele>150.0</ele><time>2026-05-01T14:28:42.964Z</time></trkpt><trkpt lat="48.792093" lon="4.957255"><ele>150.0</ele><time>2026-05-01T14:28:43.97Z</time></trkpt><trkpt lat="48.7920246" lon="4.957114"><ele>150.0</ele><time>2026-05-01T14:28:44.962Z</time></trkpt><trkpt lat="48.7919536" lon="4.9569747"><ele>150.0</ele><time>2026-05-01T14:28:45.965Z</time></trkpt><trkpt lat="48.7918826" lon="4.95683"><ele>150.0</ele><time>2026-05-01T14:28:46.971Z</time></trkpt><trkpt lat="48.7918071" lon="4.9566877"><ele>150.5</ele><time>2026-05-01T14:28:47.959Z</time></trkpt><trkpt lat="48.7917399" lon="4.9565421"><ele>151.0</ele><time>2026-05-01T14:28:48.96Z</time></trkpt><trkpt lat="48.7916668" lon="4.9564001"><ele>151.5</ele><time>2026-05-01T14:28:49.961Z</time></trkpt><trkpt lat="48.7915936" lon="4.9562618"><ele>152.0</ele><time>2026-05-01T14:28:50.968Z</time></trkpt><trkpt lat="48.7915212" lon="4.9561144"><ele>152.0</ele><time>2026-05-01T14:28:51.963Z</time></trkpt><trkpt lat="48.7914525" lon="4.9559613"><ele>152.0</ele><time>2026-05-01T14:28:52.965Z</time></trkpt><trkpt lat="48.7913863" lon="4.955799"><ele>152.0</ele><time>2026-05-01T14:28:53.966Z</time></trkpt><trkpt lat="48.7913262" lon="4.9556322"><ele>152.0</ele><time>2026-05-01T14:28:54.964Z</time></trkpt><trkpt lat="48.7912759" lon="4.9554565"><ele>151.75</ele><time>2026-05-01T14:28:55.966Z</time></trkpt><trkpt lat="48.7912303" lon="4.9552765"><ele>151.5</ele><time>2026-05-01T14:28:56.957Z</time></trkpt><trkpt lat="48.791199" lon="4.9550921"><ele>151.25</ele><time>2026-05-01T14:28:57.962Z</time></trkpt><trkpt lat="48.7911745" lon="4.954905"><ele>151.0</ele><time>2026-05-01T14:28:58.958Z</time></trkpt><trkpt lat="48.791145" lon="4.9547129"><ele>151.25</ele><time>2026-05-01T14:28:59.966Z</time></trkpt><trkpt lat="48.7911148" lon="4.954519"><ele>151.5</ele><time>2026-05-01T14:29:00.962Z</time></trkpt><trkpt lat="48.7910833" lon="4.9543224"><ele>151.75</ele><time>2026-05-01T14:29:01.966Z</time></trkpt><trkpt lat="48.7910523" lon="4.9541285"><ele>152.0</ele><time>2026-05-01T14:29:02.964Z</time></trkpt><trkpt lat="48.7910255" lon="4.9539289"><ele>152.5</ele><time>2026-05-01T14:29:03.964Z</time></trkpt><trkpt lat="48.7909943" lon="4.9537279"><ele>153.0</ele><time>2026-05-01T14:29:04.964Z</time></trkpt><trkpt lat="48.7909608" lon="4.9535261"><ele>153.5</ele><time>2026-05-01T14:29:05.963Z</time></trkpt><trkpt lat="48.7909292" lon="4.9533287"><ele>154.0</ele><time>2026-05-01T14:29:06.959Z</time></trkpt><trkpt lat="48.7908961" lon="4.9531325"><ele>154.0</ele><time>2026-05-01T14:29:07.96Z</time></trkpt><trkpt lat="48.7908673" lon="4.9529419"><ele>154.0</ele><time>2026-05-01T14:29:08.967Z</time></trkpt><trkpt lat="48.7908384" lon="4.9527498"><ele>154.0</ele><time>2026-05-01T14:29:09.963Z</time></trkpt><trkpt lat="48.7908075" lon="4.9525513"><ele>154.0</ele><time>2026-05-01T14:29:10.965Z</time></trkpt><trkpt lat="48.7907761" lon="4.9523488"><ele>154.0</ele><time>2026-05-01T14:29:11.963Z</time></trkpt><trkpt lat="48.7907431" lon="4.9521437"><ele>154.0</ele><time>2026-05-01T14:29:12.961Z</time></trkpt><trkpt lat="48.7907114" lon="4.951938"><ele>154.0</ele><time>2026-05-01T14:29:13.959Z</time></trkpt><trkpt lat="48.7906772" lon="4.9517285"><ele>154.0</ele><time>2026-05-01T14:29:14.963Z</time></trkpt><trkpt lat="48.7906473" lon="4.9515221"><ele>153.75</ele><time>2026-05-01T14:29:15.957Z</time></trkpt><trkpt lat="48.7906131" lon="4.9513175"><ele>153.5</ele><time>2026-05-01T14:29:16.961Z</time></trkpt><trkpt lat="48.7905833" lon="4.951108"><ele>153.25</ele><time>2026-05-01T14:29:17.968Z</time></trkpt><trkpt lat="48.7905549" lon="4.9508968"><ele>153.0</ele><time>2026-05-01T14:29:18.966Z</time></trkpt><trkpt lat="48.7905254" lon="4.9506831"><ele>153.0</ele><time>2026-05-01T14:29:19.96Z</time></trkpt><trkpt lat="48.7904924" lon="4.9504725"><ele>153.0</ele><time>2026-05-01T14:29:20.961Z</time></trkpt><trkpt lat="48.7904548" lon="4.950266"><ele>153.0</ele><time>2026-05-01T14:29:21.963Z</time></trkpt><trkpt lat="48.7904155" lon="4.9500593"><ele>153.0</ele><time>2026-05-01T14:29:22.968Z</time></trkpt><trkpt lat="48.7903692" lon="4.9498525"><ele>153.0</ele><time>2026-05-01T14:29:23.962Z</time></trkpt><trkpt lat="48.7903267" lon="4.9496466"><ele>153.0</ele><time>2026-05-01T14:29:24.959Z</time></trkpt><trkpt lat="48.7902767" lon="4.9494357"><ele>153.0</ele><time>2026-05-01T14:29:25.967Z</time></trkpt><trkpt lat="48.7902199" lon="4.9492261"><ele>153.0</ele><time>2026-05-01T14:29:26.957Z</time></trkpt><trkpt lat="48.7901589" lon="4.9490112"><ele>153.0</ele><time>2026-05-01T14:29:27.962Z</time></trkpt><trkpt lat="48.7900897" lon="4.9487877"><ele>153.0</ele><time>2026-05-01T14:29:28.965Z</time></trkpt><trkpt lat="48.7900107" lon="4.9485586"><ele>153.0</ele><time>2026-05-01T14:29:29.961Z</time></trkpt><trkpt lat="48.7899274" lon="4.9483221"><ele>152.66666666666666</ele><time>2026-05-01T14:29:30.999Z</time></trkpt><trkpt lat="48.7898353" lon="4.9480637"><ele>152.33333333333331</ele><time>2026-05-01T14:29:31.976Z</time></trkpt><trkpt lat="48.7897363" lon="4.9478143"><ele>152.0</ele><time>2026-05-01T14:29:32.971Z</time></trkpt><trkpt lat="48.789633" lon="4.9475626"><ele>151.66666666666666</ele><time>2026-05-01T14:29:33.966Z</time></trkpt><trkpt lat="48.7895298" lon="4.9473072"><ele>151.33333333333334</ele><time>2026-05-01T14:29:34.967Z</time></trkpt><trkpt lat="48.7894306" lon="4.94705"><ele>151.0</ele><time>2026-05-01T14:29:35.971Z</time></trkpt><trkpt lat="48.7893258" lon="4.9467798"><ele>151.0</ele><time>2026-05-01T14:29:36.98Z</time></trkpt><trkpt lat="48.7892128" lon="4.9465029"><ele>151.0</ele><time>2026-05-01T14:29:37.966Z</time></trkpt><trkpt lat="48.7890811" lon="4.9462128"><ele>151.0</ele><time>2026-05-01T14:29:38.971Z</time></trkpt><trkpt lat="48.7889492" lon="4.9459333"><ele>150.0</ele><time>2026-05-01T14:29:39.967Z</time></trkpt><trkpt lat="48.7888188" lon="4.9456446"><ele>149.0</ele><time>2026-05-01T14:29:40.967Z</time></trkpt><trkpt lat="48.7886851" lon="4.9453625"><ele>149.0</ele><time>2026-05-01T14:29:41.974Z</time></trkpt><trkpt lat="48.7885561" lon="4.945077"><ele>149.0</ele><time>2026-05-01T14:29:42.967Z</time></trkpt><trkpt lat="48.7884362" lon="4.9448086"><ele>149.0</ele><time>2026-05-01T14:29:43.971Z</time></trkpt><trkpt lat="48.7883219" lon="4.9445446"><ele>149.0</ele><time>2026-05-01T14:29:44.965Z</time></trkpt><trkpt lat="48.7882088" lon="4.9442758"><ele>149.0</ele><time>2026-05-01T14:29:45.965Z</time></trkpt><trkpt lat="48.7880862" lon="4.9439824"><ele>149.0</ele><time>2026-05-01T14:29:46.98Z</time></trkpt><trkpt lat="48.7879667" lon="4.9437058"><ele>148.66666666666666</ele><time>2026-05-01T14:29:47.969Z</time></trkpt><trkpt lat="48.7878553" lon="4.9434476"><ele>148.33333333333334</ele><time>2026-05-01T14:29:48.974Z</time></trkpt><trkpt lat="48.7877476" lon="4.9431989"><ele>148.0</ele><time>2026-05-01T14:29:49.972Z</time></trkpt><trkpt lat="48.7876375" lon="4.9429378"><ele>146.66666666666669</ele><time>2026-05-01T14:29:50.968Z</time></trkpt><trkpt lat="48.7875231" lon="4.9426549"><ele>145.33333333333334</ele><time>2026-05-01T14:29:51.966Z</time></trkpt><trkpt lat="48.7874229" lon="4.9424056"><ele>144.0</ele><time>2026-05-01T14:29:52.966Z</time></trkpt><trkpt lat="48.7873355" lon="4.9421649"><ele>144.0</ele><time>2026-05-01T14:29:53.975Z</time></trkpt><trkpt lat="48.7872402" lon="4.9419184"><ele>144.0</ele><time>2026-05-01T14:29:54.974Z</time></trkpt><trkpt lat="48.7871451" lon="4.9416863"><ele>144.0</ele><time>2026-05-01T14:29:55.977Z</time></trkpt><trkpt lat="48.7870425" lon="4.941442"><ele>144.0</ele><time>2026-05-01T14:29:56.972Z</time></trkpt><trkpt lat="48.7869374" lon="4.9411849"><ele>144.0</ele><time>2026-05-01T14:29:57.964Z</time></trkpt><trkpt lat="48.7868486" lon="4.9408594"><ele>144.0</ele><time>2026-05-01T14:29:58.96Z</time></trkpt><trkpt lat="48.7867137" lon="4.9405684"><ele>142.5</ele><time>2026-05-01T14:29:59.966Z</time></trkpt><trkpt lat="48.7865828" lon="4.9402711"><ele>141.0</ele><time>2026-05-01T14:30:00.961Z</time></trkpt><trkpt lat="48.7864693" lon="4.9399829"><ele>141.0</ele><time>2026-05-01T14:30:01.968Z</time></trkpt><trkpt lat="48.7863442" lon="4.9396996"><ele>141.0</ele><time>2026-05-01T14:30:02.973Z</time></trkpt><trkpt lat="48.7862108" lon="4.9394277"><ele>141.0</ele><time>2026-05-01T14:30:03.966Z</time></trkpt><trkpt lat="48.7860774" lon="4.9391483"><ele>140.66666666666666</ele><time>2026-05-01T14:30:04.962Z</time></trkpt><trkpt lat="48.7859547" lon="4.9388673"><ele>140.33333333333331</ele><time>2026-05-01T14:30:05.968Z</time></trkpt><trkpt lat="48.7858343" lon="4.9385858"><ele>140.0</ele><time>2026-05-01T14:30:06.961Z</time></trkpt><trkpt lat="48.785712" lon="4.9383077"><ele>140.0</ele><time>2026-05-01T14:30:07.962Z</time></trkpt><trkpt lat="48.7855887" lon="4.9380283"><ele>140.0</ele><time>2026-05-01T14:30:08.964Z</time></trkpt><trkpt lat="48.7854696" lon="4.9377483"><ele>140.0</ele><time>2026-05-01T14:30:09.963Z</time></trkpt><trkpt lat="48.7853516" lon="4.937466"><ele>140.0</ele><time>2026-05-01T14:30:10.964Z</time></trkpt><trkpt lat="48.785235" lon="4.9371866"><ele>140.0</ele><time>2026-05-01T14:30:11.961Z</time></trkpt><trkpt lat="48.7851117" lon="4.9369165"><ele>140.0</ele><time>2026-05-01T14:30:12.961Z</time></trkpt><trkpt lat="48.7849917" lon="4.9366416"><ele>140.0</ele><time>2026-05-01T14:30:13.957Z</time></trkpt><trkpt lat="48.7848713" lon="4.9363687"><ele>140.0</ele><time>2026-05-01T14:30:14.959Z</time></trkpt><trkpt lat="48.7847531" lon="4.936098"><ele>140.0</ele><time>2026-05-01T14:30:15.96Z</time></trkpt><trkpt lat="48.7846313" lon="4.9358198"><ele>141.0</ele><time>2026-05-01T14:30:16.958Z</time></trkpt><trkpt lat="48.7845108" lon="4.9355472"><ele>142.0</ele><time>2026-05-01T14:30:17.959Z</time></trkpt><trkpt lat="48.7843976" lon="4.935273"><ele>143.0</ele><time>2026-05-01T14:30:18.961Z</time></trkpt><trkpt lat="48.7842855" lon="4.9350013"><ele>141.66666666666666</ele><time>2026-05-01T14:30:19.963Z</time></trkpt><trkpt lat="48.7841684" lon="4.9347283"><ele>140.33333333333334</ele><time>2026-05-01T14:30:20.959Z</time></trkpt><trkpt lat="48.784056" lon="4.934451"><ele>139.0</ele><time>2026-05-01T14:30:21.966Z</time></trkpt><trkpt lat="48.7839437" lon="4.9341764"><ele>139.0</ele><time>2026-05-01T14:30:22.959Z</time></trkpt><trkpt lat="48.7838364" lon="4.9339046"><ele>139.0</ele><time>2026-05-01T14:30:23.966Z</time></trkpt><trkpt lat="48.7837335" lon="4.9336195"><ele>139.0</ele><time>2026-05-01T14:30:24.968Z</time></trkpt><trkpt lat="48.7836426" lon="4.9333279"><ele>138.33333333333334</ele><time>2026-05-01T14:30:25.961Z</time></trkpt><trkpt lat="48.7835578" lon="4.9330319"><ele>137.66666666666666</ele><time>2026-05-01T14:30:26.962Z</time></trkpt><trkpt lat="48.783484" lon="4.9327264"><ele>137.0</ele><time>2026-05-01T14:30:27.964Z</time></trkpt><trkpt lat="48.7834129" lon="4.9324194"><ele>137.0</ele><time>2026-05-01T14:30:28.966Z</time></trkpt><trkpt lat="48.7833533" lon="4.9321125"><ele>137.0</ele><time>2026-05-01T14:30:29.959Z</time></trkpt><trkpt lat="48.7833042" lon="4.9318051"><ele>137.0</ele><time>2026-05-01T14:30:30.959Z</time></trkpt><trkpt lat="48.7832688" lon="4.9314915"><ele>137.33333333333331</ele><time>2026-05-01T14:30:31.962Z</time></trkpt><trkpt lat="48.7832466" lon="4.9311689"><ele>137.66666666666666</ele><time>2026-05-01T14:30:32.968Z</time></trkpt><trkpt lat="48.7832449" lon="4.930851"><ele>138.0</ele><time>2026-05-01T14:30:33.961Z</time></trkpt><trkpt lat="48.783265" lon="4.9305388"><ele>138.33333333333334</ele><time>2026-05-01T14:30:34.964Z</time></trkpt><trkpt lat="48.7833015" lon="4.9302309"><ele>138.66666666666669</ele><time>2026-05-01T14:30:35.962Z</time></trkpt><trkpt lat="48.783345" lon="4.9299252"><ele>139.0</ele><time>2026-05-01T14:30:36.958Z</time></trkpt><trkpt lat="48.7833912" lon="4.9296175"><ele>138.33333333333334</ele><time>2026-05-01T14:30:37.977Z</time></trkpt><trkpt lat="48.7834351" lon="4.9293168"><ele>137.66666666666666</ele><time>2026-05-01T14:30:38.96Z</time></trkpt><trkpt lat="48.7834812" lon="4.9290075"><ele>137.0</ele><time>2026-05-01T14:30:39.968Z</time></trkpt><trkpt lat="48.7835301" lon="4.9286978"><ele>139.0</ele><time>2026-05-01T14:30:40.961Z</time></trkpt><trkpt lat="48.7835916" lon="4.9283991"><ele>141.0</ele><time>2026-05-01T14:30:41.966Z</time></trkpt><trkpt lat="48.7836711" lon="4.9281097"><ele>143.0</ele><time>2026-05-01T14:30:42.957Z</time></trkpt><trkpt lat="48.7837648" lon="4.9278315"><ele>143.0</ele><time>2026-05-01T14:30:43.959Z</time></trkpt><trkpt lat="48.7838735" lon="4.9275634"><ele>143.0</ele><time>2026-05-01T14:30:44.962Z</time></trkpt><trkpt lat="48.783989" lon="4.9273214"><ele>143.0</ele><time>2026-05-01T14:30:45.964Z</time></trkpt><trkpt lat="48.7841121" lon="4.9271027"><ele>141.66666666666666</ele><time>2026-05-01T14:30:47.039Z</time></trkpt><trkpt lat="48.7842248" lon="4.9269124"><ele>140.33333333333334</ele><time>2026-05-01T14:30:47.963Z</time></trkpt><trkpt lat="48.7843425" lon="4.9267235"><ele>139.0</ele><time>2026-05-01T14:30:48.968Z</time></trkpt><trkpt lat="48.7844559" lon="4.9265535"><ele>139.0</ele><time>2026-05-01T14:30:49.967Z</time></trkpt><trkpt lat="48.7845619" lon="4.9263929"><ele>139.0</ele><time>2026-05-01T14:30:50.969Z</time></trkpt><trkpt lat="48.7846572" lon="4.9262321"><ele>139.0</ele><time>2026-05-01T14:30:51.959Z</time></trkpt><trkpt lat="48.7847502" lon="4.9260798"><ele>139.0</ele><time>2026-05-01T14:30:52.967Z</time></trkpt><trkpt lat="48.7848352" lon="4.9259415"><ele>138.0</ele><time>2026-05-01T14:30:53.958Z</time></trkpt><trkpt lat="48.7849158" lon="4.9258032"><ele>137.0</ele><time>2026-05-01T14:30:54.965Z</time></trkpt><trkpt lat="48.7849943" lon="4.9256601"><ele>136.0</ele><time>2026-05-01T14:30:55.971Z</time></trkpt><trkpt lat="48.7850735" lon="4.9255124"><ele>135.0</ele><time>2026-05-01T14:30:56.962Z</time></trkpt><trkpt lat="48.7851504" lon="4.9253529"><ele>135.5</ele><time>2026-05-01T14:30:57.963Z</time></trkpt><trkpt lat="48.7852254" lon="4.9251842"><ele>136.0</ele><time>2026-05-01T14:30:58.965Z</time></trkpt><trkpt lat="48.7852959" lon="4.925014"><ele>136.5</ele><time>2026-05-01T14:30:59.963Z</time></trkpt><trkpt lat="48.7853673" lon="4.9248492"><ele>137.0</ele><time>2026-05-01T14:31:00.959Z</time></trkpt><trkpt lat="48.7854357" lon="4.9246778"><ele>137.0</ele><time>2026-05-01T14:31:01.962Z</time></trkpt><trkpt lat="48.7854975" lon="4.9245054"><ele>137.0</ele><time>2026-05-01T14:31:02.964Z</time></trkpt><trkpt lat="48.7855593" lon="4.9243262"><ele>137.0</ele><time>2026-05-01T14:31:03.966Z</time></trkpt><trkpt lat="48.7856181" lon="4.9241521"><ele>137.0</ele><time>2026-05-01T14:31:04.957Z</time></trkpt><trkpt lat="48.7856776" lon="4.9239764"><ele>135.75</ele><time>2026-05-01T14:31:05.964Z</time></trkpt><trkpt lat="48.7857338" lon="4.9237987"><ele>134.5</ele><time>2026-05-01T14:31:06.964Z</time></trkpt><trkpt lat="48.7857913" lon="4.9236218"><ele>133.25</ele><time>2026-05-01T14:31:07.963Z</time></trkpt><trkpt lat="48.7858493" lon="4.9234448"><ele>132.0</ele><time>2026-05-01T14:31:08.962Z</time></trkpt><trkpt lat="48.7859114" lon="4.9232658"><ele>131.75</ele><time>2026-05-01T14:31:09.962Z</time></trkpt><trkpt lat="48.7859756" lon="4.9230893"><ele>131.5</ele><time>2026-05-01T14:31:10.959Z</time></trkpt><trkpt lat="48.7860379" lon="4.9229103"><ele>131.25</ele><time>2026-05-01T14:31:11.969Z</time></trkpt><trkpt lat="48.7860989" lon="4.922733"><ele>131.0</ele><time>2026-05-01T14:31:12.964Z</time></trkpt><trkpt lat="48.7861603" lon="4.922559"><ele>131.0</ele><time>2026-05-01T14:31:13.969Z</time></trkpt><trkpt lat="48.7862195" lon="4.9223939"><ele>131.0</ele><time>2026-05-01T14:31:14.956Z</time></trkpt><trkpt lat="48.7862756" lon="4.9222285"><ele>131.0</ele><time>2026-05-01T14:31:15.966Z</time></trkpt><trkpt lat="48.786335" lon="4.9220661"><ele>131.0</ele><time>2026-05-01T14:31:16.957Z</time></trkpt><trkpt lat="48.7863932" lon="4.921902"><ele>131.0</ele><time>2026-05-01T14:31:17.961Z</time></trkpt><trkpt lat="48.7864487" lon="4.9217358"><ele>131.0</ele><time>2026-05-01T14:31:18.961Z</time></trkpt><trkpt lat="48.7865076" lon="4.9215729"><ele>131.0</ele><time>2026-05-01T14:31:19.96Z</time></trkpt><trkpt lat="48.7865641" lon="4.9214158"><ele>131.0</ele><time>2026-05-01T14:31:20.962Z</time></trkpt><trkpt lat="48.7866089" lon="4.9212594"><ele>130.75</ele><time>2026-05-01T14:31:21.963Z</time></trkpt><trkpt lat="48.7866399" lon="4.921101"><ele>130.5</ele><time>2026-05-01T14:31:22.958Z</time></trkpt><trkpt lat="48.7866433" lon="4.9209394"><ele>130.25</ele><time>2026-05-01T14:31:23.969Z</time></trkpt><trkpt lat="48.7866197" lon="4.9207676"><ele>130.0</ele><time>2026-05-01T14:31:24.963Z</time></trkpt><trkpt lat="48.7865841" lon="4.9205946"><ele>130.0</ele><time>2026-05-01T14:31:25.96Z</time></trkpt><trkpt lat="48.7865515" lon="4.9204263"><ele>130.0</ele><time>2026-05-01T14:31:26.962Z</time></trkpt><trkpt lat="48.7865161" lon="4.9202585"><ele>130.0</ele><time>2026-05-01T14:31:27.962Z</time></trkpt><trkpt lat="48.7864827" lon="4.9200946"><ele>130.0</ele><time>2026-05-01T14:31:28.964Z</time></trkpt><trkpt lat="48.786452" lon="4.919933"><ele>129.8</ele><time>2026-05-01T14:31:29.959Z</time></trkpt><trkpt lat="48.7864236" lon="4.9197782"><ele>129.6</ele><time>2026-05-01T14:31:30.964Z</time></trkpt><trkpt lat="48.7863916" lon="4.9196313"><ele>129.4</ele><time>2026-05-01T14:31:31.969Z</time></trkpt><trkpt lat="48.7863609" lon="4.9194772"><ele>129.2</ele><time>2026-05-01T14:31:32.967Z</time></trkpt><trkpt lat="48.7863328" lon="4.9193283"><ele>129.0</ele><time>2026-05-01T14:31:33.959Z</time></trkpt><trkpt lat="48.7863028" lon="4.9191769"><ele>129.0</ele><time>2026-05-01T14:31:34.963Z</time></trkpt><trkpt lat="48.7862725" lon="4.9190256"><ele>129.0</ele><time>2026-05-01T14:31:35.966Z</time></trkpt><trkpt lat="48.7862406" lon="4.9188748"><ele>129.0</ele><time>2026-05-01T14:31:36.966Z</time></trkpt><trkpt lat="48.7862061" lon="4.9187247"><ele>129.0</ele><time>2026-05-01T14:31:37.967Z</time></trkpt><trkpt lat="48.7861795" lon="4.9185721"><ele>129.0</ele><time>2026-05-01T14:31:38.964Z</time></trkpt><trkpt lat="48.7861523" lon="4.9184165"><ele>129.2</ele><time>2026-05-01T14:31:39.96Z</time></trkpt><trkpt lat="48.7861242" lon="4.9182647"><ele>129.4</ele><time>2026-05-01T14:31:40.958Z</time></trkpt><trkpt lat="48.7860894" lon="4.9181126"><ele>129.6</ele><time>2026-05-01T14:31:41.959Z</time></trkpt><trkpt lat="48.7860583" lon="4.9179561"><ele>129.8</ele><time>2026-05-01T14:31:42.964Z</time></trkpt><trkpt lat="48.7860337" lon="4.9178041"><ele>130.0</ele><time>2026-05-01T14:31:43.967Z</time></trkpt><trkpt lat="48.7860044" lon="4.917653"><ele>130.4</ele><time>2026-05-01T14:31:44.965Z</time></trkpt><trkpt lat="48.7859745" lon="4.9175076"><ele>130.8</ele><time>2026-05-01T14:31:45.961Z</time></trkpt><trkpt lat="48.7859472" lon="4.9173682"><ele>131.2</ele><time>2026-05-01T14:31:46.963Z</time></trkpt><trkpt lat="48.7859165" lon="4.917229"><ele>131.6</ele><time>2026-05-01T14:31:47.962Z</time></trkpt><trkpt lat="48.78589" lon="4.9170926"><ele>132.0</ele><time>2026-05-01T14:31:48.959Z</time></trkpt><trkpt lat="48.7858588" lon="4.9169548"><ele>132.0</ele><time>2026-05-01T14:31:49.964Z</time></trkpt><trkpt lat="48.7858287" lon="4.9168142"><ele>132.0</ele><time>2026-05-01T14:31:50.959Z</time></trkpt><trkpt lat="48.785797" lon="4.9166775"><ele>132.0</ele><time>2026-05-01T14:31:51.961Z</time></trkpt><trkpt lat="48.7857652" lon="4.9165423"><ele>132.0</ele><time>2026-05-01T14:31:52.959Z</time></trkpt><trkpt lat="48.7857321" lon="4.9164004"><ele>132.0</ele><time>2026-05-01T14:31:53.963Z</time></trkpt><trkpt lat="48.7856984" lon="4.916267"><ele>131.83333333333334</ele><time>2026-05-01T14:31:54.963Z</time></trkpt><trkpt lat="48.7856636" lon="4.9161342"><ele>131.66666666666666</ele><time>2026-05-01T14:31:55.965Z</time></trkpt><trkpt lat="48.7856333" lon="4.9160015"><ele>131.5</ele><time>2026-05-01T14:31:56.965Z</time></trkpt><trkpt lat="48.7856098" lon="4.9158741"><ele>131.33333333333331</ele><time>2026-05-01T14:31:57.965Z</time></trkpt><trkpt lat="48.7855802" lon="4.9157529"><ele>131.16666666666666</ele><time>2026-05-01T14:31:58.961Z</time></trkpt><trkpt lat="48.7855537" lon="4.9156344"><ele>131.0</ele><time>2026-05-01T14:31:59.967Z</time></trkpt><trkpt lat="48.7855305" lon="4.9155264"><ele>130.83333333333331</ele><time>2026-05-01T14:32:00.966Z</time></trkpt><trkpt lat="48.785502" lon="4.9154145"><ele>130.66666666666666</ele><time>2026-05-01T14:32:01.961Z</time></trkpt><trkpt lat="48.7854691" lon="4.9153052"><ele>130.5</ele><time>2026-05-01T14:32:02.964Z</time></trkpt><trkpt lat="48.7854331" lon="4.9151944"><ele>130.33333333333334</ele><time>2026-05-01T14:32:03.961Z</time></trkpt><trkpt lat="48.7853969" lon="4.9150756"><ele>130.16666666666669</ele><time>2026-05-01T14:32:04.962Z</time></trkpt><trkpt lat="48.7853608" lon="4.9149555"><ele>130.0</ele><time>2026-05-01T14:32:05.97Z</time></trkpt><trkpt lat="48.7853237" lon="4.9148332"><ele>129.83333333333334</ele><time>2026-05-01T14:32:06.969Z</time></trkpt><trkpt lat="48.785287" lon="4.9147203"><ele>129.66666666666669</ele><time>2026-05-01T14:32:07.966Z</time></trkpt><trkpt lat="48.7852517" lon="4.9146003"><ele>129.5</ele><time>2026-05-01T14:32:08.966Z</time></trkpt><trkpt lat="48.7852159" lon="4.914483"><ele>129.33333333333334</ele><time>2026-05-01T14:32:09.961Z</time></trkpt><trkpt lat="48.7851798" lon="4.9143687"><ele>129.16666666666666</ele><time>2026-05-01T14:32:10.963Z</time></trkpt><trkpt lat="48.7851468" lon="4.9142579"><ele>129.0</ele><time>2026-05-01T14:32:11.961Z</time></trkpt><trkpt lat="48.7851159" lon="4.9141446"><ele>129.83333333333334</ele><time>2026-05-01T14:32:12.972Z</time></trkpt><trkpt lat="48.785085" lon="4.9140333"><ele>130.66666666666666</ele><time>2026-05-01T14:32:13.961Z</time></trkpt><trkpt lat="48.7850575" lon="4.9139154"><ele>131.5</ele><time>2026-05-01T14:32:14.961Z</time></trkpt><trkpt lat="48.7850314" lon="4.9137922"><ele>132.33333333333331</ele><time>2026-05-01T14:32:15.965Z</time></trkpt><trkpt lat="48.7850083" lon="4.9136725"><ele>133.16666666666666</ele><time>2026-05-01T14:32:16.96Z</time></trkpt><trkpt lat="48.7849798" lon="4.9135643"><ele>134.0</ele><time>2026-05-01T14:32:17.957Z</time></trkpt><trkpt lat="48.7849506" lon="4.9134454"><ele>134.0</ele><time>2026-05-01T14:32:18.97Z</time></trkpt><trkpt lat="48.7849252" lon="4.9133271"><ele>134.0</ele><time>2026-05-01T14:32:19.964Z</time></trkpt><trkpt lat="48.7849002" lon="4.9132131"><ele>134.0</ele><time>2026-05-01T14:32:20.982Z</time></trkpt><trkpt lat="48.7848736" lon="4.9131106"><ele>134.0</ele><time>2026-05-01T14:32:21.959Z</time></trkpt><trkpt lat="48.7848439" lon="4.9130052"><ele>134.0</ele><time>2026-05-01T14:32:22.963Z</time></trkpt><trkpt lat="48.7848151" lon="4.9129015"><ele>134.0</ele><time>2026-05-01T14:32:23.962Z</time></trkpt><trkpt lat="48.7847889" lon="4.912785"><ele>134.0</ele><time>2026-05-01T14:32:24.967Z</time></trkpt><trkpt lat="48.7847598" lon="4.9126692"><ele>134.0</ele><time>2026-05-01T14:32:25.964Z</time></trkpt><trkpt lat="48.7847294" lon="4.9125483"><ele>134.0</ele><time>2026-05-01T14:32:26.965Z</time></trkpt><trkpt lat="48.7846934" lon="4.9124289"><ele>134.0</ele><time>2026-05-01T14:32:27.965Z</time></trkpt><trkpt lat="48.784656" lon="4.9123092"><ele>134.0</ele><time>2026-05-01T14:32:28.962Z</time></trkpt><trkpt lat="48.7846145" lon="4.9121997"><ele>134.0</ele><time>2026-05-01T14:32:29.961Z</time></trkpt><trkpt lat="48.7845696" lon="4.9121029"><ele>133.83333333333331</ele><time>2026-05-01T14:32:30.969Z</time></trkpt><trkpt lat="48.7845321" lon="4.9120098"><ele>133.66666666666666</ele><time>2026-05-01T14:32:31.966Z</time></trkpt><trkpt lat="48.7845214" lon="4.9119068"><ele>133.5</ele><time>2026-05-01T14:32:32.963Z</time></trkpt><trkpt lat="48.7845305" lon="4.911812"><ele>133.33333333333334</ele><time>2026-05-01T14:32:33.99Z</time></trkpt><trkpt lat="48.7845741" lon="4.911731"><ele>133.16666666666669</ele><time>2026-05-01T14:32:34.962Z</time></trkpt><trkpt lat="48.7846445" lon="4.9116278"><ele>133.0</ele><time>2026-05-01T14:32:35.956Z</time></trkpt><trkpt lat="48.7847045" lon="4.9115379"><ele>132.8</ele><time>2026-05-01T14:32:36.968Z</time></trkpt><trkpt lat="48.7847744" lon="4.9114388"><ele>132.60000000000002</ele><time>2026-05-01T14:32:37.967Z</time></trkpt><trkpt lat="48.784838" lon="4.9113301"><ele>132.39999999999998</ele><time>2026-05-01T14:32:38.962Z</time></trkpt><trkpt lat="48.7849094" lon="4.9112305"><ele>132.2</ele><time>2026-05-01T14:32:39.968Z</time></trkpt><trkpt lat="48.7849887" lon="4.9111421"><ele>132.0</ele><time>2026-05-01T14:32:40.969Z</time></trkpt><trkpt lat="48.7850733" lon="4.9110567"><ele>132.0</ele><time>2026-05-01T14:32:41.968Z</time></trkpt><trkpt lat="48.7851509" lon="4.9109665"><ele>132.0</ele><time>2026-05-01T14:32:42.96Z</time></trkpt><trkpt lat="48.7852377" lon="4.9108733"><ele>132.0</ele><time>2026-05-01T14:32:43.962Z</time></trkpt><trkpt lat="48.7853261" lon="4.9107834"><ele>132.0</ele><time>2026-05-01T14:32:44.969Z</time></trkpt><trkpt lat="48.7854153" lon="4.9106988"><ele>132.0</ele><time>2026-05-01T14:32:45.965Z</time></trkpt><trkpt lat="48.785503" lon="4.9106287"><ele>131.4</ele><time>2026-05-01T14:32:46.962Z</time></trkpt><trkpt lat="48.7855825" lon="4.9105616"><ele>130.79999999999998</ele><time>2026-05-01T14:32:47.965Z</time></trkpt><trkpt lat="48.7856636" lon="4.9104977"><ele>130.2</ele><time>2026-05-01T14:32:48.964Z</time></trkpt><trkpt lat="48.785743" lon="4.9104251"><ele>129.6</ele><time>2026-05-01T14:32:49.963Z</time></trkpt><trkpt lat="48.7858211" lon="4.9103473"><ele>129.0</ele><time>2026-05-01T14:32:50.957Z</time></trkpt><trkpt lat="48.7859019" lon="4.9102511"><ele>129.0</ele><time>2026-05-01T14:32:51.964Z</time></trkpt><trkpt lat="48.7859788" lon="4.9101506"><ele>129.0</ele><time>2026-05-01T14:32:52.959Z</time></trkpt><trkpt lat="48.7860581" lon="4.910037"><ele>129.0</ele><time>2026-05-01T14:32:53.962Z</time></trkpt><trkpt lat="48.7861396" lon="4.9099144"><ele>129.0</ele><time>2026-05-01T14:32:54.962Z</time></trkpt><trkpt lat="48.7862184" lon="4.9097938"><ele>129.0</ele><time>2026-05-01T14:32:55.961Z</time></trkpt><trkpt lat="48.7862876" lon="4.9096711"><ele>128.6</ele><time>2026-05-01T14:32:56.959Z</time></trkpt><trkpt lat="48.7863605" lon="4.9095525"><ele>128.2</ele><time>2026-05-01T14:32:57.962Z</time></trkpt><trkpt lat="48.7864293" lon="4.9094408"><ele>127.79999999999998</ele><time>2026-05-01T14:32:58.961Z</time></trkpt><trkpt lat="48.7864927" lon="4.909337"><ele>127.39999999999999</ele><time>2026-05-01T14:32:59.968Z</time></trkpt><trkpt lat="48.7865428" lon="4.9092379"><ele>127.0</ele><time>2026-05-01T14:33:00.964Z</time></trkpt><trkpt lat="48.7865742" lon="4.9091135"><ele>127.0</ele><time>2026-05-01T14:33:01.962Z</time></trkpt><trkpt lat="48.7865706" lon="4.9089732"><ele>126.99999999999999</ele><time>2026-05-01T14:33:02.964Z</time></trkpt><trkpt lat="48.7865439" lon="4.9088388"><ele>126.99999999999999</ele><time>2026-05-01T14:33:03.966Z</time></trkpt><trkpt lat="48.7865082" lon="4.9087049"><ele>127.0</ele><time>2026-05-01T14:33:04.969Z</time></trkpt><trkpt lat="48.7864721" lon="4.9085839"><ele>127.0</ele><time>2026-05-01T14:33:05.96Z</time></trkpt><trkpt lat="48.7864348" lon="4.9084502"><ele>127.0</ele><time>2026-05-01T14:33:06.965Z</time></trkpt><trkpt lat="48.7864098" lon="4.9083248"><ele>126.99999999999999</ele><time>2026-05-01T14:33:07.983Z</time></trkpt><trkpt lat="48.7864103" lon="4.908172"><ele>126.99999999999999</ele><time>2026-05-01T14:33:08.965Z</time></trkpt><trkpt lat="48.7864291" lon="4.908024"><ele>127.0</ele><time>2026-05-01T14:33:09.965Z</time></trkpt><trkpt lat="48.7864741" lon="4.9078875"><ele>127.0</ele><time>2026-05-01T14:33:10.963Z</time></trkpt><trkpt lat="48.7865367" lon="4.9077681"><ele>127.0</ele><time>2026-05-01T14:33:11.964Z</time></trkpt><trkpt lat="48.7866171" lon="4.9076626"><ele>126.99999999999999</ele><time>2026-05-01T14:33:12.958Z</time></trkpt><trkpt lat="48.786699" lon="4.9075663"><ele>126.99999999999999</ele><time>2026-05-01T14:33:13.957Z</time></trkpt><trkpt lat="48.7867846" lon="4.9074581"><ele>127.0</ele><time>2026-05-01T14:33:14.964Z</time></trkpt><trkpt lat="48.7868677" lon="4.9073565"><ele>127.0</ele><time>2026-05-01T14:33:15.966Z</time></trkpt><trkpt lat="48.7869444" lon="4.9072612"><ele>126.6</ele><time>2026-05-01T14:33:16.969Z</time></trkpt><trkpt lat="48.7870109" lon="4.9071748"><ele>126.19999999999999</ele><time>2026-05-01T14:33:17.961Z</time></trkpt><trkpt lat="48.7870711" lon="4.9070643"><ele>125.8</ele><time>2026-05-01T14:33:18.962Z</time></trkpt><trkpt lat="48.7871294" lon="4.9069457"><ele>125.4</ele><time>2026-05-01T14:33:19.963Z</time></trkpt><trkpt lat="48.7871816" lon="4.9068008"><ele>125.0</ele><time>2026-05-01T14:33:20.969Z</time></trkpt><trkpt lat="48.787234" lon="4.9066412"><ele>124.75</ele><time>2026-05-01T14:33:21.963Z</time></trkpt><trkpt lat="48.787293" lon="4.9064671"><ele>124.5</ele><time>2026-05-01T14:33:22.973Z</time></trkpt><trkpt lat="48.7873495" lon="4.9062975"><ele>124.25</ele><time>2026-05-01T14:33:23.968Z</time></trkpt><trkpt lat="48.7874002" lon="4.9061371"><ele>124.0</ele><time>2026-05-01T14:33:24.966Z</time></trkpt><trkpt lat="48.7874628" lon="4.9059949"><ele>124.2</ele><time>2026-05-01T14:33:25.995Z</time></trkpt><trkpt lat="48.7875414" lon="4.9058864"><ele>124.4</ele><time>2026-05-01T14:33:26.966Z</time></trkpt><trkpt lat="48.7876237" lon="4.9058441"><ele>124.6</ele><time>2026-05-01T14:33:27.966Z</time></trkpt><trkpt lat="48.7877339" lon="4.9058308"><ele>124.8</ele><time>2026-05-01T14:33:28.967Z</time></trkpt><trkpt lat="48.7878578" lon="4.905828"><ele>125.0</ele><time>2026-05-01T14:33:29.967Z</time></trkpt><trkpt lat="48.7879792" lon="4.9058217"><ele>125.25</ele><time>2026-05-01T14:33:30.966Z</time></trkpt><trkpt lat="48.788097" lon="4.9057993"><ele>125.5</ele><time>2026-05-01T14:33:31.965Z</time></trkpt><trkpt lat="48.7882158" lon="4.9057883"><ele>125.75</ele><time>2026-05-01T14:33:32.962Z</time></trkpt><trkpt lat="48.7883342" lon="4.9057876"><ele>126.0</ele><time>2026-05-01T14:33:33.963Z</time></trkpt><trkpt lat="48.788461" lon="4.9057754"><ele>126.25</ele><time>2026-05-01T14:33:34.964Z</time></trkpt><trkpt lat="48.7885833" lon="4.9057551"><ele>126.5</ele><time>2026-05-01T14:33:35.962Z</time></trkpt><trkpt lat="48.7887114" lon="4.9057334"><ele>126.75</ele><time>2026-05-01T14:33:36.965Z</time></trkpt><trkpt lat="48.7888364" lon="4.9057096"><ele>127.0</ele><time>2026-05-01T14:33:37.968Z</time></trkpt><trkpt lat="48.7889642" lon="4.9056885"><ele>127.0</ele><time>2026-05-01T14:33:38.959Z</time></trkpt><trkpt lat="48.7890948" lon="4.9056645"><ele>127.0</ele><time>2026-05-01T14:33:39.96Z</time></trkpt><trkpt lat="48.7892205" lon="4.9056399"><ele>127.0</ele><time>2026-05-01T14:33:40.964Z</time></trkpt><trkpt lat="48.7893509" lon="4.905614"><ele>127.0</ele><time>2026-05-01T14:33:41.962Z</time></trkpt><trkpt lat="48.789472" lon="4.9055866"><ele>126.8</ele><time>2026-05-01T14:33:42.957Z</time></trkpt><trkpt lat="48.7895772" lon="4.9055576"><ele>126.6</ele><time>2026-05-01T14:33:43.962Z</time></trkpt><trkpt lat="48.7896777" lon="4.9055231"><ele>126.39999999999999</ele><time>2026-05-01T14:33:44.96Z</time></trkpt><trkpt lat="48.7897686" lon="4.9054901"><ele>126.19999999999999</ele><time>2026-05-01T14:33:45.962Z</time></trkpt><trkpt lat="48.7898483" lon="4.9054559"><ele>126.0</ele><time>2026-05-01T14:33:46.962Z</time></trkpt><trkpt lat="48.7899162" lon="4.9054151"><ele>126.0</ele><time>2026-05-01T14:33:47.957Z</time></trkpt><trkpt lat="48.7899628" lon="4.9052829"><ele>126.0</ele><time>2026-05-01T14:33:49.957Z</time></trkpt><trkpt lat="48.789933" lon="4.905179"><ele>126.0</ele><time>2026-05-01T14:33:50.962Z</time></trkpt><trkpt lat="48.7898832" lon="4.9051058"><ele>126.0</ele><time>2026-05-01T14:33:51.961Z</time></trkpt><trkpt lat="48.7898226" lon="4.9050149"><ele>126.0</ele><time>2026-05-01T14:33:52.961Z</time></trkpt><trkpt lat="48.789765" lon="4.9048887"><ele>126.0</ele><time>2026-05-01T14:33:53.969Z</time></trkpt><trkpt lat="48.7897165" lon="4.904752"><ele>126.0</ele><time>2026-05-01T14:33:54.959Z</time></trkpt><trkpt lat="48.7896636" lon="4.9046141"><ele>126.0</ele><time>2026-05-01T14:33:55.965Z</time></trkpt><trkpt lat="48.7895984" lon="4.9044647"><ele>126.0</ele><time>2026-05-01T14:33:56.966Z</time></trkpt><trkpt lat="48.7895395" lon="4.9042954"><ele>126.0</ele><time>2026-05-01T14:33:57.96Z</time></trkpt><trkpt lat="48.7894884" lon="4.9041111"><ele>125.75</ele><time>2026-05-01T14:33:58.961Z</time></trkpt><trkpt lat="48.7894583" lon="4.9039005"><ele>125.5</ele><time>2026-05-01T14:33:59.964Z</time></trkpt><trkpt lat="48.7894381" lon="4.9036814"><ele>125.25</ele><time>2026-05-01T14:34:00.963Z</time></trkpt><trkpt lat="48.7894174" lon="4.90345"><ele>125.0</ele><time>2026-05-01T14:34:01.963Z</time></trkpt><trkpt lat="48.7893935" lon="4.9032044"><ele>125.0</ele><time>2026-05-01T14:34:02.965Z</time></trkpt><trkpt lat="48.7893708" lon="4.9029443"><ele>125.0</ele><time>2026-05-01T14:34:03.964Z</time></trkpt><trkpt lat="48.7893443" lon="4.9026792"><ele>125.0</ele><time>2026-05-01T14:34:04.971Z</time></trkpt><trkpt lat="48.789315" lon="4.9024067"><ele>125.33333333333333</ele><time>2026-05-01T14:34:05.959Z</time></trkpt><trkpt lat="48.7892907" lon="4.9021258"><ele>125.66666666666666</ele><time>2026-05-01T14:34:06.96Z</time></trkpt><trkpt lat="48.7892665" lon="4.9018437"><ele>126.0</ele><time>2026-05-01T14:34:07.965Z</time></trkpt><trkpt lat="48.7892388" lon="4.9015604"><ele>126.66666666666666</ele><time>2026-05-01T14:34:08.964Z</time></trkpt><trkpt lat="48.789214" lon="4.9012662"><ele>127.33333333333333</ele><time>2026-05-01T14:34:09.958Z</time></trkpt><trkpt lat="48.7891933" lon="4.900972"><ele>128.0</ele><time>2026-05-01T14:34:10.967Z</time></trkpt><trkpt lat="48.7891788" lon="4.9006715"><ele>128.0</ele><time>2026-05-01T14:34:11.96Z</time></trkpt><trkpt lat="48.7891748" lon="4.9003742"><ele>128.0</ele><time>2026-05-01T14:34:12.966Z</time></trkpt><trkpt lat="48.789177" lon="4.9000762"><ele>128.0</ele><time>2026-05-01T14:34:13.964Z</time></trkpt><trkpt lat="48.789173" lon="4.8997754"><ele>128.0</ele><time>2026-05-01T14:34:14.954Z</time></trkpt><trkpt lat="48.789173" lon="4.8994688"><ele>128.0</ele><time>2026-05-01T14:34:15.967Z</time></trkpt><trkpt lat="48.789172" lon="4.8991559"><ele>128.0</ele><time>2026-05-01T14:34:16.964Z</time></trkpt><trkpt lat="48.789172" lon="4.8988394"><ele>127.66666666666666</ele><time>2026-05-01T14:34:17.961Z</time></trkpt><trkpt lat="48.7891713" lon="4.8985225"><ele>127.33333333333334</ele><time>2026-05-01T14:34:18.963Z</time></trkpt><trkpt lat="48.7891708" lon="4.8982058"><ele>127.0</ele><time>2026-05-01T14:34:19.967Z</time></trkpt><trkpt lat="48.7891711" lon="4.8978875"><ele>126.0</ele><time>2026-05-01T14:34:20.966Z</time></trkpt><trkpt lat="48.7891732" lon="4.8975692"><ele>125.0</ele><time>2026-05-01T14:34:21.97Z</time></trkpt><trkpt lat="48.7891744" lon="4.8972563"><ele>124.0</ele><time>2026-05-01T14:34:22.967Z</time></trkpt><trkpt lat="48.7891753" lon="4.8969434"><ele>124.0</ele><time>2026-05-01T14:34:23.955Z</time></trkpt><trkpt lat="48.789173" lon="4.8966374"><ele>124.0</ele><time>2026-05-01T14:34:24.963Z</time></trkpt><trkpt lat="48.7891739" lon="4.8963425"><ele>124.0</ele><time>2026-05-01T14:34:25.96Z</time></trkpt><trkpt lat="48.7891738" lon="4.8960477"><ele>124.0</ele><time>2026-05-01T14:34:26.961Z</time></trkpt><trkpt lat="48.7891718" lon="4.8957467"><ele>124.0</ele><time>2026-05-01T14:34:27.958Z</time></trkpt><trkpt lat="48.7891739" lon="4.8954512"><ele>124.0</ele><time>2026-05-01T14:34:28.961Z</time></trkpt><trkpt lat="48.7891948" lon="4.8951619"><ele>124.0</ele><time>2026-05-01T14:34:29.965Z</time></trkpt><trkpt lat="48.7892575" lon="4.8948821"><ele>124.0</ele><time>2026-05-01T14:34:30.962Z</time></trkpt><trkpt lat="48.7893464" lon="4.8946035"><ele>124.0</ele><time>2026-05-01T14:34:31.963Z</time></trkpt><trkpt lat="48.7894563" lon="4.8943487"><ele>123.33333333333334</ele><time>2026-05-01T14:34:32.967Z</time></trkpt><trkpt lat="48.7895706" lon="4.8940916"><ele>122.66666666666666</ele><time>2026-05-01T14:34:33.956Z</time></trkpt><trkpt lat="48.7896918" lon="4.8938323"><ele>122.0</ele><time>2026-05-01T14:34:34.966Z</time></trkpt><trkpt lat="48.7898043" lon="4.8935707"><ele>122.0</ele><time>2026-05-01T14:34:35.965Z</time></trkpt><trkpt lat="48.789924" lon="4.8933003"><ele>122.0</ele><time>2026-05-01T14:34:36.966Z</time></trkpt><trkpt lat="48.7900371" lon="4.8930236"><ele>122.0</ele><time>2026-05-01T14:34:37.962Z</time></trkpt><trkpt lat="48.7901446" lon="4.892747"><ele>121.66666666666666</ele><time>2026-05-01T14:34:38.963Z</time></trkpt><trkpt lat="48.7902578" lon="4.892472"><ele>121.33333333333334</ele><time>2026-05-01T14:34:39.964Z</time></trkpt><trkpt lat="48.7903753" lon="4.8922038"><ele>121.0</ele><time>2026-05-01T14:34:40.964Z</time></trkpt><trkpt lat="48.7904945" lon="4.8919371"><ele>121.33333333333334</ele><time>2026-05-01T14:34:41.964Z</time></trkpt><trkpt lat="48.7906138" lon="4.8916705"><ele>121.66666666666666</ele><time>2026-05-01T14:34:42.962Z</time></trkpt><trkpt lat="48.790738" lon="4.8914014"><ele>122.0</ele><time>2026-05-01T14:34:43.957Z</time></trkpt><trkpt lat="48.7908643" lon="4.8911333"><ele>122.0</ele><time>2026-05-01T14:34:44.954Z</time></trkpt><trkpt lat="48.7909957" lon="4.8908735"><ele>122.0</ele><time>2026-05-01T14:34:45.964Z</time></trkpt><trkpt lat="48.7911362" lon="4.8906216"><ele>122.0</ele><time>2026-05-01T14:34:46.959Z</time></trkpt><trkpt lat="48.7912811" lon="4.890377"><ele>122.0</ele><time>2026-05-01T14:34:47.973Z</time></trkpt><trkpt lat="48.7914252" lon="4.8901256"><ele>122.0</ele><time>2026-05-01T14:34:48.965Z</time></trkpt><trkpt lat="48.7915728" lon="4.8898793"><ele>122.0</ele><time>2026-05-01T14:34:49.962Z</time></trkpt><trkpt lat="48.7917184" lon="4.8896368"><ele>122.0</ele><time>2026-05-01T14:34:50.968Z</time></trkpt><trkpt lat="48.791863" lon="4.8893966"><ele>122.0</ele><time>2026-05-01T14:34:51.965Z</time></trkpt><trkpt lat="48.7919989" lon="4.889165"><ele>122.0</ele><time>2026-05-01T14:34:52.967Z</time></trkpt><trkpt lat="48.7921316" lon="4.8889526"><ele>122.0</ele><time>2026-05-01T14:34:53.966Z</time></trkpt><trkpt lat="48.7922599" lon="4.8887593"><ele>122.0</ele><time>2026-05-01T14:34:54.96Z</time></trkpt><trkpt lat="48.7923819" lon="4.8885677"><ele>122.0</ele><time>2026-05-01T14:34:55.967Z</time></trkpt><trkpt lat="48.7925068" lon="4.8883787"><ele>122.33333333333333</ele><time>2026-05-01T14:34:56.965Z</time></trkpt><trkpt lat="48.7926425" lon="4.8882051"><ele>122.66666666666666</ele><time>2026-05-01T14:34:57.958Z</time></trkpt><trkpt lat="48.7927932" lon="4.888058"><ele>123.0</ele><time>2026-05-01T14:34:59.015Z</time></trkpt><trkpt lat="48.7929551" lon="4.88793"><ele>123.0</ele><time>2026-05-01T14:34:59.969Z</time></trkpt><trkpt lat="48.7931187" lon="4.887827"><ele>123.0</ele><time>2026-05-01T14:35:00.961Z</time></trkpt><trkpt lat="48.7932931" lon="4.8877557"><ele>123.0</ele><time>2026-05-01T14:35:01.967Z</time></trkpt><trkpt lat="48.7934728" lon="4.8876957"><ele>122.66666666666666</ele><time>2026-05-01T14:35:02.961Z</time></trkpt><trkpt lat="48.7936491" lon="4.8876685"><ele>122.33333333333333</ele><time>2026-05-01T14:35:03.961Z</time></trkpt><trkpt lat="48.7938338" lon="4.8876808"><ele>122.0</ele><time>2026-05-01T14:35:04.96Z</time></trkpt><trkpt lat="48.7940166" lon="4.8877054"><ele>122.0</ele><time>2026-05-01T14:35:05.968Z</time></trkpt><trkpt lat="48.7942011" lon="4.8877556"><ele>122.0</ele><time>2026-05-01T14:35:06.968Z</time></trkpt><trkpt lat="48.7943845" lon="4.8878316"><ele>122.0</ele><time>2026-05-01T14:35:07.96Z</time></trkpt><trkpt lat="48.7945637" lon="4.8879132"><ele>122.66666666666666</ele><time>2026-05-01T14:35:08.964Z</time></trkpt><trkpt lat="48.7947434" lon="4.8880052"><ele>123.33333333333334</ele><time>2026-05-01T14:35:09.961Z</time></trkpt><trkpt lat="48.7949284" lon="4.8880888"><ele>124.0</ele><time>2026-05-01T14:35:10.961Z</time></trkpt><trkpt lat="48.795119" lon="4.8881678"><ele>123.66666666666667</ele><time>2026-05-01T14:35:11.964Z</time></trkpt><trkpt lat="48.7953182" lon="4.8882462"><ele>123.33333333333334</ele><time>2026-05-01T14:35:12.964Z</time></trkpt><trkpt lat="48.7955162" lon="4.8883225"><ele>123.0</ele><time>2026-05-01T14:35:13.962Z</time></trkpt><trkpt lat="48.7957186" lon="4.8883684"><ele>123.0</ele><time>2026-05-01T14:35:14.972Z</time></trkpt><trkpt lat="48.7959256" lon="4.8883828"><ele>123.0</ele><time>2026-05-01T14:35:15.963Z</time></trkpt><trkpt lat="48.7961314" lon="4.8883571"><ele>123.0</ele><time>2026-05-01T14:35:16.96Z</time></trkpt><trkpt lat="48.7963493" lon="4.8883137"><ele>123.0</ele><time>2026-05-01T14:35:17.969Z</time></trkpt><trkpt lat="48.7965619" lon="4.888266"><ele>123.0</ele><time>2026-05-01T14:35:18.964Z</time></trkpt><trkpt lat="48.7967697" lon="4.8882098"><ele>123.0</ele><time>2026-05-01T14:35:19.985Z</time></trkpt><trkpt lat="48.7969811" lon="4.8881435"><ele>123.66666666666666</ele><time>2026-05-01T14:35:20.961Z</time></trkpt><trkpt lat="48.7971969" lon="4.8880842"><ele>124.33333333333333</ele><time>2026-05-01T14:35:21.968Z</time></trkpt><trkpt lat="48.7974093" lon="4.8880295"><ele>125.0</ele><time>2026-05-01T14:35:22.963Z</time></trkpt><trkpt lat="48.7976172" lon="4.8879727"><ele>125.0</ele><time>2026-05-01T14:35:23.969Z</time></trkpt><trkpt lat="48.7978294" lon="4.8879249"><ele>125.0</ele><time>2026-05-01T14:35:24.965Z</time></trkpt><trkpt lat="48.7980397" lon="4.8878829"><ele>125.0</ele><time>2026-05-01T14:35:25.962Z</time></trkpt><trkpt lat="48.7982474" lon="4.8878382"><ele>125.0</ele><time>2026-05-01T14:35:26.963Z</time></trkpt><trkpt lat="48.7984566" lon="4.8878029"><ele>125.0</ele><time>2026-05-01T14:35:27.965Z</time></trkpt><trkpt lat="48.7986594" lon="4.8877582"><ele>125.0</ele><time>2026-05-01T14:35:28.963Z</time></trkpt><trkpt lat="48.7988711" lon="4.8877213"><ele>125.0</ele><time>2026-05-01T14:35:29.962Z</time></trkpt><trkpt lat="48.7990726" lon="4.88768"><ele>125.0</ele><time>2026-05-01T14:35:30.966Z</time></trkpt><trkpt lat="48.7992762" lon="4.8876377"><ele>125.0</ele><time>2026-05-01T14:35:31.968Z</time></trkpt><trkpt lat="48.7994823" lon="4.887594"><ele>124.66666666666666</ele><time>2026-05-01T14:35:32.968Z</time></trkpt><trkpt lat="48.7996858" lon="4.887549"><ele>124.33333333333334</ele><time>2026-05-01T14:35:33.962Z</time></trkpt><trkpt lat="48.7998833" lon="4.887508"><ele>124.0</ele><time>2026-05-01T14:35:34.969Z</time></trkpt><trkpt lat="48.8000817" lon="4.8874645"><ele>123.66666666666667</ele><time>2026-05-01T14:35:35.967Z</time></trkpt><trkpt lat="48.8002893" lon="4.887422"><ele>123.33333333333334</ele><time>2026-05-01T14:35:36.967Z</time></trkpt><trkpt lat="48.8004972" lon="4.8873753"><ele>123.0</ele><time>2026-05-01T14:35:37.963Z</time></trkpt><trkpt lat="48.8007099" lon="4.8873212"><ele>123.0</ele><time>2026-05-01T14:35:38.969Z</time></trkpt><trkpt lat="48.8009185" lon="4.8872433"><ele>123.0</ele><time>2026-05-01T14:35:39.97Z</time></trkpt><trkpt lat="48.8011229" lon="4.8871523"><ele>123.0</ele><time>2026-05-01T14:35:40.965Z</time></trkpt><trkpt lat="48.801325" lon="4.8870446"><ele>123.0</ele><time>2026-05-01T14:35:41.965Z</time></trkpt><trkpt lat="48.8015273" lon="4.8869441"><ele>123.0</ele><time>2026-05-01T14:35:42.96Z</time></trkpt><trkpt lat="48.8017318" lon="4.8868415"><ele>123.0</ele><time>2026-05-01T14:35:43.959Z</time></trkpt><trkpt lat="48.8019398" lon="4.8867373"><ele>123.33333333333334</ele><time>2026-05-01T14:35:44.966Z</time></trkpt><trkpt lat="48.8021463" lon="4.8866419"><ele>123.66666666666667</ele><time>2026-05-01T14:35:45.965Z</time></trkpt><trkpt lat="48.8023551" lon="4.8865388"><ele>124.0</ele><time>2026-05-01T14:35:46.96Z</time></trkpt><trkpt lat="48.8025643" lon="4.8864413"><ele>124.0</ele><time>2026-05-01T14:35:47.962Z</time></trkpt><trkpt lat="48.8027746" lon="4.8863486"><ele>124.0</ele><time>2026-05-01T14:35:48.956Z</time></trkpt><trkpt lat="48.8029833" lon="4.8862712"><ele>124.0</ele><time>2026-05-01T14:35:49.963Z</time></trkpt><trkpt lat="48.8031943" lon="4.8862039"><ele>124.0</ele><time>2026-05-01T14:35:50.961Z</time></trkpt><trkpt lat="48.803407" lon="4.8861533"><ele>124.0</ele><time>2026-05-01T14:35:51.964Z</time></trkpt><trkpt lat="48.8036182" lon="4.886115"><ele>124.0</ele><time>2026-05-01T14:35:52.963Z</time></trkpt><trkpt lat="48.8038303" lon="4.8860808"><ele>124.0</ele><time>2026-05-01T14:35:53.965Z</time></trkpt><trkpt lat="48.804041" lon="4.8860575"><ele>124.0</ele><time>2026-05-01T14:35:54.966Z</time></trkpt><trkpt lat="48.8042477" lon="4.8860449"><ele>124.0</ele><time>2026-05-01T14:35:55.961Z</time></trkpt><trkpt lat="48.804458" lon="4.8860274"><ele>124.0</ele><time>2026-05-01T14:35:56.967Z</time></trkpt><trkpt lat="48.8046712" lon="4.8860031"><ele>124.0</ele><time>2026-05-01T14:35:57.975Z</time></trkpt><trkpt lat="48.8048828" lon="4.8859809"><ele>124.0</ele><time>2026-05-01T14:35:58.964Z</time></trkpt><trkpt lat="48.805093" lon="4.8859575"><ele>124.0</ele><time>2026-05-01T14:35:59.967Z</time></trkpt><trkpt lat="48.8053039" lon="4.8859324"><ele>124.0</ele><time>2026-05-01T14:36:00.963Z</time></trkpt><trkpt lat="48.8055163" lon="4.8859232"><ele>124.0</ele><time>2026-05-01T14:36:01.96Z</time></trkpt><trkpt lat="48.8057253" lon="4.8859009"><ele>124.0</ele><time>2026-05-01T14:36:02.969Z</time></trkpt><trkpt lat="48.8059333" lon="4.8858736"><ele>124.0</ele><time>2026-05-01T14:36:03.964Z</time></trkpt><trkpt lat="48.8061297" lon="4.8858451"><ele>124.0</ele><time>2026-05-01T14:36:04.967Z</time></trkpt><trkpt lat="48.8063142" lon="4.8857981"><ele>123.66666666666667</ele><time>2026-05-01T14:36:05.961Z</time></trkpt><trkpt lat="48.8064836" lon="4.8857263"><ele>123.33333333333334</ele><time>2026-05-01T14:36:06.962Z</time></trkpt><trkpt lat="48.8066384" lon="4.8856431"><ele>123.0</ele><time>2026-05-01T14:36:07.961Z</time></trkpt><trkpt lat="48.8067885" lon="4.8855441"><ele>123.0</ele><time>2026-05-01T14:36:08.958Z</time></trkpt><trkpt lat="48.806935" lon="4.8854347"><ele>123.0</ele><time>2026-05-01T14:36:09.957Z</time></trkpt><trkpt lat="48.8070724" lon="4.8853176"><ele>123.0</ele><time>2026-05-01T14:36:10.967Z</time></trkpt><trkpt lat="48.8071987" lon="4.8851995"><ele>123.5</ele><time>2026-05-01T14:36:11.969Z</time></trkpt><trkpt lat="48.8073164" lon="4.8850714"><ele>124.0</ele><time>2026-05-01T14:36:13.008Z</time></trkpt><trkpt lat="48.8074205" lon="4.8849474"><ele>124.5</ele><time>2026-05-01T14:36:13.961Z</time></trkpt><trkpt lat="48.807523" lon="4.8848137"><ele>125.0</ele><time>2026-05-01T14:36:14.967Z</time></trkpt><trkpt lat="48.807622" lon="4.8846766"><ele>125.75</ele><time>2026-05-01T14:36:15.964Z</time></trkpt><trkpt lat="48.8077174" lon="4.8845384"><ele>126.5</ele><time>2026-05-01T14:36:16.96Z</time></trkpt><trkpt lat="48.8078114" lon="4.884395"><ele>127.25</ele><time>2026-05-01T14:36:17.961Z</time></trkpt><trkpt lat="48.8079044" lon="4.8842529"><ele>128.0</ele><time>2026-05-01T14:36:18.969Z</time></trkpt><trkpt lat="48.8079998" lon="4.8841168"><ele>129.25</ele><time>2026-05-01T14:36:19.961Z</time></trkpt><trkpt lat="48.8081054" lon="4.8839799"><ele>130.5</ele><time>2026-05-01T14:36:20.959Z</time></trkpt><trkpt lat="48.8082241" lon="4.8838686"><ele>131.75</ele><time>2026-05-01T14:36:21.961Z</time></trkpt><trkpt lat="48.8083478" lon="4.883773"><ele>133.0</ele><time>2026-05-01T14:36:22.959Z</time></trkpt><trkpt lat="48.8084706" lon="4.8837019"><ele>134.25</ele><time>2026-05-01T14:36:23.965Z</time></trkpt><trkpt lat="48.8086021" lon="4.8836521"><ele>135.5</ele><time>2026-05-01T14:36:24.962Z</time></trkpt><trkpt lat="48.8087207" lon="4.883644"><ele>136.75</ele><time>2026-05-01T14:36:25.965Z</time></trkpt><trkpt lat="48.8088303" lon="4.8836625"><ele>138.0</ele><time>2026-05-01T14:36:26.962Z</time></trkpt><trkpt lat="48.8089287" lon="4.883742"><ele>138.0</ele><time>2026-05-01T14:36:27.963Z</time></trkpt><trkpt lat="48.8090176" lon="4.8838369"><ele>138.0</ele><time>2026-05-01T14:36:28.962Z</time></trkpt><trkpt lat="48.8091045" lon="4.8839145"><ele>138.0</ele><time>2026-05-01T14:36:29.966Z</time></trkpt><trkpt lat="48.8091862" lon="4.8839657"><ele>138.0</ele><time>2026-05-01T14:36:30.958Z</time></trkpt><trkpt lat="48.8092654" lon="4.8839331"><ele>138.0</ele><time>2026-05-01T14:36:31.963Z</time></trkpt><trkpt lat="48.8093309" lon="4.8838032"><ele>138.6</ele><time>2026-05-01T14:36:32.96Z</time></trkpt><trkpt lat="48.80937" lon="4.8836774"><ele>139.20000000000002</ele><time>2026-05-01T14:36:33.981Z</time></trkpt><trkpt lat="48.8093972" lon="4.8835532"><ele>139.8</ele><time>2026-05-01T14:36:34.965Z</time></trkpt><trkpt lat="48.8094252" lon="4.8833966"><ele>140.4</ele><time>2026-05-01T14:36:35.963Z</time></trkpt><trkpt lat="48.8094775" lon="4.883254"><ele>141.0</ele><time>2026-05-01T14:36:36.96Z</time></trkpt><trkpt lat="48.8095284" lon="4.8831331"><ele>141.0</ele><time>2026-05-01T14:36:37.97Z</time></trkpt><trkpt lat="48.8095841" lon="4.8830108"><ele>141.0</ele><time>2026-05-01T14:36:38.958Z</time></trkpt><trkpt lat="48.8096366" lon="4.882887"><ele>141.0</ele><time>2026-05-01T14:36:39.962Z</time></trkpt><trkpt lat="48.8097014" lon="4.8827456"><ele>141.0</ele><time>2026-05-01T14:36:40.965Z</time></trkpt><trkpt lat="48.8097673" lon="4.8826097"><ele>141.0</ele><time>2026-05-01T14:36:41.964Z</time></trkpt><trkpt lat="48.8098372" lon="4.8824775"><ele>141.0</ele><time>2026-05-01T14:36:42.997Z</time></trkpt><trkpt lat="48.8099104" lon="4.882337"><ele>141.0</ele><time>2026-05-01T14:36:43.959Z</time></trkpt><trkpt lat="48.8099814" lon="4.8822017"><ele>141.0</ele><time>2026-05-01T14:36:44.959Z</time></trkpt><trkpt lat="48.8100544" lon="4.8820708"><ele>141.0</ele><time>2026-05-01T14:36:45.964Z</time></trkpt><trkpt lat="48.8101331" lon="4.8819366"><ele>141.0</ele><time>2026-05-01T14:36:46.961Z</time></trkpt><trkpt lat="48.8102113" lon="4.8817999"><ele>141.0</ele><time>2026-05-01T14:36:47.965Z</time></trkpt><trkpt lat="48.8102875" lon="4.8816629"><ele>141.0</ele><time>2026-05-01T14:36:48.968Z</time></trkpt><trkpt lat="48.8103586" lon="4.881518"><ele>141.0</ele><time>2026-05-01T14:36:49.964Z</time></trkpt><trkpt lat="48.8104316" lon="4.8813768"><ele>141.25</ele><time>2026-05-01T14:36:50.96Z</time></trkpt><trkpt lat="48.8105034" lon="4.8812464"><ele>141.5</ele><time>2026-05-01T14:36:51.963Z</time></trkpt><trkpt lat="48.8105721" lon="4.8811162"><ele>141.75</ele><time>2026-05-01T14:36:52.971Z</time></trkpt><trkpt lat="48.8106327" lon="4.8809711"><ele>142.0</ele><time>2026-05-01T14:36:53.961Z</time></trkpt><trkpt lat="48.8106786" lon="4.8808079"><ele>142.0</ele><time>2026-05-01T14:36:54.968Z</time></trkpt><trkpt lat="48.8107026" lon="4.8806311"><ele>142.0</ele><time>2026-05-01T14:36:55.964Z</time></trkpt><trkpt lat="48.8107122" lon="4.8804466"><ele>142.0</ele><time>2026-05-01T14:36:56.962Z</time></trkpt><trkpt lat="48.8107262" lon="4.8802537"><ele>142.0</ele><time>2026-05-01T14:36:57.966Z</time></trkpt><trkpt lat="48.8107425" lon="4.8800662"><ele>141.75</ele><time>2026-05-01T14:36:58.966Z</time></trkpt><trkpt lat="48.8107607" lon="4.8798687"><ele>141.5</ele><time>2026-05-01T14:36:59.958Z</time></trkpt><trkpt lat="48.8107816" lon="4.8796647"><ele>141.25</ele><time>2026-05-01T14:37:00.964Z</time></trkpt><trkpt lat="48.8108054" lon="4.8794487"><ele>141.0</ele><time>2026-05-01T14:37:01.961Z</time></trkpt><trkpt lat="48.8108322" lon="4.8792242"><ele>140.66666666666666</ele><time>2026-05-01T14:37:02.964Z</time></trkpt><trkpt lat="48.8108622" lon="4.8789882"><ele>140.33333333333331</ele><time>2026-05-01T14:37:03.962Z</time></trkpt><trkpt lat="48.8108858" lon="4.8787525"><ele>140.0</ele><time>2026-05-01T14:37:04.965Z</time></trkpt><trkpt lat="48.8109032" lon="4.8785039"><ele>139.66666666666666</ele><time>2026-05-01T14:37:05.964Z</time></trkpt><trkpt lat="48.8108887" lon="4.8782409"><ele>139.33333333333334</ele><time>2026-05-01T14:37:06.963Z</time></trkpt><trkpt lat="48.8108649" lon="4.8779794"><ele>139.0</ele><time>2026-05-01T14:37:07.976Z</time></trkpt><trkpt lat="48.8108306" lon="4.8777187"><ele>139.0</ele><time>2026-05-01T14:37:08.973Z</time></trkpt><trkpt lat="48.8107975" lon="4.8774523"><ele>139.0</ele><time>2026-05-01T14:37:09.963Z</time></trkpt><trkpt lat="48.8107642" lon="4.8771758"><ele>139.0</ele><time>2026-05-01T14:37:10.97Z</time></trkpt><trkpt lat="48.8107312" lon="4.8769037"><ele>138.66666666666669</ele><time>2026-05-01T14:37:11.959Z</time></trkpt><trkpt lat="48.8106993" lon="4.8766138"><ele>138.33333333333334</ele><time>2026-05-01T14:37:12.968Z</time></trkpt><trkpt lat="48.8106692" lon="4.8763209"><ele>138.0</ele><time>2026-05-01T14:37:13.96Z</time></trkpt><trkpt lat="48.8106486" lon="4.8760139"><ele>138.0</ele><time>2026-05-01T14:37:14.963Z</time></trkpt><trkpt lat="48.8106412" lon="4.8757088"><ele>138.0</ele><time>2026-05-01T14:37:15.959Z</time></trkpt><trkpt lat="48.8106463" lon="4.8753943"><ele>138.0</ele><time>2026-05-01T14:37:16.961Z</time></trkpt><trkpt lat="48.8106644" lon="4.8750706"><ele>138.0</ele><time>2026-05-01T14:37:17.96Z</time></trkpt><trkpt lat="48.8106792" lon="4.874741"><ele>138.0</ele><time>2026-05-01T14:37:18.964Z</time></trkpt><trkpt lat="48.8106952" lon="4.8744059"><ele>138.0</ele><time>2026-05-01T14:37:19.965Z</time></trkpt><trkpt lat="48.8107109" lon="4.8740633"><ele>138.0</ele><time>2026-05-01T14:37:20.961Z</time></trkpt><trkpt lat="48.8107185" lon="4.873723"><ele>138.0</ele><time>2026-05-01T14:37:21.965Z</time></trkpt><trkpt lat="48.8107177" lon="4.8733878"><ele>138.0</ele><time>2026-05-01T14:37:22.961Z</time></trkpt><trkpt lat="48.8107114" lon="4.8730545"><ele>138.0</ele><time>2026-05-01T14:37:23.96Z</time></trkpt><trkpt lat="48.8106995" lon="4.8727138"><ele>138.0</ele><time>2026-05-01T14:37:25.002Z</time></trkpt><trkpt lat="48.8106904" lon="4.8723818"><ele>138.0</ele><time>2026-05-01T14:37:25.958Z</time></trkpt><trkpt lat="48.8106752" lon="4.8720508"><ele>137.66666666666666</ele><time>2026-05-01T14:37:26.961Z</time></trkpt><trkpt lat="48.8106588" lon="4.871736"><ele>137.33333333333331</ele><time>2026-05-01T14:37:27.957Z</time></trkpt><trkpt lat="48.8106457" lon="4.8714246"><ele>137.0</ele><time>2026-05-01T14:37:28.964Z</time></trkpt><trkpt lat="48.8106556" lon="4.8710994"><ele>136.66666666666666</ele><time>2026-05-01T14:37:29.964Z</time></trkpt><trkpt lat="48.8106892" lon="4.8707777"><ele>136.33333333333334</ele><time>2026-05-01T14:37:30.965Z</time></trkpt><trkpt lat="48.8107513" lon="4.8704683"><ele>136.0</ele><time>2026-05-01T14:37:31.965Z</time></trkpt><trkpt lat="48.8108369" lon="4.8701669"><ele>136.0</ele><time>2026-05-01T14:37:32.966Z</time></trkpt><trkpt lat="48.8109296" lon="4.8698667"><ele>136.0</ele><time>2026-05-01T14:37:33.963Z</time></trkpt><trkpt lat="48.8110208" lon="4.8695622"><ele>136.0</ele><time>2026-05-01T14:37:34.97Z</time></trkpt><trkpt lat="48.8111114" lon="4.8692502"><ele>136.0</ele><time>2026-05-01T14:37:35.963Z</time></trkpt><trkpt lat="48.8112012" lon="4.8689476"><ele>136.0</ele><time>2026-05-01T14:37:36.971Z</time></trkpt><trkpt lat="48.8112878" lon="4.8686435"><ele>136.0</ele><time>2026-05-01T14:37:37.962Z</time></trkpt><trkpt lat="48.8113753" lon="4.8683442"><ele>136.0</ele><time>2026-05-01T14:37:38.972Z</time></trkpt><trkpt lat="48.8114615" lon="4.8680338"><ele>136.0</ele><time>2026-05-01T14:37:39.961Z</time></trkpt><trkpt lat="48.8115501" lon="4.8677317"><ele>136.0</ele><time>2026-05-01T14:37:40.955Z</time></trkpt><trkpt lat="48.8116379" lon="4.8674304"><ele>136.0</ele><time>2026-05-01T14:37:41.969Z</time></trkpt><trkpt lat="48.8117237" lon="4.867125"><ele>136.0</ele><time>2026-05-01T14:37:42.959Z</time></trkpt><trkpt lat="48.8118079" lon="4.8668241"><ele>136.0</ele><time>2026-05-01T14:37:43.969Z</time></trkpt><trkpt lat="48.8118935" lon="4.8665145"><ele>136.33333333333334</ele><time>2026-05-01T14:37:44.96Z</time></trkpt><trkpt lat="48.811983" lon="4.8662083"><ele>136.66666666666666</ele><time>2026-05-01T14:37:45.968Z</time></trkpt><trkpt lat="48.8120722" lon="4.8658998"><ele>137.0</ele><time>2026-05-01T14:37:46.96Z</time></trkpt><trkpt lat="48.8121571" lon="4.8655908"><ele>137.0</ele><time>2026-05-01T14:37:47.959Z</time></trkpt><trkpt lat="48.8122433" lon="4.8652845"><ele>137.0</ele><time>2026-05-01T14:37:48.956Z</time></trkpt><trkpt lat="48.8123309" lon="4.8649794"><ele>137.0</ele><time>2026-05-01T14:37:49.966Z</time></trkpt><trkpt lat="48.8124176" lon="4.8646767"><ele>137.0</ele><time>2026-05-01T14:37:50.962Z</time></trkpt><trkpt lat="48.8125044" lon="4.8643661"><ele>137.0</ele><time>2026-05-01T14:37:51.962Z</time></trkpt><trkpt lat="48.8125927" lon="4.8640626"><ele>137.0</ele><time>2026-05-01T14:37:52.963Z</time></trkpt><trkpt lat="48.8126811" lon="4.8637619"><ele>137.0</ele><time>2026-05-01T14:37:53.964Z</time></trkpt><trkpt lat="48.8127683" lon="4.8634577"><ele>137.0</ele><time>2026-05-01T14:37:54.958Z</time></trkpt><trkpt lat="48.8128535" lon="4.8631497"><ele>137.0</ele><time>2026-05-01T14:37:55.964Z</time></trkpt><trkpt lat="48.8129379" lon="4.8628537"><ele>137.66666666666666</ele><time>2026-05-01T14:37:56.961Z</time></trkpt><trkpt lat="48.8130184" lon="4.8625709"><ele>138.33333333333334</ele><time>2026-05-01T14:37:57.965Z</time></trkpt><trkpt lat="48.8130917" lon="4.8623071"><ele>139.0</ele><time>2026-05-01T14:37:58.958Z</time></trkpt><trkpt lat="48.8131614" lon="4.8620649"><ele>139.0</ele><time>2026-05-01T14:37:59.963Z</time></trkpt><trkpt lat="48.8132223" lon="4.8618557"><ele>139.0</ele><time>2026-05-01T14:38:00.963Z</time></trkpt><trkpt lat="48.8132717" lon="4.8616671"><ele>139.0</ele><time>2026-05-01T14:38:01.963Z</time></trkpt><trkpt lat="48.8133179" lon="4.8615027"><ele>139.0</ele><time>2026-05-01T14:38:02.959Z</time></trkpt><trkpt lat="48.8133527" lon="4.861362"><ele>139.0</ele><time>2026-05-01T14:38:03.96Z</time></trkpt><trkpt lat="48.8133837" lon="4.861233"><ele>139.0</ele><time>2026-05-01T14:38:04.965Z</time></trkpt><trkpt lat="48.8134187" lon="4.8611383"><ele>139.0</ele><time>2026-05-01T14:38:05.969Z</time></trkpt><trkpt lat="48.8134641" lon="4.8610303"><ele>139.0</ele><time>2026-05-01T14:38:07.967Z</time></trkpt><trkpt lat="48.8135026" lon="4.8608924"><ele>139.0</ele><time>2026-05-01T14:38:11.969Z</time></trkpt><trkpt lat="48.8134677" lon="4.8606952"><ele>139.0</ele><time>2026-05-01T14:38:13.968Z</time></trkpt><trkpt lat="48.8134343" lon="4.8605606"><ele>139.0</ele><time>2026-05-01T14:38:14.957Z</time></trkpt><trkpt lat="48.813403" lon="4.8603972"><ele>139.0</ele><time>2026-05-01T14:38:15.954Z</time></trkpt><trkpt lat="48.8133631" lon="4.860222"><ele>139.0</ele><time>2026-05-01T14:38:16.961Z</time></trkpt><trkpt lat="48.8133194" lon="4.8600203"><ele>139.0</ele><time>2026-05-01T14:38:17.962Z</time></trkpt><trkpt lat="48.81327" lon="4.8598054"><ele>139.0</ele><time>2026-05-01T14:38:18.972Z</time></trkpt><trkpt lat="48.8132169" lon="4.8595707"><ele>139.0</ele><time>2026-05-01T14:38:19.969Z</time></trkpt><trkpt lat="48.8131614" lon="4.859329"><ele>139.0</ele><time>2026-05-01T14:38:20.962Z</time></trkpt><trkpt lat="48.813101" lon="4.8590715"><ele>139.0</ele><time>2026-05-01T14:38:21.965Z</time></trkpt><trkpt lat="48.8130356" lon="4.8587974"><ele>139.0</ele><time>2026-05-01T14:38:22.966Z</time></trkpt><trkpt lat="48.8129664" lon="4.858514"><ele>138.66666666666669</ele><time>2026-05-01T14:38:23.962Z</time></trkpt><trkpt lat="48.8128947" lon="4.8582259"><ele>138.33333333333334</ele><time>2026-05-01T14:38:24.969Z</time></trkpt><trkpt lat="48.8128231" lon="4.8579283"><ele>138.0</ele><time>2026-05-01T14:38:25.972Z</time></trkpt><trkpt lat="48.8127542" lon="4.8576399"><ele>138.0</ele><time>2026-05-01T14:38:26.963Z</time></trkpt><trkpt lat="48.8126876" lon="4.8573649"><ele>138.0</ele><time>2026-05-01T14:38:27.977Z</time></trkpt><trkpt lat="48.8126287" lon="4.8571064"><ele>138.0</ele><time>2026-05-01T14:38:28.967Z</time></trkpt><trkpt lat="48.8125734" lon="4.8568778"><ele>138.75</ele><time>2026-05-01T14:38:29.966Z</time></trkpt><trkpt lat="48.8125193" lon="4.8566736"><ele>139.5</ele><time>2026-05-01T14:38:30.961Z</time></trkpt><trkpt lat="48.8124693" lon="4.8564687"><ele>140.25</ele><time>2026-05-01T14:38:31.96Z</time></trkpt><trkpt lat="48.8124316" lon="4.8562694"><ele>141.0</ele><time>2026-05-01T14:38:32.96Z</time></trkpt><trkpt lat="48.8123867" lon="4.8560725"><ele>140.75</ele><time>2026-05-01T14:38:33.967Z</time></trkpt><trkpt lat="48.8123389" lon="4.8558871"><ele>140.5</ele><time>2026-05-01T14:38:34.994Z</time></trkpt><trkpt lat="48.8122952" lon="4.8557109"><ele>140.25</ele><time>2026-05-01T14:38:35.964Z</time></trkpt><trkpt lat="48.8122541" lon="4.8555422"><ele>140.0</ele><time>2026-05-01T14:38:36.963Z</time></trkpt><trkpt lat="48.8122125" lon="4.8553704"><ele>140.0</ele><time>2026-05-01T14:38:37.96Z</time></trkpt><trkpt lat="48.8121714" lon="4.8552007"><ele>140.0</ele><time>2026-05-01T14:38:38.965Z</time></trkpt><trkpt lat="48.8121339" lon="4.8550285"><ele>140.0</ele><time>2026-05-01T14:38:39.963Z</time></trkpt><trkpt lat="48.8121018" lon="4.8548548"><ele>140.0</ele><time>2026-05-01T14:38:40.961Z</time></trkpt><trkpt lat="48.8120715" lon="4.8546769"><ele>139.25</ele><time>2026-05-01T14:38:41.958Z</time></trkpt><trkpt lat="48.8120411" lon="4.8545031"><ele>138.5</ele><time>2026-05-01T14:38:42.961Z</time></trkpt><trkpt lat="48.8120107" lon="4.854318"><ele>137.75</ele><time>2026-05-01T14:38:43.958Z</time></trkpt><trkpt lat="48.8119889" lon="4.8541393"><ele>137.0</ele><time>2026-05-01T14:38:44.969Z</time></trkpt><trkpt lat="48.8119717" lon="4.8539531"><ele>137.0</ele><time>2026-05-01T14:38:45.96Z</time></trkpt><trkpt lat="48.811967" lon="4.8537737"><ele>137.0</ele><time>2026-05-01T14:38:46.96Z</time></trkpt><trkpt lat="48.8119632" lon="4.8536037"><ele>137.0</ele><time>2026-05-01T14:38:47.968Z</time></trkpt><trkpt lat="48.8119585" lon="4.8534406"><ele>137.0</ele><time>2026-05-01T14:38:48.964Z</time></trkpt><trkpt lat="48.8119493" lon="4.8533006"><ele>137.0</ele><time>2026-05-01T14:38:49.964Z</time></trkpt><trkpt lat="48.811943" lon="4.8531721"><ele>137.0</ele><time>2026-05-01T14:38:50.964Z</time></trkpt><trkpt lat="48.8119332" lon="4.8530405"><ele>137.0</ele><time>2026-05-01T14:38:51.963Z</time></trkpt><trkpt lat="48.8119219" lon="4.8528974"><ele>137.0</ele><time>2026-05-01T14:38:52.965Z</time></trkpt><trkpt lat="48.8119064" lon="4.8527558"><ele>137.0</ele><time>2026-05-01T14:38:53.96Z</time></trkpt><trkpt lat="48.811881" lon="4.8525957"><ele>137.0</ele><time>2026-05-01T14:38:54.961Z</time></trkpt><trkpt lat="48.8118573" lon="4.8524258"><ele>136.75</ele><time>2026-05-01T14:38:55.962Z</time></trkpt><trkpt lat="48.8118327" lon="4.8522533"><ele>136.5</ele><time>2026-05-01T14:38:56.966Z</time></trkpt><trkpt lat="48.8118018" lon="4.8520775"><ele>136.25</ele><time>2026-05-01T14:38:57.961Z</time></trkpt><trkpt lat="48.8117693" lon="4.8519025"><ele>136.0</ele><time>2026-05-01T14:38:58.966Z</time></trkpt><trkpt lat="48.8117425" lon="4.851716"><ele>135.75</ele><time>2026-05-01T14:38:59.974Z</time></trkpt><trkpt lat="48.8117156" lon="4.8515326"><ele>135.5</ele><time>2026-05-01T14:39:00.972Z</time></trkpt><trkpt lat="48.81168" lon="4.851352"><ele>135.25</ele><time>2026-05-01T14:39:01.961Z</time></trkpt><trkpt lat="48.8116441" lon="4.8511778"><ele>135.0</ele><time>2026-05-01T14:39:02.96Z</time></trkpt><trkpt lat="48.8116071" lon="4.8509993"><ele>135.25</ele><time>2026-05-01T14:39:03.963Z</time></trkpt><trkpt lat="48.811563" lon="4.8508269"><ele>135.5</ele><time>2026-05-01T14:39:04.964Z</time></trkpt><trkpt lat="48.8115195" lon="4.8506614"><ele>135.75</ele><time>2026-05-01T14:39:05.961Z</time></trkpt><trkpt lat="48.8114711" lon="4.8504883"><ele>136.0</ele><time>2026-05-01T14:39:06.964Z</time></trkpt><trkpt lat="48.8114205" lon="4.8503237"><ele>136.0</ele><time>2026-05-01T14:39:07.963Z</time></trkpt><trkpt lat="48.8113692" lon="4.8501511"><ele>136.0</ele><time>2026-05-01T14:39:08.971Z</time></trkpt><trkpt lat="48.8113188" lon="4.8499759"><ele>136.0</ele><time>2026-05-01T14:39:09.965Z</time></trkpt><trkpt lat="48.8112643" lon="4.8498006"><ele>136.0</ele><time>2026-05-01T14:39:10.967Z</time></trkpt><trkpt lat="48.8112087" lon="4.8496217"><ele>135.5</ele><time>2026-05-01T14:39:11.97Z</time></trkpt><trkpt lat="48.8111463" lon="4.8494346"><ele>135.0</ele><time>2026-05-01T14:39:12.964Z</time></trkpt><trkpt lat="48.8110759" lon="4.8492435"><ele>134.5</ele><time>2026-05-01T14:39:13.965Z</time></trkpt><trkpt lat="48.8109886" lon="4.8490418"><ele>134.0</ele><time>2026-05-01T14:39:14.965Z</time></trkpt><trkpt lat="48.8108886" lon="4.8488302"><ele>134.0</ele><time>2026-05-01T14:39:15.963Z</time></trkpt><trkpt lat="48.8107736" lon="4.8486148"><ele>134.0</ele><time>2026-05-01T14:39:16.966Z</time></trkpt><trkpt lat="48.81066" lon="4.8483944"><ele>134.0</ele><time>2026-05-01T14:39:17.991Z</time></trkpt><trkpt lat="48.8105379" lon="4.8481803"><ele>134.0</ele><time>2026-05-01T14:39:18.963Z</time></trkpt><trkpt lat="48.8104137" lon="4.8479511"><ele>134.0</ele><time>2026-05-01T14:39:19.966Z</time></trkpt><trkpt lat="48.8102846" lon="4.8477178"><ele>134.0</ele><time>2026-05-01T14:39:20.958Z</time></trkpt><trkpt lat="48.810149" lon="4.8474797"><ele>134.0</ele><time>2026-05-01T14:39:21.966Z</time></trkpt><trkpt lat="48.8100134" lon="4.8472368"><ele>134.0</ele><time>2026-05-01T14:39:22.965Z</time></trkpt><trkpt lat="48.8098744" lon="4.8469877"><ele>134.0</ele><time>2026-05-01T14:39:23.964Z</time></trkpt><trkpt lat="48.8097401" lon="4.8467421"><ele>133.66666666666666</ele><time>2026-05-01T14:39:24.965Z</time></trkpt><trkpt lat="48.8096081" lon="4.8465099"><ele>133.33333333333334</ele><time>2026-05-01T14:39:25.974Z</time></trkpt><trkpt lat="48.8094808" lon="4.8462826"><ele>133.0</ele><time>2026-05-01T14:39:26.96Z</time></trkpt><trkpt lat="48.8093592" lon="4.8460726"><ele>132.66666666666669</ele><time>2026-05-01T14:39:27.976Z</time></trkpt><trkpt lat="48.8092442" lon="4.845872"><ele>132.33333333333334</ele><time>2026-05-01T14:39:28.971Z</time></trkpt><trkpt lat="48.8091369" lon="4.8456754"><ele>132.0</ele><time>2026-05-01T14:39:29.962Z</time></trkpt><trkpt lat="48.8090313" lon="4.8455038"><ele>132.0</ele><time>2026-05-01T14:39:30.969Z</time></trkpt><trkpt lat="48.8089396" lon="4.8453328"><ele>132.0</ele><time>2026-05-01T14:39:31.966Z</time></trkpt><trkpt lat="48.8088578" lon="4.8451914"><ele>132.0</ele><time>2026-05-01T14:39:32.964Z</time></trkpt><trkpt lat="48.8087909" lon="4.8450655"><ele>132.0</ele><time>2026-05-01T14:39:33.968Z</time></trkpt><trkpt lat="48.8087555" lon="4.8449378"><ele>131.79999999999998</ele><time>2026-05-01T14:39:34.969Z</time></trkpt><trkpt lat="48.8087692" lon="4.8448012"><ele>131.6</ele><time>2026-05-01T14:39:35.965Z</time></trkpt><trkpt lat="48.8088239" lon="4.8446638"><ele>131.39999999999998</ele><time>2026-05-01T14:39:36.967Z</time></trkpt><trkpt lat="48.8088974" lon="4.8445345"><ele>131.2</ele><time>2026-05-01T14:39:37.959Z</time></trkpt><trkpt lat="48.8089901" lon="4.8444005"><ele>131.0</ele><time>2026-05-01T14:39:38.963Z</time></trkpt><trkpt lat="48.8090469" lon="4.8442173"><ele>130.75</ele><time>2026-05-01T14:39:39.958Z</time></trkpt><trkpt lat="48.8090762" lon="4.8440057"><ele>130.5</ele><time>2026-05-01T14:39:40.964Z</time></trkpt><trkpt lat="48.809081" lon="4.8437824"><ele>130.25</ele><time>2026-05-01T14:39:41.965Z</time></trkpt><trkpt lat="48.8090492" lon="4.8435628"><ele>130.0</ele><time>2026-05-01T14:39:42.96Z</time></trkpt><trkpt lat="48.8090081" lon="4.8433257"><ele>129.0</ele><time>2026-05-01T14:39:43.962Z</time></trkpt><trkpt lat="48.8089549" lon="4.843078"><ele>128.0</ele><time>2026-05-01T14:39:44.962Z</time></trkpt><trkpt lat="48.8088997" lon="4.8428177"><ele>127.0</ele><time>2026-05-01T14:39:45.96Z</time></trkpt><trkpt lat="48.8088405" lon="4.8425447"><ele>126.33333333333334</ele><time>2026-05-01T14:39:46.965Z</time></trkpt><trkpt lat="48.8087807" lon="4.8422579"><ele>125.66666666666666</ele><time>2026-05-01T14:39:47.964Z</time></trkpt><trkpt lat="48.808718" lon="4.841962"><ele>125.0</ele><time>2026-05-01T14:39:48.975Z</time></trkpt><trkpt lat="48.8086524" lon="4.8416659"><ele>124.0</ele><time>2026-05-01T14:39:49.969Z</time></trkpt><trkpt lat="48.8085819" lon="4.8413634"><ele>123.0</ele><time>2026-05-01T14:39:50.966Z</time></trkpt><trkpt lat="48.8085148" lon="4.8410545"><ele>122.0</ele><time>2026-05-01T14:39:51.961Z</time></trkpt><trkpt lat="48.8084453" lon="4.8407394"><ele>121.66666666666666</ele><time>2026-05-01T14:39:52.958Z</time></trkpt><trkpt lat="48.8083785" lon="4.8404263"><ele>121.33333333333334</ele><time>2026-05-01T14:39:53.964Z</time></trkpt><trkpt lat="48.8083108" lon="4.8401143"><ele>121.0</ele><time>2026-05-01T14:39:54.963Z</time></trkpt><trkpt lat="48.8082453" lon="4.8397971"><ele>120.0</ele><time>2026-05-01T14:39:55.968Z</time></trkpt><trkpt lat="48.8081824" lon="4.8394769"><ele>119.0</ele><time>2026-05-01T14:39:56.964Z</time></trkpt><trkpt lat="48.808125" lon="4.8391522"><ele>118.0</ele><time>2026-05-01T14:39:57.959Z</time></trkpt><trkpt lat="48.8080815" lon="4.8388235"><ele>117.33333333333334</ele><time>2026-05-01T14:39:58.972Z</time></trkpt><trkpt lat="48.8080538" lon="4.8384884"><ele>116.66666666666666</ele><time>2026-05-01T14:39:59.96Z</time></trkpt><trkpt lat="48.8080344" lon="4.8381603"><ele>116.0</ele><time>2026-05-01T14:40:00.966Z</time></trkpt><trkpt lat="48.8080119" lon="4.8378345"><ele>115.66666666666666</ele><time>2026-05-01T14:40:01.965Z</time></trkpt><trkpt lat="48.8079895" lon="4.8375045"><ele>115.33333333333334</ele><time>2026-05-01T14:40:02.966Z</time></trkpt><trkpt lat="48.8079645" lon="4.8371729"><ele>115.0</ele><time>2026-05-01T14:40:03.963Z</time></trkpt><trkpt lat="48.8079383" lon="4.8368444"><ele>114.66666666666667</ele><time>2026-05-01T14:40:04.963Z</time></trkpt><trkpt lat="48.8079095" lon="4.8365152"><ele>114.33333333333334</ele><time>2026-05-01T14:40:05.969Z</time></trkpt><trkpt lat="48.8078861" lon="4.8361869"><ele>114.0</ele><time>2026-05-01T14:40:06.961Z</time></trkpt><trkpt lat="48.8078607" lon="4.8358605"><ele>114.0</ele><time>2026-05-01T14:40:07.958Z</time></trkpt><trkpt lat="48.807837" lon="4.8355343"><ele>114.0</ele><time>2026-05-01T14:40:08.963Z</time></trkpt><trkpt lat="48.8078168" lon="4.8352075"><ele>114.0</ele><time>2026-05-01T14:40:09.964Z</time></trkpt><trkpt lat="48.8077944" lon="4.8348889"><ele>114.33333333333334</ele><time>2026-05-01T14:40:10.959Z</time></trkpt><trkpt lat="48.8077759" lon="4.8345669"><ele>114.66666666666667</ele><time>2026-05-01T14:40:11.955Z</time></trkpt><trkpt lat="48.8077632" lon="4.8342518"><ele>115.0</ele><time>2026-05-01T14:40:12.967Z</time></trkpt><trkpt lat="48.8077647" lon="4.8339381"><ele>115.33333333333334</ele><time>2026-05-01T14:40:13.968Z</time></trkpt><trkpt lat="48.8077852" lon="4.8336247"><ele>115.66666666666666</ele><time>2026-05-01T14:40:14.96Z</time></trkpt><trkpt lat="48.8078308" lon="4.8333172"><ele>116.0</ele><time>2026-05-01T14:40:15.961Z</time></trkpt><trkpt lat="48.8078941" lon="4.8330114"><ele>116.0</ele><time>2026-05-01T14:40:16.963Z</time></trkpt><trkpt lat="48.8079528" lon="4.8327065"><ele>116.0</ele><time>2026-05-01T14:40:17.965Z</time></trkpt><trkpt lat="48.8080084" lon="4.8324065"><ele>116.0</ele><time>2026-05-01T14:40:18.962Z</time></trkpt><trkpt lat="48.8080646" lon="4.8321007"><ele>115.66666666666666</ele><time>2026-05-01T14:40:19.982Z</time></trkpt><trkpt lat="48.8081188" lon="4.8317891"><ele>115.33333333333334</ele><time>2026-05-01T14:40:20.961Z</time></trkpt><trkpt lat="48.8081747" lon="4.8314795"><ele>115.0</ele><time>2026-05-01T14:40:21.961Z</time></trkpt><trkpt lat="48.8082309" lon="4.8311742"><ele>115.0</ele><time>2026-05-01T14:40:22.966Z</time></trkpt><trkpt lat="48.8082903" lon="4.8308673"><ele>115.0</ele><time>2026-05-01T14:40:23.962Z</time></trkpt><trkpt lat="48.8083495" lon="4.8305536"><ele>115.0</ele><time>2026-05-01T14:40:24.96Z</time></trkpt><trkpt lat="48.8084071" lon="4.8302414"><ele>115.0</ele><time>2026-05-01T14:40:25.964Z</time></trkpt><trkpt lat="48.808463" lon="4.82993"><ele>115.0</ele><time>2026-05-01T14:40:26.966Z</time></trkpt><trkpt lat="48.8085202" lon="4.8296194"><ele>115.0</ele><time>2026-05-01T14:40:27.963Z</time></trkpt><trkpt lat="48.8085768" lon="4.8293041"><ele>115.0</ele><time>2026-05-01T14:40:28.963Z</time></trkpt><trkpt lat="48.8086351" lon="4.8289855"><ele>115.0</ele><time>2026-05-01T14:40:29.968Z</time></trkpt><trkpt lat="48.8086957" lon="4.828665"><ele>115.0</ele><time>2026-05-01T14:40:30.962Z</time></trkpt><trkpt lat="48.8087577" lon="4.8283439"><ele>115.0</ele><time>2026-05-01T14:40:31.966Z</time></trkpt><trkpt lat="48.8088175" lon="4.8280226"><ele>115.0</ele><time>2026-05-01T14:40:32.968Z</time></trkpt><trkpt lat="48.8088778" lon="4.8276992"><ele>115.0</ele><time>2026-05-01T14:40:33.966Z</time></trkpt><trkpt lat="48.8089371" lon="4.827375"><ele>115.0</ele><time>2026-05-01T14:40:34.959Z</time></trkpt><trkpt lat="48.8089968" lon="4.8270523"><ele>115.0</ele><time>2026-05-01T14:40:35.961Z</time></trkpt><trkpt lat="48.8090552" lon="4.8267282"><ele>115.0</ele><time>2026-05-01T14:40:36.969Z</time></trkpt><trkpt lat="48.8091154" lon="4.8264087"><ele>115.0</ele><time>2026-05-01T14:40:37.965Z</time></trkpt><trkpt lat="48.8091773" lon="4.8260891"><ele>115.0</ele><time>2026-05-01T14:40:38.965Z</time></trkpt><trkpt lat="48.8092371" lon="4.8257681"><ele>115.0</ele><time>2026-05-01T14:40:39.97Z</time></trkpt><trkpt lat="48.809295" lon="4.8254489"><ele>115.0</ele><time>2026-05-01T14:40:40.965Z</time></trkpt><trkpt lat="48.8093538" lon="4.825128"><ele>115.0</ele><time>2026-05-01T14:40:41.971Z</time></trkpt><trkpt lat="48.8094124" lon="4.8248098"><ele>115.0</ele><time>2026-05-01T14:40:42.965Z</time></trkpt><trkpt lat="48.8094721" lon="4.8244926"><ele>115.66666666666667</ele><time>2026-05-01T14:40:43.968Z</time></trkpt><trkpt lat="48.8095325" lon="4.82418"><ele>116.33333333333334</ele><time>2026-05-01T14:40:44.963Z</time></trkpt><trkpt lat="48.8095931" lon="4.823866"><ele>117.0</ele><time>2026-05-01T14:40:45.967Z</time></trkpt><trkpt lat="48.8096526" lon="4.8235492"><ele>117.0</ele><time>2026-05-01T14:40:46.989Z</time></trkpt><trkpt lat="48.8097088" lon="4.8232388"><ele>117.0</ele><time>2026-05-01T14:40:47.961Z</time></trkpt><trkpt lat="48.8097691" lon="4.8229251"><ele>117.0</ele><time>2026-05-01T14:40:48.967Z</time></trkpt><trkpt lat="48.8098285" lon="4.8226113"><ele>117.0</ele><time>2026-05-01T14:40:49.959Z</time></trkpt><trkpt lat="48.8098891" lon="4.822297"><ele>117.0</ele><time>2026-05-01T14:40:50.973Z</time></trkpt><trkpt lat="48.809948" lon="4.8219866"><ele>117.0</ele><time>2026-05-01T14:40:51.963Z</time></trkpt><trkpt lat="48.8099982" lon="4.8216672"><ele>116.66666666666666</ele><time>2026-05-01T14:40:52.966Z</time></trkpt><trkpt lat="48.8100286" lon="4.8213461"><ele>116.33333333333333</ele><time>2026-05-01T14:40:53.979Z</time></trkpt><trkpt lat="48.8100257" lon="4.821024"><ele>116.0</ele><time>2026-05-01T14:40:54.965Z</time></trkpt><trkpt lat="48.8099875" lon="4.8207055"><ele>115.66666666666666</ele><time>2026-05-01T14:40:55.974Z</time></trkpt><trkpt lat="48.8099325" lon="4.8203922"><ele>115.33333333333334</ele><time>2026-05-01T14:40:56.966Z</time></trkpt><trkpt lat="48.8098854" lon="4.8200818"><ele>115.0</ele><time>2026-05-01T14:40:57.965Z</time></trkpt><trkpt lat="48.8098469" lon="4.8197555"><ele>115.0</ele><time>2026-05-01T14:40:58.967Z</time></trkpt><trkpt lat="48.8098241" lon="4.8194255"><ele>115.0</ele><time>2026-05-01T14:40:59.958Z</time></trkpt><trkpt lat="48.809813" lon="4.8190917"><ele>115.0</ele><time>2026-05-01T14:41:00.968Z</time></trkpt><trkpt lat="48.8098041" lon="4.8187662"><ele>114.66666666666667</ele><time>2026-05-01T14:41:01.963Z</time></trkpt><trkpt lat="48.8097949" lon="4.8184423"><ele>114.33333333333334</ele><time>2026-05-01T14:41:02.966Z</time></trkpt><trkpt lat="48.8097857" lon="4.8181197"><ele>114.0</ele><time>2026-05-01T14:41:03.963Z</time></trkpt><trkpt lat="48.8097795" lon="4.8177969"><ele>114.0</ele><time>2026-05-01T14:41:04.962Z</time></trkpt><trkpt lat="48.8097839" lon="4.817472"><ele>114.0</ele><time>2026-05-01T14:41:05.957Z</time></trkpt><trkpt lat="48.8097977" lon="4.8171418"><ele>114.0</ele><time>2026-05-01T14:41:06.966Z</time></trkpt><trkpt lat="48.8098231" lon="4.8168232"><ele>114.33333333333334</ele><time>2026-05-01T14:41:07.965Z</time></trkpt><trkpt lat="48.8098587" lon="4.8165058"><ele>114.66666666666667</ele><time>2026-05-01T14:41:08.964Z</time></trkpt><trkpt lat="48.8099006" lon="4.816186"><ele>115.0</ele><time>2026-05-01T14:41:09.967Z</time></trkpt><trkpt lat="48.8099513" lon="4.8158613"><ele>115.0</ele><time>2026-05-01T14:41:11.003Z</time></trkpt><trkpt lat="48.8100044" lon="4.8155503"><ele>115.0</ele><time>2026-05-01T14:41:11.962Z</time></trkpt><trkpt lat="48.8100663" lon="4.8152328"><ele>115.0</ele><time>2026-05-01T14:41:12.969Z</time></trkpt><trkpt lat="48.810132" lon="4.814921"><ele>115.0</ele><time>2026-05-01T14:41:13.961Z</time></trkpt><trkpt lat="48.8101971" lon="4.8146092"><ele>115.0</ele><time>2026-05-01T14:41:14.969Z</time></trkpt><trkpt lat="48.8102659" lon="4.8143013"><ele>115.0</ele><time>2026-05-01T14:41:15.963Z</time></trkpt><trkpt lat="48.8103357" lon="4.8139953"><ele>115.0</ele><time>2026-05-01T14:41:16.968Z</time></trkpt><trkpt lat="48.8104092" lon="4.8136923"><ele>115.0</ele><time>2026-05-01T14:41:17.963Z</time></trkpt><trkpt lat="48.8104866" lon="4.8133914"><ele>115.0</ele><time>2026-05-01T14:41:18.97Z</time></trkpt><trkpt lat="48.8105583" lon="4.8130906"><ele>115.0</ele><time>2026-05-01T14:41:19.969Z</time></trkpt><trkpt lat="48.8106246" lon="4.8127848"><ele>115.0</ele><time>2026-05-01T14:41:20.963Z</time></trkpt><trkpt lat="48.8106868" lon="4.8124713"><ele>115.0</ele><time>2026-05-01T14:41:21.966Z</time></trkpt><trkpt lat="48.8107392" lon="4.8121618"><ele>114.66666666666667</ele><time>2026-05-01T14:41:22.97Z</time></trkpt><trkpt lat="48.810781" lon="4.8118469"><ele>114.33333333333334</ele><time>2026-05-01T14:41:23.964Z</time></trkpt><trkpt lat="48.8108154" lon="4.8115287"><ele>114.0</ele><time>2026-05-01T14:41:24.963Z</time></trkpt><trkpt lat="48.8108484" lon="4.811209"><ele>114.0</ele><time>2026-05-01T14:41:25.965Z</time></trkpt><trkpt lat="48.8108847" lon="4.810889"><ele>114.0</ele><time>2026-05-01T14:41:26.981Z</time></trkpt><trkpt lat="48.8109179" lon="4.8105684"><ele>114.0</ele><time>2026-05-01T14:41:27.962Z</time></trkpt><trkpt lat="48.8109483" lon="4.8102434"><ele>114.0</ele><time>2026-05-01T14:41:28.96Z</time></trkpt><trkpt lat="48.8109797" lon="4.8099122"><ele>114.0</ele><time>2026-05-01T14:41:29.968Z</time></trkpt><trkpt lat="48.81101" lon="4.8095866"><ele>114.0</ele><time>2026-05-01T14:41:30.962Z</time></trkpt><trkpt lat="48.811038" lon="4.8092705"><ele>114.0</ele><time>2026-05-01T14:41:31.968Z</time></trkpt><trkpt lat="48.8110634" lon="4.8089723"><ele>114.0</ele><time>2026-05-01T14:41:32.968Z</time></trkpt><trkpt lat="48.811087" lon="4.8086849"><ele>114.0</ele><time>2026-05-01T14:41:33.968Z</time></trkpt><trkpt lat="48.8111093" lon="4.808421"><ele>114.0</ele><time>2026-05-01T14:41:34.972Z</time></trkpt><trkpt lat="48.8111289" lon="4.8081891"><ele>114.0</ele><time>2026-05-01T14:41:35.962Z</time></trkpt><trkpt lat="48.8111424" lon="4.807965"><ele>114.0</ele><time>2026-05-01T14:41:36.974Z</time></trkpt><trkpt lat="48.8111508" lon="4.8077492"><ele>114.0</ele><time>2026-05-01T14:41:37.966Z</time></trkpt><trkpt lat="48.8111696" lon="4.8075368"><ele>114.0</ele><time>2026-05-01T14:41:38.97Z</time></trkpt><trkpt lat="48.8112018" lon="4.807327"><ele>114.0</ele><time>2026-05-01T14:41:39.963Z</time></trkpt><trkpt lat="48.8112234" lon="4.8071199"><ele>114.0</ele><time>2026-05-01T14:41:40.975Z</time></trkpt><trkpt lat="48.8112373" lon="4.8069015"><ele>114.0</ele><time>2026-05-01T14:41:41.962Z</time></trkpt><trkpt lat="48.811249" lon="4.8066961"><ele>114.0</ele><time>2026-05-01T14:41:42.965Z</time></trkpt><trkpt lat="48.8112634" lon="4.8065052"><ele>114.0</ele><time>2026-05-01T14:41:43.973Z</time></trkpt><trkpt lat="48.8112766" lon="4.8063217"><ele>114.0</ele><time>2026-05-01T14:41:44.969Z</time></trkpt><trkpt lat="48.8112897" lon="4.8061453"><ele>114.0</ele><time>2026-05-01T14:41:45.966Z</time></trkpt><trkpt lat="48.8113022" lon="4.8059789"><ele>114.0</ele><time>2026-05-01T14:41:46.96Z</time></trkpt><trkpt lat="48.811315" lon="4.805823"><ele>114.0</ele><time>2026-05-01T14:41:47.963Z</time></trkpt><trkpt lat="48.8113274" lon="4.8056706"><ele>114.0</ele><time>2026-05-01T14:41:48.964Z</time></trkpt><trkpt lat="48.8113409" lon="4.8055318"><ele>114.0</ele><time>2026-05-01T14:41:49.966Z</time></trkpt><trkpt lat="48.8113535" lon="4.8054095"><ele>114.0</ele><time>2026-05-01T14:41:50.967Z</time></trkpt><trkpt lat="48.8113625" lon="4.8053109"><ele>114.0</ele><time>2026-05-01T14:41:51.969Z</time></trkpt><trkpt lat="48.8113774" lon="4.8051908"><ele>114.16666666666667</ele><time>2026-05-01T14:41:53.966Z</time></trkpt><trkpt lat="48.8113913" lon="4.8050582"><ele>114.33333333333334</ele><time>2026-05-01T14:41:56.976Z</time></trkpt><trkpt lat="48.8114125" lon="4.8048883"><ele>114.5</ele><time>2026-05-01T14:41:58.967Z</time></trkpt><trkpt lat="48.811425" lon="4.8047871"><ele>114.66666666666667</ele><time>2026-05-01T14:41:59.967Z</time></trkpt><trkpt lat="48.8114382" lon="4.804681"><ele>114.83333333333334</ele><time>2026-05-01T14:42:00.963Z</time></trkpt><trkpt lat="48.8114511" lon="4.8045515"><ele>115.0</ele><time>2026-05-01T14:42:01.964Z</time></trkpt><trkpt lat="48.8114679" lon="4.8044164"><ele>115.0</ele><time>2026-05-01T14:42:02.962Z</time></trkpt><trkpt lat="48.8114871" lon="4.804268"><ele>115.0</ele><time>2026-05-01T14:42:03.965Z</time></trkpt><trkpt lat="48.8115127" lon="4.8041092"><ele>115.0</ele><time>2026-05-01T14:42:04.97Z</time></trkpt><trkpt lat="48.8115345" lon="4.8039528"><ele>115.0</ele><time>2026-05-01T14:42:05.979Z</time></trkpt><trkpt lat="48.811556" lon="4.8037891"><ele>115.0</ele><time>2026-05-01T14:42:06.958Z</time></trkpt><trkpt lat="48.8115749" lon="4.8036251"><ele>115.0</ele><time>2026-05-01T14:42:07.968Z</time></trkpt><trkpt lat="48.8115898" lon="4.8034641"><ele>115.0</ele><time>2026-05-01T14:42:08.96Z</time></trkpt><trkpt lat="48.8116087" lon="4.8033051"><ele>115.0</ele><time>2026-05-01T14:42:09.965Z</time></trkpt><trkpt lat="48.8116307" lon="4.8031598"><ele>115.0</ele><time>2026-05-01T14:42:10.963Z</time></trkpt><trkpt lat="48.811682" lon="4.8030455"><ele>115.0</ele><time>2026-05-01T14:42:11.969Z</time></trkpt><trkpt lat="48.8117665" lon="4.8029914"><ele>114.8</ele><time>2026-05-01T14:42:12.967Z</time></trkpt><trkpt lat="48.8118703" lon="4.802979"><ele>114.6</ele><time>2026-05-01T14:42:13.966Z</time></trkpt><trkpt lat="48.8119796" lon="4.8030012"><ele>114.4</ele><time>2026-05-01T14:42:14.963Z</time></trkpt><trkpt lat="48.8120847" lon="4.803025"><ele>114.2</ele><time>2026-05-01T14:42:15.968Z</time></trkpt><trkpt lat="48.8121881" lon="4.8030608"><ele>114.0</ele><time>2026-05-01T14:42:16.966Z</time></trkpt><trkpt lat="48.8122903" lon="4.8030886"><ele>114.0</ele><time>2026-05-01T14:42:17.972Z</time></trkpt><trkpt lat="48.8123957" lon="4.8031202"><ele>114.0</ele><time>2026-05-01T14:42:18.965Z</time></trkpt><trkpt lat="48.8125034" lon="4.8031559"><ele>114.0</ele><time>2026-05-01T14:42:19.967Z</time></trkpt><trkpt lat="48.8126094" lon="4.8031882"><ele>114.0</ele><time>2026-05-01T14:42:20.963Z</time></trkpt><trkpt lat="48.8127094" lon="4.8032243"><ele>114.0</ele><time>2026-05-01T14:42:21.96Z</time></trkpt><trkpt lat="48.8128104" lon="4.8032591"><ele>113.75</ele><time>2026-05-01T14:42:22.966Z</time></trkpt><trkpt lat="48.812925" lon="4.8032891"><ele>113.5</ele><time>2026-05-01T14:42:23.964Z</time></trkpt><trkpt lat="48.813037" lon="4.8033297"><ele>113.25</ele><time>2026-05-01T14:42:24.962Z</time></trkpt><trkpt lat="48.8131469" lon="4.8033666"><ele>113.0</ele><time>2026-05-01T14:42:25.967Z</time></trkpt><trkpt lat="48.8132654" lon="4.803412"><ele>113.0</ele><time>2026-05-01T14:42:26.974Z</time></trkpt><trkpt lat="48.813381" lon="4.8034666"><ele>113.0</ele><time>2026-05-01T14:42:27.969Z</time></trkpt><trkpt lat="48.813505" lon="4.8035138"><ele>113.0</ele><time>2026-05-01T14:42:28.963Z</time></trkpt><trkpt lat="48.8136412" lon="4.803546"><ele>113.0</ele><time>2026-05-01T14:42:29.968Z</time></trkpt><trkpt lat="48.8137809" lon="4.8035328"><ele>113.5</ele><time>2026-05-01T14:42:30.969Z</time></trkpt><trkpt lat="48.8139063" lon="4.8034602"><ele>114.0</ele><time>2026-05-01T14:42:31.965Z</time></trkpt><trkpt lat="48.8140309" lon="4.8033422"><ele>114.5</ele><time>2026-05-01T14:42:32.962Z</time></trkpt><trkpt lat="48.814135" lon="4.8031667"><ele>115.0</ele><time>2026-05-01T14:42:33.967Z</time></trkpt><trkpt lat="48.814202" lon="4.8029621"><ele>115.0</ele><time>2026-05-01T14:42:34.969Z</time></trkpt><trkpt lat="48.814251" lon="4.8027441"><ele>115.0</ele><time>2026-05-01T14:42:35.967Z</time></trkpt><trkpt lat="48.8142958" lon="4.8025257"><ele>115.0</ele><time>2026-05-01T14:42:36.965Z</time></trkpt><trkpt lat="48.8143398" lon="4.802298"><ele>114.33333333333334</ele><time>2026-05-01T14:42:37.971Z</time></trkpt><trkpt lat="48.8143847" lon="4.8020674"><ele>113.66666666666666</ele><time>2026-05-01T14:42:38.966Z</time></trkpt><trkpt lat="48.8144323" lon="4.8018369"><ele>113.0</ele><time>2026-05-01T14:42:39.963Z</time></trkpt><trkpt lat="48.8144808" lon="4.8016225"><ele>113.0</ele><time>2026-05-01T14:42:40.963Z</time></trkpt><trkpt lat="48.8145348" lon="4.8014198"><ele>113.0</ele><time>2026-05-01T14:42:41.988Z</time></trkpt><trkpt lat="48.8145999" lon="4.8012389"><ele>113.0</ele><time>2026-05-01T14:42:42.963Z</time></trkpt><trkpt lat="48.8146752" lon="4.8010764"><ele>113.0</ele><time>2026-05-01T14:42:43.96Z</time></trkpt><trkpt lat="48.814741" lon="4.800895"><ele>113.0</ele><time>2026-05-01T14:42:44.961Z</time></trkpt><trkpt lat="48.8147866" lon="4.8006801"><ele>113.0</ele><time>2026-05-01T14:42:45.966Z</time></trkpt><trkpt lat="48.8148117" lon="4.8004461"><ele>113.0</ele><time>2026-05-01T14:42:46.967Z</time></trkpt><trkpt lat="48.8148591" lon="4.8002022"><ele>113.0</ele><time>2026-05-01T14:42:47.966Z</time></trkpt><trkpt lat="48.8149019" lon="4.7999551"><ele>113.0</ele><time>2026-05-01T14:42:48.958Z</time></trkpt><trkpt lat="48.8149226" lon="4.7997022"><ele>113.0</ele><time>2026-05-01T14:42:49.965Z</time></trkpt><trkpt lat="48.814908" lon="4.799433"><ele>114.0</ele><time>2026-05-01T14:42:50.968Z</time></trkpt><trkpt lat="48.8148804" lon="4.7991551"><ele>115.0</ele><time>2026-05-01T14:42:51.964Z</time></trkpt><trkpt lat="48.8148507" lon="4.7988766"><ele>116.0</ele><time>2026-05-01T14:42:52.965Z</time></trkpt><trkpt lat="48.8148173" lon="4.7985933"><ele>116.33333333333333</ele><time>2026-05-01T14:42:53.963Z</time></trkpt><trkpt lat="48.8147849" lon="4.798301"><ele>116.66666666666666</ele><time>2026-05-01T14:42:54.977Z</time></trkpt><trkpt lat="48.8147508" lon="4.798005"><ele>117.0</ele><time>2026-05-01T14:42:55.964Z</time></trkpt><trkpt lat="48.8147275" lon="4.7977162"><ele>117.0</ele><time>2026-05-01T14:42:56.975Z</time></trkpt><trkpt lat="48.8147105" lon="4.7974325"><ele>117.0</ele><time>2026-05-01T14:42:57.965Z</time></trkpt><trkpt lat="48.8147113" lon="4.7971498"><ele>117.0</ele><time>2026-05-01T14:42:58.96Z</time></trkpt><trkpt lat="48.8147366" lon="4.7968714"><ele>116.66666666666666</ele><time>2026-05-01T14:42:59.964Z</time></trkpt><trkpt lat="48.8147831" lon="4.7965924"><ele>116.33333333333333</ele><time>2026-05-01T14:43:00.965Z</time></trkpt><trkpt lat="48.8148337" lon="4.7963004"><ele>116.0</ele><time>2026-05-01T14:43:01.966Z</time></trkpt><trkpt lat="48.8148795" lon="4.7960028"><ele>115.66666666666666</ele><time>2026-05-01T14:43:02.957Z</time></trkpt><trkpt lat="48.8149236" lon="4.7957008"><ele>115.33333333333334</ele><time>2026-05-01T14:43:03.968Z</time></trkpt><trkpt lat="48.814977" lon="4.7954023"><ele>115.0</ele><time>2026-05-01T14:43:04.964Z</time></trkpt><trkpt lat="48.8150269" lon="4.7950996"><ele>115.0</ele><time>2026-05-01T14:43:05.969Z</time></trkpt><trkpt lat="48.8150808" lon="4.7947919"><ele>115.0</ele><time>2026-05-01T14:43:06.962Z</time></trkpt><trkpt lat="48.8151351" lon="4.7944825"><ele>115.0</ele><time>2026-05-01T14:43:07.962Z</time></trkpt><trkpt lat="48.8151849" lon="4.794176"><ele>114.66666666666667</ele><time>2026-05-01T14:43:08.962Z</time></trkpt><trkpt lat="48.8152371" lon="4.7938669"><ele>114.33333333333334</ele><time>2026-05-01T14:43:09.962Z</time></trkpt><trkpt lat="48.8152888" lon="4.7935611"><ele>114.0</ele><time>2026-05-01T14:43:10.966Z</time></trkpt><trkpt lat="48.8153432" lon="4.7932543"><ele>113.66666666666666</ele><time>2026-05-01T14:43:11.963Z</time></trkpt><trkpt lat="48.8153943" lon="4.7929465"><ele>113.33333333333333</ele><time>2026-05-01T14:43:12.959Z</time></trkpt><trkpt lat="48.8154453" lon="4.7926386"><ele>113.0</ele><time>2026-05-01T14:43:13.966Z</time></trkpt><trkpt lat="48.8154966" lon="4.7923242"><ele>113.0</ele><time>2026-05-01T14:43:14.969Z</time></trkpt><trkpt lat="48.8155471" lon="4.7920056"><ele>113.0</ele><time>2026-05-01T14:43:15.96Z</time></trkpt><trkpt lat="48.8155973" lon="4.791686"><ele>113.0</ele><time>2026-05-01T14:43:16.96Z</time></trkpt><trkpt lat="48.8156463" lon="4.7913627"><ele>113.0</ele><time>2026-05-01T14:43:17.961Z</time></trkpt><trkpt lat="48.8156916" lon="4.7910495"><ele>113.0</ele><time>2026-05-01T14:43:18.965Z</time></trkpt><trkpt lat="48.8157401" lon="4.7907426"><ele>113.0</ele><time>2026-05-01T14:43:19.977Z</time></trkpt><trkpt lat="48.8157847" lon="4.7904444"><ele>113.33333333333333</ele><time>2026-05-01T14:43:20.966Z</time></trkpt><trkpt lat="48.8158195" lon="4.7901471"><ele>113.66666666666666</ele><time>2026-05-01T14:43:21.97Z</time></trkpt><trkpt lat="48.8158327" lon="4.7898511"><ele>114.0</ele><time>2026-05-01T14:43:22.968Z</time></trkpt><trkpt lat="48.8158053" lon="4.7895454"><ele>114.0</ele><time>2026-05-01T14:43:23.966Z</time></trkpt><trkpt lat="48.8157379" lon="4.7892532"><ele>114.0</ele><time>2026-05-01T14:43:24.972Z</time></trkpt><trkpt lat="48.8156507" lon="4.7889769"><ele>114.0</ele><time>2026-05-01T14:43:25.969Z</time></trkpt><trkpt lat="48.8155479" lon="4.7887059"><ele>113.66666666666666</ele><time>2026-05-01T14:43:26.965Z</time></trkpt><trkpt lat="48.8154442" lon="4.7884179"><ele>113.33333333333333</ele><time>2026-05-01T14:43:27.963Z</time></trkpt><trkpt lat="48.8153367" lon="4.7881309"><ele>113.0</ele><time>2026-05-01T14:43:28.982Z</time></trkpt><trkpt lat="48.8152292" lon="4.7878493"><ele>113.33333333333333</ele><time>2026-05-01T14:43:29.961Z</time></trkpt><trkpt lat="48.8151192" lon="4.787565"><ele>113.66666666666666</ele><time>2026-05-01T14:43:30.964Z</time></trkpt><trkpt lat="48.8150108" lon="4.7872823"><ele>114.0</ele><time>2026-05-01T14:43:31.966Z</time></trkpt><trkpt lat="48.8149123" lon="4.7869834"><ele>113.66666666666666</ele><time>2026-05-01T14:43:32.966Z</time></trkpt><trkpt lat="48.8148286" lon="4.7866812"><ele>113.33333333333333</ele><time>2026-05-01T14:43:33.967Z</time></trkpt><trkpt lat="48.814769" lon="4.7863676"><ele>113.0</ele><time>2026-05-01T14:43:34.971Z</time></trkpt><trkpt lat="48.8147206" lon="4.7860569"><ele>112.66666666666666</ele><time>2026-05-01T14:43:35.967Z</time></trkpt><trkpt lat="48.8146742" lon="4.785741"><ele>112.33333333333334</ele><time>2026-05-01T14:43:36.958Z</time></trkpt><trkpt lat="48.814626" lon="4.7854261"><ele>112.0</ele><time>2026-05-01T14:43:37.972Z</time></trkpt><trkpt lat="48.8145764" lon="4.7851195"><ele>112.0</ele><time>2026-05-01T14:43:38.969Z</time></trkpt><trkpt lat="48.8145225" lon="4.7848091"><ele>112.0</ele><time>2026-05-01T14:43:39.966Z</time></trkpt><trkpt lat="48.8144772" lon="4.7844979"><ele>112.0</ele><time>2026-05-01T14:43:40.964Z</time></trkpt><trkpt lat="48.8144511" lon="4.7841892"><ele>112.33333333333334</ele><time>2026-05-01T14:43:41.959Z</time></trkpt><trkpt lat="48.8144521" lon="4.7838805"><ele>112.66666666666666</ele><time>2026-05-01T14:43:42.965Z</time></trkpt><trkpt lat="48.8144713" lon="4.7835754"><ele>113.0</ele><time>2026-05-01T14:43:43.975Z</time></trkpt><trkpt lat="48.8144963" lon="4.7832623"><ele>113.0</ele><time>2026-05-01T14:43:44.966Z</time></trkpt><trkpt lat="48.8145173" lon="4.7829434"><ele>113.0</ele><time>2026-05-01T14:43:45.967Z</time></trkpt><trkpt lat="48.8145391" lon="4.7826185"><ele>113.0</ele><time>2026-05-01T14:43:46.963Z</time></trkpt><trkpt lat="48.8145561" lon="4.782285"><ele>112.66666666666666</ele><time>2026-05-01T14:43:47.971Z</time></trkpt><trkpt lat="48.8145774" lon="4.7819553"><ele>112.33333333333334</ele><time>2026-05-01T14:43:48.966Z</time></trkpt><trkpt lat="48.814604" lon="4.7816212"><ele>112.0</ele><time>2026-05-01T14:43:49.962Z</time></trkpt><trkpt lat="48.8146318" lon="4.7812896"><ele>112.0</ele><time>2026-05-01T14:43:50.971Z</time></trkpt><trkpt lat="48.8146643" lon="4.7809506"><ele>112.0</ele><time>2026-05-01T14:43:51.967Z</time></trkpt><trkpt lat="48.8146925" lon="4.7806191"><ele>112.0</ele><time>2026-05-01T14:43:52.956Z</time></trkpt><trkpt lat="48.8147251" lon="4.7802834"><ele>112.0</ele><time>2026-05-01T14:43:53.966Z</time></trkpt><trkpt lat="48.8147529" lon="4.779954"><ele>112.0</ele><time>2026-05-01T14:43:54.967Z</time></trkpt><trkpt lat="48.8147825" lon="4.7796214"><ele>112.0</ele><time>2026-05-01T14:43:55.965Z</time></trkpt><trkpt lat="48.8148121" lon="4.7792889"><ele>112.0</ele><time>2026-05-01T14:43:56.967Z</time></trkpt><trkpt lat="48.8148423" lon="4.7789527"><ele>112.0</ele><time>2026-05-01T14:43:57.966Z</time></trkpt><trkpt lat="48.8148746" lon="4.7786124"><ele>111.0</ele><time>2026-05-01T14:43:58.967Z</time></trkpt><trkpt lat="48.8149039" lon="4.7782757"><ele>110.0</ele><time>2026-05-01T14:43:59.97Z</time></trkpt><trkpt lat="48.8149395" lon="4.7779364"><ele>110.0</ele><time>2026-05-01T14:44:00.963Z</time></trkpt><trkpt lat="48.8149724" lon="4.7776"><ele>110.0</ele><time>2026-05-01T14:44:01.966Z</time></trkpt><trkpt lat="48.815002" lon="4.7772622"><ele>110.0</ele><time>2026-05-01T14:44:02.958Z</time></trkpt><trkpt lat="48.8150312" lon="4.7769255"><ele>110.5</ele><time>2026-05-01T14:44:03.961Z</time></trkpt><trkpt lat="48.8150593" lon="4.7765858"><ele>111.0</ele><time>2026-05-01T14:44:04.961Z</time></trkpt><trkpt lat="48.8150868" lon="4.7762443"><ele>111.0</ele><time>2026-05-01T14:44:05.963Z</time></trkpt><trkpt lat="48.8151158" lon="4.7759125"><ele>111.0</ele><time>2026-05-01T14:44:06.964Z</time></trkpt><trkpt lat="48.8151414" lon="4.7755988"><ele>111.0</ele><time>2026-05-01T14:44:07.965Z</time></trkpt><trkpt lat="48.8151663" lon="4.7752964"><ele>111.33333333333334</ele><time>2026-05-01T14:44:08.968Z</time></trkpt><trkpt lat="48.8151966" lon="4.7750116"><ele>111.66666666666667</ele><time>2026-05-01T14:44:09.961Z</time></trkpt><trkpt lat="48.8152366" lon="4.7747489"><ele>112.0</ele><time>2026-05-01T14:44:10.964Z</time></trkpt><trkpt lat="48.8152963" lon="4.7744922"><ele>111.33333333333334</ele><time>2026-05-01T14:44:11.966Z</time></trkpt><trkpt lat="48.8153712" lon="4.7742512"><ele>110.66666666666666</ele><time>2026-05-01T14:44:12.963Z</time></trkpt><trkpt lat="48.8154663" lon="4.7740157"><ele>110.0</ele><time>2026-05-01T14:44:13.969Z</time></trkpt><trkpt lat="48.8155846" lon="4.7737834"><ele>110.0</ele><time>2026-05-01T14:44:15.029Z</time></trkpt><trkpt lat="48.8157073" lon="4.7735445"><ele>110.0</ele><time>2026-05-01T14:44:15.965Z</time></trkpt><trkpt lat="48.8158306" lon="4.7733019"><ele>110.0</ele><time>2026-05-01T14:44:16.958Z</time></trkpt><trkpt lat="48.8159524" lon="4.7730551"><ele>111.0</ele><time>2026-05-01T14:44:17.961Z</time></trkpt><trkpt lat="48.8160772" lon="4.7728036"><ele>112.0</ele><time>2026-05-01T14:44:18.962Z</time></trkpt><trkpt lat="48.8161975" lon="4.7725531"><ele>113.0</ele><time>2026-05-01T14:44:19.964Z</time></trkpt><trkpt lat="48.8163252" lon="4.7723028"><ele>113.0</ele><time>2026-05-01T14:44:20.965Z</time></trkpt><trkpt lat="48.8164524" lon="4.772044"><ele>113.0</ele><time>2026-05-01T14:44:21.963Z</time></trkpt><trkpt lat="48.8165774" lon="4.7717829"><ele>113.0</ele><time>2026-05-01T14:44:22.965Z</time></trkpt><trkpt lat="48.8167086" lon="4.7715151"><ele>113.0</ele><time>2026-05-01T14:44:23.965Z</time></trkpt><trkpt lat="48.8168436" lon="4.7712457"><ele>113.0</ele><time>2026-05-01T14:44:24.963Z</time></trkpt><trkpt lat="48.8169786" lon="4.7709814"><ele>113.0</ele><time>2026-05-01T14:44:25.958Z</time></trkpt><trkpt lat="48.8171142" lon="4.7707072"><ele>113.0</ele><time>2026-05-01T14:44:26.962Z</time></trkpt><trkpt lat="48.8172471" lon="4.7704391"><ele>113.0</ele><time>2026-05-01T14:44:27.963Z</time></trkpt><trkpt lat="48.8173808" lon="4.7701649"><ele>113.0</ele><time>2026-05-01T14:44:28.971Z</time></trkpt><trkpt lat="48.81752" lon="4.7699036"><ele>115.5</ele><time>2026-05-01T14:44:29.966Z</time></trkpt><trkpt lat="48.8176664" lon="4.7696445"><ele>118.0</ele><time>2026-05-01T14:44:30.959Z</time></trkpt><trkpt lat="48.8178249" lon="4.7694006"><ele>118.33333333333334</ele><time>2026-05-01T14:44:31.961Z</time></trkpt><trkpt lat="48.8179902" lon="4.7691841"><ele>118.66666666666666</ele><time>2026-05-01T14:44:32.965Z</time></trkpt><trkpt lat="48.818158" lon="4.7689811"><ele>119.0</ele><time>2026-05-01T14:44:33.966Z</time></trkpt><trkpt lat="48.81833" lon="4.7687755"><ele>119.0</ele><time>2026-05-01T14:44:34.961Z</time></trkpt><trkpt lat="48.818501" lon="4.7685645"><ele>119.0</ele><time>2026-05-01T14:44:35.967Z</time></trkpt><trkpt lat="48.818672" lon="4.7683517"><ele>119.0</ele><time>2026-05-01T14:44:36.967Z</time></trkpt><trkpt lat="48.818839" lon="4.7681425"><ele>119.0</ele><time>2026-05-01T14:44:37.961Z</time></trkpt><trkpt lat="48.8190083" lon="4.7679278"><ele>119.0</ele><time>2026-05-01T14:44:38.967Z</time></trkpt><trkpt lat="48.8191772" lon="4.7677163"><ele>119.0</ele><time>2026-05-01T14:44:39.968Z</time></trkpt><trkpt lat="48.8193476" lon="4.7675069"><ele>119.66666666666666</ele><time>2026-05-01T14:44:40.966Z</time></trkpt><trkpt lat="48.8195065" lon="4.7673012"><ele>120.33333333333334</ele><time>2026-05-01T14:44:41.961Z</time></trkpt><trkpt lat="48.8196676" lon="4.7670934"><ele>121.0</ele><time>2026-05-01T14:44:42.969Z</time></trkpt><trkpt lat="48.8198297" lon="4.7668833"><ele>121.0</ele><time>2026-05-01T14:44:43.965Z</time></trkpt><trkpt lat="48.8199951" lon="4.7666701"><ele>121.0</ele><time>2026-05-01T14:44:44.968Z</time></trkpt><trkpt lat="48.8201618" lon="4.7664655"><ele>121.0</ele><time>2026-05-01T14:44:45.964Z</time></trkpt><trkpt lat="48.8203321" lon="4.7662588"><ele>120.66666666666667</ele><time>2026-05-01T14:44:46.968Z</time></trkpt><trkpt lat="48.8205045" lon="4.7660583"><ele>120.33333333333334</ele><time>2026-05-01T14:44:47.967Z</time></trkpt><trkpt lat="48.8206749" lon="4.7658605"><ele>120.0</ele><time>2026-05-01T14:44:48.972Z</time></trkpt><trkpt lat="48.8208476" lon="4.7656569"><ele>120.33333333333334</ele><time>2026-05-01T14:44:49.963Z</time></trkpt><trkpt lat="48.8210159" lon="4.765452"><ele>120.66666666666667</ele><time>2026-05-01T14:44:50.972Z</time></trkpt><trkpt lat="48.8211809" lon="4.7652506"><ele>121.0</ele><time>2026-05-01T14:44:51.971Z</time></trkpt><trkpt lat="48.8213514" lon="4.7650368"><ele>121.33333333333334</ele><time>2026-05-01T14:44:52.966Z</time></trkpt><trkpt lat="48.8215178" lon="4.7648312"><ele>121.66666666666666</ele><time>2026-05-01T14:44:53.966Z</time></trkpt><trkpt lat="48.8216835" lon="4.7646209"><ele>122.0</ele><time>2026-05-01T14:44:54.968Z</time></trkpt><trkpt lat="48.8218324" lon="4.7644185"><ele>123.0</ele><time>2026-05-01T14:44:55.964Z</time></trkpt><trkpt lat="48.8219715" lon="4.7642229"><ele>124.0</ele><time>2026-05-01T14:44:56.969Z</time></trkpt><trkpt lat="48.8220846" lon="4.7639947"><ele>125.0</ele><time>2026-05-01T14:44:57.963Z</time></trkpt><trkpt lat="48.8221818" lon="4.7637689"><ele>125.0</ele><time>2026-05-01T14:44:58.972Z</time></trkpt><trkpt lat="48.8222302" lon="4.7635113"><ele>125.0</ele><time>2026-05-01T14:44:59.968Z</time></trkpt><trkpt lat="48.8222524" lon="4.7632409"><ele>125.0</ele><time>2026-05-01T14:45:00.961Z</time></trkpt><trkpt lat="48.8222809" lon="4.7629551"><ele>124.66666666666666</ele><time>2026-05-01T14:45:01.97Z</time></trkpt><trkpt lat="48.8223083" lon="4.7626611"><ele>124.33333333333334</ele><time>2026-05-01T14:45:02.961Z</time></trkpt><trkpt lat="48.822341" lon="4.7623687"><ele>124.0</ele><time>2026-05-01T14:45:03.961Z</time></trkpt><trkpt lat="48.8223658" lon="4.762068"><ele>124.0</ele><time>2026-05-01T14:45:04.964Z</time></trkpt><trkpt lat="48.8223926" lon="4.7617684"><ele>124.0</ele><time>2026-05-01T14:45:05.958Z</time></trkpt><trkpt lat="48.822403" lon="4.7614639"><ele>124.0</ele><time>2026-05-01T14:45:06.967Z</time></trkpt><trkpt lat="48.8224067" lon="4.7611481"><ele>123.66666666666667</ele><time>2026-05-01T14:45:07.968Z</time></trkpt><trkpt lat="48.8224081" lon="4.7608337"><ele>123.33333333333334</ele><time>2026-05-01T14:45:08.964Z</time></trkpt><trkpt lat="48.8223975" lon="4.7605232"><ele>123.0</ele><time>2026-05-01T14:45:09.966Z</time></trkpt><trkpt lat="48.8223794" lon="4.7602137"><ele>122.33333333333334</ele><time>2026-05-01T14:45:10.965Z</time></trkpt><trkpt lat="48.8223629" lon="4.7598941"><ele>121.66666666666667</ele><time>2026-05-01T14:45:11.959Z</time></trkpt><trkpt lat="48.8223481" lon="4.7595766"><ele>121.0</ele><time>2026-05-01T14:45:12.961Z</time></trkpt><trkpt lat="48.8223356" lon="4.7592635"><ele>121.0</ele><time>2026-05-01T14:45:13.976Z</time></trkpt><trkpt lat="48.8223241" lon="4.7589426"><ele>121.0</ele><time>2026-05-01T14:45:14.973Z</time></trkpt><trkpt lat="48.8223097" lon="4.7586207"><ele>121.0</ele><time>2026-05-01T14:45:15.964Z</time></trkpt><trkpt lat="48.8222955" lon="4.7582997"><ele>121.0</ele><time>2026-05-01T14:45:16.962Z</time></trkpt><trkpt lat="48.8222811" lon="4.7579773"><ele>121.0</ele><time>2026-05-01T14:45:17.965Z</time></trkpt><trkpt lat="48.8222696" lon="4.7576545"><ele>121.0</ele><time>2026-05-01T14:45:18.973Z</time></trkpt><trkpt lat="48.8222547" lon="4.7573372"><ele>121.0</ele><time>2026-05-01T14:45:19.966Z</time></trkpt><trkpt lat="48.8222403" lon="4.7570173"><ele>121.0</ele><time>2026-05-01T14:45:20.968Z</time></trkpt><trkpt lat="48.8222259" lon="4.7566973"><ele>121.0</ele><time>2026-05-01T14:45:21.973Z</time></trkpt><trkpt lat="48.8222106" lon="4.7563783"><ele>121.0</ele><time>2026-05-01T14:45:22.971Z</time></trkpt><trkpt lat="48.8221952" lon="4.7560566"><ele>121.0</ele><time>2026-05-01T14:45:23.962Z</time></trkpt><trkpt lat="48.8221829" lon="4.7557433"><ele>121.0</ele><time>2026-05-01T14:45:24.961Z</time></trkpt><trkpt lat="48.8221691" lon="4.7554283"><ele>122.0</ele><time>2026-05-01T14:45:25.969Z</time></trkpt><trkpt lat="48.8221579" lon="4.7551164"><ele>123.0</ele><time>2026-05-01T14:45:26.96Z</time></trkpt><trkpt lat="48.8221508" lon="4.7548032"><ele>124.0</ele><time>2026-05-01T14:45:27.964Z</time></trkpt><trkpt lat="48.8221526" lon="4.7544846"><ele>124.0</ele><time>2026-05-01T14:45:28.996Z</time></trkpt><trkpt lat="48.8221627" lon="4.7541702"><ele>124.0</ele><time>2026-05-01T14:45:29.963Z</time></trkpt><trkpt lat="48.822185" lon="4.7538528"><ele>124.0</ele><time>2026-05-01T14:45:30.969Z</time></trkpt><trkpt lat="48.822218" lon="4.7535343"><ele>124.0</ele><time>2026-05-01T14:45:31.969Z</time></trkpt><trkpt lat="48.8222603" lon="4.7532205"><ele>124.0</ele><time>2026-05-01T14:45:32.96Z</time></trkpt><trkpt lat="48.8223146" lon="4.7529185"><ele>124.0</ele><time>2026-05-01T14:45:33.964Z</time></trkpt><trkpt lat="48.8223746" lon="4.7526188"><ele>124.0</ele><time>2026-05-01T14:45:34.962Z</time></trkpt><trkpt lat="48.8224342" lon="4.7523171"><ele>124.0</ele><time>2026-05-01T14:45:35.96Z</time></trkpt><trkpt lat="48.8224953" lon="4.7520131"><ele>124.0</ele><time>2026-05-01T14:45:36.961Z</time></trkpt><trkpt lat="48.8225592" lon="4.7517128"><ele>124.33333333333334</ele><time>2026-05-01T14:45:37.965Z</time></trkpt><trkpt lat="48.822613" lon="4.7514291"><ele>124.66666666666666</ele><time>2026-05-01T14:45:38.964Z</time></trkpt><trkpt lat="48.8226472" lon="4.7511441"><ele>125.0</ele><time>2026-05-01T14:45:39.97Z</time></trkpt><trkpt lat="48.8226464" lon="4.7508669"><ele>125.0</ele><time>2026-05-01T14:45:40.967Z</time></trkpt><trkpt lat="48.8226101" lon="4.7505925"><ele>125.0</ele><time>2026-05-01T14:45:41.962Z</time></trkpt><trkpt lat="48.8225464" lon="4.7503135"><ele>125.0</ele><time>2026-05-01T14:45:42.964Z</time></trkpt><trkpt lat="48.8224704" lon="4.750037"><ele>124.66666666666666</ele><time>2026-05-01T14:45:43.965Z</time></trkpt><trkpt lat="48.8223951" lon="4.7497682"><ele>124.33333333333334</ele><time>2026-05-01T14:45:44.974Z</time></trkpt><trkpt lat="48.8223232" lon="4.7494888"><ele>124.0</ele><time>2026-05-01T14:45:45.966Z</time></trkpt><trkpt lat="48.8222529" lon="4.7492144"><ele>124.0</ele><time>2026-05-01T14:45:46.963Z</time></trkpt><trkpt lat="48.8221899" lon="4.7489424"><ele>124.0</ele><time>2026-05-01T14:45:47.962Z</time></trkpt><trkpt lat="48.8221538" lon="4.7486673"><ele>124.0</ele><time>2026-05-01T14:45:48.966Z</time></trkpt><trkpt lat="48.8221455" lon="4.74839"><ele>124.33333333333334</ele><time>2026-05-01T14:45:49.966Z</time></trkpt><trkpt lat="48.8221704" lon="4.7481057"><ele>124.66666666666666</ele><time>2026-05-01T14:45:50.97Z</time></trkpt><trkpt lat="48.8222046" lon="4.7478281"><ele>125.0</ele><time>2026-05-01T14:45:51.965Z</time></trkpt><trkpt lat="48.822269" lon="4.7475501"><ele>125.66666666666666</ele><time>2026-05-01T14:45:52.963Z</time></trkpt><trkpt lat="48.8223403" lon="4.7472775"><ele>126.33333333333334</ele><time>2026-05-01T14:45:53.958Z</time></trkpt><trkpt lat="48.8224304" lon="4.7470173"><ele>127.0</ele><time>2026-05-01T14:45:54.962Z</time></trkpt><trkpt lat="48.822519" lon="4.7467502"><ele>127.0</ele><time>2026-05-01T14:45:55.969Z</time></trkpt><trkpt lat="48.8226092" lon="4.7464854"><ele>127.0</ele><time>2026-05-01T14:45:56.96Z</time></trkpt><trkpt lat="48.8227001" lon="4.7462181"><ele>127.0</ele><time>2026-05-01T14:45:57.962Z</time></trkpt><trkpt lat="48.8227884" lon="4.7459492"><ele>127.0</ele><time>2026-05-01T14:45:58.963Z</time></trkpt><trkpt lat="48.8228739" lon="4.7456799"><ele>127.0</ele><time>2026-05-01T14:45:59.96Z</time></trkpt><trkpt lat="48.8229599" lon="4.7454095"><ele>127.0</ele><time>2026-05-01T14:46:00.964Z</time></trkpt><trkpt lat="48.8230474" lon="4.7451369"><ele>128.0</ele><time>2026-05-01T14:46:01.963Z</time></trkpt><trkpt lat="48.8231349" lon="4.7448652"><ele>129.0</ele><time>2026-05-01T14:46:02.963Z</time></trkpt><trkpt lat="48.8232254" lon="4.7445965"><ele>130.0</ele><time>2026-05-01T14:46:03.964Z</time></trkpt><trkpt lat="48.823326" lon="4.7443251"><ele>130.33333333333334</ele><time>2026-05-01T14:46:04.966Z</time></trkpt><trkpt lat="48.8234362" lon="4.7440626"><ele>130.66666666666666</ele><time>2026-05-01T14:46:05.958Z</time></trkpt><trkpt lat="48.8235648" lon="4.743817"><ele>131.0</ele><time>2026-05-01T14:46:06.965Z</time></trkpt><trkpt lat="48.8237073" lon="4.743589"><ele>130.0</ele><time>2026-05-01T14:46:07.957Z</time></trkpt><trkpt lat="48.8238428" lon="4.7433577"><ele>129.0</ele><time>2026-05-01T14:46:08.969Z</time></trkpt><trkpt lat="48.8239826" lon="4.7431296"><ele>128.0</ele><time>2026-05-01T14:46:09.966Z</time></trkpt><trkpt lat="48.824123" lon="4.742896"><ele>128.33333333333331</ele><time>2026-05-01T14:46:10.962Z</time></trkpt><trkpt lat="48.8242602" lon="4.742657"><ele>128.66666666666666</ele><time>2026-05-01T14:46:11.971Z</time></trkpt><trkpt lat="48.8243987" lon="4.7424168"><ele>129.0</ele><time>2026-05-01T14:46:12.962Z</time></trkpt><trkpt lat="48.8245337" lon="4.7421814"><ele>129.0</ele><time>2026-05-01T14:46:13.963Z</time></trkpt><trkpt lat="48.8246656" lon="4.7419432"><ele>129.0</ele><time>2026-05-01T14:46:14.964Z</time></trkpt><trkpt lat="48.8247923" lon="4.7417075"><ele>129.0</ele><time>2026-05-01T14:46:15.975Z</time></trkpt><trkpt lat="48.8249146" lon="4.7414681"><ele>129.33333333333334</ele><time>2026-05-01T14:46:16.964Z</time></trkpt><trkpt lat="48.8250315" lon="4.7412376"><ele>129.66666666666669</ele><time>2026-05-01T14:46:17.962Z</time></trkpt><trkpt lat="48.8251482" lon="4.7410276"><ele>130.0</ele><time>2026-05-01T14:46:18.968Z</time></trkpt><trkpt lat="48.8252632" lon="4.7408318"><ele>130.0</ele><time>2026-05-01T14:46:19.963Z</time></trkpt><trkpt lat="48.8253754" lon="4.740648"><ele>130.0</ele><time>2026-05-01T14:46:20.976Z</time></trkpt><trkpt lat="48.8254837" lon="4.7404864"><ele>130.0</ele><time>2026-05-01T14:46:21.966Z</time></trkpt><trkpt lat="48.8255871" lon="4.7403249"><ele>130.25</ele><time>2026-05-01T14:46:22.962Z</time></trkpt><trkpt lat="48.8256814" lon="4.7401865"><ele>130.5</ele><time>2026-05-01T14:46:23.965Z</time></trkpt><trkpt lat="48.8257638" lon="4.7400547"><ele>130.75</ele><time>2026-05-01T14:46:24.969Z</time></trkpt><trkpt lat="48.8258406" lon="4.7399402"><ele>131.0</ele><time>2026-05-01T14:46:25.965Z</time></trkpt><trkpt lat="48.8259098" lon="4.7398486"><ele>131.0</ele><time>2026-05-01T14:46:26.968Z</time></trkpt><trkpt lat="48.8259694" lon="4.7397766"><ele>131.0</ele><time>2026-05-01T14:46:27.963Z</time></trkpt><trkpt lat="48.8260566" lon="4.7396745"><ele>131.0</ele><time>2026-05-01T14:46:29.964Z</time></trkpt><trkpt lat="48.8261204" lon="4.7394981"><ele>131.0</ele><time>2026-05-01T14:46:31.97Z</time></trkpt><trkpt lat="48.8261637" lon="4.7393806"><ele>131.0</ele><time>2026-05-01T14:46:32.96Z</time></trkpt><trkpt lat="48.8262165" lon="4.7392486"><ele>131.5</ele><time>2026-05-01T14:46:33.988Z</time></trkpt><trkpt lat="48.8262734" lon="4.7391016"><ele>132.0</ele><time>2026-05-01T14:46:34.969Z</time></trkpt><trkpt lat="48.8263393" lon="4.7389571"><ele>132.5</ele><time>2026-05-01T14:46:35.963Z</time></trkpt><trkpt lat="48.8264152" lon="4.738795"><ele>133.0</ele><time>2026-05-01T14:46:36.956Z</time></trkpt><trkpt lat="48.8264943" lon="4.7386237"><ele>133.33333333333334</ele><time>2026-05-01T14:46:37.964Z</time></trkpt><trkpt lat="48.8265804" lon="4.738437"><ele>133.66666666666666</ele><time>2026-05-01T14:46:38.967Z</time></trkpt><trkpt lat="48.8266708" lon="4.7382354"><ele>134.0</ele><time>2026-05-01T14:46:39.971Z</time></trkpt><trkpt lat="48.8267739" lon="4.738027"><ele>135.66666666666666</ele><time>2026-05-01T14:46:40.959Z</time></trkpt><trkpt lat="48.8268801" lon="4.7378004"><ele>137.33333333333334</ele><time>2026-05-01T14:46:41.966Z</time></trkpt><trkpt lat="48.8269855" lon="4.7375662"><ele>139.0</ele><time>2026-05-01T14:46:42.969Z</time></trkpt><trkpt lat="48.8270962" lon="4.73732"><ele>139.0</ele><time>2026-05-01T14:46:43.97Z</time></trkpt><trkpt lat="48.8272082" lon="4.7370668"><ele>139.0</ele><time>2026-05-01T14:46:44.966Z</time></trkpt><trkpt lat="48.827324" lon="4.7368145"><ele>139.0</ele><time>2026-05-01T14:46:45.971Z</time></trkpt><trkpt lat="48.8274396" lon="4.7365587"><ele>139.0</ele><time>2026-05-01T14:46:46.962Z</time></trkpt><trkpt lat="48.8275562" lon="4.7363034"><ele>139.0</ele><time>2026-05-01T14:46:47.962Z</time></trkpt><trkpt lat="48.8276701" lon="4.73603"><ele>139.0</ele><time>2026-05-01T14:46:48.962Z</time></trkpt><trkpt lat="48.8277798" lon="4.7357491"><ele>140.66666666666669</ele><time>2026-05-01T14:46:49.965Z</time></trkpt><trkpt lat="48.8278872" lon="4.735457"><ele>142.33333333333334</ele><time>2026-05-01T14:46:50.963Z</time></trkpt><trkpt lat="48.8279847" lon="4.7351641"><ele>144.0</ele><time>2026-05-01T14:46:51.963Z</time></trkpt><trkpt lat="48.8280783" lon="4.7348629"><ele>144.0</ele><time>2026-05-01T14:46:52.968Z</time></trkpt><trkpt lat="48.8281642" lon="4.7345621"><ele>144.0</ele><time>2026-05-01T14:46:53.961Z</time></trkpt><trkpt lat="48.8282491" lon="4.7342583"><ele>144.0</ele><time>2026-05-01T14:46:54.967Z</time></trkpt><trkpt lat="48.8283318" lon="4.7339555"><ele>144.0</ele><time>2026-05-01T14:46:55.965Z</time></trkpt><trkpt lat="48.82841" lon="4.7336511"><ele>144.0</ele><time>2026-05-01T14:46:56.959Z</time></trkpt><trkpt lat="48.8284783" lon="4.7333389"><ele>144.0</ele><time>2026-05-01T14:46:57.999Z</time></trkpt><trkpt lat="48.8285351" lon="4.7330166"><ele>145.66666666666666</ele><time>2026-05-01T14:46:58.961Z</time></trkpt><trkpt lat="48.8285841" lon="4.7326934"><ele>147.33333333333331</ele><time>2026-05-01T14:46:59.964Z</time></trkpt><trkpt lat="48.8286346" lon="4.7323686"><ele>149.0</ele><time>2026-05-01T14:47:00.967Z</time></trkpt><trkpt lat="48.8286835" lon="4.7320614"><ele>148.66666666666666</ele><time>2026-05-01T14:47:01.96Z</time></trkpt><trkpt lat="48.828735" lon="4.7317723"><ele>148.33333333333334</ele><time>2026-05-01T14:47:02.97Z</time></trkpt><trkpt lat="48.8287973" lon="4.7314876"><ele>148.0</ele><time>2026-05-01T14:47:03.961Z</time></trkpt><trkpt lat="48.8288742" lon="4.7312098"><ele>147.66666666666669</ele><time>2026-05-01T14:47:04.96Z</time></trkpt><trkpt lat="48.8289627" lon="4.7309496"><ele>147.33333333333334</ele><time>2026-05-01T14:47:05.956Z</time></trkpt><trkpt lat="48.8290647" lon="4.730704"><ele>147.0</ele><time>2026-05-01T14:47:06.971Z</time></trkpt><trkpt lat="48.8291728" lon="4.7304641"><ele>147.0</ele><time>2026-05-01T14:47:07.959Z</time></trkpt><trkpt lat="48.829283" lon="4.730242"><ele>147.0</ele><time>2026-05-01T14:47:08.964Z</time></trkpt><trkpt lat="48.8293849" lon="4.7300276"><ele>147.0</ele><time>2026-05-01T14:47:09.965Z</time></trkpt><trkpt lat="48.8294732" lon="4.7298158"><ele>146.66666666666666</ele><time>2026-05-01T14:47:10.96Z</time></trkpt><trkpt lat="48.8295499" lon="4.7295963"><ele>146.33333333333331</ele><time>2026-05-01T14:47:11.971Z</time></trkpt><trkpt lat="48.8296087" lon="4.7293575"><ele>146.0</ele><time>2026-05-01T14:47:12.966Z</time></trkpt><trkpt lat="48.8296494" lon="4.7291046"><ele>146.0</ele><time>2026-05-01T14:47:13.965Z</time></trkpt><trkpt lat="48.829665" lon="4.728839"><ele>146.0</ele><time>2026-05-01T14:47:14.967Z</time></trkpt><trkpt lat="48.8296577" lon="4.7285643"><ele>146.0</ele><time>2026-05-01T14:47:15.962Z</time></trkpt><trkpt lat="48.8296252" lon="4.7282816"><ele>146.5</ele><time>2026-05-01T14:47:16.961Z</time></trkpt><trkpt lat="48.8295876" lon="4.7279952"><ele>147.0</ele><time>2026-05-01T14:47:17.959Z</time></trkpt><trkpt lat="48.8295011" lon="4.7274307"><ele>147.33333333333334</ele><time>2026-05-01T14:47:19.972Z</time></trkpt><trkpt lat="48.8294546" lon="4.7271336"><ele>147.66666666666669</ele><time>2026-05-01T14:47:20.969Z</time></trkpt><trkpt lat="48.8294086" lon="4.7268347"><ele>148.0</ele><time>2026-05-01T14:47:21.968Z</time></trkpt><trkpt lat="48.8293585" lon="4.7265302"><ele>148.66666666666669</ele><time>2026-05-01T14:47:22.971Z</time></trkpt><trkpt lat="48.8293119" lon="4.7262278"><ele>149.33333333333334</ele><time>2026-05-01T14:47:23.986Z</time></trkpt><trkpt lat="48.829262" lon="4.7259234"><ele>150.0</ele><time>2026-05-01T14:47:24.963Z</time></trkpt><trkpt lat="48.829215" lon="4.7256183"><ele>150.66666666666666</ele><time>2026-05-01T14:47:25.962Z</time></trkpt><trkpt lat="48.8291683" lon="4.7253179"><ele>151.33333333333331</ele><time>2026-05-01T14:47:26.97Z</time></trkpt><trkpt lat="48.8291236" lon="4.7250129"><ele>152.0</ele><time>2026-05-01T14:47:28.022Z</time></trkpt><trkpt lat="48.8290772" lon="4.7247024"><ele>152.33333333333331</ele><time>2026-05-01T14:47:28.958Z</time></trkpt><trkpt lat="48.8290341" lon="4.7243964"><ele>152.66666666666666</ele><time>2026-05-01T14:47:29.96Z</time></trkpt><trkpt lat="48.8289902" lon="4.724091"><ele>153.0</ele><time>2026-05-01T14:47:30.98Z</time></trkpt><trkpt lat="48.8289456" lon="4.7237813"><ele>154.0</ele><time>2026-05-01T14:47:31.964Z</time></trkpt><trkpt lat="48.8289" lon="4.7234687"><ele>155.0</ele><time>2026-05-01T14:47:32.969Z</time></trkpt><trkpt lat="48.8288599" lon="4.7231638"><ele>156.0</ele><time>2026-05-01T14:47:33.965Z</time></trkpt><trkpt lat="48.8288137" lon="4.722857"><ele>156.33333333333334</ele><time>2026-05-01T14:47:34.967Z</time></trkpt><trkpt lat="48.8287681" lon="4.7225497"><ele>156.66666666666669</ele><time>2026-05-01T14:47:35.975Z</time></trkpt><trkpt lat="48.8287234" lon="4.72224"><ele>157.0</ele><time>2026-05-01T14:47:36.959Z</time></trkpt><trkpt lat="48.8286782" lon="4.7219235"><ele>157.66666666666669</ele><time>2026-05-01T14:47:37.966Z</time></trkpt><trkpt lat="48.8286343" lon="4.7216032"><ele>158.33333333333334</ele><time>2026-05-01T14:47:38.957Z</time></trkpt><trkpt lat="48.8285938" lon="4.7212875"><ele>159.0</ele><time>2026-05-01T14:47:39.963Z</time></trkpt><trkpt lat="48.8285547" lon="4.7209731"><ele>160.0</ele><time>2026-05-01T14:47:40.957Z</time></trkpt><trkpt lat="48.8285219" lon="4.7206485"><ele>161.0</ele><time>2026-05-01T14:47:41.962Z</time></trkpt><trkpt lat="48.8284933" lon="4.7203302"><ele>162.0</ele><time>2026-05-01T14:47:42.964Z</time></trkpt><trkpt lat="48.8284658" lon="4.7200125"><ele>165.0</ele><time>2026-05-01T14:47:43.964Z</time></trkpt><trkpt lat="48.8284405" lon="4.7196924"><ele>168.0</ele><time>2026-05-01T14:47:44.993Z</time></trkpt><trkpt lat="48.8284191" lon="4.7193767"><ele>171.0</ele><time>2026-05-01T14:47:45.964Z</time></trkpt><trkpt lat="48.8283921" lon="4.7190531"><ele>171.0</ele><time>2026-05-01T14:47:46.966Z</time></trkpt><trkpt lat="48.8283632" lon="4.7187345"><ele>171.0</ele><time>2026-05-01T14:47:47.962Z</time></trkpt><trkpt lat="48.8283318" lon="4.7184097"><ele>171.0</ele><time>2026-05-01T14:47:48.964Z</time></trkpt><trkpt lat="48.8283046" lon="4.71808"><ele>172.33333333333334</ele><time>2026-05-01T14:47:49.966Z</time></trkpt><trkpt lat="48.8282871" lon="4.7177498"><ele>173.66666666666669</ele><time>2026-05-01T14:47:50.963Z</time></trkpt><trkpt lat="48.8282756" lon="4.7174242"><ele>175.0</ele><time>2026-05-01T14:47:51.967Z</time></trkpt><trkpt lat="48.8282624" lon="4.7170994"><ele>177.66666666666669</ele><time>2026-05-01T14:47:52.965Z</time></trkpt><trkpt lat="48.8282517" lon="4.7167717"><ele>180.33333333333334</ele><time>2026-05-01T14:47:53.957Z</time></trkpt><trkpt lat="48.828261" lon="4.7164602"><ele>183.0</ele><time>2026-05-01T14:47:54.963Z</time></trkpt><trkpt lat="48.8282953" lon="4.7161764"><ele>183.33333333333334</ele><time>2026-05-01T14:47:55.961Z</time></trkpt><trkpt lat="48.8283585" lon="4.7159197"><ele>183.66666666666669</ele><time>2026-05-01T14:47:56.966Z</time></trkpt><trkpt lat="48.828444" lon="4.7156764"><ele>184.0</ele><time>2026-05-01T14:47:57.964Z</time></trkpt><trkpt lat="48.8285308" lon="4.7154103"><ele>182.0</ele><time>2026-05-01T14:47:58.966Z</time></trkpt><trkpt lat="48.8286139" lon="4.7151175"><ele>180.0</ele><time>2026-05-01T14:47:59.964Z</time></trkpt><trkpt lat="48.82869" lon="4.7148127"><ele>178.0</ele><time>2026-05-01T14:48:00.964Z</time></trkpt><trkpt lat="48.8287673" lon="4.7145014"><ele>177.0</ele><time>2026-05-01T14:48:01.968Z</time></trkpt><trkpt lat="48.8288441" lon="4.7141854"><ele>176.0</ele><time>2026-05-01T14:48:02.957Z</time></trkpt><trkpt lat="48.828914" lon="4.713856"><ele>174.5</ele><time>2026-05-01T14:48:03.967Z</time></trkpt><trkpt lat="48.8289744" lon="4.7135195"><ele>173.0</ele><time>2026-05-01T14:48:04.973Z</time></trkpt><trkpt lat="48.8290257" lon="4.7131829"><ele>173.0</ele><time>2026-05-01T14:48:05.965Z</time></trkpt><trkpt lat="48.8290635" lon="4.712838"><ele>173.0</ele><time>2026-05-01T14:48:06.955Z</time></trkpt><trkpt lat="48.8290892" lon="4.7124941"><ele>171.0</ele><time>2026-05-01T14:48:07.996Z</time></trkpt><trkpt lat="48.8291046" lon="4.712147"><ele>169.0</ele><time>2026-05-01T14:48:08.96Z</time></trkpt><trkpt lat="48.8291164" lon="4.7118058"><ele>168.0</ele><time>2026-05-01T14:48:09.964Z</time></trkpt><trkpt lat="48.8291308" lon="4.7114617"><ele>167.0</ele><time>2026-05-01T14:48:10.966Z</time></trkpt><trkpt lat="48.8291454" lon="4.7111142"><ele>166.0</ele><time>2026-05-01T14:48:11.961Z</time></trkpt><trkpt lat="48.8291614" lon="4.7107681"><ele>165.0</ele><time>2026-05-01T14:48:12.962Z</time></trkpt><trkpt lat="48.8291696" lon="4.7104319"><ele>164.0</ele><time>2026-05-01T14:48:13.961Z</time></trkpt><trkpt lat="48.8291873" lon="4.7100914"><ele>163.0</ele><time>2026-05-01T14:48:14.958Z</time></trkpt><trkpt lat="48.8292049" lon="4.7097534"><ele>162.0</ele><time>2026-05-01T14:48:15.964Z</time></trkpt><trkpt lat="48.8292121" lon="4.7094161"><ele>161.33333333333334</ele><time>2026-05-01T14:48:16.958Z</time></trkpt><trkpt lat="48.8292106" lon="4.7090777"><ele>160.66666666666669</ele><time>2026-05-01T14:48:17.961Z</time></trkpt><trkpt lat="48.8291969" lon="4.7087365"><ele>160.0</ele><time>2026-05-01T14:48:18.966Z</time></trkpt><trkpt lat="48.8291767" lon="4.7083996"><ele>159.0</ele><time>2026-05-01T14:48:19.962Z</time></trkpt><trkpt lat="48.8291581" lon="4.7080658"><ele>158.0</ele><time>2026-05-01T14:48:20.958Z</time></trkpt><trkpt lat="48.8291362" lon="4.7077271"><ele>157.0</ele><time>2026-05-01T14:48:21.967Z</time></trkpt><trkpt lat="48.8291221" lon="4.7073944"><ele>156.66666666666669</ele><time>2026-05-01T14:48:22.965Z</time></trkpt><trkpt lat="48.8291147" lon="4.7070761"><ele>156.33333333333334</ele><time>2026-05-01T14:48:23.963Z</time></trkpt><trkpt lat="48.8291165" lon="4.7067556"><ele>156.0</ele><time>2026-05-01T14:48:24.962Z</time></trkpt><trkpt lat="48.8291331" lon="4.7064348"><ele>156.0</ele><time>2026-05-01T14:48:25.974Z</time></trkpt><trkpt lat="48.829155" lon="4.7061055"><ele>156.0</ele><time>2026-05-01T14:48:26.962Z</time></trkpt><trkpt lat="48.8291867" lon="4.7057737"><ele>156.0</ele><time>2026-05-01T14:48:27.969Z</time></trkpt><trkpt lat="48.8292188" lon="4.7054483"><ele>156.0</ele><time>2026-05-01T14:48:28.97Z</time></trkpt><trkpt lat="48.8292669" lon="4.7051186"><ele>156.0</ele><time>2026-05-01T14:48:29.969Z</time></trkpt><trkpt lat="48.829327" lon="4.7047946"><ele>156.0</ele><time>2026-05-01T14:48:30.974Z</time></trkpt><trkpt lat="48.829391" lon="4.7044759"><ele>154.66666666666666</ele><time>2026-05-01T14:48:31.972Z</time></trkpt><trkpt lat="48.8294605" lon="4.7041686"><ele>153.33333333333331</ele><time>2026-05-01T14:48:32.97Z</time></trkpt><trkpt lat="48.8295317" lon="4.7038701"><ele>152.0</ele><time>2026-05-01T14:48:33.991Z</time></trkpt><trkpt lat="48.8295841" lon="4.7035747"><ele>151.66666666666666</ele><time>2026-05-01T14:48:34.964Z</time></trkpt><trkpt lat="48.8296284" lon="4.7032961"><ele>151.33333333333334</ele><time>2026-05-01T14:48:35.966Z</time></trkpt><trkpt lat="48.8296566" lon="4.703008"><ele>151.0</ele><time>2026-05-01T14:48:36.964Z</time></trkpt><trkpt lat="48.8296756" lon="4.7027375"><ele>150.33333333333334</ele><time>2026-05-01T14:48:37.965Z</time></trkpt><trkpt lat="48.8296847" lon="4.7024658"><ele>149.66666666666666</ele><time>2026-05-01T14:48:38.966Z</time></trkpt><trkpt lat="48.8297008" lon="4.7021945"><ele>149.0</ele><time>2026-05-01T14:48:39.961Z</time></trkpt><trkpt lat="48.8297204" lon="4.7019244"><ele>148.33333333333331</ele><time>2026-05-01T14:48:40.967Z</time></trkpt><trkpt lat="48.8297428" lon="4.701645"><ele>147.66666666666666</ele><time>2026-05-01T14:48:41.964Z</time></trkpt><trkpt lat="48.8297672" lon="4.7013615"><ele>147.0</ele><time>2026-05-01T14:48:42.982Z</time></trkpt><trkpt lat="48.8297952" lon="4.7010791"><ele>146.66666666666666</ele><time>2026-05-01T14:48:43.966Z</time></trkpt><trkpt lat="48.8298268" lon="4.7007869"><ele>146.33333333333331</ele><time>2026-05-01T14:48:44.96Z</time></trkpt><trkpt lat="48.8298576" lon="4.7004871"><ele>146.0</ele><time>2026-05-01T14:48:45.959Z</time></trkpt><trkpt lat="48.8298858" lon="4.7001816"><ele>145.66666666666666</ele><time>2026-05-01T14:48:46.961Z</time></trkpt><trkpt lat="48.8299055" lon="4.6998698"><ele>145.33333333333334</ele><time>2026-05-01T14:48:47.96Z</time></trkpt><trkpt lat="48.8299197" lon="4.6995517"><ele>145.0</ele><time>2026-05-01T14:48:48.966Z</time></trkpt><trkpt lat="48.8299334" lon="4.6992354"><ele>144.66666666666669</ele><time>2026-05-01T14:48:49.966Z</time></trkpt><trkpt lat="48.829958" lon="4.6989123"><ele>144.33333333333334</ele><time>2026-05-01T14:48:50.963Z</time></trkpt><trkpt lat="48.8299899" lon="4.6985968"><ele>144.0</ele><time>2026-05-01T14:48:51.962Z</time></trkpt><trkpt lat="48.830024" lon="4.6982865"><ele>143.66666666666666</ele><time>2026-05-01T14:48:52.987Z</time></trkpt><trkpt lat="48.8300653" lon="4.6979738"><ele>143.33333333333331</ele><time>2026-05-01T14:48:53.959Z</time></trkpt><trkpt lat="48.8301091" lon="4.6976666"><ele>143.0</ele><time>2026-05-01T14:48:54.964Z</time></trkpt><trkpt lat="48.8301329" lon="4.6973728"><ele>143.0</ele><time>2026-05-01T14:48:55.962Z</time></trkpt><trkpt lat="48.8301449" lon="4.6970874"><ele>143.0</ele><time>2026-05-01T14:48:56.959Z</time></trkpt><trkpt lat="48.8301456" lon="4.6968066"><ele>143.0</ele><time>2026-05-01T14:48:57.965Z</time></trkpt><trkpt lat="48.8301274" lon="4.6965389"><ele>143.0</ele><time>2026-05-01T14:48:58.96Z</time></trkpt><trkpt lat="48.8300942" lon="4.6962923"><ele>143.0</ele><time>2026-05-01T14:48:59.964Z</time></trkpt><trkpt lat="48.8300571" lon="4.6960858"><ele>143.0</ele><time>2026-05-01T14:49:00.962Z</time></trkpt><trkpt lat="48.8300237" lon="4.6959013"><ele>143.0</ele><time>2026-05-01T14:49:02.001Z</time></trkpt><trkpt lat="48.8299921" lon="4.6957323"><ele>143.0</ele><time>2026-05-01T14:49:02.963Z</time></trkpt><trkpt lat="48.8299638" lon="4.6955703"><ele>143.0</ele><time>2026-05-01T14:49:03.963Z</time></trkpt><trkpt lat="48.829948" lon="4.6954031"><ele>143.0</ele><time>2026-05-01T14:49:04.969Z</time></trkpt><trkpt lat="48.8299548" lon="4.6952341"><ele>143.0</ele><time>2026-05-01T14:49:05.97Z</time></trkpt><trkpt lat="48.8299869" lon="4.6950742"><ele>143.0</ele><time>2026-05-01T14:49:06.962Z</time></trkpt><trkpt lat="48.830033" lon="4.6949078"><ele>143.0</ele><time>2026-05-01T14:49:07.972Z</time></trkpt><trkpt lat="48.8300955" lon="4.6947494"><ele>143.0</ele><time>2026-05-01T14:49:08.97Z</time></trkpt><trkpt lat="48.8301715" lon="4.6945916"><ele>143.0</ele><time>2026-05-01T14:49:09.974Z</time></trkpt><trkpt lat="48.8302482" lon="4.6944323"><ele>143.0</ele><time>2026-05-01T14:49:10.973Z</time></trkpt><trkpt lat="48.830335" lon="4.6942762"><ele>143.0</ele><time>2026-05-01T14:49:11.967Z</time></trkpt><trkpt lat="48.8304253" lon="4.6941335"><ele>143.0</ele><time>2026-05-01T14:49:12.967Z</time></trkpt><trkpt lat="48.8305189" lon="4.6940015"><ele>143.0</ele><time>2026-05-01T14:49:13.967Z</time></trkpt><trkpt lat="48.8306118" lon="4.693881"><ele>143.0</ele><time>2026-05-01T14:49:14.968Z</time></trkpt><trkpt lat="48.8307114" lon="4.6937815"><ele>143.0</ele><time>2026-05-01T14:49:15.964Z</time></trkpt><trkpt lat="48.8308131" lon="4.6937081"><ele>143.0</ele><time>2026-05-01T14:49:16.959Z</time></trkpt><trkpt lat="48.8309139" lon="4.6936432"><ele>143.0</ele><time>2026-05-01T14:49:17.962Z</time></trkpt><trkpt lat="48.831" lon="4.6935812"><ele>143.0</ele><time>2026-05-01T14:49:18.966Z</time></trkpt><trkpt lat="48.8310666" lon="4.69354"><ele>143.0</ele><time>2026-05-01T14:49:19.998Z</time></trkpt><trkpt lat="48.8311436" lon="4.6934516"><ele>143.16666666666666</ele><time>2026-05-01T14:49:21.978Z</time></trkpt><trkpt lat="48.8311038" lon="4.6933499"><ele>143.33333333333331</ele><time>2026-05-01T14:49:23.967Z</time></trkpt><trkpt lat="48.831037" lon="4.6933079"><ele>143.5</ele><time>2026-05-01T14:49:24.963Z</time></trkpt><trkpt lat="48.8309666" lon="4.6932506"><ele>143.66666666666666</ele><time>2026-05-01T14:49:25.96Z</time></trkpt><trkpt lat="48.8308861" lon="4.6931633"><ele>143.83333333333334</ele><time>2026-05-01T14:49:26.964Z</time></trkpt><trkpt lat="48.8307996" lon="4.6930478"><ele>144.0</ele><time>2026-05-01T14:49:27.966Z</time></trkpt><trkpt lat="48.8307026" lon="4.6929407"><ele>144.0</ele><time>2026-05-01T14:49:28.968Z</time></trkpt><trkpt lat="48.8306048" lon="4.692813"><ele>144.0</ele><time>2026-05-01T14:49:29.959Z</time></trkpt><trkpt lat="48.8305121" lon="4.6926736"><ele>144.0</ele><time>2026-05-01T14:49:30.966Z</time></trkpt><trkpt lat="48.8304243" lon="4.6925149"><ele>144.0</ele><time>2026-05-01T14:49:31.964Z</time></trkpt><trkpt lat="48.8303401" lon="4.6923384"><ele>144.5</ele><time>2026-05-01T14:49:32.969Z</time></trkpt><trkpt lat="48.8302587" lon="4.6921605"><ele>145.0</ele><time>2026-05-01T14:49:33.963Z</time></trkpt><trkpt lat="48.8301795" lon="4.6919814"><ele>145.5</ele><time>2026-05-01T14:49:34.964Z</time></trkpt><trkpt lat="48.8300967" lon="4.6918003"><ele>146.0</ele><time>2026-05-01T14:49:35.961Z</time></trkpt><trkpt lat="48.8300135" lon="4.6916168"><ele>144.75</ele><time>2026-05-01T14:49:36.958Z</time></trkpt><trkpt lat="48.8299355" lon="4.6914446"><ele>143.5</ele><time>2026-05-01T14:49:37.968Z</time></trkpt><trkpt lat="48.8298643" lon="4.6912643"><ele>142.25</ele><time>2026-05-01T14:49:38.966Z</time></trkpt><trkpt lat="48.8297991" lon="4.6910894"><ele>141.0</ele><time>2026-05-01T14:49:39.967Z</time></trkpt><trkpt lat="48.8297381" lon="4.6909028"><ele>140.75</ele><time>2026-05-01T14:49:40.965Z</time></trkpt><trkpt lat="48.8296979" lon="4.6907101"><ele>140.5</ele><time>2026-05-01T14:49:41.966Z</time></trkpt><trkpt lat="48.8296642" lon="4.690489"><ele>140.25</ele><time>2026-05-01T14:49:42.963Z</time></trkpt><trkpt lat="48.8296412" lon="4.6902606"><ele>140.0</ele><time>2026-05-01T14:49:43.962Z</time></trkpt><trkpt lat="48.8296227" lon="4.6900119"><ele>139.66666666666666</ele><time>2026-05-01T14:49:44.963Z</time></trkpt><trkpt lat="48.8296035" lon="4.6897519"><ele>139.33333333333334</ele><time>2026-05-01T14:49:45.968Z</time></trkpt><trkpt lat="48.8295893" lon="4.689481"><ele>139.0</ele><time>2026-05-01T14:49:46.968Z</time></trkpt><trkpt lat="48.8295817" lon="4.6891991"><ele>139.0</ele><time>2026-05-01T14:49:47.963Z</time></trkpt><trkpt lat="48.8295825" lon="4.688903"><ele>139.0</ele><time>2026-05-01T14:49:48.969Z</time></trkpt><trkpt lat="48.8295927" lon="4.6886105"><ele>139.0</ele><time>2026-05-01T14:49:49.966Z</time></trkpt><trkpt lat="48.8296083" lon="4.6883077"><ele>139.0</ele><time>2026-05-01T14:49:50.964Z</time></trkpt><trkpt lat="48.8296373" lon="4.6880001"><ele>139.0</ele><time>2026-05-01T14:49:51.962Z</time></trkpt><trkpt lat="48.8296643" lon="4.6876924"><ele>139.0</ele><time>2026-05-01T14:49:52.961Z</time></trkpt><trkpt lat="48.8296905" lon="4.6873863"><ele>139.66666666666669</ele><time>2026-05-01T14:49:53.962Z</time></trkpt><trkpt lat="48.8297217" lon="4.6870869"><ele>140.33333333333334</ele><time>2026-05-01T14:49:54.965Z</time></trkpt><trkpt lat="48.8297509" lon="4.6867734"><ele>141.0</ele><time>2026-05-01T14:49:55.965Z</time></trkpt><trkpt lat="48.8297796" lon="4.6864731"><ele>141.33333333333334</ele><time>2026-05-01T14:49:56.963Z</time></trkpt><trkpt lat="48.829809" lon="4.686172"><ele>141.66666666666669</ele><time>2026-05-01T14:49:57.968Z</time></trkpt><trkpt lat="48.8298357" lon="4.6858721"><ele>142.0</ele><time>2026-05-01T14:49:58.962Z</time></trkpt><trkpt lat="48.8298592" lon="4.6855722"><ele>142.33333333333334</ele><time>2026-05-01T14:49:59.978Z</time></trkpt><trkpt lat="48.8298756" lon="4.6852732"><ele>142.66666666666666</ele><time>2026-05-01T14:50:00.968Z</time></trkpt><trkpt lat="48.8298804" lon="4.684982"><ele>143.0</ele><time>2026-05-01T14:50:01.962Z</time></trkpt><trkpt lat="48.8298692" lon="4.6846982"><ele>143.66666666666666</ele><time>2026-05-01T14:50:02.962Z</time></trkpt><trkpt lat="48.8298431" lon="4.6844249"><ele>144.33333333333334</ele><time>2026-05-01T14:50:03.963Z</time></trkpt><trkpt lat="48.8297979" lon="4.6841669"><ele>145.0</ele><time>2026-05-01T14:50:04.966Z</time></trkpt><trkpt lat="48.8297251" lon="4.6839103"><ele>145.0</ele><time>2026-05-01T14:50:05.958Z</time></trkpt><trkpt lat="48.8296386" lon="4.6836631"><ele>145.0</ele><time>2026-05-01T14:50:06.96Z</time></trkpt><trkpt lat="48.8295309" lon="4.6834227"><ele>145.0</ele><time>2026-05-01T14:50:07.96Z</time></trkpt><trkpt lat="48.8294116" lon="4.6831835"><ele>146.0</ele><time>2026-05-01T14:50:08.967Z</time></trkpt><trkpt lat="48.8292863" lon="4.6829451"><ele>147.0</ele><time>2026-05-01T14:50:09.969Z</time></trkpt><trkpt lat="48.8291564" lon="4.6827089"><ele>148.0</ele><time>2026-05-01T14:50:10.966Z</time></trkpt><trkpt lat="48.8290252" lon="4.6824738"><ele>150.0</ele><time>2026-05-01T14:50:11.966Z</time></trkpt><trkpt lat="48.8288942" lon="4.682242"><ele>152.0</ele><time>2026-05-01T14:50:12.963Z</time></trkpt><trkpt lat="48.8287602" lon="4.6820064"><ele>154.0</ele><time>2026-05-01T14:50:13.964Z</time></trkpt><trkpt lat="48.8286259" lon="4.6817715"><ele>154.66666666666669</ele><time>2026-05-01T14:50:14.959Z</time></trkpt><trkpt lat="48.8284866" lon="4.6815324"><ele>155.33333333333334</ele><time>2026-05-01T14:50:15.972Z</time></trkpt><trkpt lat="48.8283486" lon="4.6812974"><ele>156.0</ele><time>2026-05-01T14:50:16.961Z</time></trkpt><trkpt lat="48.8282093" lon="4.6810573"><ele>158.66666666666666</ele><time>2026-05-01T14:50:17.956Z</time></trkpt><trkpt lat="48.8280704" lon="4.6808116"><ele>161.33333333333331</ele><time>2026-05-01T14:50:18.964Z</time></trkpt><trkpt lat="48.8279295" lon="4.6805652"><ele>164.0</ele><time>2026-05-01T14:50:19.964Z</time></trkpt><trkpt lat="48.8277852" lon="4.680315"><ele>164.33333333333331</ele><time>2026-05-01T14:50:20.961Z</time></trkpt><trkpt lat="48.8276447" lon="4.6800599"><ele>164.66666666666666</ele><time>2026-05-01T14:50:21.96Z</time></trkpt><trkpt lat="48.8275008" lon="4.6798105"><ele>165.0</ele><time>2026-05-01T14:50:22.963Z</time></trkpt><trkpt lat="48.8273561" lon="4.679559"><ele>167.33333333333334</ele><time>2026-05-01T14:50:23.962Z</time></trkpt><trkpt lat="48.827209" lon="4.6793098"><ele>169.66666666666669</ele><time>2026-05-01T14:50:24.961Z</time></trkpt><trkpt lat="48.8270656" lon="4.6790597"><ele>172.0</ele><time>2026-05-01T14:50:25.963Z</time></trkpt><trkpt lat="48.8269197" lon="4.6788075"><ele>172.33333333333334</ele><time>2026-05-01T14:50:26.966Z</time></trkpt><trkpt lat="48.8267745" lon="4.6785562"><ele>172.66666666666666</ele><time>2026-05-01T14:50:27.966Z</time></trkpt><trkpt lat="48.8266308" lon="4.6783055"><ele>173.0</ele><time>2026-05-01T14:50:28.962Z</time></trkpt><trkpt lat="48.8264911" lon="4.6780561"><ele>173.0</ele><time>2026-05-01T14:50:29.96Z</time></trkpt><trkpt lat="48.8263564" lon="4.677802"><ele>173.0</ele><time>2026-05-01T14:50:30.957Z</time></trkpt><trkpt lat="48.8262417" lon="4.6775346"><ele>173.0</ele><time>2026-05-01T14:50:31.967Z</time></trkpt><trkpt lat="48.8261422" lon="4.6772534"><ele>175.33333333333331</ele><time>2026-05-01T14:50:32.968Z</time></trkpt><trkpt lat="48.8260661" lon="4.6769638"><ele>177.66666666666666</ele><time>2026-05-01T14:50:33.963Z</time></trkpt><trkpt lat="48.825999" lon="4.6766612"><ele>180.0</ele><time>2026-05-01T14:50:34.96Z</time></trkpt><trkpt lat="48.82596" lon="4.6763449"><ele>181.0</ele><time>2026-05-01T14:50:35.968Z</time></trkpt><trkpt lat="48.8259392" lon="4.6760253"><ele>182.0</ele><time>2026-05-01T14:50:36.962Z</time></trkpt><trkpt lat="48.825938" lon="4.6757194"><ele>183.0</ele><time>2026-05-01T14:50:37.986Z</time></trkpt><trkpt lat="48.8259597" lon="4.6754175"><ele>184.0</ele><time>2026-05-01T14:50:38.965Z</time></trkpt><trkpt lat="48.8259998" lon="4.6751149"><ele>185.0</ele><time>2026-05-01T14:50:39.961Z</time></trkpt><trkpt lat="48.8260561" lon="4.6748262"><ele>186.0</ele><time>2026-05-01T14:50:40.963Z</time></trkpt><trkpt lat="48.8261256" lon="4.6745564"><ele>185.0</ele><time>2026-05-01T14:50:41.965Z</time></trkpt><trkpt lat="48.8262167" lon="4.6743092"><ele>184.0</ele><time>2026-05-01T14:50:42.968Z</time></trkpt><trkpt lat="48.826319" lon="4.6740794"><ele>183.0</ele><time>2026-05-01T14:50:43.966Z</time></trkpt><trkpt lat="48.8264434" lon="4.6738738"><ele>183.0</ele><time>2026-05-01T14:50:44.964Z</time></trkpt><trkpt lat="48.8265651" lon="4.6736532"><ele>183.0</ele><time>2026-05-01T14:50:45.965Z</time></trkpt><trkpt lat="48.8266685" lon="4.6734183"><ele>183.0</ele><time>2026-05-01T14:50:46.97Z</time></trkpt><trkpt lat="48.8267473" lon="4.673166"><ele>182.66666666666666</ele><time>2026-05-01T14:50:47.963Z</time></trkpt><trkpt lat="48.826799" lon="4.6728957"><ele>182.33333333333331</ele><time>2026-05-01T14:50:48.966Z</time></trkpt><trkpt lat="48.826826" lon="4.6726169"><ele>182.0</ele><time>2026-05-01T14:50:49.964Z</time></trkpt><trkpt lat="48.8268392" lon="4.67234"><ele>182.0</ele><time>2026-05-01T14:50:50.963Z</time></trkpt><trkpt lat="48.8268599" lon="4.6720812"><ele>182.0</ele><time>2026-05-01T14:50:51.965Z</time></trkpt><trkpt lat="48.826889" lon="4.6718495"><ele>182.0</ele><time>2026-05-01T14:50:52.972Z</time></trkpt><trkpt lat="48.8269366" lon="4.671637"><ele>180.5</ele><time>2026-05-01T14:50:53.968Z</time></trkpt><trkpt lat="48.827005" lon="4.6714393"><ele>179.0</ele><time>2026-05-01T14:50:54.967Z</time></trkpt><trkpt lat="48.8270925" lon="4.6712682"><ele>177.5</ele><time>2026-05-01T14:50:55.989Z</time></trkpt><trkpt lat="48.8272077" lon="4.6711667"><ele>176.0</ele><time>2026-05-01T14:50:56.971Z</time></trkpt><trkpt lat="48.8273298" lon="4.6710864"><ele>174.25</ele><time>2026-05-01T14:50:57.961Z</time></trkpt><trkpt lat="48.827431" lon="4.670987"><ele>172.5</ele><time>2026-05-01T14:50:58.969Z</time></trkpt><trkpt lat="48.8275041" lon="4.6708589"><ele>170.75</ele><time>2026-05-01T14:50:59.969Z</time></trkpt><trkpt lat="48.8275292" lon="4.6707143"><ele>169.0</ele><time>2026-05-01T14:51:00.958Z</time></trkpt><trkpt lat="48.8274901" lon="4.6705332"><ele>169.0</ele><time>2026-05-01T14:51:01.963Z</time></trkpt><trkpt lat="48.827415" lon="4.6703885"><ele>169.0</ele><time>2026-05-01T14:51:02.969Z</time></trkpt><trkpt lat="48.8272992" lon="4.6703198"><ele>169.0</ele><time>2026-05-01T14:51:03.966Z</time></trkpt><trkpt lat="48.8271675" lon="4.670296"><ele>169.0</ele><time>2026-05-01T14:51:04.965Z</time></trkpt><trkpt lat="48.827027" lon="4.6703187"><ele>169.0</ele><time>2026-05-01T14:51:05.969Z</time></trkpt><trkpt lat="48.8268777" lon="4.6703433"><ele>169.0</ele><time>2026-05-01T14:51:06.969Z</time></trkpt><trkpt lat="48.8267103" lon="4.6703684"><ele>169.0</ele><time>2026-05-01T14:51:07.966Z</time></trkpt><trkpt lat="48.8265345" lon="4.6703933"><ele>167.0</ele><time>2026-05-01T14:51:08.96Z</time></trkpt><trkpt lat="48.8263621" lon="4.6704104"><ele>165.0</ele><time>2026-05-01T14:51:09.969Z</time></trkpt><trkpt lat="48.8261921" lon="4.6704331"><ele>163.0</ele><time>2026-05-01T14:51:10.963Z</time></trkpt><trkpt lat="48.8260245" lon="4.6704607"><ele>161.66666666666669</ele><time>2026-05-01T14:51:11.97Z</time></trkpt><trkpt lat="48.8258684" lon="4.6704734"><ele>160.33333333333334</ele><time>2026-05-01T14:51:12.965Z</time></trkpt><trkpt lat="48.825705" lon="4.6704599"><ele>159.0</ele><time>2026-05-01T14:51:13.992Z</time></trkpt><trkpt lat="48.8255395" lon="4.670387"><ele>158.66666666666666</ele><time>2026-05-01T14:51:14.961Z</time></trkpt><trkpt lat="48.8254037" lon="4.6702361"><ele>158.33333333333331</ele><time>2026-05-01T14:51:15.962Z</time></trkpt><trkpt lat="48.825297" lon="4.6700319"><ele>158.0</ele><time>2026-05-01T14:51:16.962Z</time></trkpt><trkpt lat="48.8252175" lon="4.6697939"><ele>157.33333333333331</ele><time>2026-05-01T14:51:17.964Z</time></trkpt><trkpt lat="48.8251406" lon="4.669537"><ele>156.66666666666666</ele><time>2026-05-01T14:51:18.969Z</time></trkpt><trkpt lat="48.8250561" lon="4.6692906"><ele>156.0</ele><time>2026-05-01T14:51:19.97Z</time></trkpt><trkpt lat="48.8249718" lon="4.6690367"><ele>156.0</ele><time>2026-05-01T14:51:20.963Z</time></trkpt><trkpt lat="48.8248846" lon="4.6687751"><ele>156.0</ele><time>2026-05-01T14:51:21.963Z</time></trkpt><trkpt lat="48.8247939" lon="4.66851"><ele>156.0</ele><time>2026-05-01T14:51:22.966Z</time></trkpt><trkpt lat="48.8247017" lon="4.6682397"><ele>156.0</ele><time>2026-05-01T14:51:23.965Z</time></trkpt><trkpt lat="48.8246047" lon="4.667957"><ele>156.0</ele><time>2026-05-01T14:51:24.968Z</time></trkpt><trkpt lat="48.8245099" lon="4.6676764"><ele>156.0</ele><time>2026-05-01T14:51:25.96Z</time></trkpt><trkpt lat="48.8244111" lon="4.6673955"><ele>154.66666666666666</ele><time>2026-05-01T14:51:26.966Z</time></trkpt><trkpt lat="48.8243118" lon="4.667105"><ele>153.33333333333331</ele><time>2026-05-01T14:51:27.964Z</time></trkpt><trkpt lat="48.824214" lon="4.6668148"><ele>152.0</ele><time>2026-05-01T14:51:28.966Z</time></trkpt><trkpt lat="48.8241175" lon="4.6665271"><ele>152.0</ele><time>2026-05-01T14:51:29.964Z</time></trkpt><trkpt lat="48.8240233" lon="4.6662356"><ele>152.0</ele><time>2026-05-01T14:51:30.961Z</time></trkpt><trkpt lat="48.8239297" lon="4.6659417"><ele>152.0</ele><time>2026-05-01T14:51:31.967Z</time></trkpt><trkpt lat="48.8238479" lon="4.665652"><ele>152.0</ele><time>2026-05-01T14:51:32.964Z</time></trkpt><trkpt lat="48.8237674" lon="4.6653539"><ele>152.0</ele><time>2026-05-01T14:51:33.962Z</time></trkpt><trkpt lat="48.8236915" lon="4.6650484"><ele>152.0</ele><time>2026-05-01T14:51:34.961Z</time></trkpt><trkpt lat="48.8236293" lon="4.6647387"><ele>153.0</ele><time>2026-05-01T14:51:35.974Z</time></trkpt><trkpt lat="48.8235691" lon="4.6644186"><ele>154.0</ele><time>2026-05-01T14:51:36.971Z</time></trkpt><trkpt lat="48.8235102" lon="4.6640985"><ele>155.0</ele><time>2026-05-01T14:51:37.962Z</time></trkpt><trkpt lat="48.8234488" lon="4.6637787"><ele>152.33333333333331</ele><time>2026-05-01T14:51:38.965Z</time></trkpt><trkpt lat="48.8233808" lon="4.6634604"><ele>149.66666666666666</ele><time>2026-05-01T14:51:39.972Z</time></trkpt><trkpt lat="48.823305" lon="4.6631477"><ele>147.0</ele><time>2026-05-01T14:51:40.974Z</time></trkpt><trkpt lat="48.8232228" lon="4.6628403"><ele>147.0</ele><time>2026-05-01T14:51:41.963Z</time></trkpt><trkpt lat="48.8231345" lon="4.6625344"><ele>147.0</ele><time>2026-05-01T14:51:42.96Z</time></trkpt><trkpt lat="48.8230468" lon="4.6622343"><ele>147.0</ele><time>2026-05-01T14:51:43.963Z</time></trkpt><trkpt lat="48.822955" lon="4.6619303"><ele>147.0</ele><time>2026-05-01T14:51:44.96Z</time></trkpt><trkpt lat="48.8228635" lon="4.6616301"><ele>147.0</ele><time>2026-05-01T14:51:45.965Z</time></trkpt><trkpt lat="48.8227696" lon="4.6613286"><ele>147.0</ele><time>2026-05-01T14:51:46.958Z</time></trkpt><trkpt lat="48.8226711" lon="4.6610231"><ele>144.66666666666666</ele><time>2026-05-01T14:51:47.961Z</time></trkpt><trkpt lat="48.8225757" lon="4.6607209"><ele>142.33333333333331</ele><time>2026-05-01T14:51:48.97Z</time></trkpt><trkpt lat="48.8224752" lon="4.6604166"><ele>140.0</ele><time>2026-05-01T14:51:49.964Z</time></trkpt><trkpt lat="48.8223698" lon="4.6601194"><ele>140.0</ele><time>2026-05-01T14:51:50.967Z</time></trkpt><trkpt lat="48.8222588" lon="4.6598278"><ele>140.0</ele><time>2026-05-01T14:51:51.968Z</time></trkpt><trkpt lat="48.8221419" lon="4.6595352"><ele>140.0</ele><time>2026-05-01T14:51:53.005Z</time></trkpt><trkpt lat="48.8220241" lon="4.6592457"><ele>140.0</ele><time>2026-05-01T14:51:53.966Z</time></trkpt><trkpt lat="48.8219087" lon="4.6589598"><ele>140.0</ele><time>2026-05-01T14:51:54.963Z</time></trkpt><trkpt lat="48.8217926" lon="4.6586723"><ele>140.0</ele><time>2026-05-01T14:51:55.968Z</time></trkpt><trkpt lat="48.8216765" lon="4.6583817"><ele>139.0</ele><time>2026-05-01T14:51:56.963Z</time></trkpt><trkpt lat="48.8215635" lon="4.6580983"><ele>138.0</ele><time>2026-05-01T14:51:57.962Z</time></trkpt><trkpt lat="48.8214514" lon="4.6578127"><ele>137.0</ele><time>2026-05-01T14:51:58.965Z</time></trkpt><trkpt lat="48.8213374" lon="4.6575271"><ele>137.0</ele><time>2026-05-01T14:51:59.964Z</time></trkpt><trkpt lat="48.8212243" lon="4.6572457"><ele>137.0</ele><time>2026-05-01T14:52:00.964Z</time></trkpt><trkpt lat="48.8211059" lon="4.6569791"><ele>137.0</ele><time>2026-05-01T14:52:01.969Z</time></trkpt><trkpt lat="48.8209817" lon="4.6567184"><ele>137.0</ele><time>2026-05-01T14:52:02.962Z</time></trkpt><trkpt lat="48.8208445" lon="4.6564573"><ele>137.0</ele><time>2026-05-01T14:52:03.965Z</time></trkpt><trkpt lat="48.8206997" lon="4.6562085"><ele>137.0</ele><time>2026-05-01T14:52:04.965Z</time></trkpt><trkpt lat="48.820552" lon="4.6559735"><ele>137.0</ele><time>2026-05-01T14:52:05.974Z</time></trkpt><trkpt lat="48.8204055" lon="4.6557487"><ele>137.0</ele><time>2026-05-01T14:52:06.968Z</time></trkpt><trkpt lat="48.820262" lon="4.6555215"><ele>137.0</ele><time>2026-05-01T14:52:07.968Z</time></trkpt><trkpt lat="48.8201129" lon="4.655285"><ele>137.0</ele><time>2026-05-01T14:52:08.968Z</time></trkpt><trkpt lat="48.8199699" lon="4.6550426"><ele>137.0</ele><time>2026-05-01T14:52:09.963Z</time></trkpt><trkpt lat="48.8198238" lon="4.6547981"><ele>137.0</ele><time>2026-05-01T14:52:10.966Z</time></trkpt><trkpt lat="48.8196738" lon="4.6545598"><ele>136.66666666666666</ele><time>2026-05-01T14:52:11.963Z</time></trkpt><trkpt lat="48.8195265" lon="4.6543213"><ele>136.33333333333334</ele><time>2026-05-01T14:52:12.964Z</time></trkpt><trkpt lat="48.8193775" lon="4.6540766"><ele>136.0</ele><time>2026-05-01T14:52:13.962Z</time></trkpt><trkpt lat="48.8192269" lon="4.6538357"><ele>135.66666666666669</ele><time>2026-05-01T14:52:14.962Z</time></trkpt><trkpt lat="48.8190796" lon="4.6535885"><ele>135.33333333333334</ele><time>2026-05-01T14:52:15.964Z</time></trkpt><trkpt lat="48.8189515" lon="4.6533167"><ele>135.0</ele><time>2026-05-01T14:52:16.967Z</time></trkpt><trkpt lat="48.8188363" lon="4.6530312"><ele>134.0</ele><time>2026-05-01T14:52:17.961Z</time></trkpt><trkpt lat="48.8187318" lon="4.6527454"><ele>133.0</ele><time>2026-05-01T14:52:18.968Z</time></trkpt><trkpt lat="48.8186436" lon="4.6524489"><ele>132.0</ele><time>2026-05-01T14:52:19.966Z</time></trkpt><trkpt lat="48.8185684" lon="4.6521503"><ele>131.33333333333334</ele><time>2026-05-01T14:52:20.965Z</time></trkpt><trkpt lat="48.8185218" lon="4.6518532"><ele>130.66666666666669</ele><time>2026-05-01T14:52:21.964Z</time></trkpt><trkpt lat="48.8184999" lon="4.6515385"><ele>130.0</ele><time>2026-05-01T14:52:22.963Z</time></trkpt><trkpt lat="48.8184875" lon="4.6512156"><ele>130.0</ele><time>2026-05-01T14:52:23.961Z</time></trkpt><trkpt lat="48.8184805" lon="4.650887"><ele>130.0</ele><time>2026-05-01T14:52:24.964Z</time></trkpt><trkpt lat="48.8184636" lon="4.6505657"><ele>130.0</ele><time>2026-05-01T14:52:25.968Z</time></trkpt><trkpt lat="48.818426" lon="4.650254"><ele>129.33333333333334</ele><time>2026-05-01T14:52:27.01Z</time></trkpt><trkpt lat="48.818346" lon="4.6499439"><ele>128.66666666666666</ele><time>2026-05-01T14:52:27.971Z</time></trkpt><trkpt lat="48.8182494" lon="4.649663"><ele>128.0</ele><time>2026-05-01T14:52:28.965Z</time></trkpt><trkpt lat="48.8181326" lon="4.6493845"><ele>128.0</ele><time>2026-05-01T14:52:29.964Z</time></trkpt><trkpt lat="48.8180193" lon="4.6491158"><ele>128.0</ele><time>2026-05-01T14:52:30.969Z</time></trkpt><trkpt lat="48.8178987" lon="4.6488515"><ele>128.0</ele><time>2026-05-01T14:52:31.96Z</time></trkpt><trkpt lat="48.8177687" lon="4.6485975"><ele>128.0</ele><time>2026-05-01T14:52:32.968Z</time></trkpt><trkpt lat="48.817621" lon="4.6483511"><ele>128.0</ele><time>2026-05-01T14:52:33.975Z</time></trkpt><trkpt lat="48.8174586" lon="4.6481343"><ele>128.0</ele><time>2026-05-01T14:52:34.964Z</time></trkpt><trkpt lat="48.8172914" lon="4.6479216"><ele>128.33333333333331</ele><time>2026-05-01T14:52:35.957Z</time></trkpt><trkpt lat="48.8171139" lon="4.6477211"><ele>128.66666666666666</ele><time>2026-05-01T14:52:36.968Z</time></trkpt><trkpt lat="48.8169449" lon="4.6475246"><ele>129.0</ele><time>2026-05-01T14:52:37.961Z</time></trkpt><trkpt lat="48.8167828" lon="4.6473201"><ele>128.33333333333334</ele><time>2026-05-01T14:52:38.964Z</time></trkpt><trkpt lat="48.8166362" lon="4.6471203"><ele>127.66666666666667</ele><time>2026-05-01T14:52:39.972Z</time></trkpt><trkpt lat="48.8165056" lon="4.6469254"><ele>127.0</ele><time>2026-05-01T14:52:40.97Z</time></trkpt><trkpt lat="48.8163973" lon="4.6467205"><ele>127.0</ele><time>2026-05-01T14:52:41.961Z</time></trkpt><trkpt lat="48.8163005" lon="4.646514"><ele>127.0</ele><time>2026-05-01T14:52:42.962Z</time></trkpt><trkpt lat="48.8162052" lon="4.6463271"><ele>127.0</ele><time>2026-05-01T14:52:43.966Z</time></trkpt><trkpt lat="48.8161124" lon="4.6461513"><ele>127.25</ele><time>2026-05-01T14:52:44.96Z</time></trkpt><trkpt lat="48.8160278" lon="4.6459769"><ele>127.5</ele><time>2026-05-01T14:52:45.961Z</time></trkpt><trkpt lat="48.8159565" lon="4.6458061"><ele>127.75</ele><time>2026-05-01T14:52:46.969Z</time></trkpt><trkpt lat="48.8158834" lon="4.6456547"><ele>128.0</ele><time>2026-05-01T14:52:47.99Z</time></trkpt><trkpt lat="48.8158009" lon="4.6455216"><ele>127.75</ele><time>2026-05-01T14:52:48.965Z</time></trkpt><trkpt lat="48.8157192" lon="4.6453964"><ele>127.5</ele><time>2026-05-01T14:52:49.961Z</time></trkpt><trkpt lat="48.8156351" lon="4.6452676"><ele>127.25</ele><time>2026-05-01T14:52:50.967Z</time></trkpt><trkpt lat="48.8155522" lon="4.6451393"><ele>127.0</ele><time>2026-05-01T14:52:51.962Z</time></trkpt><trkpt lat="48.8154689" lon="4.6450138"><ele>127.0</ele><time>2026-05-01T14:52:52.959Z</time></trkpt><trkpt lat="48.8153852" lon="4.6448808"><ele>127.0</ele><time>2026-05-01T14:52:53.971Z</time></trkpt><trkpt lat="48.8153033" lon="4.6447434"><ele>127.0</ele><time>2026-05-01T14:52:54.967Z</time></trkpt><trkpt lat="48.8152183" lon="4.6446166"><ele>127.0</ele><time>2026-05-01T14:52:55.968Z</time></trkpt><trkpt lat="48.8151361" lon="4.6444825"><ele>126.75</ele><time>2026-05-01T14:52:56.958Z</time></trkpt><trkpt lat="48.815055" lon="4.644352"><ele>126.5</ele><time>2026-05-01T14:52:57.956Z</time></trkpt><trkpt lat="48.8149758" lon="4.6442239"><ele>126.25</ele><time>2026-05-01T14:52:58.964Z</time></trkpt><trkpt lat="48.8148952" lon="4.6441025"><ele>126.0</ele><time>2026-05-01T14:52:59.974Z</time></trkpt><trkpt lat="48.8148095" lon="4.6439902"><ele>126.0</ele><time>2026-05-01T14:53:00.965Z</time></trkpt><trkpt lat="48.8147359" lon="4.6438596"><ele>126.0</ele><time>2026-05-01T14:53:01.969Z</time></trkpt><trkpt lat="48.8146695" lon="4.6437242"><ele>126.0</ele><time>2026-05-01T14:53:02.959Z</time></trkpt><trkpt lat="48.8146192" lon="4.6435739"><ele>126.0</ele><time>2026-05-01T14:53:03.967Z</time></trkpt><trkpt lat="48.8145741" lon="4.6434195"><ele>126.0</ele><time>2026-05-01T14:53:04.963Z</time></trkpt><trkpt lat="48.8145406" lon="4.6432576"><ele>126.19999999999999</ele><time>2026-05-01T14:53:05.968Z</time></trkpt><trkpt lat="48.8145077" lon="4.6431015"><ele>126.39999999999999</ele><time>2026-05-01T14:53:06.963Z</time></trkpt><trkpt lat="48.8144676" lon="4.6429429"><ele>126.6</ele><time>2026-05-01T14:53:07.968Z</time></trkpt><trkpt lat="48.8144142" lon="4.6427837"><ele>126.8</ele><time>2026-05-01T14:53:08.975Z</time></trkpt><trkpt lat="48.8143709" lon="4.6426383"><ele>127.0</ele><time>2026-05-01T14:53:09.966Z</time></trkpt><trkpt lat="48.8143304" lon="4.6425175"><ele>126.85714285714286</ele><time>2026-05-01T14:53:10.968Z</time></trkpt><trkpt lat="48.8142842" lon="4.6424293"><ele>126.71428571428571</ele><time>2026-05-01T14:53:11.961Z</time></trkpt><trkpt lat="48.8142355" lon="4.6423678"><ele>126.57142857142857</ele><time>2026-05-01T14:53:12.96Z</time></trkpt><trkpt lat="48.8141839" lon="4.6423012"><ele>126.42857142857143</ele><time>2026-05-01T14:53:13.966Z</time></trkpt><trkpt lat="48.8141178" lon="4.64225"><ele>126.28571428571428</ele><time>2026-05-01T14:53:14.96Z</time></trkpt><trkpt lat="48.8140533" lon="4.6421968"><ele>126.14285714285714</ele><time>2026-05-01T14:53:15.971Z</time></trkpt><trkpt lat="48.8139719" lon="4.6421468"><ele>126.0</ele><time>2026-05-01T14:53:16.994Z</time></trkpt><trkpt lat="48.8138926" lon="4.6420777"><ele>126.0</ele><time>2026-05-01T14:53:17.961Z</time></trkpt><trkpt lat="48.8138083" lon="4.6420223"><ele>126.0</ele><time>2026-05-01T14:53:18.97Z</time></trkpt><trkpt lat="48.8137254" lon="4.6419648"><ele>126.0</ele><time>2026-05-01T14:53:19.966Z</time></trkpt><trkpt lat="48.8136439" lon="4.6418889"><ele>126.0</ele><time>2026-05-01T14:53:20.965Z</time></trkpt><trkpt lat="48.8135601" lon="4.6418054"><ele>126.0</ele><time>2026-05-01T14:53:21.969Z</time></trkpt><trkpt lat="48.8134809" lon="4.6417057"><ele>125.4</ele><time>2026-05-01T14:53:22.961Z</time></trkpt><trkpt lat="48.8133939" lon="4.6416105"><ele>124.8</ele><time>2026-05-01T14:53:23.962Z</time></trkpt><trkpt lat="48.8133121" lon="4.6415166"><ele>124.20000000000002</ele><time>2026-05-01T14:53:24.963Z</time></trkpt><trkpt lat="48.8132267" lon="4.6414172"><ele>123.60000000000001</ele><time>2026-05-01T14:53:25.961Z</time></trkpt><trkpt lat="48.8131461" lon="4.6413046"><ele>123.0</ele><time>2026-05-01T14:53:26.967Z</time></trkpt><trkpt lat="48.8130527" lon="4.6411905"><ele>123.25</ele><time>2026-05-01T14:53:27.972Z</time></trkpt><trkpt lat="48.8129553" lon="4.641079"><ele>123.5</ele><time>2026-05-01T14:53:28.97Z</time></trkpt><trkpt lat="48.8128577" lon="4.6409626"><ele>123.75</ele><time>2026-05-01T14:53:29.966Z</time></trkpt><trkpt lat="48.8127674" lon="4.6408468"><ele>124.0</ele><time>2026-05-01T14:53:30.97Z</time></trkpt><trkpt lat="48.8126728" lon="4.640733"><ele>123.25</ele><time>2026-05-01T14:53:31.965Z</time></trkpt><trkpt lat="48.8125704" lon="4.6406317"><ele>122.5</ele><time>2026-05-01T14:53:32.968Z</time></trkpt><trkpt lat="48.8124557" lon="4.640555"><ele>121.75</ele><time>2026-05-01T14:53:33.971Z</time></trkpt><trkpt lat="48.8123382" lon="4.6404831"><ele>121.0</ele><time>2026-05-01T14:53:34.963Z</time></trkpt><trkpt lat="48.8122202" lon="4.6404011"><ele>121.0</ele><time>2026-05-01T14:53:35.966Z</time></trkpt><trkpt lat="48.8121046" lon="4.6403156"><ele>121.0</ele><time>2026-05-01T14:53:36.969Z</time></trkpt><trkpt lat="48.8119942" lon="4.6402087"><ele>121.0</ele><time>2026-05-01T14:53:37.965Z</time></trkpt><trkpt lat="48.8118846" lon="4.6401151"><ele>121.0</ele><time>2026-05-01T14:53:38.966Z</time></trkpt><trkpt lat="48.8117757" lon="4.6400209"><ele>120.75</ele><time>2026-05-01T14:53:39.966Z</time></trkpt><trkpt lat="48.8116612" lon="4.6399242"><ele>120.5</ele><time>2026-05-01T14:53:40.967Z</time></trkpt><trkpt lat="48.8115442" lon="4.6398224"><ele>120.25</ele><time>2026-05-01T14:53:41.965Z</time></trkpt><trkpt lat="48.8114302" lon="4.6397323"><ele>120.0</ele><time>2026-05-01T14:53:42.964Z</time></trkpt><trkpt lat="48.8113112" lon="4.6396386"><ele>120.0</ele><time>2026-05-01T14:53:43.961Z</time></trkpt><trkpt lat="48.8112029" lon="4.6395327"><ele>120.0</ele><time>2026-05-01T14:53:44.959Z</time></trkpt><trkpt lat="48.8110965" lon="4.6394152"><ele>120.0</ele><time>2026-05-01T14:53:45.964Z</time></trkpt><trkpt lat="48.8109927" lon="4.6392855"><ele>120.0</ele><time>2026-05-01T14:53:46.973Z</time></trkpt><trkpt lat="48.8109009" lon="4.6391478"><ele>119.75</ele><time>2026-05-01T14:53:47.967Z</time></trkpt><trkpt lat="48.8108145" lon="4.6390061"><ele>119.5</ele><time>2026-05-01T14:53:48.971Z</time></trkpt><trkpt lat="48.8107412" lon="4.6388742"><ele>119.25</ele><time>2026-05-01T14:53:49.969Z</time></trkpt><trkpt lat="48.8106791" lon="4.6387325"><ele>119.0</ele><time>2026-05-01T14:53:50.972Z</time></trkpt><trkpt lat="48.8106246" lon="4.6385847"><ele>119.5</ele><time>2026-05-01T14:53:51.964Z</time></trkpt><trkpt lat="48.8105594" lon="4.6384401"><ele>120.0</ele><time>2026-05-01T14:53:52.963Z</time></trkpt><trkpt lat="48.8104771" lon="4.6382956"><ele>120.5</ele><time>2026-05-01T14:53:53.998Z</time></trkpt><trkpt lat="48.8103746" lon="4.6381703"><ele>121.0</ele><time>2026-05-01T14:53:54.967Z</time></trkpt><trkpt lat="48.8102724" lon="4.6380222"><ele>121.0</ele><time>2026-05-01T14:53:55.971Z</time></trkpt><trkpt lat="48.8101733" lon="4.6378539"><ele>121.0</ele><time>2026-05-01T14:53:56.966Z</time></trkpt><trkpt lat="48.8100652" lon="4.6376818"><ele>121.0</ele><time>2026-05-01T14:53:57.972Z</time></trkpt><trkpt lat="48.8099554" lon="4.6374951"><ele>121.0</ele><time>2026-05-01T14:53:58.973Z</time></trkpt><trkpt lat="48.8098306" lon="4.6373085"><ele>121.0</ele><time>2026-05-01T14:53:59.975Z</time></trkpt><trkpt lat="48.8096919" lon="4.6371247"><ele>121.0</ele><time>2026-05-01T14:54:00.963Z</time></trkpt><trkpt lat="48.8095382" lon="4.6369598"><ele>121.0</ele><time>2026-05-01T14:54:01.969Z</time></trkpt><trkpt lat="48.8093764" lon="4.636819"><ele>121.0</ele><time>2026-05-01T14:54:02.969Z</time></trkpt><trkpt lat="48.8092045" lon="4.6366942"><ele>121.0</ele><time>2026-05-01T14:54:03.974Z</time></trkpt><trkpt lat="48.809035" lon="4.6365823"><ele>120.33333333333334</ele><time>2026-05-01T14:54:04.963Z</time></trkpt><trkpt lat="48.8088681" lon="4.6364491"><ele>119.66666666666666</ele><time>2026-05-01T14:54:05.962Z</time></trkpt><trkpt lat="48.8086998" lon="4.6363271"><ele>119.0</ele><time>2026-05-01T14:54:06.964Z</time></trkpt><trkpt lat="48.8085364" lon="4.6361893"><ele>119.0</ele><time>2026-05-01T14:54:07.964Z</time></trkpt><trkpt lat="48.8083943" lon="4.636034"><ele>119.0</ele><time>2026-05-01T14:54:08.968Z</time></trkpt><trkpt lat="48.8082852" lon="4.6358332"><ele>119.0</ele><time>2026-05-01T14:54:09.964Z</time></trkpt><trkpt lat="48.8082205" lon="4.6356005"><ele>119.0</ele><time>2026-05-01T14:54:10.968Z</time></trkpt><trkpt lat="48.8081692" lon="4.6353437"><ele>119.0</ele><time>2026-05-01T14:54:11.988Z</time></trkpt><trkpt lat="48.8081315" lon="4.6350478"><ele>119.0</ele><time>2026-05-01T14:54:12.963Z</time></trkpt><trkpt lat="48.8080988" lon="4.6347483"><ele>118.33333333333333</ele><time>2026-05-01T14:54:13.971Z</time></trkpt><trkpt lat="48.8080682" lon="4.6344419"><ele>117.66666666666666</ele><time>2026-05-01T14:54:14.965Z</time></trkpt><trkpt lat="48.8080335" lon="4.6341329"><ele>117.0</ele><time>2026-05-01T14:54:15.96Z</time></trkpt><trkpt lat="48.8080025" lon="4.6338118"><ele>117.0</ele><time>2026-05-01T14:54:16.962Z</time></trkpt><trkpt lat="48.8079686" lon="4.6334864"><ele>117.0</ele><time>2026-05-01T14:54:17.966Z</time></trkpt><trkpt lat="48.8079328" lon="4.6331626"><ele>117.0</ele><time>2026-05-01T14:54:18.964Z</time></trkpt><trkpt lat="48.8078865" lon="4.6328536"><ele>117.0</ele><time>2026-05-01T14:54:19.965Z</time></trkpt><trkpt lat="48.8078164" lon="4.632545"><ele>117.0</ele><time>2026-05-01T14:54:20.96Z</time></trkpt><trkpt lat="48.8077348" lon="4.6322343"><ele>117.0</ele><time>2026-05-01T14:54:21.962Z</time></trkpt><trkpt lat="48.807654" lon="4.6319279"><ele>116.66666666666666</ele><time>2026-05-01T14:54:22.964Z</time></trkpt><trkpt lat="48.8075949" lon="4.6316115"><ele>116.33333333333333</ele><time>2026-05-01T14:54:23.971Z</time></trkpt><trkpt lat="48.8075664" lon="4.6313012"><ele>116.0</ele><time>2026-05-01T14:54:24.97Z</time></trkpt><trkpt lat="48.8075607" lon="4.6309832"><ele>116.0</ele><time>2026-05-01T14:54:25.968Z</time></trkpt><trkpt lat="48.8075889" lon="4.6306669"><ele>116.0</ele><time>2026-05-01T14:54:26.962Z</time></trkpt><trkpt lat="48.8076402" lon="4.6303491"><ele>116.0</ele><time>2026-05-01T14:54:27.967Z</time></trkpt><trkpt lat="48.8077091" lon="4.630046"><ele>117.66666666666666</ele><time>2026-05-01T14:54:28.965Z</time></trkpt><trkpt lat="48.8077714" lon="4.6297448"><ele>119.33333333333334</ele><time>2026-05-01T14:54:29.966Z</time></trkpt><trkpt lat="48.8078367" lon="4.6294344"><ele>121.0</ele><time>2026-05-01T14:54:30.984Z</time></trkpt><trkpt lat="48.8079004" lon="4.6291276"><ele>121.0</ele><time>2026-05-01T14:54:31.969Z</time></trkpt><trkpt lat="48.8079586" lon="4.6288132"><ele>121.0</ele><time>2026-05-01T14:54:32.965Z</time></trkpt><trkpt lat="48.8080045" lon="4.6284876"><ele>121.0</ele><time>2026-05-01T14:54:33.961Z</time></trkpt><trkpt lat="48.8080409" lon="4.6281543"><ele>121.0</ele><time>2026-05-01T14:54:34.973Z</time></trkpt><trkpt lat="48.8080684" lon="4.627821"><ele>121.0</ele><time>2026-05-01T14:54:35.96Z</time></trkpt><trkpt lat="48.8080951" lon="4.6274828"><ele>121.0</ele><time>2026-05-01T14:54:36.967Z</time></trkpt><trkpt lat="48.8081251" lon="4.6271498"><ele>121.0</ele><time>2026-05-01T14:54:37.967Z</time></trkpt><trkpt lat="48.8081674" lon="4.6268188"><ele>121.0</ele><time>2026-05-01T14:54:38.965Z</time></trkpt><trkpt lat="48.8082112" lon="4.6264815"><ele>121.0</ele><time>2026-05-01T14:54:39.974Z</time></trkpt><trkpt lat="48.8082519" lon="4.6261482"><ele>121.66666666666667</ele><time>2026-05-01T14:54:40.971Z</time></trkpt><trkpt lat="48.8082782" lon="4.6258119"><ele>122.33333333333334</ele><time>2026-05-01T14:54:41.967Z</time></trkpt><trkpt lat="48.8082943" lon="4.6254761"><ele>123.0</ele><time>2026-05-01T14:54:42.966Z</time></trkpt><trkpt lat="48.8083151" lon="4.6251433"><ele>123.0</ele><time>2026-05-01T14:54:43.966Z</time></trkpt><trkpt lat="48.808339" lon="4.6247985"><ele>123.0</ele><time>2026-05-01T14:54:44.968Z</time></trkpt><trkpt lat="48.8083624" lon="4.6244538"><ele>123.0</ele><time>2026-05-01T14:54:45.963Z</time></trkpt><trkpt lat="48.8083816" lon="4.6241108"><ele>123.0</ele><time>2026-05-01T14:54:46.972Z</time></trkpt><trkpt lat="48.8084027" lon="4.6237626"><ele>123.5</ele><time>2026-05-01T14:54:47.973Z</time></trkpt><trkpt lat="48.8084227" lon="4.6234119"><ele>124.0</ele><time>2026-05-01T14:54:48.972Z</time></trkpt><trkpt lat="48.8084445" lon="4.6230671"><ele>124.0</ele><time>2026-05-01T14:54:49.971Z</time></trkpt><trkpt lat="48.8084675" lon="4.6227248"><ele>124.0</ele><time>2026-05-01T14:54:50.971Z</time></trkpt><trkpt lat="48.8084888" lon="4.6223826"><ele>127.5</ele><time>2026-05-01T14:54:51.969Z</time></trkpt><trkpt lat="48.8085055" lon="4.6220395"><ele>131.0</ele><time>2026-05-01T14:54:52.969Z</time></trkpt><trkpt lat="48.8085104" lon="4.6216934"><ele>131.66666666666666</ele><time>2026-05-01T14:54:53.962Z</time></trkpt><trkpt lat="48.8085029" lon="4.621354"><ele>132.33333333333334</ele><time>2026-05-01T14:54:54.964Z</time></trkpt><trkpt lat="48.8084864" lon="4.6210133"><ele>133.0</ele><time>2026-05-01T14:54:55.968Z</time></trkpt><trkpt lat="48.8084618" lon="4.6206774"><ele>132.66666666666669</ele><time>2026-05-01T14:54:56.969Z</time></trkpt><trkpt lat="48.8084553" lon="4.6203473"><ele>132.33333333333334</ele><time>2026-05-01T14:54:57.969Z</time></trkpt><trkpt lat="48.8084717" lon="4.6200371"><ele>132.0</ele><time>2026-05-01T14:54:58.963Z</time></trkpt><trkpt lat="48.8085073" lon="4.6197325"><ele>131.33333333333334</ele><time>2026-05-01T14:54:59.965Z</time></trkpt><trkpt lat="48.8085622" lon="4.6194352"><ele>130.66666666666669</ele><time>2026-05-01T14:55:00.962Z</time></trkpt><trkpt lat="48.8086283" lon="4.6191237"><ele>130.0</ele><time>2026-05-01T14:55:01.962Z</time></trkpt><trkpt lat="48.8086852" lon="4.6188066"><ele>129.33333333333334</ele><time>2026-05-01T14:55:02.968Z</time></trkpt><trkpt lat="48.808728" lon="4.618485"><ele>128.66666666666666</ele><time>2026-05-01T14:55:03.962Z</time></trkpt><trkpt lat="48.8087381" lon="4.6181533"><ele>128.0</ele><time>2026-05-01T14:55:04.962Z</time></trkpt><trkpt lat="48.8087319" lon="4.6178165"><ele>127.33333333333333</ele><time>2026-05-01T14:55:05.97Z</time></trkpt><trkpt lat="48.8087156" lon="4.6174764"><ele>126.66666666666666</ele><time>2026-05-01T14:55:07Z</time></trkpt><trkpt lat="48.8087109" lon="4.6171392"><ele>126.0</ele><time>2026-05-01T14:55:07.96Z</time></trkpt><trkpt lat="48.8087246" lon="4.6167969"><ele>125.0</ele><time>2026-05-01T14:55:08.968Z</time></trkpt><trkpt lat="48.8087566" lon="4.6164666"><ele>124.0</ele><time>2026-05-01T14:55:09.969Z</time></trkpt><trkpt lat="48.8088122" lon="4.6161409"><ele>123.0</ele><time>2026-05-01T14:55:10.96Z</time></trkpt><trkpt lat="48.8088844" lon="4.6158324"><ele>122.33333333333334</ele><time>2026-05-01T14:55:11.962Z</time></trkpt><trkpt lat="48.8089703" lon="4.6155303"><ele>121.66666666666667</ele><time>2026-05-01T14:55:12.964Z</time></trkpt><trkpt lat="48.8090598" lon="4.6152271"><ele>121.0</ele><time>2026-05-01T14:55:13.965Z</time></trkpt><trkpt lat="48.8091532" lon="4.6149174"><ele>120.5</ele><time>2026-05-01T14:55:14.964Z</time></trkpt><trkpt lat="48.8092471" lon="4.6146078"><ele>120.0</ele><time>2026-05-01T14:55:15.967Z</time></trkpt><trkpt lat="48.8093398" lon="4.6142922"><ele>120.0</ele><time>2026-05-01T14:55:16.973Z</time></trkpt><trkpt lat="48.8094238" lon="4.6139751"><ele>120.0</ele><time>2026-05-01T14:55:17.962Z</time></trkpt><trkpt lat="48.8095105" lon="4.6136743"><ele>120.0</ele><time>2026-05-01T14:55:18.98Z</time></trkpt><trkpt lat="48.8095926" lon="4.6133883"><ele>119.0</ele><time>2026-05-01T14:55:19.969Z</time></trkpt><trkpt lat="48.8096668" lon="4.6131112"><ele>118.0</ele><time>2026-05-01T14:55:20.965Z</time></trkpt><trkpt lat="48.809734" lon="4.6128667"><ele>117.0</ele><time>2026-05-01T14:55:21.98Z</time></trkpt><trkpt lat="48.8097877" lon="4.6126306"><ele>116.33333333333334</ele><time>2026-05-01T14:55:22.971Z</time></trkpt><trkpt lat="48.8098288" lon="4.6123943"><ele>115.66666666666667</ele><time>2026-05-01T14:55:23.968Z</time></trkpt><trkpt lat="48.8098543" lon="4.6121701"><ele>115.0</ele><time>2026-05-01T14:55:24.966Z</time></trkpt><trkpt lat="48.8098553" lon="4.6119567"><ele>114.75</ele><time>2026-05-01T14:55:25.963Z</time></trkpt><trkpt lat="48.8098513" lon="4.611748"><ele>114.5</ele><time>2026-05-01T14:55:27.009Z</time></trkpt><trkpt lat="48.8098407" lon="4.6115468"><ele>114.25</ele><time>2026-05-01T14:55:27.973Z</time></trkpt><trkpt lat="48.8098217" lon="4.6113575"><ele>114.0</ele><time>2026-05-01T14:55:28.963Z</time></trkpt><trkpt lat="48.8098061" lon="4.6111739"><ele>113.5</ele><time>2026-05-01T14:55:29.967Z</time></trkpt><trkpt lat="48.8097856" lon="4.6109956"><ele>113.0</ele><time>2026-05-01T14:55:30.967Z</time></trkpt><trkpt lat="48.8097528" lon="4.6108256"><ele>112.5</ele><time>2026-05-01T14:55:31.969Z</time></trkpt><trkpt lat="48.8096982" lon="4.6106735"><ele>112.0</ele><time>2026-05-01T14:55:32.969Z</time></trkpt><trkpt lat="48.8096381" lon="4.6105259"><ele>112.00000000000001</ele><time>2026-05-01T14:55:33.972Z</time></trkpt><trkpt lat="48.8095765" lon="4.6103914"><ele>112.0</ele><time>2026-05-01T14:55:34.97Z</time></trkpt><trkpt lat="48.8095295" lon="4.6102891"><ele>112.0</ele><time>2026-05-01T14:55:35.966Z</time></trkpt><trkpt lat="48.80949" lon="4.6102073"><ele>112.0</ele><time>2026-05-01T14:55:36.968Z</time></trkpt><trkpt lat="48.8094549" lon="4.6100981"><ele>112.00000000000001</ele><time>2026-05-01T14:55:38.971Z</time></trkpt><trkpt lat="48.8094312" lon="4.609998"><ele>112.0</ele><time>2026-05-01T14:55:41.968Z</time></trkpt><trkpt lat="48.809446" lon="4.6098482"><ele>111.66666666666667</ele><time>2026-05-01T14:55:43.963Z</time></trkpt><trkpt lat="48.8094773" lon="4.6097531"><ele>111.33333333333334</ele><time>2026-05-01T14:55:44.964Z</time></trkpt><trkpt lat="48.8095173" lon="4.6096515"><ele>111.0</ele><time>2026-05-01T14:55:45.969Z</time></trkpt><trkpt lat="48.8095633" lon="4.6095489"><ele>110.66666666666666</ele><time>2026-05-01T14:55:46.973Z</time></trkpt><trkpt lat="48.8096187" lon="4.6094396"><ele>110.33333333333333</ele><time>2026-05-01T14:55:47.961Z</time></trkpt><trkpt lat="48.8096884" lon="4.609337"><ele>110.0</ele><time>2026-05-01T14:55:48.961Z</time></trkpt><trkpt lat="48.8097721" lon="4.6092504"><ele>110.0</ele><time>2026-05-01T14:55:49.963Z</time></trkpt><trkpt lat="48.8098559" lon="4.609174"><ele>110.0</ele><time>2026-05-01T14:55:50.959Z</time></trkpt><trkpt lat="48.8099434" lon="4.6091083"><ele>110.0</ele><time>2026-05-01T14:55:51.966Z</time></trkpt><trkpt lat="48.8100406" lon="4.6090407"><ele>110.0</ele><time>2026-05-01T14:55:52.976Z</time></trkpt><trkpt lat="48.8101385" lon="4.6089729"><ele>110.0</ele><time>2026-05-01T14:55:53.969Z</time></trkpt><trkpt lat="48.8102332" lon="4.6089039"><ele>109.99999999999999</ele><time>2026-05-01T14:55:54.963Z</time></trkpt><trkpt lat="48.8103298" lon="4.6088409"><ele>110.0</ele><time>2026-05-01T14:55:55.968Z</time></trkpt><trkpt lat="48.8104168" lon="4.6087876"><ele>110.0</ele><time>2026-05-01T14:55:56.961Z</time></trkpt><trkpt lat="48.8104904" lon="4.6087366"><ele>110.0</ele><time>2026-05-01T14:55:57.968Z</time></trkpt><trkpt lat="48.8105609" lon="4.6086889"><ele>109.99999999999999</ele><time>2026-05-01T14:55:58.974Z</time></trkpt><trkpt lat="48.8106218" lon="4.6086312"><ele>110.0</ele><time>2026-05-01T14:55:59.963Z</time></trkpt><trkpt lat="48.8106821" lon="4.6085617"><ele>110.0</ele><time>2026-05-01T14:56:00.973Z</time></trkpt><trkpt lat="48.8107207" lon="4.6084541"><ele>110.0</ele><time>2026-05-01T14:56:01.977Z</time></trkpt><trkpt lat="48.8107184" lon="4.6083231"><ele>110.0</ele><time>2026-05-01T14:56:02.969Z</time></trkpt><trkpt lat="48.8106988" lon="4.6081866"><ele>110.0</ele><time>2026-05-01T14:56:03.962Z</time></trkpt><trkpt lat="48.8106804" lon="4.6080368"><ele>110.0</ele><time>2026-05-01T14:56:04.97Z</time></trkpt><trkpt lat="48.8106751" lon="4.6078677"><ele>109.8</ele><time>2026-05-01T14:56:05.966Z</time></trkpt><trkpt lat="48.8106765" lon="4.6076961"><ele>109.6</ele><time>2026-05-01T14:56:06.962Z</time></trkpt><trkpt lat="48.8106794" lon="4.6075302"><ele>109.4</ele><time>2026-05-01T14:56:07.966Z</time></trkpt><trkpt lat="48.8106836" lon="4.6073731"><ele>109.2</ele><time>2026-05-01T14:56:08.974Z</time></trkpt><trkpt lat="48.8106916" lon="4.6072257"><ele>109.0</ele><time>2026-05-01T14:56:09.967Z</time></trkpt><trkpt lat="48.8107108" lon="4.607087"><ele>108.6</ele><time>2026-05-01T14:56:10.978Z</time></trkpt><trkpt lat="48.8107411" lon="4.6069365"><ele>108.2</ele><time>2026-05-01T14:56:11.966Z</time></trkpt><trkpt lat="48.8107852" lon="4.6067836"><ele>107.79999999999998</ele><time>2026-05-01T14:56:12.964Z</time></trkpt><trkpt lat="48.8108365" lon="4.6066377"><ele>107.39999999999999</ele><time>2026-05-01T14:56:13.965Z</time></trkpt><trkpt lat="48.8108976" lon="4.6064926"><ele>107.0</ele><time>2026-05-01T14:56:14.966Z</time></trkpt><trkpt lat="48.8109682" lon="4.6063552"><ele>107.25</ele><time>2026-05-01T14:56:15.958Z</time></trkpt><trkpt lat="48.8110371" lon="4.6062126"><ele>107.5</ele><time>2026-05-01T14:56:16.973Z</time></trkpt><trkpt lat="48.8111096" lon="4.6060748"><ele>107.75</ele><time>2026-05-01T14:56:17.968Z</time></trkpt><trkpt lat="48.8111805" lon="4.6059184"><ele>108.0</ele><time>2026-05-01T14:56:18.975Z</time></trkpt><trkpt lat="48.811253" lon="4.6057704"><ele>108.0</ele><time>2026-05-01T14:56:19.969Z</time></trkpt><trkpt lat="48.8113216" lon="4.6056274"><ele>108.0</ele><time>2026-05-01T14:56:20.962Z</time></trkpt><trkpt lat="48.8113955" lon="4.6054872"><ele>108.0</ele><time>2026-05-01T14:56:21.973Z</time></trkpt><trkpt lat="48.8114638" lon="4.6053511"><ele>108.0</ele><time>2026-05-01T14:56:22.971Z</time></trkpt><trkpt lat="48.8115313" lon="4.6052204"><ele>107.75</ele><time>2026-05-01T14:56:23.966Z</time></trkpt><trkpt lat="48.8116003" lon="4.6050888"><ele>107.5</ele><time>2026-05-01T14:56:24.966Z</time></trkpt><trkpt lat="48.8116687" lon="4.6049486"><ele>107.25</ele><time>2026-05-01T14:56:25.966Z</time></trkpt><trkpt lat="48.8117353" lon="4.6048064"><ele>107.0</ele><time>2026-05-01T14:56:26.972Z</time></trkpt><trkpt lat="48.8118039" lon="4.604665"><ele>107.39999999999999</ele><time>2026-05-01T14:56:27.963Z</time></trkpt><trkpt lat="48.8118703" lon="4.6045199"><ele>107.79999999999998</ele><time>2026-05-01T14:56:28.967Z</time></trkpt><trkpt lat="48.8119369" lon="4.6043825"><ele>108.2</ele><time>2026-05-01T14:56:29.969Z</time></trkpt><trkpt lat="48.8120077" lon="4.6042493"><ele>108.6</ele><time>2026-05-01T14:56:30.961Z</time></trkpt><trkpt lat="48.8120711" lon="4.6041327"><ele>109.0</ele><time>2026-05-01T14:56:31.969Z</time></trkpt><trkpt lat="48.8121288" lon="4.6040225"><ele>109.0</ele><time>2026-05-01T14:56:32.968Z</time></trkpt><trkpt lat="48.8121796" lon="4.6039083"><ele>109.0</ele><time>2026-05-01T14:56:33.978Z</time></trkpt><trkpt lat="48.8122247" lon="4.6037874"><ele>109.0</ele><time>2026-05-01T14:56:34.962Z</time></trkpt><trkpt lat="48.8122746" lon="4.603675"><ele>109.0</ele><time>2026-05-01T14:56:35.966Z</time></trkpt><trkpt lat="48.8123177" lon="4.6035586"><ele>109.0</ele><time>2026-05-01T14:56:36.96Z</time></trkpt><trkpt lat="48.8123685" lon="4.603441"><ele>109.00000000000001</ele><time>2026-05-01T14:56:37.96Z</time></trkpt><trkpt lat="48.8124198" lon="4.6033169"><ele>109.0</ele><time>2026-05-01T14:56:38.974Z</time></trkpt><trkpt lat="48.8124755" lon="4.6031877"><ele>109.0</ele><time>2026-05-01T14:56:39.971Z</time></trkpt><trkpt lat="48.8125273" lon="4.6030733"><ele>109.0</ele><time>2026-05-01T14:56:40.969Z</time></trkpt><trkpt lat="48.8125722" lon="4.6029733"><ele>109.00000000000001</ele><time>2026-05-01T14:56:41.973Z</time></trkpt><trkpt lat="48.8126146" lon="4.6028832"><ele>109.0</ele><time>2026-05-01T14:56:42.967Z</time></trkpt><trkpt lat="48.8126498" lon="4.6027929"><ele>109.4</ele><time>2026-05-01T14:56:43.97Z</time></trkpt><trkpt lat="48.8126849" lon="4.6027009"><ele>109.80000000000001</ele><time>2026-05-01T14:56:44.968Z</time></trkpt><trkpt lat="48.8127229" lon="4.6025823"><ele>110.19999999999999</ele><time>2026-05-01T14:56:45.972Z</time></trkpt><trkpt lat="48.8127663" lon="4.6024476"><ele>110.6</ele><time>2026-05-01T14:56:46.969Z</time></trkpt><trkpt lat="48.8128138" lon="4.6022921"><ele>111.0</ele><time>2026-05-01T14:56:47.97Z</time></trkpt><trkpt lat="48.8128569" lon="4.6021264"><ele>111.25</ele><time>2026-05-01T14:56:48.979Z</time></trkpt><trkpt lat="48.812898" lon="4.6019616"><ele>111.5</ele><time>2026-05-01T14:56:49.962Z</time></trkpt><trkpt lat="48.8129368" lon="4.6017858"><ele>111.75</ele><time>2026-05-01T14:56:50.977Z</time></trkpt><trkpt lat="48.8129718" lon="4.6016087"><ele>112.0</ele><time>2026-05-01T14:56:51.967Z</time></trkpt><trkpt lat="48.8130052" lon="4.6014376"><ele>112.0</ele><time>2026-05-01T14:56:52.966Z</time></trkpt><trkpt lat="48.813039" lon="4.6012699"><ele>112.0</ele><time>2026-05-01T14:56:53.971Z</time></trkpt><trkpt lat="48.8130731" lon="4.6010898"><ele>112.0</ele><time>2026-05-01T14:56:54.963Z</time></trkpt><trkpt lat="48.8130984" lon="4.6009221"><ele>112.0</ele><time>2026-05-01T14:56:55.966Z</time></trkpt><trkpt lat="48.8131199" lon="4.6007519"><ele>112.0</ele><time>2026-05-01T14:56:56.964Z</time></trkpt><trkpt lat="48.813138" lon="4.6005767"><ele>111.99999999999999</ele><time>2026-05-01T14:56:57.972Z</time></trkpt><trkpt lat="48.8131519" lon="4.6004052"><ele>111.99999999999999</ele><time>2026-05-01T14:56:58.969Z</time></trkpt><trkpt lat="48.8131649" lon="4.6002471"><ele>112.0</ele><time>2026-05-01T14:56:59.971Z</time></trkpt><trkpt lat="48.8131796" lon="4.6000972"><ele>112.0</ele><time>2026-05-01T14:57:00.97Z</time></trkpt><trkpt lat="48.8132005" lon="4.5999612"><ele>111.83333333333334</ele><time>2026-05-01T14:57:02.007Z</time></trkpt><trkpt lat="48.8132254" lon="4.5998347"><ele>111.66666666666667</ele><time>2026-05-01T14:57:02.963Z</time></trkpt><trkpt lat="48.8132504" lon="4.5997333"><ele>111.5</ele><time>2026-05-01T14:57:03.962Z</time></trkpt><trkpt lat="48.8133064" lon="4.5995717"><ele>111.33333333333334</ele><time>2026-05-01T14:57:05.96Z</time></trkpt><trkpt lat="48.8133342" lon="4.5994628"><ele>111.16666666666667</ele><time>2026-05-01T14:57:06.968Z</time></trkpt><trkpt lat="48.8133589" lon="4.5993269"><ele>111.0</ele><time>2026-05-01T14:57:07.979Z</time></trkpt><trkpt lat="48.8133822" lon="4.5991812"><ele>111.25</ele><time>2026-05-01T14:57:08.968Z</time></trkpt><trkpt lat="48.8134067" lon="4.5990268"><ele>111.5</ele><time>2026-05-01T14:57:09.966Z</time></trkpt><trkpt lat="48.8134393" lon="4.5988714"><ele>111.75</ele><time>2026-05-01T14:57:10.965Z</time></trkpt><trkpt lat="48.8134727" lon="4.5986981"><ele>112.0</ele><time>2026-05-01T14:57:11.978Z</time></trkpt><trkpt lat="48.813522" lon="4.5985298"><ele>112.0</ele><time>2026-05-01T14:57:12.965Z</time></trkpt><trkpt lat="48.813573" lon="4.5983574"><ele>112.0</ele><time>2026-05-01T14:57:13.972Z</time></trkpt><trkpt lat="48.8136356" lon="4.598186"><ele>112.0</ele><time>2026-05-01T14:57:14.967Z</time></trkpt><trkpt lat="48.8137045" lon="4.5979993"><ele>112.0</ele><time>2026-05-01T14:57:15.958Z</time></trkpt><trkpt lat="48.813772" lon="4.5978067"><ele>111.66666666666667</ele><time>2026-05-01T14:57:16.974Z</time></trkpt><trkpt lat="48.8138432" lon="4.597614"><ele>111.33333333333334</ele><time>2026-05-01T14:57:17.967Z</time></trkpt><trkpt lat="48.8139147" lon="4.5974047"><ele>111.0</ele><time>2026-05-01T14:57:18.972Z</time></trkpt><trkpt lat="48.8139908" lon="4.5971833"><ele>110.66666666666666</ele><time>2026-05-01T14:57:19.967Z</time></trkpt><trkpt lat="48.814067" lon="4.596959"><ele>110.33333333333333</ele><time>2026-05-01T14:57:20.991Z</time></trkpt><trkpt lat="48.8141482" lon="4.5967178"><ele>110.0</ele><time>2026-05-01T14:57:21.965Z</time></trkpt><trkpt lat="48.8142351" lon="4.5964581"><ele>111.0</ele><time>2026-05-01T14:57:22.977Z</time></trkpt><trkpt lat="48.8143259" lon="4.5961769"><ele>112.0</ele><time>2026-05-01T14:57:23.967Z</time></trkpt><trkpt lat="48.8144107" lon="4.5958862"><ele>113.0</ele><time>2026-05-01T14:57:24.966Z</time></trkpt><trkpt lat="48.8145323" lon="4.5956117"><ele>112.66666666666666</ele><time>2026-05-01T14:57:25.968Z</time></trkpt><trkpt lat="48.8146136" lon="4.5953123"><ele>112.33333333333334</ele><time>2026-05-01T14:57:26.973Z</time></trkpt><trkpt lat="48.8147325" lon="4.5950234"><ele>112.0</ele><time>2026-05-01T14:57:27.972Z</time></trkpt><trkpt lat="48.8148184" lon="4.5947058"><ele>111.0</ele><time>2026-05-01T14:57:28.968Z</time></trkpt><trkpt lat="48.8149517" lon="4.5944013"><ele>110.0</ele><time>2026-05-01T14:57:29.973Z</time></trkpt><trkpt lat="48.815055" lon="4.5940845"><ele>110.33333333333333</ele><time>2026-05-01T14:57:30.968Z</time></trkpt><trkpt lat="48.8151567" lon="4.5937866"><ele>110.66666666666666</ele><time>2026-05-01T14:57:31.972Z</time></trkpt><trkpt lat="48.8152622" lon="4.5935098"><ele>111.0</ele><time>2026-05-01T14:57:32.965Z</time></trkpt><trkpt lat="48.8153604" lon="4.5932428"><ele>111.0</ele><time>2026-05-01T14:57:33.967Z</time></trkpt><trkpt lat="48.8154553" lon="4.5929807"><ele>111.0</ele><time>2026-05-01T14:57:34.966Z</time></trkpt><trkpt lat="48.8155445" lon="4.592733"><ele>111.0</ele><time>2026-05-01T14:57:35.97Z</time></trkpt><trkpt lat="48.8156212" lon="4.5925066"><ele>111.0</ele><time>2026-05-01T14:57:36.965Z</time></trkpt><trkpt lat="48.8156811" lon="4.5923026"><ele>111.0</ele><time>2026-05-01T14:57:37.965Z</time></trkpt><trkpt lat="48.8157263" lon="4.5921106"><ele>111.0</ele><time>2026-05-01T14:57:38.984Z</time></trkpt><trkpt lat="48.8157522" lon="4.5919286"><ele>111.0</ele><time>2026-05-01T14:57:39.961Z</time></trkpt><trkpt lat="48.8157709" lon="4.5917352"><ele>111.25</ele><time>2026-05-01T14:57:40.966Z</time></trkpt><trkpt lat="48.8157718" lon="4.5915483"><ele>111.5</ele><time>2026-05-01T14:57:41.966Z</time></trkpt><trkpt lat="48.8157701" lon="4.591346"><ele>111.75</ele><time>2026-05-01T14:57:42.974Z</time></trkpt><trkpt lat="48.8157683" lon="4.591136"><ele>112.0</ele><time>2026-05-01T14:57:43.966Z</time></trkpt><trkpt lat="48.8157618" lon="4.590924"><ele>111.5</ele><time>2026-05-01T14:57:44.978Z</time></trkpt><trkpt lat="48.8157602" lon="4.5907178"><ele>111.0</ele><time>2026-05-01T14:57:45.979Z</time></trkpt><trkpt lat="48.8157584" lon="4.5905208"><ele>110.5</ele><time>2026-05-01T14:57:46.973Z</time></trkpt><trkpt lat="48.8157753" lon="4.5903334"><ele>110.0</ele><time>2026-05-01T14:57:47.971Z</time></trkpt><trkpt lat="48.8158149" lon="4.5901445"><ele>109.5</ele><time>2026-05-01T14:57:48.985Z</time></trkpt><trkpt lat="48.8158645" lon="4.5899648"><ele>109.0</ele><time>2026-05-01T14:57:49.97Z</time></trkpt><trkpt lat="48.815918" lon="4.5897934"><ele>108.5</ele><time>2026-05-01T14:57:50.968Z</time></trkpt><trkpt lat="48.8159809" lon="4.5896268"><ele>108.0</ele><time>2026-05-01T14:57:51.964Z</time></trkpt><trkpt lat="48.8160456" lon="4.5894537"><ele>107.75</ele><time>2026-05-01T14:57:52.966Z</time></trkpt><trkpt lat="48.816107" lon="4.5892871"><ele>107.5</ele><time>2026-05-01T14:57:53.968Z</time></trkpt><trkpt lat="48.816167" lon="4.589111"><ele>107.25</ele><time>2026-05-01T14:57:54.966Z</time></trkpt><trkpt lat="48.8162286" lon="4.5889397"><ele>107.0</ele><time>2026-05-01T14:57:55.965Z</time></trkpt><trkpt lat="48.8162921" lon="4.5887697"><ele>106.5</ele><time>2026-05-01T14:57:56.966Z</time></trkpt><trkpt lat="48.8163586" lon="4.5886078"><ele>106.0</ele><time>2026-05-01T14:57:57.964Z</time></trkpt><trkpt lat="48.816434" lon="4.5884514"><ele>105.5</ele><time>2026-05-01T14:57:58.973Z</time></trkpt><trkpt lat="48.8165089" lon="4.5883097"><ele>105.0</ele><time>2026-05-01T14:57:59.969Z</time></trkpt><trkpt lat="48.8165919" lon="4.58817"><ele>105.0</ele><time>2026-05-01T14:58:00.963Z</time></trkpt><trkpt lat="48.8166744" lon="4.5880423"><ele>105.0</ele><time>2026-05-01T14:58:01.968Z</time></trkpt><trkpt lat="48.8167537" lon="4.5879079"><ele>105.0</ele><time>2026-05-01T14:58:02.966Z</time></trkpt><trkpt lat="48.8168339" lon="4.5877651"><ele>105.0</ele><time>2026-05-01T14:58:03.966Z</time></trkpt><trkpt lat="48.8169074" lon="4.5876172"><ele>105.0</ele><time>2026-05-01T14:58:04.961Z</time></trkpt><trkpt lat="48.8169861" lon="4.5874684"><ele>105.0</ele><time>2026-05-01T14:58:05.975Z</time></trkpt><trkpt lat="48.8170623" lon="4.5873153"><ele>105.0</ele><time>2026-05-01T14:58:06.971Z</time></trkpt><trkpt lat="48.817135" lon="4.5871619"><ele>105.0</ele><time>2026-05-01T14:58:07.96Z</time></trkpt><trkpt lat="48.8171952" lon="4.5869997"><ele>105.0</ele><time>2026-05-01T14:58:08.966Z</time></trkpt><trkpt lat="48.8172503" lon="4.5868364"><ele>105.0</ele><time>2026-05-01T14:58:09.965Z</time></trkpt><trkpt lat="48.8173038" lon="4.5866701"><ele>105.0</ele><time>2026-05-01T14:58:10.967Z</time></trkpt><trkpt lat="48.8173593" lon="4.5865046"><ele>105.0</ele><time>2026-05-01T14:58:11.967Z</time></trkpt><trkpt lat="48.8174098" lon="4.5863337"><ele>104.75</ele><time>2026-05-01T14:58:12.964Z</time></trkpt><trkpt lat="48.8174647" lon="4.5861681"><ele>104.5</ele><time>2026-05-01T14:58:13.962Z</time></trkpt><trkpt lat="48.8175094" lon="4.5860042"><ele>104.25</ele><time>2026-05-01T14:58:14.972Z</time></trkpt><trkpt lat="48.8175573" lon="4.585842"><ele>104.0</ele><time>2026-05-01T14:58:15.97Z</time></trkpt><trkpt lat="48.8176024" lon="4.5856725"><ele>104.0</ele><time>2026-05-01T14:58:16.969Z</time></trkpt><trkpt lat="48.8176511" lon="4.5855159"><ele>104.0</ele><time>2026-05-01T14:58:17.963Z</time></trkpt><trkpt lat="48.8177038" lon="4.5853589"><ele>104.0</ele><time>2026-05-01T14:58:18.963Z</time></trkpt><trkpt lat="48.8177623" lon="4.5852098"><ele>104.0</ele><time>2026-05-01T14:58:19.96Z</time></trkpt><trkpt lat="48.8178275" lon="4.58506"><ele>103.75</ele><time>2026-05-01T14:58:20.961Z</time></trkpt><trkpt lat="48.817899" lon="4.5849113"><ele>103.5</ele><time>2026-05-01T14:58:21.965Z</time></trkpt><trkpt lat="48.8179681" lon="4.58476"><ele>103.25</ele><time>2026-05-01T14:58:22.962Z</time></trkpt><trkpt lat="48.8180348" lon="4.5846148"><ele>103.0</ele><time>2026-05-01T14:58:23.969Z</time></trkpt><trkpt lat="48.8180914" lon="4.5844855"><ele>103.00000000000001</ele><time>2026-05-01T14:58:24.971Z</time></trkpt><trkpt lat="48.81814" lon="4.5843809"><ele>103.0</ele><time>2026-05-01T14:58:25.966Z</time></trkpt><trkpt lat="48.8181857" lon="4.5842891"><ele>103.0</ele><time>2026-05-01T14:58:26.964Z</time></trkpt><trkpt lat="48.8182282" lon="4.584206"><ele>103.0</ele><time>2026-05-01T14:58:27.982Z</time></trkpt><trkpt lat="48.8182758" lon="4.58411"><ele>103.00000000000001</ele><time>2026-05-01T14:58:28.984Z</time></trkpt><trkpt lat="48.8183222" lon="4.583997"><ele>103.0</ele><time>2026-05-01T14:58:29.967Z</time></trkpt><trkpt lat="48.8183734" lon="4.5838633"><ele>103.0</ele><time>2026-05-01T14:58:30.969Z</time></trkpt><trkpt lat="48.8184366" lon="4.5837205"><ele>103.0</ele><time>2026-05-01T14:58:31.969Z</time></trkpt><trkpt lat="48.8185074" lon="4.5835676"><ele>103.0</ele><time>2026-05-01T14:58:32.969Z</time></trkpt><trkpt lat="48.8185813" lon="4.5834125"><ele>103.0</ele><time>2026-05-01T14:58:33.975Z</time></trkpt><trkpt lat="48.8186612" lon="4.5832481"><ele>103.33333333333334</ele><time>2026-05-01T14:58:34.966Z</time></trkpt><trkpt lat="48.8187492" lon="4.58306"><ele>103.66666666666666</ele><time>2026-05-01T14:58:35.964Z</time></trkpt><trkpt lat="48.8188475" lon="4.5828616"><ele>104.0</ele><time>2026-05-01T14:58:36.962Z</time></trkpt><trkpt lat="48.8189523" lon="4.5826575"><ele>104.0</ele><time>2026-05-01T14:58:38.009Z</time></trkpt><trkpt lat="48.8190603" lon="4.5824355"><ele>104.0</ele><time>2026-05-01T14:58:38.973Z</time></trkpt><trkpt lat="48.8191765" lon="4.582201"><ele>104.0</ele><time>2026-05-01T14:58:39.966Z</time></trkpt><trkpt lat="48.8192947" lon="4.5819584"><ele>103.33333333333333</ele><time>2026-05-01T14:58:40.962Z</time></trkpt><trkpt lat="48.8194145" lon="4.5817082"><ele>102.66666666666666</ele><time>2026-05-01T14:58:41.965Z</time></trkpt><trkpt lat="48.8195409" lon="4.5814518"><ele>102.0</ele><time>2026-05-01T14:58:42.968Z</time></trkpt><trkpt lat="48.8196699" lon="4.5811918"><ele>101.66666666666666</ele><time>2026-05-01T14:58:43.959Z</time></trkpt><trkpt lat="48.8198017" lon="4.5809252"><ele>101.33333333333333</ele><time>2026-05-01T14:58:44.978Z</time></trkpt><trkpt lat="48.8199351" lon="4.580644"><ele>101.0</ele><time>2026-05-01T14:58:45.964Z</time></trkpt><trkpt lat="48.8200717" lon="4.5803571"><ele>100.0</ele><time>2026-05-01T14:58:46.964Z</time></trkpt><trkpt lat="48.8202066" lon="4.580069"><ele>99.0</ele><time>2026-05-01T14:58:47.962Z</time></trkpt><trkpt lat="48.8203361" lon="4.5797892"><ele>99.0</ele><time>2026-05-01T14:58:48.961Z</time></trkpt><trkpt lat="48.8204704" lon="4.5795105"><ele>99.0</ele><time>2026-05-01T14:58:49.973Z</time></trkpt><trkpt lat="48.8206053" lon="4.5792373"><ele>99.0</ele><time>2026-05-01T14:58:50.964Z</time></trkpt><trkpt lat="48.8207391" lon="4.5789668"><ele>99.0</ele><time>2026-05-01T14:58:51.971Z</time></trkpt><trkpt lat="48.8208761" lon="4.5786954"><ele>99.0</ele><time>2026-05-01T14:58:52.974Z</time></trkpt><trkpt lat="48.8210136" lon="4.5784273"><ele>101.0</ele><time>2026-05-01T14:58:53.964Z</time></trkpt><trkpt lat="48.8211509" lon="4.5781551"><ele>103.0</ele><time>2026-05-01T14:58:54.972Z</time></trkpt><trkpt lat="48.821289" lon="4.5778841"><ele>103.0</ele><time>2026-05-01T14:58:55.978Z</time></trkpt><trkpt lat="48.8214267" lon="4.5776115"><ele>103.0</ele><time>2026-05-01T14:58:56.972Z</time></trkpt><trkpt lat="48.8215617" lon="4.5773375"><ele>103.0</ele><time>2026-05-01T14:58:57.967Z</time></trkpt><trkpt lat="48.8216987" lon="4.5770712"><ele>103.0</ele><time>2026-05-01T14:58:58.965Z</time></trkpt><trkpt lat="48.8218359" lon="4.5768045"><ele>103.0</ele><time>2026-05-01T14:58:59.967Z</time></trkpt><trkpt lat="48.8219715" lon="4.5765346"><ele>103.33333333333334</ele><time>2026-05-01T14:59:00.979Z</time></trkpt><trkpt lat="48.822105" lon="4.5762649"><ele>103.66666666666666</ele><time>2026-05-01T14:59:01.966Z</time></trkpt><trkpt lat="48.8222359" lon="4.5759967"><ele>104.0</ele><time>2026-05-01T14:59:02.967Z</time></trkpt><trkpt lat="48.8223671" lon="4.5757285"><ele>104.33333333333333</ele><time>2026-05-01T14:59:03.968Z</time></trkpt><trkpt lat="48.8224927" lon="4.5754525"><ele>104.66666666666666</ele><time>2026-05-01T14:59:04.967Z</time></trkpt><trkpt lat="48.8225951" lon="4.5751607"><ele>105.0</ele><time>2026-05-01T14:59:05.962Z</time></trkpt><trkpt lat="48.8226711" lon="4.5748501"><ele>108.33333333333334</ele><time>2026-05-01T14:59:06.962Z</time></trkpt><trkpt lat="48.8227239" lon="4.5745141"><ele>111.66666666666667</ele><time>2026-05-01T14:59:07.97Z</time></trkpt><trkpt lat="48.8227577" lon="4.5741849"><ele>115.0</ele><time>2026-05-01T14:59:08.963Z</time></trkpt><trkpt lat="48.8227728" lon="4.5738556"><ele>114.33333333333334</ele><time>2026-05-01T14:59:09.971Z</time></trkpt><trkpt lat="48.8227748" lon="4.5735255"><ele>113.66666666666666</ele><time>2026-05-01T14:59:10.969Z</time></trkpt><trkpt lat="48.8227749" lon="4.5731962"><ele>113.0</ele><time>2026-05-01T14:59:11.963Z</time></trkpt><trkpt lat="48.8227793" lon="4.5728656"><ele>112.33333333333333</ele><time>2026-05-01T14:59:12.967Z</time></trkpt><trkpt lat="48.8227834" lon="4.5725347"><ele>111.66666666666666</ele><time>2026-05-01T14:59:13.958Z</time></trkpt><trkpt lat="48.8227897" lon="4.5721987"><ele>111.0</ele><time>2026-05-01T14:59:14.974Z</time></trkpt><trkpt lat="48.822793" lon="4.5718576"><ele>111.0</ele><time>2026-05-01T14:59:15.969Z</time></trkpt><trkpt lat="48.8227947" lon="4.5715208"><ele>111.0</ele><time>2026-05-01T14:59:16.961Z</time></trkpt><trkpt lat="48.8227992" lon="4.5711931"><ele>111.0</ele><time>2026-05-01T14:59:17.967Z</time></trkpt><trkpt lat="48.8228006" lon="4.570881"><ele>110.66666666666666</ele><time>2026-05-01T14:59:18.969Z</time></trkpt><trkpt lat="48.822797" lon="4.5705765"><ele>110.33333333333333</ele><time>2026-05-01T14:59:20.018Z</time></trkpt><trkpt lat="48.8228001" lon="4.5702814"><ele>110.0</ele><time>2026-05-01T14:59:20.974Z</time></trkpt><trkpt lat="48.8228035" lon="4.5700129"><ele>109.75</ele><time>2026-05-01T14:59:21.96Z</time></trkpt><trkpt lat="48.8228049" lon="4.5697661"><ele>109.5</ele><time>2026-05-01T14:59:22.962Z</time></trkpt><trkpt lat="48.8228053" lon="4.5695511"><ele>109.25</ele><time>2026-05-01T14:59:23.968Z</time></trkpt><trkpt lat="48.8228069" lon="4.5693514"><ele>109.0</ele><time>2026-05-01T14:59:24.964Z</time></trkpt><trkpt lat="48.8228106" lon="4.569166"><ele>109.0</ele><time>2026-05-01T14:59:25.964Z</time></trkpt><trkpt lat="48.8228068" lon="4.5689796"><ele>109.0</ele><time>2026-05-01T14:59:26.963Z</time></trkpt><trkpt lat="48.8228079" lon="4.5687889"><ele>109.0</ele><time>2026-05-01T14:59:27.966Z</time></trkpt><trkpt lat="48.8228091" lon="4.5685976"><ele>109.0</ele><time>2026-05-01T14:59:28.965Z</time></trkpt><trkpt lat="48.822809" lon="4.5684008"><ele>109.0</ele><time>2026-05-01T14:59:29.967Z</time></trkpt><trkpt lat="48.8228095" lon="4.5682087"><ele>109.0</ele><time>2026-05-01T14:59:30.964Z</time></trkpt><trkpt lat="48.822809" lon="4.5680151"><ele>109.0</ele><time>2026-05-01T14:59:31.971Z</time></trkpt><trkpt lat="48.822811" lon="4.5678302"><ele>109.0</ele><time>2026-05-01T14:59:32.963Z</time></trkpt><trkpt lat="48.8228183" lon="4.567639"><ele>108.75</ele><time>2026-05-01T14:59:33.967Z</time></trkpt><trkpt lat="48.8228173" lon="4.567446"><ele>108.5</ele><time>2026-05-01T14:59:34.966Z</time></trkpt><trkpt lat="48.8228199" lon="4.5672579"><ele>108.25</ele><time>2026-05-01T14:59:35.962Z</time></trkpt><trkpt lat="48.8228232" lon="4.5670675"><ele>108.0</ele><time>2026-05-01T14:59:36.964Z</time></trkpt><trkpt lat="48.8228319" lon="4.5668822"><ele>108.0</ele><time>2026-05-01T14:59:37.966Z</time></trkpt><trkpt lat="48.8228383" lon="4.5667006"><ele>108.0</ele><time>2026-05-01T14:59:38.973Z</time></trkpt><trkpt lat="48.8228361" lon="4.5665116"><ele>108.0</ele><time>2026-05-01T14:59:39.963Z</time></trkpt><trkpt lat="48.8228293" lon="4.5663335"><ele>108.0</ele><time>2026-05-01T14:59:40.962Z</time></trkpt><trkpt lat="48.8228223" lon="4.5661505"><ele>108.25</ele><time>2026-05-01T14:59:41.964Z</time></trkpt><trkpt lat="48.822816" lon="4.5659598"><ele>108.5</ele><time>2026-05-01T14:59:42.962Z</time></trkpt><trkpt lat="48.8228151" lon="4.5657802"><ele>108.75</ele><time>2026-05-01T14:59:43.97Z</time></trkpt><trkpt lat="48.8228185" lon="4.5656024"><ele>109.0</ele><time>2026-05-01T14:59:44.96Z</time></trkpt><trkpt lat="48.8228237" lon="4.5654197"><ele>108.75</ele><time>2026-05-01T14:59:45.97Z</time></trkpt><trkpt lat="48.8228264" lon="4.5652389"><ele>108.5</ele><time>2026-05-01T14:59:46.967Z</time></trkpt><trkpt lat="48.8228296" lon="4.5650607"><ele>108.25</ele><time>2026-05-01T14:59:47.972Z</time></trkpt><trkpt lat="48.8228338" lon="4.5648792"><ele>108.0</ele><time>2026-05-01T14:59:48.963Z</time></trkpt><trkpt lat="48.8228335" lon="4.5647042"><ele>107.75</ele><time>2026-05-01T14:59:49.964Z</time></trkpt><trkpt lat="48.8228334" lon="4.5645272"><ele>107.5</ele><time>2026-05-01T14:59:50.968Z</time></trkpt><trkpt lat="48.8228296" lon="4.5643453"><ele>107.25</ele><time>2026-05-01T14:59:51.961Z</time></trkpt><trkpt lat="48.8228203" lon="4.5641559"><ele>107.0</ele><time>2026-05-01T14:59:52.963Z</time></trkpt><trkpt lat="48.8228093" lon="4.5639796"><ele>107.0</ele><time>2026-05-01T14:59:53.968Z</time></trkpt><trkpt lat="48.8227965" lon="4.563803"><ele>107.0</ele><time>2026-05-01T14:59:54.963Z</time></trkpt><trkpt lat="48.8227832" lon="4.5636246"><ele>107.0</ele><time>2026-05-01T14:59:55.971Z</time></trkpt><trkpt lat="48.8227729" lon="4.5634541"><ele>107.0</ele><time>2026-05-01T14:59:56.966Z</time></trkpt><trkpt lat="48.8227647" lon="4.5632906"><ele>106.6</ele><time>2026-05-01T14:59:57.966Z</time></trkpt><trkpt lat="48.8227567" lon="4.5631331"><ele>106.19999999999999</ele><time>2026-05-01T14:59:58.97Z</time></trkpt><trkpt lat="48.8227501" lon="4.5629738"><ele>105.8</ele><time>2026-05-01T14:59:59.978Z</time></trkpt><trkpt lat="48.8227368" lon="4.5628066"><ele>105.4</ele><time>2026-05-01T15:00:00.963Z</time></trkpt><trkpt lat="48.8227209" lon="4.56263"><ele>105.0</ele><time>2026-05-01T15:00:01.975Z</time></trkpt><trkpt lat="48.8226948" lon="4.5624556"><ele>104.25</ele><time>2026-05-01T15:00:02.971Z</time></trkpt><trkpt lat="48.8226674" lon="4.5622867"><ele>103.5</ele><time>2026-05-01T15:00:03.966Z</time></trkpt><trkpt lat="48.8226515" lon="4.5621059"><ele>102.75</ele><time>2026-05-01T15:00:04.974Z</time></trkpt><trkpt lat="48.8226489" lon="4.5619225"><ele>102.0</ele><time>2026-05-01T15:00:05.971Z</time></trkpt><trkpt lat="48.8226482" lon="4.561764"><ele>101.6</ele><time>2026-05-01T15:00:06.964Z</time></trkpt><trkpt lat="48.8226524" lon="4.5615993"><ele>101.19999999999999</ele><time>2026-05-01T15:00:07.969Z</time></trkpt><trkpt lat="48.8226607" lon="4.5614548"><ele>100.8</ele><time>2026-05-01T15:00:08.968Z</time></trkpt><trkpt lat="48.8226778" lon="4.5613087"><ele>100.4</ele><time>2026-05-01T15:00:09.97Z</time></trkpt><trkpt lat="48.8226926" lon="4.5611739"><ele>100.0</ele><time>2026-05-01T15:00:10.969Z</time></trkpt><trkpt lat="48.8227098" lon="4.561044"><ele>100.0</ele><time>2026-05-01T15:00:11.965Z</time></trkpt><trkpt lat="48.8227386" lon="4.5608979"><ele>100.0</ele><time>2026-05-01T15:00:12.98Z</time></trkpt><trkpt lat="48.8227667" lon="4.5607444"><ele>100.0</ele><time>2026-05-01T15:00:13.966Z</time></trkpt><trkpt lat="48.8227963" lon="4.5605899"><ele>100.0</ele><time>2026-05-01T15:00:14.964Z</time></trkpt><trkpt lat="48.8228329" lon="4.5604365"><ele>100.0</ele><time>2026-05-01T15:00:15.972Z</time></trkpt><trkpt lat="48.822874" lon="4.560287"><ele>100.0</ele><time>2026-05-01T15:00:16.971Z</time></trkpt><trkpt lat="48.8229192" lon="4.5601372"><ele>100.0</ele><time>2026-05-01T15:00:17.969Z</time></trkpt><trkpt lat="48.8229764" lon="4.5599899"><ele>100.0</ele><time>2026-05-01T15:00:18.963Z</time></trkpt><trkpt lat="48.8230336" lon="4.5598368"><ele>100.0</ele><time>2026-05-01T15:00:19.965Z</time></trkpt><trkpt lat="48.8230879" lon="4.5596832"><ele>100.0</ele><time>2026-05-01T15:00:20.969Z</time></trkpt><trkpt lat="48.8231473" lon="4.5595315"><ele>100.0</ele><time>2026-05-01T15:00:21.968Z</time></trkpt><trkpt lat="48.8232097" lon="4.5593803"><ele>100.0</ele><time>2026-05-01T15:00:22.966Z</time></trkpt><trkpt lat="48.8232698" lon="4.5592408"><ele>100.0</ele><time>2026-05-01T15:00:23.963Z</time></trkpt><trkpt lat="48.8233287" lon="4.5590933"><ele>100.0</ele><time>2026-05-01T15:00:24.975Z</time></trkpt><trkpt lat="48.8233732" lon="4.5589222"><ele>100.0</ele><time>2026-05-01T15:00:25.962Z</time></trkpt><trkpt lat="48.8233998" lon="4.5587478"><ele>100.0</ele><time>2026-05-01T15:00:26.964Z</time></trkpt><trkpt lat="48.823422" lon="4.5585646"><ele>100.0</ele><time>2026-05-01T15:00:27.963Z</time></trkpt><trkpt lat="48.8234417" lon="4.5583773"><ele>100.25</ele><time>2026-05-01T15:00:28.963Z</time></trkpt><trkpt lat="48.8234654" lon="4.5581835"><ele>100.5</ele><time>2026-05-01T15:00:29.966Z</time></trkpt><trkpt lat="48.8234904" lon="4.5579819"><ele>100.75</ele><time>2026-05-01T15:00:30.97Z</time></trkpt><trkpt lat="48.8235199" lon="4.5577677"><ele>101.0</ele><time>2026-05-01T15:00:31.974Z</time></trkpt><trkpt lat="48.8235508" lon="4.5575618"><ele>102.25</ele><time>2026-05-01T15:00:32.963Z</time></trkpt><trkpt lat="48.8235743" lon="4.5573507"><ele>103.5</ele><time>2026-05-01T15:00:33.968Z</time></trkpt><trkpt lat="48.823601" lon="4.5571322"><ele>104.75</ele><time>2026-05-01T15:00:34.963Z</time></trkpt><trkpt lat="48.8236256" lon="4.5569082"><ele>106.0</ele><time>2026-05-01T15:00:35.976Z</time></trkpt><trkpt lat="48.8236537" lon="4.5566877"><ele>106.0</ele><time>2026-05-01T15:00:36.967Z</time></trkpt><trkpt lat="48.8236871" lon="4.5564632"><ele>106.0</ele><time>2026-05-01T15:00:37.964Z</time></trkpt><trkpt lat="48.8237244" lon="4.5562247"><ele>106.0</ele><time>2026-05-01T15:00:38.962Z</time></trkpt><trkpt lat="48.8237613" lon="4.5559815"><ele>105.66666666666667</ele><time>2026-05-01T15:00:39.966Z</time></trkpt><trkpt lat="48.823793" lon="4.5557259"><ele>105.33333333333334</ele><time>2026-05-01T15:00:40.962Z</time></trkpt><trkpt lat="48.8238239" lon="4.5554641"><ele>105.0</ele><time>2026-05-01T15:00:41.97Z</time></trkpt><trkpt lat="48.8238581" lon="4.5551919"><ele>105.0</ele><time>2026-05-01T15:00:42.974Z</time></trkpt><trkpt lat="48.8238966" lon="4.5549096"><ele>105.0</ele><time>2026-05-01T15:00:43.963Z</time></trkpt><trkpt lat="48.8239321" lon="4.5546233"><ele>105.0</ele><time>2026-05-01T15:00:44.962Z</time></trkpt><trkpt lat="48.8239712" lon="4.5543303"><ele>104.33333333333334</ele><time>2026-05-01T15:00:45.964Z</time></trkpt><trkpt lat="48.824015" lon="4.554039"><ele>103.66666666666667</ele><time>2026-05-01T15:00:46.966Z</time></trkpt><trkpt lat="48.8240759" lon="4.5537552"><ele>103.0</ele><time>2026-05-01T15:00:47.975Z</time></trkpt><trkpt lat="48.8241741" lon="4.5535019"><ele>102.33333333333334</ele><time>2026-05-01T15:00:48.966Z</time></trkpt><trkpt lat="48.8242921" lon="4.5532767"><ele>101.66666666666666</ele><time>2026-05-01T15:00:49.968Z</time></trkpt><trkpt lat="48.8244448" lon="4.5530843"><ele>101.0</ele><time>2026-05-01T15:00:50.969Z</time></trkpt><trkpt lat="48.8246208" lon="4.5529251"><ele>101.66666666666666</ele><time>2026-05-01T15:00:51.961Z</time></trkpt><trkpt lat="48.8248049" lon="4.5527737"><ele>102.33333333333334</ele><time>2026-05-01T15:00:52.968Z</time></trkpt><trkpt lat="48.8249862" lon="4.5526072"><ele>103.0</ele><time>2026-05-01T15:00:53.965Z</time></trkpt><trkpt lat="48.8251533" lon="4.552409"><ele>103.66666666666667</ele><time>2026-05-01T15:00:54.966Z</time></trkpt><trkpt lat="48.8252893" lon="4.5521613"><ele>104.33333333333334</ele><time>2026-05-01T15:00:55.968Z</time></trkpt><trkpt lat="48.8254125" lon="4.5518959"><ele>105.0</ele><time>2026-05-01T15:00:56.964Z</time></trkpt><trkpt lat="48.8255162" lon="4.5516192"><ele>105.0</ele><time>2026-05-01T15:00:57.972Z</time></trkpt><trkpt lat="48.8256188" lon="4.551324"><ele>105.0</ele><time>2026-05-01T15:00:58.962Z</time></trkpt><trkpt lat="48.8257237" lon="4.5510293"><ele>105.0</ele><time>2026-05-01T15:00:59.971Z</time></trkpt><trkpt lat="48.8258326" lon="4.550746"><ele>105.0</ele><time>2026-05-01T15:01:00.964Z</time></trkpt><trkpt lat="48.8259509" lon="4.5504578"><ele>105.0</ele><time>2026-05-01T15:01:01.965Z</time></trkpt><trkpt lat="48.8260712" lon="4.5501694"><ele>105.0</ele><time>2026-05-01T15:01:02.966Z</time></trkpt><trkpt lat="48.8261936" lon="4.5498819"><ele>107.0</ele><time>2026-05-01T15:01:03.966Z</time></trkpt><trkpt lat="48.8263138" lon="4.5495893"><ele>109.0</ele><time>2026-05-01T15:01:04.969Z</time></trkpt><trkpt lat="48.8264173" lon="4.5492824"><ele>109.0</ele><time>2026-05-01T15:01:05.971Z</time></trkpt><trkpt lat="48.8265133" lon="4.5489649"><ele>109.0</ele><time>2026-05-01T15:01:06.97Z</time></trkpt><trkpt lat="48.826601" lon="4.5486373"><ele>109.0</ele><time>2026-05-01T15:01:07.997Z</time></trkpt><trkpt lat="48.8266899" lon="4.5483178"><ele>109.0</ele><time>2026-05-01T15:01:08.975Z</time></trkpt><trkpt lat="48.8267807" lon="4.5479918"><ele>110.5</ele><time>2026-05-01T15:01:09.962Z</time></trkpt><trkpt lat="48.8268714" lon="4.5476661"><ele>112.0</ele><time>2026-05-01T15:01:10.975Z</time></trkpt><trkpt lat="48.8269657" lon="4.5473409"><ele>112.0</ele><time>2026-05-01T15:01:11.967Z</time></trkpt><trkpt lat="48.8270576" lon="4.5470101"><ele>112.0</ele><time>2026-05-01T15:01:12.968Z</time></trkpt><trkpt lat="48.8271553" lon="4.5466849"><ele>112.0</ele><time>2026-05-01T15:01:13.968Z</time></trkpt><trkpt lat="48.827257" lon="4.5463738"><ele>112.0</ele><time>2026-05-01T15:01:14.972Z</time></trkpt><trkpt lat="48.8273722" lon="4.5460647"><ele>111.0</ele><time>2026-05-01T15:01:15.966Z</time></trkpt><trkpt lat="48.8274981" lon="4.5457707"><ele>110.0</ele><time>2026-05-01T15:01:16.96Z</time></trkpt><trkpt lat="48.8276314" lon="4.5454797"><ele>110.0</ele><time>2026-05-01T15:01:17.966Z</time></trkpt><trkpt lat="48.827774" lon="4.5451975"><ele>110.0</ele><time>2026-05-01T15:01:18.963Z</time></trkpt><trkpt lat="48.8279273" lon="4.5449244"><ele>110.0</ele><time>2026-05-01T15:01:19.969Z</time></trkpt><trkpt lat="48.8280814" lon="4.5446509"><ele>110.0</ele><time>2026-05-01T15:01:20.961Z</time></trkpt><trkpt lat="48.8282289" lon="4.5443745"><ele>109.0</ele><time>2026-05-01T15:01:21.965Z</time></trkpt><trkpt lat="48.8283698" lon="4.5440909"><ele>108.0</ele><time>2026-05-01T15:01:22.962Z</time></trkpt><trkpt lat="48.8285073" lon="4.5438022"><ele>106.0</ele><time>2026-05-01T15:01:23.97Z</time></trkpt><trkpt lat="48.8286427" lon="4.5435098"><ele>104.0</ele><time>2026-05-01T15:01:24.968Z</time></trkpt><trkpt lat="48.8287711" lon="4.5432141"><ele>104.0</ele><time>2026-05-01T15:01:25.957Z</time></trkpt><trkpt lat="48.8288979" lon="4.5429108"><ele>104.0</ele><time>2026-05-01T15:01:26.967Z</time></trkpt><trkpt lat="48.8290223" lon="4.5426121"><ele>103.66666666666666</ele><time>2026-05-01T15:01:27.964Z</time></trkpt><trkpt lat="48.8291461" lon="4.5423192"><ele>103.33333333333334</ele><time>2026-05-01T15:01:28.977Z</time></trkpt><trkpt lat="48.8292652" lon="4.5420417"><ele>103.0</ele><time>2026-05-01T15:01:29.967Z</time></trkpt><trkpt lat="48.8293817" lon="4.5417723"><ele>102.33333333333334</ele><time>2026-05-01T15:01:30.973Z</time></trkpt><trkpt lat="48.8295125" lon="4.5415215"><ele>101.66666666666666</ele><time>2026-05-01T15:01:31.963Z</time></trkpt><trkpt lat="48.8296524" lon="4.5412867"><ele>101.0</ele><time>2026-05-01T15:01:32.964Z</time></trkpt><trkpt lat="48.8297944" lon="4.5410632"><ele>100.66666666666666</ele><time>2026-05-01T15:01:33.963Z</time></trkpt><trkpt lat="48.8299375" lon="4.540853"><ele>100.33333333333334</ele><time>2026-05-01T15:01:34.968Z</time></trkpt><trkpt lat="48.8300633" lon="4.5406344"><ele>100.0</ele><time>2026-05-01T15:01:35.963Z</time></trkpt><trkpt lat="48.8301565" lon="4.5403632"><ele>100.33333333333334</ele><time>2026-05-01T15:01:36.963Z</time></trkpt><trkpt lat="48.830222" lon="4.5400656"><ele>100.66666666666666</ele><time>2026-05-01T15:01:37.965Z</time></trkpt><trkpt lat="48.8302481" lon="4.5397523"><ele>101.0</ele><time>2026-05-01T15:01:39.004Z</time></trkpt><trkpt lat="48.8302573" lon="4.5394127"><ele>101.0</ele><time>2026-05-01T15:01:39.969Z</time></trkpt><trkpt lat="48.8302683" lon="4.5390772"><ele>101.0</ele><time>2026-05-01T15:01:40.988Z</time></trkpt><trkpt lat="48.8302777" lon="4.5387387"><ele>101.0</ele><time>2026-05-01T15:01:41.963Z</time></trkpt><trkpt lat="48.8302902" lon="4.5384024"><ele>100.0</ele><time>2026-05-01T15:01:42.97Z</time></trkpt><trkpt lat="48.8303046" lon="4.5380577"><ele>99.0</ele><time>2026-05-01T15:01:43.966Z</time></trkpt><trkpt lat="48.8303209" lon="4.5377253"><ele>98.0</ele><time>2026-05-01T15:01:44.965Z</time></trkpt><trkpt lat="48.8303307" lon="4.537409"><ele>97.33333333333333</ele><time>2026-05-01T15:01:45.966Z</time></trkpt><trkpt lat="48.8303414" lon="4.537116"><ele>96.66666666666666</ele><time>2026-05-01T15:01:46.965Z</time></trkpt><trkpt lat="48.8303403" lon="4.5368317"><ele>96.0</ele><time>2026-05-01T15:01:47.97Z</time></trkpt><trkpt lat="48.8303475" lon="4.5365691"><ele>95.66666666666667</ele><time>2026-05-01T15:01:48.976Z</time></trkpt><trkpt lat="48.8303601" lon="4.5363131"><ele>95.33333333333334</ele><time>2026-05-01T15:01:49.961Z</time></trkpt><trkpt lat="48.8303874" lon="4.536056"><ele>95.0</ele><time>2026-05-01T15:01:50.967Z</time></trkpt><trkpt lat="48.8304387" lon="4.5358025"><ele>95.0</ele><time>2026-05-01T15:01:51.967Z</time></trkpt><trkpt lat="48.8305151" lon="4.5355559"><ele>95.0</ele><time>2026-05-01T15:01:52.98Z</time></trkpt><trkpt lat="48.830605" lon="4.5353111"><ele>95.0</ele><time>2026-05-01T15:01:53.965Z</time></trkpt><trkpt lat="48.8307003" lon="4.5350775"><ele>94.66666666666667</ele><time>2026-05-01T15:01:54.968Z</time></trkpt><trkpt lat="48.830777" lon="4.534837"><ele>94.33333333333333</ele><time>2026-05-01T15:01:55.966Z</time></trkpt><trkpt lat="48.8308286" lon="4.5346136"><ele>94.0</ele><time>2026-05-01T15:01:56.959Z</time></trkpt><trkpt lat="48.8308535" lon="4.5343836"><ele>94.25</ele><time>2026-05-01T15:01:57.963Z</time></trkpt><trkpt lat="48.8308588" lon="4.5341657"><ele>94.5</ele><time>2026-05-01T15:01:58.967Z</time></trkpt><trkpt lat="48.8308426" lon="4.5339518"><ele>94.75</ele><time>2026-05-01T15:01:59.966Z</time></trkpt><trkpt lat="48.8308185" lon="4.5337583"><ele>95.0</ele><time>2026-05-01T15:02:00.988Z</time></trkpt><trkpt lat="48.8307776" lon="4.5335795"><ele>95.0</ele><time>2026-05-01T15:02:01.967Z</time></trkpt><trkpt lat="48.8307234" lon="4.5334089"><ele>95.0</ele><time>2026-05-01T15:02:02.969Z</time></trkpt><trkpt lat="48.830657" lon="4.5332565"><ele>95.0</ele><time>2026-05-01T15:02:03.969Z</time></trkpt><trkpt lat="48.8305996" lon="4.5331018"><ele>95.0</ele><time>2026-05-01T15:02:04.971Z</time></trkpt><trkpt lat="48.8305434" lon="4.5329489"><ele>94.8</ele><time>2026-05-01T15:02:05.98Z</time></trkpt><trkpt lat="48.8305132" lon="4.532785"><ele>94.6</ele><time>2026-05-01T15:02:06.961Z</time></trkpt><trkpt lat="48.8305301" lon="4.5326247"><ele>94.4</ele><time>2026-05-01T15:02:07.968Z</time></trkpt><trkpt lat="48.8305834" lon="4.532484"><ele>94.2</ele><time>2026-05-01T15:02:08.965Z</time></trkpt><trkpt lat="48.8306494" lon="4.5323349"><ele>94.0</ele><time>2026-05-01T15:02:09.965Z</time></trkpt><trkpt lat="48.8307084" lon="4.5321939"><ele>93.75</ele><time>2026-05-01T15:02:10.965Z</time></trkpt><trkpt lat="48.8307768" lon="4.5320508"><ele>93.5</ele><time>2026-05-01T15:02:11.966Z</time></trkpt><trkpt lat="48.830847" lon="4.5319056"><ele>93.25</ele><time>2026-05-01T15:02:12.969Z</time></trkpt><trkpt lat="48.8309098" lon="4.5317655"><ele>93.0</ele><time>2026-05-01T15:02:13.967Z</time></trkpt><trkpt lat="48.8309705" lon="4.531626"><ele>93.2</ele><time>2026-05-01T15:02:14.969Z</time></trkpt><trkpt lat="48.8310366" lon="4.5314917"><ele>93.4</ele><time>2026-05-01T15:02:15.968Z</time></trkpt><trkpt lat="48.8311021" lon="4.5313578"><ele>93.60000000000001</ele><time>2026-05-01T15:02:16.973Z</time></trkpt><trkpt lat="48.8311686" lon="4.531223"><ele>93.80000000000001</ele><time>2026-05-01T15:02:17.966Z</time></trkpt><trkpt lat="48.831234" lon="4.5310856"><ele>94.0</ele><time>2026-05-01T15:02:18.967Z</time></trkpt><trkpt lat="48.8313042" lon="4.5309546"><ele>94.0</ele><time>2026-05-01T15:02:19.964Z</time></trkpt><trkpt lat="48.8313672" lon="4.5308192"><ele>94.0</ele><time>2026-05-01T15:02:20.961Z</time></trkpt><trkpt lat="48.8314254" lon="4.5306829"><ele>94.0</ele><time>2026-05-01T15:02:21.969Z</time></trkpt><trkpt lat="48.8314838" lon="4.5305549"><ele>94.0</ele><time>2026-05-01T15:02:22.966Z</time></trkpt><trkpt lat="48.8315367" lon="4.5304162"><ele>94.0</ele><time>2026-05-01T15:02:23.968Z</time></trkpt><trkpt lat="48.8315809" lon="4.5302674"><ele>94.0</ele><time>2026-05-01T15:02:24.97Z</time></trkpt><trkpt lat="48.8316228" lon="4.5301121"><ele>94.0</ele><time>2026-05-01T15:02:25.969Z</time></trkpt><trkpt lat="48.8316667" lon="4.529961"><ele>94.0</ele><time>2026-05-01T15:02:26.969Z</time></trkpt><trkpt lat="48.831716" lon="4.5298138"><ele>94.0</ele><time>2026-05-01T15:02:27.962Z</time></trkpt><trkpt lat="48.8317668" lon="4.529675"><ele>94.0</ele><time>2026-05-01T15:02:28.982Z</time></trkpt><trkpt lat="48.8318154" lon="4.5295221"><ele>94.4</ele><time>2026-05-01T15:02:29.974Z</time></trkpt><trkpt lat="48.8318614" lon="4.529371"><ele>94.80000000000001</ele><time>2026-05-01T15:02:30.966Z</time></trkpt><trkpt lat="48.8319087" lon="4.5292304"><ele>95.19999999999999</ele><time>2026-05-01T15:02:31.974Z</time></trkpt><trkpt lat="48.8319581" lon="4.5290874"><ele>95.6</ele><time>2026-05-01T15:02:32.967Z</time></trkpt><trkpt lat="48.8319994" lon="4.5289575"><ele>96.0</ele><time>2026-05-01T15:02:33.985Z</time></trkpt><trkpt lat="48.8320419" lon="4.528834"><ele>96.0</ele><time>2026-05-01T15:02:34.978Z</time></trkpt><trkpt lat="48.8320991" lon="4.5287289"><ele>96.0</ele><time>2026-05-01T15:02:35.964Z</time></trkpt><trkpt lat="48.8321723" lon="4.5286456"><ele>96.0</ele><time>2026-05-01T15:02:36.966Z</time></trkpt><trkpt lat="48.8322556" lon="4.5285903"><ele>96.0</ele><time>2026-05-01T15:02:37.983Z</time></trkpt><trkpt lat="48.8323496" lon="4.5285577"><ele>96.0</ele><time>2026-05-01T15:02:39.008Z</time></trkpt><trkpt lat="48.8324498" lon="4.5285404"><ele>95.5</ele><time>2026-05-01T15:02:39.963Z</time></trkpt><trkpt lat="48.8325496" lon="4.5285113"><ele>95.0</ele><time>2026-05-01T15:02:40.981Z</time></trkpt><trkpt lat="48.8326603" lon="4.528492"><ele>94.5</ele><time>2026-05-01T15:02:41.967Z</time></trkpt><trkpt lat="48.8327778" lon="4.5284471"><ele>94.0</ele><time>2026-05-01T15:02:42.964Z</time></trkpt><trkpt lat="48.8328952" lon="4.5284025"><ele>94.0</ele><time>2026-05-01T15:02:43.973Z</time></trkpt><trkpt lat="48.8330086" lon="4.528367"><ele>94.0</ele><time>2026-05-01T15:02:44.96Z</time></trkpt><trkpt lat="48.8331097" lon="4.5283374"><ele>94.0</ele><time>2026-05-01T15:02:45.985Z</time></trkpt><trkpt lat="48.8331958" lon="4.5283105"><ele>94.0</ele><time>2026-05-01T15:02:46.962Z</time></trkpt><trkpt lat="48.8332643" lon="4.5282873"><ele>94.0</ele><time>2026-05-01T15:02:47.962Z</time></trkpt><trkpt lat="48.833364" lon="4.528238"><ele>94.0</ele><time>2026-05-01T15:02:49.964Z</time></trkpt><trkpt lat="48.8333711" lon="4.5280787"><ele>94.0</ele><time>2026-05-01T15:02:51.968Z</time></trkpt><trkpt lat="48.8333459" lon="4.5279566"><ele>94.0</ele><time>2026-05-01T15:02:52.966Z</time></trkpt><trkpt lat="48.8333174" lon="4.5278215"><ele>94.0</ele><time>2026-05-01T15:02:53.966Z</time></trkpt><trkpt lat="48.8332965" lon="4.5276845"><ele>94.0</ele><time>2026-05-01T15:02:54.966Z</time></trkpt><trkpt lat="48.8332797" lon="4.5275678"><ele>93.83333333333333</ele><time>2026-05-01T15:02:55.972Z</time></trkpt><trkpt lat="48.8332575" lon="4.5274149"><ele>93.66666666666666</ele><time>2026-05-01T15:02:57.965Z</time></trkpt><trkpt lat="48.8332328" lon="4.5272605"><ele>93.5</ele><time>2026-05-01T15:03:00.972Z</time></trkpt><trkpt lat="48.8332138" lon="4.5271602"><ele>93.33333333333333</ele><time>2026-05-01T15:03:01.967Z</time></trkpt><trkpt lat="48.8331955" lon="4.5270432"><ele>93.16666666666667</ele><time>2026-05-01T15:03:02.974Z</time></trkpt><trkpt lat="48.8331769" lon="4.5269139"><ele>93.0</ele><time>2026-05-01T15:03:03.973Z</time></trkpt><trkpt lat="48.8331581" lon="4.5267732"><ele>93.0</ele><time>2026-05-01T15:03:04.97Z</time></trkpt><trkpt lat="48.8331468" lon="4.5266196"><ele>93.0</ele><time>2026-05-01T15:03:05.962Z</time></trkpt><trkpt lat="48.8331445" lon="4.5264582"><ele>93.0</ele><time>2026-05-01T15:03:06.96Z</time></trkpt><trkpt lat="48.8331546" lon="4.5262845"><ele>93.0</ele><time>2026-05-01T15:03:07.963Z</time></trkpt><trkpt lat="48.8331631" lon="4.5261132"><ele>93.0</ele><time>2026-05-01T15:03:08.968Z</time></trkpt><trkpt lat="48.8331772" lon="4.5259359"><ele>93.0</ele><time>2026-05-01T15:03:09.966Z</time></trkpt><trkpt lat="48.8332073" lon="4.5257769"><ele>93.0</ele><time>2026-05-01T15:03:10.966Z</time></trkpt><trkpt lat="48.833259" lon="4.525626"><ele>93.0</ele><time>2026-05-01T15:03:11.964Z</time></trkpt><trkpt lat="48.8333351" lon="4.5255018"><ele>93.0</ele><time>2026-05-01T15:03:12.964Z</time></trkpt><trkpt lat="48.8334196" lon="4.5253984"><ele>93.0</ele><time>2026-05-01T15:03:13.966Z</time></trkpt><trkpt lat="48.8335088" lon="4.5252992"><ele>93.0</ele><time>2026-05-01T15:03:14.967Z</time></trkpt><trkpt lat="48.8335877" lon="4.5251936"><ele>93.0</ele><time>2026-05-01T15:03:15.968Z</time></trkpt><trkpt lat="48.8336715" lon="4.5250742"><ele>93.0</ele><time>2026-05-01T15:03:16.966Z</time></trkpt><trkpt lat="48.8337343" lon="4.5249226"><ele>93.0</ele><time>2026-05-01T15:03:17.96Z</time></trkpt><trkpt lat="48.8337812" lon="4.5247693"><ele>93.0</ele><time>2026-05-01T15:03:18.964Z</time></trkpt><trkpt lat="48.8338278" lon="4.5246127"><ele>93.0</ele><time>2026-05-01T15:03:19.971Z</time></trkpt><trkpt lat="48.8338727" lon="4.5244424"><ele>93.0</ele><time>2026-05-01T15:03:20.963Z</time></trkpt><trkpt lat="48.8338993" lon="4.5242674"><ele>93.0</ele><time>2026-05-01T15:03:21.971Z</time></trkpt><trkpt lat="48.8339068" lon="4.5240861"><ele>93.0</ele><time>2026-05-01T15:03:22.963Z</time></trkpt><trkpt lat="48.8339159" lon="4.5239003"><ele>93.0</ele><time>2026-05-01T15:03:23.962Z</time></trkpt><trkpt lat="48.8339313" lon="4.5237144"><ele>93.0</ele><time>2026-05-01T15:03:24.966Z</time></trkpt><trkpt lat="48.8339411" lon="4.5235293"><ele>93.0</ele><time>2026-05-01T15:03:25.965Z</time></trkpt><trkpt lat="48.8339478" lon="4.5233422"><ele>93.0</ele><time>2026-05-01T15:03:26.959Z</time></trkpt><trkpt lat="48.8339569" lon="4.5231508"><ele>93.0</ele><time>2026-05-01T15:03:27.968Z</time></trkpt><trkpt lat="48.833971" lon="4.5229586"><ele>93.0</ele><time>2026-05-01T15:03:28.965Z</time></trkpt><trkpt lat="48.8339807" lon="4.5227651"><ele>93.0</ele><time>2026-05-01T15:03:29.96Z</time></trkpt><trkpt lat="48.8339971" lon="4.5225808"><ele>93.0</ele><time>2026-05-01T15:03:30.964Z</time></trkpt><trkpt lat="48.8340181" lon="4.5223963"><ele>93.0</ele><time>2026-05-01T15:03:31.965Z</time></trkpt><trkpt lat="48.8340318" lon="4.5222134"><ele>93.0</ele><time>2026-05-01T15:03:32.968Z</time></trkpt><trkpt lat="48.8340394" lon="4.5220366"><ele>93.0</ele><time>2026-05-01T15:03:33.966Z</time></trkpt><trkpt lat="48.8340458" lon="4.5218495"><ele>93.0</ele><time>2026-05-01T15:03:34.97Z</time></trkpt><trkpt lat="48.8340649" lon="4.5216767"><ele>93.25</ele><time>2026-05-01T15:03:35.97Z</time></trkpt><trkpt lat="48.8340792" lon="4.5215012"><ele>93.5</ele><time>2026-05-01T15:03:36.971Z</time></trkpt><trkpt lat="48.8340931" lon="4.521322"><ele>93.75</ele><time>2026-05-01T15:03:37.965Z</time></trkpt><trkpt lat="48.8341053" lon="4.5211412"><ele>94.0</ele><time>2026-05-01T15:03:38.968Z</time></trkpt><trkpt lat="48.8341177" lon="4.5209726"><ele>94.0</ele><time>2026-05-01T15:03:39.969Z</time></trkpt><trkpt lat="48.834133" lon="4.5207951"><ele>94.0</ele><time>2026-05-01T15:03:40.963Z</time></trkpt><trkpt lat="48.8341455" lon="4.520626"><ele>94.0</ele><time>2026-05-01T15:03:41.967Z</time></trkpt><trkpt lat="48.8341508" lon="4.5204547"><ele>94.0</ele><time>2026-05-01T15:03:42.97Z</time></trkpt><trkpt lat="48.8341502" lon="4.5202915"><ele>94.0</ele><time>2026-05-01T15:03:43.964Z</time></trkpt><trkpt lat="48.8341535" lon="4.5201197"><ele>94.0</ele><time>2026-05-01T15:03:44.966Z</time></trkpt><trkpt lat="48.8341657" lon="4.5199586"><ele>94.0</ele><time>2026-05-01T15:03:45.965Z</time></trkpt><trkpt lat="48.8341773" lon="4.5197956"><ele>94.0</ele><time>2026-05-01T15:03:46.968Z</time></trkpt><trkpt lat="48.834186" lon="4.5196339"><ele>94.0</ele><time>2026-05-01T15:03:47.964Z</time></trkpt><trkpt lat="48.8341965" lon="4.5194765"><ele>94.16666666666666</ele><time>2026-05-01T15:03:48.966Z</time></trkpt><trkpt lat="48.8342051" lon="4.5193281"><ele>94.33333333333333</ele><time>2026-05-01T15:03:49.963Z</time></trkpt><trkpt lat="48.8342162" lon="4.5191847"><ele>94.5</ele><time>2026-05-01T15:03:50.973Z</time></trkpt><trkpt lat="48.8342232" lon="4.5190625"><ele>94.66666666666667</ele><time>2026-05-01T15:03:51.968Z</time></trkpt><trkpt lat="48.8342293" lon="4.5189592"><ele>94.83333333333334</ele><time>2026-05-01T15:03:52.969Z</time></trkpt><trkpt lat="48.8342298" lon="4.5188112"><ele>95.0</ele><time>2026-05-01T15:03:54.968Z</time></trkpt><trkpt lat="48.8342374" lon="4.5187001"><ele>95.16666666666667</ele><time>2026-05-01T15:03:57.966Z</time></trkpt><trkpt lat="48.8342656" lon="4.5186091"><ele>95.33333333333334</ele><time>2026-05-01T15:04:07.966Z</time></trkpt><trkpt lat="48.8343082" lon="4.5185029"><ele>95.5</ele><time>2026-05-01T15:04:09.001Z</time></trkpt><trkpt lat="48.8343398" lon="4.5184111"><ele>95.66666666666667</ele><time>2026-05-01T15:04:09.974Z</time></trkpt><trkpt lat="48.8343859" lon="4.5183145"><ele>95.83333333333333</ele><time>2026-05-01T15:04:10.964Z</time></trkpt><trkpt lat="48.834434" lon="4.5182061"><ele>96.0</ele><time>2026-05-01T15:04:11.963Z</time></trkpt><trkpt lat="48.8344772" lon="4.5180892"><ele>95.8</ele><time>2026-05-01T15:04:12.962Z</time></trkpt><trkpt lat="48.8345274" lon="4.5179726"><ele>95.6</ele><time>2026-05-01T15:04:13.962Z</time></trkpt><trkpt lat="48.8345808" lon="4.5178518"><ele>95.4</ele><time>2026-05-01T15:04:14.963Z</time></trkpt><trkpt lat="48.8346415" lon="4.5177411"><ele>95.2</ele><time>2026-05-01T15:04:15.967Z</time></trkpt><trkpt lat="48.834712" lon="4.5176343"><ele>95.0</ele><time>2026-05-01T15:04:16.971Z</time></trkpt><trkpt lat="48.8347948" lon="4.5175312"><ele>95.0</ele><time>2026-05-01T15:04:17.968Z</time></trkpt><trkpt lat="48.8348797" lon="4.5174285"><ele>95.0</ele><time>2026-05-01T15:04:18.965Z</time></trkpt><trkpt lat="48.8349653" lon="4.5173217"><ele>95.0</ele><time>2026-05-01T15:04:19.965Z</time></trkpt><trkpt lat="48.8350498" lon="4.5172181"><ele>95.0</ele><time>2026-05-01T15:04:20.961Z</time></trkpt><trkpt lat="48.8351323" lon="4.5171133"><ele>95.0</ele><time>2026-05-01T15:04:21.966Z</time></trkpt><trkpt lat="48.8352163" lon="4.517003"><ele>95.4</ele><time>2026-05-01T15:04:22.963Z</time></trkpt><trkpt lat="48.8352987" lon="4.5168892"><ele>95.8</ele><time>2026-05-01T15:04:23.967Z</time></trkpt><trkpt lat="48.8353648" lon="4.5167584"><ele>96.19999999999999</ele><time>2026-05-01T15:04:24.965Z</time></trkpt><trkpt lat="48.8354289" lon="4.5166267"><ele>96.6</ele><time>2026-05-01T15:04:25.962Z</time></trkpt><trkpt lat="48.8354768" lon="4.5164829"><ele>97.0</ele><time>2026-05-01T15:04:26.967Z</time></trkpt><trkpt lat="48.8355097" lon="4.516322"><ele>96.8</ele><time>2026-05-01T15:04:27.973Z</time></trkpt><trkpt lat="48.8355462" lon="4.516163"><ele>96.6</ele><time>2026-05-01T15:04:28.978Z</time></trkpt><trkpt lat="48.8355764" lon="4.5159991"><ele>96.39999999999999</ele><time>2026-05-01T15:04:29.963Z</time></trkpt><trkpt lat="48.8356101" lon="4.5158402"><ele>96.19999999999999</ele><time>2026-05-01T15:04:30.964Z</time></trkpt><trkpt lat="48.835646" lon="4.5156979"><ele>96.0</ele><time>2026-05-01T15:04:31.97Z</time></trkpt><trkpt lat="48.8356759" lon="4.515555"><ele>96.0</ele><time>2026-05-01T15:04:32.963Z</time></trkpt><trkpt lat="48.8357005" lon="4.515425"><ele>96.0</ele><time>2026-05-01T15:04:33.965Z</time></trkpt><trkpt lat="48.8357327" lon="4.5153011"><ele>96.0</ele><time>2026-05-01T15:04:34.978Z</time></trkpt><trkpt lat="48.8357663" lon="4.5151685"><ele>96.0</ele><time>2026-05-01T15:04:35.985Z</time></trkpt><trkpt lat="48.8357988" lon="4.5150281"><ele>96.0</ele><time>2026-05-01T15:04:37.014Z</time></trkpt><trkpt lat="48.8358286" lon="4.5148904"><ele>96.0</ele><time>2026-05-01T15:04:37.976Z</time></trkpt><trkpt lat="48.8358614" lon="4.5147615"><ele>96.0</ele><time>2026-05-01T15:04:38.967Z</time></trkpt><trkpt lat="48.8358899" lon="4.5146488"><ele>96.0</ele><time>2026-05-01T15:04:39.957Z</time></trkpt><trkpt lat="48.8359107" lon="4.5145511"><ele>96.0</ele><time>2026-05-01T15:04:40.964Z</time></trkpt><trkpt lat="48.835936" lon="4.514459"><ele>96.0</ele><time>2026-05-01T15:04:41.969Z</time></trkpt><trkpt lat="48.8359568" lon="4.514363"><ele>96.0</ele><time>2026-05-01T15:04:42.978Z</time></trkpt><trkpt lat="48.8359823" lon="4.5142477"><ele>96.6</ele><time>2026-05-01T15:04:43.959Z</time></trkpt><trkpt lat="48.8360045" lon="4.5141108"><ele>97.19999999999999</ele><time>2026-05-01T15:04:44.971Z</time></trkpt><trkpt lat="48.836045" lon="4.5139712"><ele>97.80000000000001</ele><time>2026-05-01T15:04:45.974Z</time></trkpt><trkpt lat="48.8360818" lon="4.5138283"><ele>98.4</ele><time>2026-05-01T15:04:46.968Z</time></trkpt><trkpt lat="48.8361219" lon="4.5136828"><ele>99.0</ele><time>2026-05-01T15:04:47.975Z</time></trkpt><trkpt lat="48.8361664" lon="4.5135432"><ele>99.0</ele><time>2026-05-01T15:04:48.956Z</time></trkpt><trkpt lat="48.8362133" lon="4.513427"><ele>99.0</ele><time>2026-05-01T15:04:49.977Z</time></trkpt><trkpt lat="48.8362635" lon="4.5133245"><ele>99.0</ele><time>2026-05-01T15:04:50.971Z</time></trkpt><trkpt lat="48.8363037" lon="4.5132501"><ele>99.0</ele><time>2026-05-01T15:04:51.97Z</time></trkpt><trkpt lat="48.8363762" lon="4.5131249"><ele>99.0</ele><time>2026-05-01T15:04:53.969Z</time></trkpt><trkpt lat="48.8364377" lon="4.5129968"><ele>99.0</ele><time>2026-05-01T15:04:55.982Z</time></trkpt><trkpt lat="48.8364805" lon="4.5129157"><ele>99.0</ele><time>2026-05-01T15:04:56.968Z</time></trkpt><trkpt lat="48.8365295" lon="4.5128457"><ele>99.0</ele><time>2026-05-01T15:04:57.997Z</time></trkpt><trkpt lat="48.836591" lon="4.5127792"><ele>99.0</ele><time>2026-05-01T15:04:58.98Z</time></trkpt><trkpt lat="48.836664" lon="4.5127103"><ele>99.0</ele><time>2026-05-01T15:04:59.965Z</time></trkpt><trkpt lat="48.8367374" lon="4.5126201"><ele>99.0</ele><time>2026-05-01T15:05:00.968Z</time></trkpt><trkpt lat="48.8368289" lon="4.5125235"><ele>99.5</ele><time>2026-05-01T15:05:01.962Z</time></trkpt><trkpt lat="48.8369194" lon="4.5124346"><ele>100.0</ele><time>2026-05-01T15:05:02.965Z</time></trkpt><trkpt lat="48.8370153" lon="4.5123294"><ele>100.5</ele><time>2026-05-01T15:05:03.964Z</time></trkpt><trkpt lat="48.8371149" lon="4.512221"><ele>101.0</ele><time>2026-05-01T15:05:04.976Z</time></trkpt><trkpt lat="48.8372158" lon="4.5121025"><ele>101.0</ele><time>2026-05-01T15:05:05.969Z</time></trkpt><trkpt lat="48.8374387" lon="4.5118701"><ele>101.0</ele><time>2026-05-01T15:05:07.966Z</time></trkpt><trkpt lat="48.8375612" lon="4.5117524"><ele>101.0</ele><time>2026-05-01T15:05:08.964Z</time></trkpt><trkpt lat="48.8376843" lon="4.5116108"><ele>102.33333333333333</ele><time>2026-05-01T15:05:09.971Z</time></trkpt><trkpt lat="48.8378106" lon="4.5114789"><ele>103.66666666666666</ele><time>2026-05-01T15:05:10.963Z</time></trkpt><trkpt lat="48.8379487" lon="4.5113349"><ele>105.0</ele><time>2026-05-01T15:05:11.972Z</time></trkpt><trkpt lat="48.8380887" lon="4.5111876"><ele>105.0</ele><time>2026-05-01T15:05:12.959Z</time></trkpt><trkpt lat="48.8382321" lon="4.5110366"><ele>105.0</ele><time>2026-05-01T15:05:13.962Z</time></trkpt><trkpt lat="48.8383756" lon="4.5108825"><ele>105.0</ele><time>2026-05-01T15:05:14.964Z</time></trkpt><trkpt lat="48.8385139" lon="4.5107306"><ele>105.0</ele><time>2026-05-01T15:05:15.962Z</time></trkpt><trkpt lat="48.83865" lon="4.5105767"><ele>105.0</ele><time>2026-05-01T15:05:16.962Z</time></trkpt><trkpt lat="48.8387974" lon="4.5104179"><ele>105.0</ele><time>2026-05-01T15:05:17.977Z</time></trkpt><trkpt lat="48.8389533" lon="4.5102516"><ele>105.0</ele><time>2026-05-01T15:05:18.978Z</time></trkpt><trkpt lat="48.8391107" lon="4.5100737"><ele>105.0</ele><time>2026-05-01T15:05:19.975Z</time></trkpt><trkpt lat="48.8392728" lon="4.5098881"><ele>105.0</ele><time>2026-05-01T15:05:20.968Z</time></trkpt><trkpt lat="48.8394324" lon="4.5096871"><ele>106.33333333333334</ele><time>2026-05-01T15:05:21.961Z</time></trkpt><trkpt lat="48.8395926" lon="4.509467"><ele>107.66666666666667</ele><time>2026-05-01T15:05:22.972Z</time></trkpt><trkpt lat="48.8397448" lon="4.5092345"><ele>109.0</ele><time>2026-05-01T15:05:23.968Z</time></trkpt><trkpt lat="48.8398881" lon="4.5089977"><ele>108.66666666666667</ele><time>2026-05-01T15:05:24.968Z</time></trkpt><trkpt lat="48.8400221" lon="4.5087388"><ele>108.33333333333334</ele><time>2026-05-01T15:05:25.993Z</time></trkpt><trkpt lat="48.8401458" lon="4.5084672"><ele>108.0</ele><time>2026-05-01T15:05:27.015Z</time></trkpt><trkpt lat="48.8402539" lon="4.5081671"><ele>107.66666666666666</ele><time>2026-05-01T15:05:27.972Z</time></trkpt><trkpt lat="48.8403506" lon="4.5078627"><ele>107.33333333333333</ele><time>2026-05-01T15:05:28.963Z</time></trkpt><trkpt lat="48.8404354" lon="4.5075455"><ele>107.0</ele><time>2026-05-01T15:05:29.967Z</time></trkpt><trkpt lat="48.8405134" lon="4.5072265"><ele>106.5</ele><time>2026-05-01T15:05:30.981Z</time></trkpt><trkpt lat="48.8405867" lon="4.5068957"><ele>106.0</ele><time>2026-05-01T15:05:31.963Z</time></trkpt><trkpt lat="48.8406547" lon="4.5065727"><ele>106.0</ele><time>2026-05-01T15:05:32.96Z</time></trkpt><trkpt lat="48.8407275" lon="4.5062467"><ele>106.0</ele><time>2026-05-01T15:05:33.967Z</time></trkpt><trkpt lat="48.8407993" lon="4.505921"><ele>106.0</ele><time>2026-05-01T15:05:34.965Z</time></trkpt><trkpt lat="48.8408677" lon="4.5055983"><ele>106.0</ele><time>2026-05-01T15:05:35.973Z</time></trkpt><trkpt lat="48.8409323" lon="4.5052754"><ele>106.0</ele><time>2026-05-01T15:05:36.967Z</time></trkpt><trkpt lat="48.8410024" lon="4.5049483"><ele>108.33333333333334</ele><time>2026-05-01T15:05:37.979Z</time></trkpt><trkpt lat="48.8410707" lon="4.5046248"><ele>110.66666666666666</ele><time>2026-05-01T15:05:38.971Z</time></trkpt><trkpt lat="48.8411384" lon="4.5042995"><ele>113.0</ele><time>2026-05-01T15:05:39.976Z</time></trkpt><trkpt lat="48.8412039" lon="4.5039681"><ele>114.0</ele><time>2026-05-01T15:05:40.984Z</time></trkpt><trkpt lat="48.8412753" lon="4.5036394"><ele>115.0</ele><time>2026-05-01T15:05:41.961Z</time></trkpt><trkpt lat="48.8413525" lon="4.5033171"><ele>115.0</ele><time>2026-05-01T15:05:42.96Z</time></trkpt><trkpt lat="48.8414454" lon="4.5030046"><ele>115.0</ele><time>2026-05-01T15:05:43.978Z</time></trkpt><trkpt lat="48.8415456" lon="4.5026925"><ele>113.5</ele><time>2026-05-01T15:05:44.968Z</time></trkpt><trkpt lat="48.8416532" lon="4.5023903"><ele>112.0</ele><time>2026-05-01T15:05:45.961Z</time></trkpt><trkpt lat="48.8417672" lon="4.5020843"><ele>117.0</ele><time>2026-05-01T15:05:46.968Z</time></trkpt><trkpt lat="48.8418893" lon="4.5017877"><ele>122.0</ele><time>2026-05-01T15:05:47.971Z</time></trkpt><trkpt lat="48.8420196" lon="4.5015004"><ele>118.5</ele><time>2026-05-01T15:05:48.968Z</time></trkpt><trkpt lat="48.8421598" lon="4.5012216"><ele>115.0</ele><time>2026-05-01T15:05:49.969Z</time></trkpt><trkpt lat="48.842309" lon="4.5009533"><ele>115.0</ele><time>2026-05-01T15:05:50.962Z</time></trkpt><trkpt lat="48.8424639" lon="4.5006878"><ele>115.0</ele><time>2026-05-01T15:05:51.977Z</time></trkpt><trkpt lat="48.8426263" lon="4.5004346"><ele>115.0</ele><time>2026-05-01T15:05:52.968Z</time></trkpt><trkpt lat="48.8427935" lon="4.5001944"><ele>115.0</ele><time>2026-05-01T15:05:53.976Z</time></trkpt><trkpt lat="48.8429727" lon="4.4999574"><ele>115.0</ele><time>2026-05-01T15:05:54.97Z</time></trkpt><trkpt lat="48.8431575" lon="4.4997355"><ele>115.0</ele><time>2026-05-01T15:05:55.994Z</time></trkpt><trkpt lat="48.8433472" lon="4.4995203"><ele>112.5</ele><time>2026-05-01T15:05:56.965Z</time></trkpt><trkpt lat="48.8435341" lon="4.499306"><ele>110.0</ele><time>2026-05-01T15:05:57.975Z</time></trkpt><trkpt lat="48.8437129" lon="4.4990978"><ele>110.0</ele><time>2026-05-01T15:05:58.962Z</time></trkpt><trkpt lat="48.8438905" lon="4.4989009"><ele>110.0</ele><time>2026-05-01T15:05:59.967Z</time></trkpt><trkpt lat="48.8440661" lon="4.4987097"><ele>110.0</ele><time>2026-05-01T15:06:00.97Z</time></trkpt><trkpt lat="48.8442339" lon="4.4985267"><ele>108.66666666666666</ele><time>2026-05-01T15:06:01.966Z</time></trkpt><trkpt lat="48.844399" lon="4.4983484"><ele>107.33333333333334</ele><time>2026-05-01T15:06:02.965Z</time></trkpt><trkpt lat="48.8445569" lon="4.4981758"><ele>106.0</ele><time>2026-05-01T15:06:03.969Z</time></trkpt><trkpt lat="48.8447131" lon="4.4980059"><ele>106.0</ele><time>2026-05-01T15:06:04.966Z</time></trkpt><trkpt lat="48.8448619" lon="4.497838"><ele>106.0</ele><time>2026-05-01T15:06:05.964Z</time></trkpt><trkpt lat="48.8450059" lon="4.4976781"><ele>106.0</ele><time>2026-05-01T15:06:06.964Z</time></trkpt><trkpt lat="48.8451441" lon="4.497506"><ele>104.66666666666667</ele><time>2026-05-01T15:06:07.967Z</time></trkpt><trkpt lat="48.8452844" lon="4.4973563"><ele>103.33333333333334</ele><time>2026-05-01T15:06:08.964Z</time></trkpt><trkpt lat="48.8454154" lon="4.4972028"><ele>102.0</ele><time>2026-05-01T15:06:09.974Z</time></trkpt><trkpt lat="48.8455384" lon="4.4970676"><ele>101.75</ele><time>2026-05-01T15:06:10.961Z</time></trkpt><trkpt lat="48.8456518" lon="4.4969451"><ele>101.5</ele><time>2026-05-01T15:06:11.96Z</time></trkpt><trkpt lat="48.8457557" lon="4.4968336"><ele>101.25</ele><time>2026-05-01T15:06:12.99Z</time></trkpt><trkpt lat="48.8458499" lon="4.496717"><ele>101.0</ele><time>2026-05-01T15:06:13.964Z</time></trkpt><trkpt lat="48.845948" lon="4.4966153"><ele>100.6</ele><time>2026-05-01T15:06:14.965Z</time></trkpt><trkpt lat="48.8460371" lon="4.496506"><ele>100.19999999999999</ele><time>2026-05-01T15:06:15.962Z</time></trkpt><trkpt lat="48.8461237" lon="4.4964057"><ele>99.80000000000001</ele><time>2026-05-01T15:06:16.963Z</time></trkpt><trkpt lat="48.8462065" lon="4.4963103"><ele>99.4</ele><time>2026-05-01T15:06:17.962Z</time></trkpt><trkpt lat="48.8462954" lon="4.4962129"><ele>99.0</ele><time>2026-05-01T15:06:18.964Z</time></trkpt><trkpt lat="48.8463817" lon="4.4961197"><ele>98.80000000000001</ele><time>2026-05-01T15:06:19.963Z</time></trkpt><trkpt lat="48.8464738" lon="4.4960167"><ele>98.60000000000001</ele><time>2026-05-01T15:06:20.96Z</time></trkpt><trkpt lat="48.8465635" lon="4.4959086"><ele>98.4</ele><time>2026-05-01T15:06:21.965Z</time></trkpt><trkpt lat="48.8466503" lon="4.495803"><ele>98.2</ele><time>2026-05-01T15:06:22.972Z</time></trkpt><trkpt lat="48.8467311" lon="4.4957079"><ele>98.0</ele><time>2026-05-01T15:06:23.961Z</time></trkpt><trkpt lat="48.8468132" lon="4.4956147"><ele>97.83333333333333</ele><time>2026-05-01T15:06:24.964Z</time></trkpt><trkpt lat="48.8468869" lon="4.4955321"><ele>97.66666666666666</ele><time>2026-05-01T15:06:25.969Z</time></trkpt><trkpt lat="48.8469611" lon="4.4954483"><ele>97.5</ele><time>2026-05-01T15:06:26.965Z</time></trkpt><trkpt lat="48.8470321" lon="4.4953717"><ele>97.33333333333334</ele><time>2026-05-01T15:06:27.964Z</time></trkpt><trkpt lat="48.8470911" lon="4.4952896"><ele>97.16666666666667</ele><time>2026-05-01T15:06:28.969Z</time></trkpt><trkpt lat="48.8471526" lon="4.4952237"><ele>97.0</ele><time>2026-05-01T15:06:29.965Z</time></trkpt><trkpt lat="48.8472138" lon="4.4951524"><ele>96.6</ele><time>2026-05-01T15:06:30.966Z</time></trkpt><trkpt lat="48.84728" lon="4.4950971"><ele>96.19999999999999</ele><time>2026-05-01T15:06:31.959Z</time></trkpt><trkpt lat="48.8473529" lon="4.4950123"><ele>95.8</ele><time>2026-05-01T15:06:32.971Z</time></trkpt><trkpt lat="48.8474301" lon="4.4949395"><ele>95.4</ele><time>2026-05-01T15:06:33.962Z</time></trkpt><trkpt lat="48.8475139" lon="4.4948641"><ele>95.0</ele><time>2026-05-01T15:06:34.959Z</time></trkpt><trkpt lat="48.8476005" lon="4.4947812"><ele>95.2</ele><time>2026-05-01T15:06:35.97Z</time></trkpt><trkpt lat="48.8476891" lon="4.4947025"><ele>95.4</ele><time>2026-05-01T15:06:36.964Z</time></trkpt><trkpt lat="48.847786" lon="4.4946304"><ele>95.6</ele><time>2026-05-01T15:06:37.966Z</time></trkpt><trkpt lat="48.8478849" lon="4.4945625"><ele>95.8</ele><time>2026-05-01T15:06:38.967Z</time></trkpt><trkpt lat="48.8479829" lon="4.4944896"><ele>96.0</ele><time>2026-05-01T15:06:39.968Z</time></trkpt><trkpt lat="48.8480778" lon="4.494408"><ele>96.0</ele><time>2026-05-01T15:06:40.973Z</time></trkpt><trkpt lat="48.8481667" lon="4.4943204"><ele>96.0</ele><time>2026-05-01T15:06:41.965Z</time></trkpt><trkpt lat="48.8482569" lon="4.4942211"><ele>96.0</ele><time>2026-05-01T15:06:42.966Z</time></trkpt><trkpt lat="48.8483475" lon="4.4941135"><ele>96.0</ele><time>2026-05-01T15:06:43.969Z</time></trkpt><trkpt lat="48.8484358" lon="4.4940099"><ele>96.0</ele><time>2026-05-01T15:06:44.967Z</time></trkpt><trkpt lat="48.8485262" lon="4.4938993"><ele>97.25</ele><time>2026-05-01T15:06:45.962Z</time></trkpt><trkpt lat="48.848611" lon="4.4937769"><ele>98.5</ele><time>2026-05-01T15:06:46.966Z</time></trkpt><trkpt lat="48.8487054" lon="4.4936621"><ele>99.75</ele><time>2026-05-01T15:06:47.964Z</time></trkpt><trkpt lat="48.8488011" lon="4.493554"><ele>101.0</ele><time>2026-05-01T15:06:48.96Z</time></trkpt><trkpt lat="48.8489013" lon="4.4934393"><ele>101.0</ele><time>2026-05-01T15:06:49.958Z</time></trkpt><trkpt lat="48.8490034" lon="4.4933266"><ele>101.0</ele><time>2026-05-01T15:06:50.968Z</time></trkpt><trkpt lat="48.8490986" lon="4.4931934"><ele>101.0</ele><time>2026-05-01T15:06:51.963Z</time></trkpt><trkpt lat="48.8491931" lon="4.4930597"><ele>101.0</ele><time>2026-05-01T15:06:52.965Z</time></trkpt><trkpt lat="48.8492935" lon="4.4929016"><ele>102.5</ele><time>2026-05-01T15:06:53.966Z</time></trkpt><trkpt lat="48.8493952" lon="4.4927413"><ele>104.0</ele><time>2026-05-01T15:06:54.965Z</time></trkpt><trkpt lat="48.8494888" lon="4.4925742"><ele>105.5</ele><time>2026-05-01T15:06:55.967Z</time></trkpt><trkpt lat="48.8495888" lon="4.4923989"><ele>107.0</ele><time>2026-05-01T15:06:56.967Z</time></trkpt><trkpt lat="48.8496914" lon="4.4922184"><ele>107.0</ele><time>2026-05-01T15:06:57.966Z</time></trkpt><trkpt lat="48.8497957" lon="4.4920381"><ele>107.0</ele><time>2026-05-01T15:06:58.97Z</time></trkpt><trkpt lat="48.8498989" lon="4.4918535"><ele>107.0</ele><time>2026-05-01T15:06:59.969Z</time></trkpt><trkpt lat="48.8500019" lon="4.4916751"><ele>107.0</ele><time>2026-05-01T15:07:00.977Z</time></trkpt><trkpt lat="48.8501057" lon="4.4914912"><ele>107.0</ele><time>2026-05-01T15:07:01.962Z</time></trkpt><trkpt lat="48.850217" lon="4.4913019"><ele>107.0</ele><time>2026-05-01T15:07:02.961Z</time></trkpt><trkpt lat="48.8503294" lon="4.4911119"><ele>108.66666666666666</ele><time>2026-05-01T15:07:03.968Z</time></trkpt><trkpt lat="48.8504477" lon="4.4909127"><ele>110.33333333333334</ele><time>2026-05-01T15:07:05.011Z</time></trkpt><trkpt lat="48.8505708" lon="4.4907102"><ele>112.0</ele><time>2026-05-01T15:07:05.96Z</time></trkpt><trkpt lat="48.8506985" lon="4.4904996"><ele>111.66666666666667</ele><time>2026-05-01T15:07:06.984Z</time></trkpt><trkpt lat="48.8508269" lon="4.4902832"><ele>111.33333333333334</ele><time>2026-05-01T15:07:07.962Z</time></trkpt><trkpt lat="48.8509564" lon="4.4900684"><ele>111.0</ele><time>2026-05-01T15:07:08.961Z</time></trkpt><trkpt lat="48.8510902" lon="4.4898729"><ele>111.33333333333334</ele><time>2026-05-01T15:07:09.967Z</time></trkpt><trkpt lat="48.8512377" lon="4.4896973"><ele>111.66666666666667</ele><time>2026-05-01T15:07:10.962Z</time></trkpt><trkpt lat="48.8513967" lon="4.4895402"><ele>112.0</ele><time>2026-05-01T15:07:11.967Z</time></trkpt><trkpt lat="48.85156" lon="4.4894056"><ele>112.0</ele><time>2026-05-01T15:07:12.962Z</time></trkpt><trkpt lat="48.8517238" lon="4.4892549"><ele>112.0</ele><time>2026-05-01T15:07:13.97Z</time></trkpt><trkpt lat="48.8518901" lon="4.4891063"><ele>112.0</ele><time>2026-05-01T15:07:14.965Z</time></trkpt><trkpt lat="48.8520549" lon="4.4889531"><ele>111.66666666666667</ele><time>2026-05-01T15:07:15.967Z</time></trkpt><trkpt lat="48.8522148" lon="4.4887996"><ele>111.33333333333334</ele><time>2026-05-01T15:07:16.968Z</time></trkpt><trkpt lat="48.8523736" lon="4.4886484"><ele>111.0</ele><time>2026-05-01T15:07:17.958Z</time></trkpt><trkpt lat="48.8525251" lon="4.4885107"><ele>108.0</ele><time>2026-05-01T15:07:18.992Z</time></trkpt><trkpt lat="48.8526782" lon="4.4883719"><ele>105.0</ele><time>2026-05-01T15:07:19.977Z</time></trkpt><trkpt lat="48.852827" lon="4.4882384"><ele>102.0</ele><time>2026-05-01T15:07:20.96Z</time></trkpt><trkpt lat="48.8529726" lon="4.4881162"><ele>102.0</ele><time>2026-05-01T15:07:21.965Z</time></trkpt><trkpt lat="48.8531081" lon="4.4879921"><ele>102.0</ele><time>2026-05-01T15:07:22.968Z</time></trkpt><trkpt lat="48.8532451" lon="4.4878647"><ele>102.0</ele><time>2026-05-01T15:07:23.964Z</time></trkpt><trkpt lat="48.8533919" lon="4.4877375"><ele>100.66666666666666</ele><time>2026-05-01T15:07:24.965Z</time></trkpt><trkpt lat="48.8535341" lon="4.4876054"><ele>99.33333333333333</ele><time>2026-05-01T15:07:25.967Z</time></trkpt><trkpt lat="48.8536743" lon="4.4874784"><ele>98.0</ele><time>2026-05-01T15:07:26.97Z</time></trkpt><trkpt lat="48.85382" lon="4.4873514"><ele>98.0</ele><time>2026-05-01T15:07:27.963Z</time></trkpt><trkpt lat="48.8539626" lon="4.4872225"><ele>98.0</ele><time>2026-05-01T15:07:28.961Z</time></trkpt><trkpt lat="48.8541066" lon="4.4870898"><ele>98.0</ele><time>2026-05-01T15:07:29.965Z</time></trkpt><trkpt lat="48.8542472" lon="4.486964"><ele>98.0</ele><time>2026-05-01T15:07:30.964Z</time></trkpt><trkpt lat="48.8543783" lon="4.4868398"><ele>98.0</ele><time>2026-05-01T15:07:31.967Z</time></trkpt><trkpt lat="48.8545031" lon="4.4867225"><ele>98.0</ele><time>2026-05-01T15:07:32.975Z</time></trkpt><trkpt lat="48.8546206" lon="4.4866091"><ele>98.0</ele><time>2026-05-01T15:07:33.962Z</time></trkpt><trkpt lat="48.8547392" lon="4.4865125"><ele>98.0</ele><time>2026-05-01T15:07:34.962Z</time></trkpt><trkpt lat="48.854848" lon="4.4864099"><ele>98.0</ele><time>2026-05-01T15:07:35.962Z</time></trkpt><trkpt lat="48.8549483" lon="4.4863091"><ele>98.0</ele><time>2026-05-01T15:07:36.973Z</time></trkpt><trkpt lat="48.8550545" lon="4.486209"><ele>98.0</ele><time>2026-05-01T15:07:37.964Z</time></trkpt><trkpt lat="48.8551612" lon="4.4860995"><ele>99.25</ele><time>2026-05-01T15:07:38.962Z</time></trkpt><trkpt lat="48.8552663" lon="4.4859942"><ele>100.5</ele><time>2026-05-01T15:07:39.966Z</time></trkpt><trkpt lat="48.8553707" lon="4.485889"><ele>101.75</ele><time>2026-05-01T15:07:40.963Z</time></trkpt><trkpt lat="48.8554801" lon="4.4857977"><ele>103.0</ele><time>2026-05-01T15:07:41.967Z</time></trkpt><trkpt lat="48.8555873" lon="4.4857113"><ele>103.0</ele><time>2026-05-01T15:07:42.964Z</time></trkpt><trkpt lat="48.8556923" lon="4.4856166"><ele>103.0</ele><time>2026-05-01T15:07:43.977Z</time></trkpt><trkpt lat="48.8557933" lon="4.4855114"><ele>103.0</ele><time>2026-05-01T15:07:44.967Z</time></trkpt><trkpt lat="48.8558941" lon="4.485419"><ele>103.0</ele><time>2026-05-01T15:07:45.962Z</time></trkpt><trkpt lat="48.8559953" lon="4.4853229"><ele>103.5</ele><time>2026-05-01T15:07:46.966Z</time></trkpt><trkpt lat="48.8560963" lon="4.4852202"><ele>104.0</ele><time>2026-05-01T15:07:47.969Z</time></trkpt><trkpt lat="48.856195" lon="4.4851258"><ele>104.5</ele><time>2026-05-01T15:07:48.97Z</time></trkpt><trkpt lat="48.8562978" lon="4.4850261"><ele>105.0</ele><time>2026-05-01T15:07:49.965Z</time></trkpt><trkpt lat="48.8564004" lon="4.484929"><ele>105.0</ele><time>2026-05-01T15:07:50.973Z</time></trkpt><trkpt lat="48.8565013" lon="4.4848261"><ele>105.0</ele><time>2026-05-01T15:07:51.975Z</time></trkpt><trkpt lat="48.8566009" lon="4.4847194"><ele>105.0</ele><time>2026-05-01T15:07:52.968Z</time></trkpt><trkpt lat="48.8566974" lon="4.4846137"><ele>105.0</ele><time>2026-05-01T15:07:53.966Z</time></trkpt><trkpt lat="48.8567983" lon="4.4845104"><ele>104.75</ele><time>2026-05-01T15:07:54.961Z</time></trkpt><trkpt lat="48.8568944" lon="4.4843851"><ele>104.5</ele><time>2026-05-01T15:07:55.965Z</time></trkpt><trkpt lat="48.8569858" lon="4.4842627"><ele>104.25</ele><time>2026-05-01T15:07:56.961Z</time></trkpt><trkpt lat="48.8570728" lon="4.4841393"><ele>104.0</ele><time>2026-05-01T15:07:57.975Z</time></trkpt><trkpt lat="48.8571561" lon="4.4840251"><ele>104.0</ele><time>2026-05-01T15:07:58.971Z</time></trkpt><trkpt lat="48.8572337" lon="4.4839173"><ele>104.0</ele><time>2026-05-01T15:07:59.968Z</time></trkpt><trkpt lat="48.8573104" lon="4.4838094"><ele>104.0</ele><time>2026-05-01T15:08:00.969Z</time></trkpt><trkpt lat="48.8573873" lon="4.4837052"><ele>104.0</ele><time>2026-05-01T15:08:01.968Z</time></trkpt><trkpt lat="48.8574584" lon="4.4836129"><ele>104.0</ele><time>2026-05-01T15:08:02.97Z</time></trkpt><trkpt lat="48.8575245" lon="4.4835376"><ele>103.49999999999999</ele><time>2026-05-01T15:08:03.978Z</time></trkpt><trkpt lat="48.8575803" lon="4.4834867"><ele>103.0</ele><time>2026-05-01T15:08:04.957Z</time></trkpt><trkpt lat="48.8576515" lon="4.4833631"><ele>102.5</ele><time>2026-05-01T15:08:06.971Z</time></trkpt><trkpt lat="48.8575977" lon="4.4832239"><ele>102.0</ele><time>2026-05-01T15:08:08.958Z</time></trkpt><trkpt lat="48.8575507" lon="4.4831389"><ele>101.49999999999999</ele><time>2026-05-01T15:08:09.964Z</time></trkpt><trkpt lat="48.8574992" lon="4.4830246"><ele>101.0</ele><time>2026-05-01T15:08:10.966Z</time></trkpt><trkpt lat="48.85745" lon="4.4829023"><ele>100.0</ele><time>2026-05-01T15:08:11.964Z</time></trkpt><trkpt lat="48.8574039" lon="4.4827539"><ele>99.0</ele><time>2026-05-01T15:08:12.962Z</time></trkpt><trkpt lat="48.8573488" lon="4.4826081"><ele>98.0</ele><time>2026-05-01T15:08:13.974Z</time></trkpt><trkpt lat="48.8572933" lon="4.4824526"><ele>97.0</ele><time>2026-05-01T15:08:14.981Z</time></trkpt><trkpt lat="48.8572392" lon="4.4822909"><ele>97.0</ele><time>2026-05-01T15:08:15.963Z</time></trkpt><trkpt lat="48.8571862" lon="4.4821318"><ele>97.0</ele><time>2026-05-01T15:08:16.964Z</time></trkpt><trkpt lat="48.8571344" lon="4.4819729"><ele>97.0</ele><time>2026-05-01T15:08:17.966Z</time></trkpt><trkpt lat="48.8570852" lon="4.4818269"><ele>97.0</ele><time>2026-05-01T15:08:18.965Z</time></trkpt><trkpt lat="48.8570319" lon="4.4816903"><ele>97.0</ele><time>2026-05-01T15:08:19.972Z</time></trkpt><trkpt lat="48.8569783" lon="4.4815611"><ele>96.19999999999999</ele><time>2026-05-01T15:08:20.964Z</time></trkpt><trkpt lat="48.8569271" lon="4.4814357"><ele>95.4</ele><time>2026-05-01T15:08:21.964Z</time></trkpt><trkpt lat="48.8568702" lon="4.4813101"><ele>94.6</ele><time>2026-05-01T15:08:22.964Z</time></trkpt><trkpt lat="48.8568203" lon="4.4811712"><ele>93.80000000000001</ele><time>2026-05-01T15:08:23.964Z</time></trkpt><trkpt lat="48.8567674" lon="4.4810386"><ele>93.0</ele><time>2026-05-01T15:08:24.967Z</time></trkpt><trkpt lat="48.8567082" lon="4.4809073"><ele>92.0</ele><time>2026-05-01T15:08:25.962Z</time></trkpt><trkpt lat="48.8566582" lon="4.4807789"><ele>91.0</ele><time>2026-05-01T15:08:26.964Z</time></trkpt><trkpt lat="48.8566084" lon="4.4806498"><ele>90.0</ele><time>2026-05-01T15:08:27.975Z</time></trkpt><trkpt lat="48.856555" lon="4.4805121"><ele>89.0</ele><time>2026-05-01T15:08:28.964Z</time></trkpt><trkpt lat="48.8564961" lon="4.4803627"><ele>88.0</ele><time>2026-05-01T15:08:29.965Z</time></trkpt><trkpt lat="48.8564313" lon="4.4802088"><ele>87.75</ele><time>2026-05-01T15:08:30.964Z</time></trkpt><trkpt lat="48.8563644" lon="4.4800495"><ele>87.5</ele><time>2026-05-01T15:08:31.96Z</time></trkpt><trkpt lat="48.8562914" lon="4.4798876"><ele>87.25</ele><time>2026-05-01T15:08:32.962Z</time></trkpt><trkpt lat="48.8562127" lon="4.4797176"><ele>87.0</ele><time>2026-05-01T15:08:33.965Z</time></trkpt><trkpt lat="48.8561343" lon="4.479541"><ele>86.66666666666667</ele><time>2026-05-01T15:08:34.964Z</time></trkpt><trkpt lat="48.8560538" lon="4.4793603"><ele>86.33333333333334</ele><time>2026-05-01T15:08:35.964Z</time></trkpt><trkpt lat="48.8559656" lon="4.4791765"><ele>86.0</ele><time>2026-05-01T15:08:36.964Z</time></trkpt><trkpt lat="48.8558664" lon="4.4789873"><ele>86.0</ele><time>2026-05-01T15:08:37.973Z</time></trkpt><trkpt lat="48.8557565" lon="4.4788032"><ele>86.0</ele><time>2026-05-01T15:08:38.973Z</time></trkpt><trkpt lat="48.85563" lon="4.4786107"><ele>86.0</ele><time>2026-05-01T15:08:39.965Z</time></trkpt><trkpt lat="48.8554842" lon="4.4784285"><ele>86.33333333333334</ele><time>2026-05-01T15:08:40.964Z</time></trkpt><trkpt lat="48.8553216" lon="4.4782658"><ele>86.66666666666667</ele><time>2026-05-01T15:08:41.962Z</time></trkpt><trkpt lat="48.8551493" lon="4.478127"><ele>87.0</ele><time>2026-05-01T15:08:42.967Z</time></trkpt><trkpt lat="48.8549629" lon="4.4780085"><ele>87.0</ele><time>2026-05-01T15:08:43.962Z</time></trkpt><trkpt lat="48.8547623" lon="4.4779091"><ele>87.0</ele><time>2026-05-01T15:08:44.961Z</time></trkpt><trkpt lat="48.8545572" lon="4.477833"><ele>87.0</ele><time>2026-05-01T15:08:45.968Z</time></trkpt><trkpt lat="48.8543491" lon="4.4777712"><ele>87.66666666666667</ele><time>2026-05-01T15:08:46.967Z</time></trkpt><trkpt lat="48.8541374" lon="4.477704"><ele>88.33333333333334</ele><time>2026-05-01T15:08:47.963Z</time></trkpt><trkpt lat="48.853922" lon="4.4776289"><ele>89.0</ele><time>2026-05-01T15:08:48.963Z</time></trkpt><trkpt lat="48.8537104" lon="4.4775323"><ele>89.0</ele><time>2026-05-01T15:08:49.97Z</time></trkpt><trkpt lat="48.8535047" lon="4.477419"><ele>89.0</ele><time>2026-05-01T15:08:50.972Z</time></trkpt><trkpt lat="48.8533131" lon="4.477272"><ele>89.0</ele><time>2026-05-01T15:08:51.966Z</time></trkpt><trkpt lat="48.8531246" lon="4.4770948"><ele>88.0</ele><time>2026-05-01T15:08:52.972Z</time></trkpt><trkpt lat="48.8529418" lon="4.4769019"><ele>87.0</ele><time>2026-05-01T15:08:53.966Z</time></trkpt><trkpt lat="48.8527681" lon="4.4767032"><ele>86.0</ele><time>2026-05-01T15:08:54.993Z</time></trkpt><trkpt lat="48.8525887" lon="4.4764999"><ele>86.0</ele><time>2026-05-01T15:08:55.966Z</time></trkpt><trkpt lat="48.8524025" lon="4.4763179"><ele>86.0</ele><time>2026-05-01T15:08:56.96Z</time></trkpt><trkpt lat="48.8522122" lon="4.4761477"><ele>86.0</ele><time>2026-05-01T15:08:57.965Z</time></trkpt><trkpt lat="48.8520242" lon="4.4759771"><ele>87.0</ele><time>2026-05-01T15:08:58.967Z</time></trkpt><trkpt lat="48.8518267" lon="4.4758097"><ele>88.0</ele><time>2026-05-01T15:08:59.971Z</time></trkpt><trkpt lat="48.8516246" lon="4.4756501"><ele>88.0</ele><time>2026-05-01T15:09:00.97Z</time></trkpt><trkpt lat="48.8514297" lon="4.4754776"><ele>88.0</ele><time>2026-05-01T15:09:01.963Z</time></trkpt><trkpt lat="48.851246" lon="4.4752854"><ele>88.0</ele><time>2026-05-01T15:09:03Z</time></trkpt><trkpt lat="48.8510727" lon="4.475067"><ele>87.0</ele><time>2026-05-01T15:09:03.969Z</time></trkpt><trkpt lat="48.8509099" lon="4.4748285"><ele>86.0</ele><time>2026-05-01T15:09:04.97Z</time></trkpt><trkpt lat="48.8507521" lon="4.4745786"><ele>85.5</ele><time>2026-05-01T15:09:05.963Z</time></trkpt><trkpt lat="48.8505944" lon="4.4743292"><ele>85.0</ele><time>2026-05-01T15:09:06.962Z</time></trkpt><trkpt lat="48.8504377" lon="4.4740815"><ele>85.0</ele><time>2026-05-01T15:09:07.967Z</time></trkpt><trkpt lat="48.8502828" lon="4.4738313"><ele>85.0</ele><time>2026-05-01T15:09:08.969Z</time></trkpt><trkpt lat="48.8501243" lon="4.4735894"><ele>86.5</ele><time>2026-05-01T15:09:09.982Z</time></trkpt><trkpt lat="48.849965" lon="4.4733423"><ele>88.0</ele><time>2026-05-01T15:09:10.983Z</time></trkpt><trkpt lat="48.8498073" lon="4.4730891"><ele>87.0</ele><time>2026-05-01T15:09:11.971Z</time></trkpt><trkpt lat="48.849653" lon="4.4728373"><ele>86.0</ele><time>2026-05-01T15:09:12.961Z</time></trkpt><trkpt lat="48.8494967" lon="4.4725906"><ele>86.0</ele><time>2026-05-01T15:09:13.966Z</time></trkpt><trkpt lat="48.8493412" lon="4.4723405"><ele>86.0</ele><time>2026-05-01T15:09:14.965Z</time></trkpt><trkpt lat="48.8491869" lon="4.4720927"><ele>86.5</ele><time>2026-05-01T15:09:15.967Z</time></trkpt><trkpt lat="48.8490334" lon="4.4718365"><ele>87.0</ele><time>2026-05-01T15:09:16.963Z</time></trkpt><trkpt lat="48.848877" lon="4.4715826"><ele>87.0</ele><time>2026-05-01T15:09:17.967Z</time></trkpt><trkpt lat="48.8487226" lon="4.4713232"><ele>87.0</ele><time>2026-05-01T15:09:18.957Z</time></trkpt><trkpt lat="48.8485638" lon="4.4710613"><ele>86.0</ele><time>2026-05-01T15:09:19.989Z</time></trkpt><trkpt lat="48.8484041" lon="4.4707997"><ele>85.0</ele><time>2026-05-01T15:09:20.985Z</time></trkpt><trkpt lat="48.8482468" lon="4.4705377"><ele>86.5</ele><time>2026-05-01T15:09:21.973Z</time></trkpt><trkpt lat="48.8480925" lon="4.4702804"><ele>88.0</ele><time>2026-05-01T15:09:22.968Z</time></trkpt><trkpt lat="48.8479357" lon="4.4700224"><ele>88.0</ele><time>2026-05-01T15:09:23.971Z</time></trkpt><trkpt lat="48.8477762" lon="4.4697667"><ele>88.0</ele><time>2026-05-01T15:09:24.969Z</time></trkpt><trkpt lat="48.8476174" lon="4.4695036"><ele>88.0</ele><time>2026-05-01T15:09:25.966Z</time></trkpt><trkpt lat="48.847459" lon="4.4692484"><ele>88.0</ele><time>2026-05-01T15:09:26.968Z</time></trkpt><trkpt lat="48.8473005" lon="4.4689928"><ele>87.5</ele><time>2026-05-01T15:09:27.965Z</time></trkpt><trkpt lat="48.847141" lon="4.4687369"><ele>87.0</ele><time>2026-05-01T15:09:28.962Z</time></trkpt><trkpt lat="48.8469868" lon="4.4684787"><ele>87.0</ele><time>2026-05-01T15:09:29.962Z</time></trkpt><trkpt lat="48.8468304" lon="4.4682153"><ele>87.0</ele><time>2026-05-01T15:09:30.966Z</time></trkpt><trkpt lat="48.8466707" lon="4.4679561"><ele>87.5</ele><time>2026-05-01T15:09:31.96Z</time></trkpt><trkpt lat="48.84651" lon="4.4676977"><ele>88.0</ele><time>2026-05-01T15:09:32.97Z</time></trkpt><trkpt lat="48.8463507" lon="4.467435"><ele>88.0</ele><time>2026-05-01T15:09:33.963Z</time></trkpt><trkpt lat="48.8461911" lon="4.4671768"><ele>88.0</ele><time>2026-05-01T15:09:34.962Z</time></trkpt><trkpt lat="48.846037" lon="4.466922"><ele>88.5</ele><time>2026-05-01T15:09:35.964Z</time></trkpt><trkpt lat="48.8458822" lon="4.4666661"><ele>89.0</ele><time>2026-05-01T15:09:36.965Z</time></trkpt><trkpt lat="48.845725" lon="4.466411"><ele>88.5</ele><time>2026-05-01T15:09:37.978Z</time></trkpt><trkpt lat="48.8455683" lon="4.4661586"><ele>88.0</ele><time>2026-05-01T15:09:38.966Z</time></trkpt><trkpt lat="48.8454121" lon="4.465898"><ele>88.0</ele><time>2026-05-01T15:09:39.982Z</time></trkpt><trkpt lat="48.8452575" lon="4.4656364"><ele>88.0</ele><time>2026-05-01T15:09:40.964Z</time></trkpt><trkpt lat="48.8451019" lon="4.4653862"><ele>87.66666666666666</ele><time>2026-05-01T15:09:41.968Z</time></trkpt><trkpt lat="48.8449462" lon="4.4651401"><ele>87.33333333333333</ele><time>2026-05-01T15:09:42.963Z</time></trkpt><trkpt lat="48.8447979" lon="4.4648948"><ele>87.0</ele><time>2026-05-01T15:09:43.969Z</time></trkpt><trkpt lat="48.8446547" lon="4.4646621"><ele>87.0</ele><time>2026-05-01T15:09:44.965Z</time></trkpt><trkpt lat="48.8445246" lon="4.4644476"><ele>87.0</ele><time>2026-05-01T15:09:45.966Z</time></trkpt><trkpt lat="48.8444016" lon="4.4642422"><ele>87.0</ele><time>2026-05-01T15:09:46.974Z</time></trkpt><trkpt lat="48.8442874" lon="4.4640526"><ele>87.0</ele><time>2026-05-01T15:09:47.975Z</time></trkpt><trkpt lat="48.8441788" lon="4.4638736"><ele>87.0</ele><time>2026-05-01T15:09:48.961Z</time></trkpt><trkpt lat="48.8440789" lon="4.4637089"><ele>87.0</ele><time>2026-05-01T15:09:49.977Z</time></trkpt><trkpt lat="48.8439896" lon="4.4635386"><ele>87.25</ele><time>2026-05-01T15:09:50.962Z</time></trkpt><trkpt lat="48.8439141" lon="4.4633708"><ele>87.5</ele><time>2026-05-01T15:09:51.998Z</time></trkpt><trkpt lat="48.8438468" lon="4.4631953"><ele>87.75</ele><time>2026-05-01T15:09:52.967Z</time></trkpt><trkpt lat="48.8437823" lon="4.4630147"><ele>88.0</ele><time>2026-05-01T15:09:53.966Z</time></trkpt><trkpt lat="48.8437133" lon="4.4628471"><ele>88.0</ele><time>2026-05-01T15:09:54.968Z</time></trkpt><trkpt lat="48.8436315" lon="4.4626832"><ele>88.0</ele><time>2026-05-01T15:09:55.969Z</time></trkpt><trkpt lat="48.8435455" lon="4.4625405"><ele>88.0</ele><time>2026-05-01T15:09:56.964Z</time></trkpt><trkpt lat="48.8434552" lon="4.462406"><ele>88.0</ele><time>2026-05-01T15:09:57.965Z</time></trkpt><trkpt lat="48.8433638" lon="4.4622658"><ele>88.0</ele><time>2026-05-01T15:09:58.966Z</time></trkpt><trkpt lat="48.84327" lon="4.4621203"><ele>88.0</ele><time>2026-05-01T15:09:59.965Z</time></trkpt><trkpt lat="48.8431714" lon="4.4619619"><ele>88.0</ele><time>2026-05-01T15:10:00.963Z</time></trkpt><trkpt lat="48.8430782" lon="4.4617981"><ele>88.0</ele><time>2026-05-01T15:10:01.966Z</time></trkpt><trkpt lat="48.8429831" lon="4.4616307"><ele>88.0</ele><time>2026-05-01T15:10:02.969Z</time></trkpt><trkpt lat="48.8428897" lon="4.4614707"><ele>88.0</ele><time>2026-05-01T15:10:03.967Z</time></trkpt><trkpt lat="48.8427985" lon="4.4613098"><ele>88.0</ele><time>2026-05-01T15:10:04.966Z</time></trkpt><trkpt lat="48.8427041" lon="4.4611546"><ele>88.0</ele><time>2026-05-01T15:10:05.965Z</time></trkpt><trkpt lat="48.842612" lon="4.4610015"><ele>88.0</ele><time>2026-05-01T15:10:06.974Z</time></trkpt><trkpt lat="48.8425212" lon="4.4608507"><ele>88.0</ele><time>2026-05-01T15:10:07.963Z</time></trkpt><trkpt lat="48.8424298" lon="4.4607046"><ele>88.0</ele><time>2026-05-01T15:10:08.965Z</time></trkpt><trkpt lat="48.8423435" lon="4.4605584"><ele>88.0</ele><time>2026-05-01T15:10:09.966Z</time></trkpt><trkpt lat="48.8422565" lon="4.4604197"><ele>88.0</ele><time>2026-05-01T15:10:10.962Z</time></trkpt><trkpt lat="48.8421746" lon="4.4602768"><ele>88.0</ele><time>2026-05-01T15:10:11.962Z</time></trkpt><trkpt lat="48.8420928" lon="4.4601481"><ele>88.0</ele><time>2026-05-01T15:10:12.962Z</time></trkpt><trkpt lat="48.8420174" lon="4.4600233"><ele>88.0</ele><time>2026-05-01T15:10:13.969Z</time></trkpt><trkpt lat="48.84195" lon="4.4599119"><ele>88.0</ele><time>2026-05-01T15:10:14.961Z</time></trkpt><trkpt lat="48.8418923" lon="4.4598298"><ele>88.0</ele><time>2026-05-01T15:10:15.968Z</time></trkpt><trkpt lat="48.8418324" lon="4.4597227"><ele>88.0</ele><time>2026-05-01T15:10:17.96Z</time></trkpt><trkpt lat="48.84179" lon="4.4596432"><ele>88.0</ele><time>2026-05-01T15:10:29.974Z</time></trkpt><trkpt lat="48.8417119" lon="4.4594967"><ele>88.0</ele><time>2026-05-01T15:10:31.967Z</time></trkpt><trkpt lat="48.8416559" lon="4.4594082"><ele>88.0</ele><time>2026-05-01T15:10:32.958Z</time></trkpt><trkpt lat="48.8415954" lon="4.4593055"><ele>88.0</ele><time>2026-05-01T15:10:33.963Z</time></trkpt><trkpt lat="48.8415299" lon="4.4591925"><ele>88.0</ele><time>2026-05-01T15:10:34.969Z</time></trkpt><trkpt lat="48.841459" lon="4.459077"><ele>88.0</ele><time>2026-05-01T15:10:35.962Z</time></trkpt><trkpt lat="48.8413782" lon="4.4589587"><ele>88.0</ele><time>2026-05-01T15:10:36.962Z</time></trkpt><trkpt lat="48.8412991" lon="4.4588281"><ele>88.0</ele><time>2026-05-01T15:10:37.962Z</time></trkpt><trkpt lat="48.8412155" lon="4.4586946"><ele>88.0</ele><time>2026-05-01T15:10:38.969Z</time></trkpt><trkpt lat="48.8411295" lon="4.4585539"><ele>88.0</ele><time>2026-05-01T15:10:39.965Z</time></trkpt><trkpt lat="48.8410421" lon="4.4584191"><ele>88.0</ele><time>2026-05-01T15:10:40.961Z</time></trkpt><trkpt lat="48.8409544" lon="4.4582795"><ele>88.0</ele><time>2026-05-01T15:10:41.964Z</time></trkpt><trkpt lat="48.8408644" lon="4.4581575"><ele>88.25</ele><time>2026-05-01T15:10:42.96Z</time></trkpt><trkpt lat="48.8407804" lon="4.4580339"><ele>88.5</ele><time>2026-05-01T15:10:43.968Z</time></trkpt><trkpt lat="48.8406954" lon="4.4579082"><ele>88.75</ele><time>2026-05-01T15:10:44.965Z</time></trkpt><trkpt lat="48.8406094" lon="4.4577783"><ele>89.0</ele><time>2026-05-01T15:10:45.965Z</time></trkpt><trkpt lat="48.8405283" lon="4.45765"><ele>89.25</ele><time>2026-05-01T15:10:46.963Z</time></trkpt><trkpt lat="48.840445" lon="4.4575223"><ele>89.5</ele><time>2026-05-01T15:10:47.966Z</time></trkpt><trkpt lat="48.840361" lon="4.457385"><ele>89.75</ele><time>2026-05-01T15:10:48.973Z</time></trkpt><trkpt lat="48.8402823" lon="4.457242"><ele>90.0</ele><time>2026-05-01T15:10:49.961Z</time></trkpt><trkpt lat="48.8402057" lon="4.4570939"><ele>90.2</ele><time>2026-05-01T15:10:50.965Z</time></trkpt><trkpt lat="48.8401399" lon="4.4569561"><ele>90.4</ele><time>2026-05-01T15:10:51.964Z</time></trkpt><trkpt lat="48.8400789" lon="4.4568209"><ele>90.6</ele><time>2026-05-01T15:10:52.966Z</time></trkpt><trkpt lat="48.8400262" lon="4.4567038"><ele>90.8</ele><time>2026-05-01T15:10:53.965Z</time></trkpt><trkpt lat="48.8399782" lon="4.4565999"><ele>91.0</ele><time>2026-05-01T15:10:54.961Z</time></trkpt><trkpt lat="48.8399368" lon="4.4565032"><ele>91.0</ele><time>2026-05-01T15:10:55.964Z</time></trkpt><trkpt lat="48.8398922" lon="4.4564046"><ele>91.0</ele><time>2026-05-01T15:10:56.964Z</time></trkpt><trkpt lat="48.8398495" lon="4.456307"><ele>91.0</ele><time>2026-05-01T15:10:57.965Z</time></trkpt><trkpt lat="48.8398078" lon="4.4562068"><ele>91.0</ele><time>2026-05-01T15:10:58.966Z</time></trkpt><trkpt lat="48.8397616" lon="4.4560971"><ele>91.0</ele><time>2026-05-01T15:10:59.971Z</time></trkpt><trkpt lat="48.8397078" lon="4.4559743"><ele>91.0</ele><time>2026-05-01T15:11:00.96Z</time></trkpt><trkpt lat="48.8396452" lon="4.4558335"><ele>91.25</ele><time>2026-05-01T15:11:01.965Z</time></trkpt><trkpt lat="48.8395812" lon="4.4556822"><ele>91.5</ele><time>2026-05-01T15:11:02.961Z</time></trkpt><trkpt lat="48.8395205" lon="4.4555302"><ele>91.75</ele><time>2026-05-01T15:11:03.965Z</time></trkpt><trkpt lat="48.8394595" lon="4.4553825"><ele>92.0</ele><time>2026-05-01T15:11:04.963Z</time></trkpt><trkpt lat="48.8393958" lon="4.4552213"><ele>92.0</ele><time>2026-05-01T15:11:05.966Z</time></trkpt><trkpt lat="48.8393186" lon="4.4550592"><ele>92.0</ele><time>2026-05-01T15:11:06.966Z</time></trkpt><trkpt lat="48.8392395" lon="4.4548852"><ele>92.0</ele><time>2026-05-01T15:11:07.962Z</time></trkpt><trkpt lat="48.8391679" lon="4.4547169"><ele>92.0</ele><time>2026-05-01T15:11:08.974Z</time></trkpt><trkpt lat="48.8390888" lon="4.4545458"><ele>92.33333333333334</ele><time>2026-05-01T15:11:09.971Z</time></trkpt><trkpt lat="48.8390094" lon="4.4543593"><ele>92.66666666666667</ele><time>2026-05-01T15:11:10.973Z</time></trkpt><trkpt lat="48.8389266" lon="4.4541671"><ele>93.0</ele><time>2026-05-01T15:11:11.972Z</time></trkpt><trkpt lat="48.8388405" lon="4.4539721"><ele>92.66666666666667</ele><time>2026-05-01T15:11:12.973Z</time></trkpt><trkpt lat="48.8387648" lon="4.4537757"><ele>92.33333333333334</ele><time>2026-05-01T15:11:13.965Z</time></trkpt><trkpt lat="48.8386902" lon="4.4535784"><ele>92.0</ele><time>2026-05-01T15:11:14.964Z</time></trkpt><trkpt lat="48.8386118" lon="4.4533768"><ele>92.0</ele><time>2026-05-01T15:11:15.963Z</time></trkpt><trkpt lat="48.8385376" lon="4.4531656"><ele>92.0</ele><time>2026-05-01T15:11:16.969Z</time></trkpt><trkpt lat="48.8384562" lon="4.4529551"><ele>92.0</ele><time>2026-05-01T15:11:17.963Z</time></trkpt><trkpt lat="48.8383662" lon="4.4527438"><ele>91.66666666666667</ele><time>2026-05-01T15:11:18.958Z</time></trkpt><trkpt lat="48.8382677" lon="4.4525306"><ele>91.33333333333333</ele><time>2026-05-01T15:11:19.968Z</time></trkpt><trkpt lat="48.8381687" lon="4.4522998"><ele>91.0</ele><time>2026-05-01T15:11:20.959Z</time></trkpt><trkpt lat="48.8380655" lon="4.4520598"><ele>91.0</ele><time>2026-05-01T15:11:21.966Z</time></trkpt><trkpt lat="48.8379653" lon="4.4518116"><ele>91.0</ele><time>2026-05-01T15:11:22.962Z</time></trkpt><trkpt lat="48.8378643" lon="4.4515552"><ele>91.0</ele><time>2026-05-01T15:11:23.962Z</time></trkpt><trkpt lat="48.8377537" lon="4.4512889"><ele>91.33333333333333</ele><time>2026-05-01T15:11:24.975Z</time></trkpt><trkpt lat="48.8376442" lon="4.4510246"><ele>91.66666666666667</ele><time>2026-05-01T15:11:25.962Z</time></trkpt><trkpt lat="48.8375293" lon="4.4507502"><ele>92.0</ele><time>2026-05-01T15:11:26.969Z</time></trkpt><trkpt lat="48.8374114" lon="4.4504711"><ele>92.0</ele><time>2026-05-01T15:11:27.965Z</time></trkpt><trkpt lat="48.83729" lon="4.4501873"><ele>92.0</ele><time>2026-05-01T15:11:28.97Z</time></trkpt><trkpt lat="48.8371766" lon="4.4499057"><ele>92.0</ele><time>2026-05-01T15:11:29.961Z</time></trkpt><trkpt lat="48.8370604" lon="4.4496157"><ele>92.33333333333334</ele><time>2026-05-01T15:11:30.971Z</time></trkpt><trkpt lat="48.8369463" lon="4.4493301"><ele>92.66666666666667</ele><time>2026-05-01T15:11:31.966Z</time></trkpt><trkpt lat="48.8368312" lon="4.4490385"><ele>93.0</ele><time>2026-05-01T15:11:32.958Z</time></trkpt><trkpt lat="48.8367182" lon="4.4487503"><ele>93.0</ele><time>2026-05-01T15:11:33.964Z</time></trkpt><trkpt lat="48.8366057" lon="4.448459"><ele>93.0</ele><time>2026-05-01T15:11:34.965Z</time></trkpt><trkpt lat="48.8364949" lon="4.4481652"><ele>93.0</ele><time>2026-05-01T15:11:35.968Z</time></trkpt><trkpt lat="48.8363855" lon="4.4478709"><ele>93.0</ele><time>2026-05-01T15:11:36.965Z</time></trkpt><trkpt lat="48.8362732" lon="4.4475747"><ele>93.0</ele><time>2026-05-01T15:11:37.966Z</time></trkpt><trkpt lat="48.8361595" lon="4.4472757"><ele>93.33333333333333</ele><time>2026-05-01T15:11:38.965Z</time></trkpt><trkpt lat="48.8360495" lon="4.4469767"><ele>93.66666666666666</ele><time>2026-05-01T15:11:39.964Z</time></trkpt><trkpt lat="48.8359407" lon="4.446686"><ele>94.0</ele><time>2026-05-01T15:11:40.969Z</time></trkpt><trkpt lat="48.8358313" lon="4.4463836"><ele>95.5</ele><time>2026-05-01T15:11:41.969Z</time></trkpt><trkpt lat="48.8357198" lon="4.446088"><ele>97.0</ele><time>2026-05-01T15:11:42.964Z</time></trkpt><trkpt lat="48.8356068" lon="4.4457888"><ele>97.0</ele><time>2026-05-01T15:11:43.964Z</time></trkpt><trkpt lat="48.8354907" lon="4.445492"><ele>97.0</ele><time>2026-05-01T15:11:44.973Z</time></trkpt><trkpt lat="48.8353731" lon="4.4451902"><ele>97.0</ele><time>2026-05-01T15:11:45.959Z</time></trkpt><trkpt lat="48.8352579" lon="4.4448963"><ele>97.0</ele><time>2026-05-01T15:11:46.958Z</time></trkpt><trkpt lat="48.8351392" lon="4.4445972"><ele>97.0</ele><time>2026-05-01T15:11:47.965Z</time></trkpt><trkpt lat="48.8350184" lon="4.444301"><ele>97.0</ele><time>2026-05-01T15:11:48.962Z</time></trkpt><trkpt lat="48.8348965" lon="4.4440101"><ele>97.0</ele><time>2026-05-01T15:11:49.957Z</time></trkpt><trkpt lat="48.8347703" lon="4.443718"><ele>97.0</ele><time>2026-05-01T15:11:50.97Z</time></trkpt><trkpt lat="48.8346459" lon="4.4434288"><ele>97.0</ele><time>2026-05-01T15:11:51.967Z</time></trkpt><trkpt lat="48.8345203" lon="4.4431483"><ele>97.0</ele><time>2026-05-01T15:11:52.966Z</time></trkpt><trkpt lat="48.8343917" lon="4.4428631"><ele>96.5</ele><time>2026-05-01T15:11:53.961Z</time></trkpt><trkpt lat="48.8342656" lon="4.4425788"><ele>96.0</ele><time>2026-05-01T15:11:54.959Z</time></trkpt><trkpt lat="48.8341362" lon="4.4422964"><ele>97.0</ele><time>2026-05-01T15:11:55.965Z</time></trkpt><trkpt lat="48.8340084" lon="4.4420114"><ele>98.0</ele><time>2026-05-01T15:11:56.965Z</time></trkpt><trkpt lat="48.8338792" lon="4.4417206"><ele>98.0</ele><time>2026-05-01T15:11:57.975Z</time></trkpt><trkpt lat="48.8337488" lon="4.4414289"><ele>98.0</ele><time>2026-05-01T15:11:58.961Z</time></trkpt><trkpt lat="48.8336189" lon="4.4411465"><ele>98.5</ele><time>2026-05-01T15:11:59.966Z</time></trkpt><trkpt lat="48.8334877" lon="4.440862"><ele>99.0</ele><time>2026-05-01T15:12:00.96Z</time></trkpt><trkpt lat="48.8333544" lon="4.4405831"><ele>100.0</ele><time>2026-05-01T15:12:01.966Z</time></trkpt><trkpt lat="48.8332136" lon="4.4403049"><ele>101.0</ele><time>2026-05-01T15:12:02.961Z</time></trkpt><trkpt lat="48.8330686" lon="4.4400218"><ele>101.0</ele><time>2026-05-01T15:12:03.968Z</time></trkpt><trkpt lat="48.8329242" lon="4.4397388"><ele>101.0</ele><time>2026-05-01T15:12:04.962Z</time></trkpt><trkpt lat="48.8327801" lon="4.4394599"><ele>101.5</ele><time>2026-05-01T15:12:05.973Z</time></trkpt><trkpt lat="48.8326397" lon="4.4391798"><ele>102.0</ele><time>2026-05-01T15:12:06.979Z</time></trkpt><trkpt lat="48.8325021" lon="4.4388949"><ele>101.5</ele><time>2026-05-01T15:12:07.961Z</time></trkpt><trkpt lat="48.8323644" lon="4.4386068"><ele>101.0</ele><time>2026-05-01T15:12:08.962Z</time></trkpt><trkpt lat="48.8322245" lon="4.4383198"><ele>101.0</ele><time>2026-05-01T15:12:09.965Z</time></trkpt><trkpt lat="48.8320863" lon="4.4380264"><ele>101.0</ele><time>2026-05-01T15:12:10.963Z</time></trkpt><trkpt lat="48.8319506" lon="4.4377354"><ele>101.0</ele><time>2026-05-01T15:12:11.964Z</time></trkpt><trkpt lat="48.8318162" lon="4.4374473"><ele>101.0</ele><time>2026-05-01T15:12:12.959Z</time></trkpt><trkpt lat="48.8316839" lon="4.4371575"><ele>100.0</ele><time>2026-05-01T15:12:13.968Z</time></trkpt><trkpt lat="48.8315463" lon="4.4368707"><ele>99.0</ele><time>2026-05-01T15:12:14.965Z</time></trkpt><trkpt lat="48.8314122" lon="4.436583"><ele>100.0</ele><time>2026-05-01T15:12:15.971Z</time></trkpt><trkpt lat="48.8312742" lon="4.4362958"><ele>101.0</ele><time>2026-05-01T15:12:16.978Z</time></trkpt><trkpt lat="48.8311384" lon="4.4360083"><ele>101.0</ele><time>2026-05-01T15:12:17.968Z</time></trkpt><trkpt lat="48.8310002" lon="4.4357239"><ele>101.0</ele><time>2026-05-01T15:12:18.969Z</time></trkpt><trkpt lat="48.8308619" lon="4.4354364"><ele>100.5</ele><time>2026-05-01T15:12:19.972Z</time></trkpt><trkpt lat="48.8307274" lon="4.4351531"><ele>100.0</ele><time>2026-05-01T15:12:20.958Z</time></trkpt><trkpt lat="48.8305945" lon="4.4348697"><ele>100.5</ele><time>2026-05-01T15:12:21.967Z</time></trkpt><trkpt lat="48.8304662" lon="4.4345846"><ele>101.0</ele><time>2026-05-01T15:12:22.962Z</time></trkpt><trkpt lat="48.8303342" lon="4.4342961"><ele>101.0</ele><time>2026-05-01T15:12:23.965Z</time></trkpt><trkpt lat="48.8302011" lon="4.4340071"><ele>101.0</ele><time>2026-05-01T15:12:24.959Z</time></trkpt><trkpt lat="48.83007" lon="4.4337182"><ele>101.0</ele><time>2026-05-01T15:12:25.962Z</time></trkpt><trkpt lat="48.829938" lon="4.4334297"><ele>101.0</ele><time>2026-05-01T15:12:26.969Z</time></trkpt><trkpt lat="48.8298126" lon="4.4331339"><ele>101.5</ele><time>2026-05-01T15:12:27.963Z</time></trkpt><trkpt lat="48.8296867" lon="4.4328386"><ele>102.0</ele><time>2026-05-01T15:12:28.964Z</time></trkpt><trkpt lat="48.8295608" lon="4.4325427"><ele>102.0</ele><time>2026-05-01T15:12:29.965Z</time></trkpt><trkpt lat="48.8294336" lon="4.4322478"><ele>102.0</ele><time>2026-05-01T15:12:30.966Z</time></trkpt><trkpt lat="48.8293113" lon="4.4319539"><ele>102.0</ele><time>2026-05-01T15:12:31.972Z</time></trkpt><trkpt lat="48.8291869" lon="4.4316586"><ele>102.0</ele><time>2026-05-01T15:12:32.964Z</time></trkpt><trkpt lat="48.8290643" lon="4.4313598"><ele>102.5</ele><time>2026-05-01T15:12:33.963Z</time></trkpt><trkpt lat="48.8289377" lon="4.4310637"><ele>103.0</ele><time>2026-05-01T15:12:34.964Z</time></trkpt><trkpt lat="48.82881" lon="4.4307793"><ele>103.0</ele><time>2026-05-01T15:12:35.961Z</time></trkpt><trkpt lat="48.828677" lon="4.4305024"><ele>103.0</ele><time>2026-05-01T15:12:36.966Z</time></trkpt><trkpt lat="48.8285357" lon="4.4302329"><ele>103.5</ele><time>2026-05-01T15:12:37.962Z</time></trkpt><trkpt lat="48.8283904" lon="4.4299679"><ele>104.0</ele><time>2026-05-01T15:12:38.994Z</time></trkpt><trkpt lat="48.8282453" lon="4.4297099"><ele>104.0</ele><time>2026-05-01T15:12:39.958Z</time></trkpt><trkpt lat="48.8280983" lon="4.4294499"><ele>104.0</ele><time>2026-05-01T15:12:40.968Z</time></trkpt><trkpt lat="48.8279493" lon="4.4291892"><ele>104.0</ele><time>2026-05-01T15:12:41.965Z</time></trkpt><trkpt lat="48.8278" lon="4.4289297"><ele>104.0</ele><time>2026-05-01T15:12:42.975Z</time></trkpt><trkpt lat="48.8276515" lon="4.4286698"><ele>105.0</ele><time>2026-05-01T15:12:43.966Z</time></trkpt><trkpt lat="48.8274973" lon="4.4284098"><ele>106.0</ele><time>2026-05-01T15:12:44.965Z</time></trkpt><trkpt lat="48.8273449" lon="4.4281467"><ele>106.0</ele><time>2026-05-01T15:12:45.964Z</time></trkpt><trkpt lat="48.8271944" lon="4.4278865"><ele>106.0</ele><time>2026-05-01T15:12:46.965Z</time></trkpt><trkpt lat="48.8270422" lon="4.4276203"><ele>106.0</ele><time>2026-05-01T15:12:47.962Z</time></trkpt><trkpt lat="48.8268964" lon="4.4273482"><ele>106.0</ele><time>2026-05-01T15:12:48.966Z</time></trkpt><trkpt lat="48.8267583" lon="4.427067"><ele>107.0</ele><time>2026-05-01T15:12:49.965Z</time></trkpt><trkpt lat="48.8266296" lon="4.4267767"><ele>108.0</ele><time>2026-05-01T15:12:50.984Z</time></trkpt><trkpt lat="48.8265012" lon="4.4264799"><ele>108.5</ele><time>2026-05-01T15:12:51.968Z</time></trkpt><trkpt lat="48.8263775" lon="4.4261814"><ele>109.0</ele><time>2026-05-01T15:12:52.962Z</time></trkpt><trkpt lat="48.8262515" lon="4.4258815"><ele>109.0</ele><time>2026-05-01T15:12:53.961Z</time></trkpt><trkpt lat="48.8261243" lon="4.4255827"><ele>109.0</ele><time>2026-05-01T15:12:54.967Z</time></trkpt><trkpt lat="48.8259938" lon="4.4252827"><ele>110.0</ele><time>2026-05-01T15:12:55.971Z</time></trkpt><trkpt lat="48.8258658" lon="4.4249819"><ele>111.0</ele><time>2026-05-01T15:12:56.962Z</time></trkpt><trkpt lat="48.8257359" lon="4.4246789"><ele>110.5</ele><time>2026-05-01T15:12:57.968Z</time></trkpt><trkpt lat="48.8256058" lon="4.4243766"><ele>110.0</ele><time>2026-05-01T15:12:58.962Z</time></trkpt><trkpt lat="48.8254711" lon="4.4240692"><ele>110.0</ele><time>2026-05-01T15:12:59.967Z</time></trkpt><trkpt lat="48.8253362" lon="4.4237619"><ele>110.0</ele><time>2026-05-01T15:13:00.969Z</time></trkpt><trkpt lat="48.8252036" lon="4.4234561"><ele>112.5</ele><time>2026-05-01T15:13:01.966Z</time></trkpt><trkpt lat="48.8250718" lon="4.4231575"><ele>115.0</ele><time>2026-05-01T15:13:02.966Z</time></trkpt><trkpt lat="48.8249403" lon="4.4228526"><ele>115.5</ele><time>2026-05-01T15:13:03.972Z</time></trkpt><trkpt lat="48.8248127" lon="4.4225475"><ele>116.0</ele><time>2026-05-01T15:13:04.966Z</time></trkpt><trkpt lat="48.8246871" lon="4.4222432"><ele>115.5</ele><time>2026-05-01T15:13:05.968Z</time></trkpt><trkpt lat="48.8245604" lon="4.4219401"><ele>115.0</ele><time>2026-05-01T15:13:06.962Z</time></trkpt><trkpt lat="48.8244361" lon="4.4216338"><ele>115.0</ele><time>2026-05-01T15:13:07.965Z</time></trkpt><trkpt lat="48.8243177" lon="4.4213292"><ele>115.0</ele><time>2026-05-01T15:13:08.966Z</time></trkpt><trkpt lat="48.8241944" lon="4.4210177"><ele>116.0</ele><time>2026-05-01T15:13:09.966Z</time></trkpt><trkpt lat="48.824071" lon="4.4207138"><ele>117.0</ele><time>2026-05-01T15:13:10.966Z</time></trkpt><trkpt lat="48.8239491" lon="4.4204073"><ele>117.0</ele><time>2026-05-01T15:13:11.96Z</time></trkpt><trkpt lat="48.8238283" lon="4.4201085"><ele>117.0</ele><time>2026-05-01T15:13:12.963Z</time></trkpt><trkpt lat="48.8236987" lon="4.4198192"><ele>116.5</ele><time>2026-05-01T15:13:13.977Z</time></trkpt><trkpt lat="48.8235525" lon="4.4195599"><ele>116.0</ele><time>2026-05-01T15:13:14.968Z</time></trkpt><trkpt lat="48.8233751" lon="4.4193365"><ele>118.0</ele><time>2026-05-01T15:13:15.968Z</time></trkpt><trkpt lat="48.8231892" lon="4.4191473"><ele>120.0</ele><time>2026-05-01T15:13:16.961Z</time></trkpt><trkpt lat="48.8229844" lon="4.4189776"><ele>120.0</ele><time>2026-05-01T15:13:17.974Z</time></trkpt><trkpt lat="48.8227797" lon="4.4188104"><ele>120.0</ele><time>2026-05-01T15:13:18.959Z</time></trkpt><trkpt lat="48.8225736" lon="4.4186493"><ele>120.5</ele><time>2026-05-01T15:13:19.96Z</time></trkpt><trkpt lat="48.8223603" lon="4.4184842"><ele>121.0</ele><time>2026-05-01T15:13:20.959Z</time></trkpt><trkpt lat="48.8221524" lon="4.4183128"><ele>121.0</ele><time>2026-05-01T15:13:21.979Z</time></trkpt><trkpt lat="48.8219432" lon="4.4181489"><ele>121.0</ele><time>2026-05-01T15:13:22.971Z</time></trkpt><trkpt lat="48.8217338" lon="4.4179836"><ele>121.0</ele><time>2026-05-01T15:13:23.962Z</time></trkpt><trkpt lat="48.8215309" lon="4.4178121"><ele>121.0</ele><time>2026-05-01T15:13:24.963Z</time></trkpt><trkpt lat="48.8213296" lon="4.4176336"><ele>121.0</ele><time>2026-05-01T15:13:25.962Z</time></trkpt><trkpt lat="48.8211544" lon="4.4173972"><ele>121.0</ele><time>2026-05-01T15:13:26.97Z</time></trkpt><trkpt lat="48.8210034" lon="4.4171362"><ele>121.0</ele><time>2026-05-01T15:13:27.98Z</time></trkpt><trkpt lat="48.8208849" lon="4.4168374"><ele>121.0</ele><time>2026-05-01T15:13:28.968Z</time></trkpt><trkpt lat="48.8207651" lon="4.4165311"><ele>121.5</ele><time>2026-05-01T15:13:29.977Z</time></trkpt><trkpt lat="48.8206474" lon="4.416227"><ele>122.0</ele><time>2026-05-01T15:13:30.965Z</time></trkpt><trkpt lat="48.8205239" lon="4.4159246"><ele>122.0</ele><time>2026-05-01T15:13:31.966Z</time></trkpt><trkpt lat="48.8204008" lon="4.4156251"><ele>122.0</ele><time>2026-05-01T15:13:32.998Z</time></trkpt><trkpt lat="48.8202817" lon="4.4153271"><ele>122.5</ele><time>2026-05-01T15:13:33.968Z</time></trkpt><trkpt lat="48.8201589" lon="4.4150315"><ele>123.0</ele><time>2026-05-01T15:13:34.966Z</time></trkpt><trkpt lat="48.820037" lon="4.4147307"><ele>123.5</ele><time>2026-05-01T15:13:35.971Z</time></trkpt><trkpt lat="48.8199209" lon="4.414435"><ele>124.0</ele><time>2026-05-01T15:13:36.963Z</time></trkpt><trkpt lat="48.8198018" lon="4.4141402"><ele>124.0</ele><time>2026-05-01T15:13:37.971Z</time></trkpt><trkpt lat="48.8196822" lon="4.4138437"><ele>124.0</ele><time>2026-05-01T15:13:38.963Z</time></trkpt><trkpt lat="48.8195657" lon="4.4135455"><ele>125.0</ele><time>2026-05-01T15:13:39.968Z</time></trkpt><trkpt lat="48.819449" lon="4.4132521"><ele>126.0</ele><time>2026-05-01T15:13:40.963Z</time></trkpt><trkpt lat="48.8193319" lon="4.4129567"><ele>125.5</ele><time>2026-05-01T15:13:41.966Z</time></trkpt><trkpt lat="48.8192153" lon="4.4126669"><ele>125.0</ele><time>2026-05-01T15:13:42.96Z</time></trkpt><trkpt lat="48.8190962" lon="4.4123702"><ele>125.66666666666666</ele><time>2026-05-01T15:13:43.962Z</time></trkpt><trkpt lat="48.8189843" lon="4.4120793"><ele>126.33333333333334</ele><time>2026-05-01T15:13:44.963Z</time></trkpt><trkpt lat="48.8188688" lon="4.4117857"><ele>127.0</ele><time>2026-05-01T15:13:45.968Z</time></trkpt><trkpt lat="48.8187539" lon="4.411497"><ele>127.33333333333334</ele><time>2026-05-01T15:13:46.971Z</time></trkpt><trkpt lat="48.8186373" lon="4.4112065"><ele>127.66666666666666</ele><time>2026-05-01T15:13:47.96Z</time></trkpt><trkpt lat="48.8185202" lon="4.4109156"><ele>128.0</ele><time>2026-05-01T15:13:48.962Z</time></trkpt><trkpt lat="48.818404" lon="4.4106303"><ele>127.66666666666666</ele><time>2026-05-01T15:13:49.964Z</time></trkpt><trkpt lat="48.8182866" lon="4.410343"><ele>127.33333333333334</ele><time>2026-05-01T15:13:50.972Z</time></trkpt><trkpt lat="48.8181718" lon="4.4100477"><ele>127.0</ele><time>2026-05-01T15:13:51.969Z</time></trkpt><trkpt lat="48.8180546" lon="4.4097517"><ele>128.0</ele><time>2026-05-01T15:13:52.975Z</time></trkpt><trkpt lat="48.8179377" lon="4.4094618"><ele>129.0</ele><time>2026-05-01T15:13:53.964Z</time></trkpt><trkpt lat="48.8178245" lon="4.4091707"><ele>130.0</ele><time>2026-05-01T15:13:54.962Z</time></trkpt><trkpt lat="48.8177064" lon="4.4088774"><ele>129.66666666666669</ele><time>2026-05-01T15:13:55.966Z</time></trkpt><trkpt lat="48.8175897" lon="4.4085911"><ele>129.33333333333334</ele><time>2026-05-01T15:13:56.97Z</time></trkpt><trkpt lat="48.8174752" lon="4.4082969"><ele>129.0</ele><time>2026-05-01T15:13:57.965Z</time></trkpt><trkpt lat="48.8173555" lon="4.4080118"><ele>129.33333333333334</ele><time>2026-05-01T15:13:58.962Z</time></trkpt><trkpt lat="48.8172382" lon="4.4077227"><ele>129.66666666666669</ele><time>2026-05-01T15:13:59.965Z</time></trkpt><trkpt lat="48.817127" lon="4.4074246"><ele>130.0</ele><time>2026-05-01T15:14:00.964Z</time></trkpt><trkpt lat="48.8170268" lon="4.4071229"><ele>130.66666666666669</ele><time>2026-05-01T15:14:01.964Z</time></trkpt><trkpt lat="48.8169314" lon="4.4068064"><ele>131.33333333333334</ele><time>2026-05-01T15:14:02.989Z</time></trkpt><trkpt lat="48.8168522" lon="4.4064956"><ele>132.0</ele><time>2026-05-01T15:14:03.965Z</time></trkpt><trkpt lat="48.8167745" lon="4.4061753"><ele>132.0</ele><time>2026-05-01T15:14:04.97Z</time></trkpt><trkpt lat="48.8166971" lon="4.405859"><ele>132.0</ele><time>2026-05-01T15:14:05.968Z</time></trkpt><trkpt lat="48.8166158" lon="4.4055416"><ele>132.0</ele><time>2026-05-01T15:14:06.963Z</time></trkpt><trkpt lat="48.8165323" lon="4.4052255"><ele>132.0</ele><time>2026-05-01T15:14:07.966Z</time></trkpt><trkpt lat="48.8164476" lon="4.404911"><ele>132.0</ele><time>2026-05-01T15:14:08.964Z</time></trkpt><trkpt lat="48.8163658" lon="4.4045931"><ele>132.0</ele><time>2026-05-01T15:14:09.962Z</time></trkpt><trkpt lat="48.8162843" lon="4.4042746"><ele>132.33333333333334</ele><time>2026-05-01T15:14:10.962Z</time></trkpt><trkpt lat="48.816204" lon="4.403959"><ele>132.66666666666669</ele><time>2026-05-01T15:14:11.966Z</time></trkpt><trkpt lat="48.8161254" lon="4.4036417"><ele>133.0</ele><time>2026-05-01T15:14:12.965Z</time></trkpt><trkpt lat="48.816044" lon="4.4033232"><ele>133.0</ele><time>2026-05-01T15:14:13.959Z</time></trkpt><trkpt lat="48.8159616" lon="4.4030096"><ele>133.0</ele><time>2026-05-01T15:14:14.968Z</time></trkpt><trkpt lat="48.8158771" lon="4.4026985"><ele>133.0</ele><time>2026-05-01T15:14:15.959Z</time></trkpt><trkpt lat="48.8157966" lon="4.4023882"><ele>134.0</ele><time>2026-05-01T15:14:16.969Z</time></trkpt><trkpt lat="48.8157142" lon="4.4020738"><ele>135.0</ele><time>2026-05-01T15:14:17.966Z</time></trkpt><trkpt lat="48.8156323" lon="4.4017602"><ele>136.0</ele><time>2026-05-01T15:14:18.96Z</time></trkpt><trkpt lat="48.815547" lon="4.4014415"><ele>137.5</ele><time>2026-05-01T15:14:19.968Z</time></trkpt><trkpt lat="48.8154585" lon="4.4011249"><ele>139.0</ele><time>2026-05-01T15:14:20.955Z</time></trkpt><trkpt lat="48.8153679" lon="4.4008092"><ele>140.0</ele><time>2026-05-01T15:14:21.966Z</time></trkpt><trkpt lat="48.8152742" lon="4.4004961"><ele>141.0</ele><time>2026-05-01T15:14:22.966Z</time></trkpt><trkpt lat="48.8151748" lon="4.4001879"><ele>140.66666666666666</ele><time>2026-05-01T15:14:23.966Z</time></trkpt><trkpt lat="48.8150767" lon="4.3998826"><ele>140.33333333333331</ele><time>2026-05-01T15:14:24.962Z</time></trkpt><trkpt lat="48.8149791" lon="4.3995761"><ele>140.0</ele><time>2026-05-01T15:14:25.965Z</time></trkpt><trkpt lat="48.8148825" lon="4.3992745"><ele>140.0</ele><time>2026-05-01T15:14:26.962Z</time></trkpt><trkpt lat="48.814788" lon="4.3989766"><ele>140.0</ele><time>2026-05-01T15:14:27.961Z</time></trkpt><trkpt lat="48.8146823" lon="4.3986841"><ele>140.0</ele><time>2026-05-01T15:14:28.961Z</time></trkpt><trkpt lat="48.8145643" lon="4.3984181"><ele>141.66666666666666</ele><time>2026-05-01T15:14:29.966Z</time></trkpt><trkpt lat="48.8144184" lon="4.3981814"><ele>143.33333333333334</ele><time>2026-05-01T15:14:30.958Z</time></trkpt><trkpt lat="48.8142633" lon="4.3979879"><ele>145.0</ele><time>2026-05-01T15:14:31.962Z</time></trkpt><trkpt lat="48.8140863" lon="4.3978313"><ele>145.0</ele><time>2026-05-01T15:14:32.968Z</time></trkpt><trkpt lat="48.8138879" lon="4.3976896"><ele>145.0</ele><time>2026-05-01T15:14:33.965Z</time></trkpt><trkpt lat="48.8136903" lon="4.3975486"><ele>145.0</ele><time>2026-05-01T15:14:34.969Z</time></trkpt><trkpt lat="48.813493" lon="4.3974049"><ele>145.0</ele><time>2026-05-01T15:14:35.966Z</time></trkpt><trkpt lat="48.81329" lon="4.3972544"><ele>145.0</ele><time>2026-05-01T15:14:36.965Z</time></trkpt><trkpt lat="48.8130877" lon="4.3971037"><ele>145.0</ele><time>2026-05-01T15:14:37.968Z</time></trkpt><trkpt lat="48.8128888" lon="4.3969464"><ele>145.0</ele><time>2026-05-01T15:14:38.965Z</time></trkpt><trkpt lat="48.8126871" lon="4.3967899"><ele>143.0</ele><time>2026-05-01T15:14:39.958Z</time></trkpt><trkpt lat="48.8124826" lon="4.3966396"><ele>141.0</ele><time>2026-05-01T15:14:40.965Z</time></trkpt><trkpt lat="48.8122796" lon="4.3964856"><ele>143.0</ele><time>2026-05-01T15:14:41.961Z</time></trkpt><trkpt lat="48.8120749" lon="4.396328"><ele>145.0</ele><time>2026-05-01T15:14:42.963Z</time></trkpt><trkpt lat="48.8118728" lon="4.3961704"><ele>144.5</ele><time>2026-05-01T15:14:43.968Z</time></trkpt><trkpt lat="48.8116685" lon="4.3960134"><ele>144.0</ele><time>2026-05-01T15:14:44.969Z</time></trkpt><trkpt lat="48.8114599" lon="4.3958579"><ele>144.0</ele><time>2026-05-01T15:14:45.97Z</time></trkpt><trkpt lat="48.8112515" lon="4.395702"><ele>144.0</ele><time>2026-05-01T15:14:46.977Z</time></trkpt><trkpt lat="48.8110411" lon="4.3955476"><ele>145.5</ele><time>2026-05-01T15:14:47.966Z</time></trkpt><trkpt lat="48.8108366" lon="4.3953873"><ele>147.0</ele><time>2026-05-01T15:14:48.966Z</time></trkpt><trkpt lat="48.8106322" lon="4.3952345"><ele>147.0</ele><time>2026-05-01T15:14:49.967Z</time></trkpt><trkpt lat="48.810427" lon="4.395082"><ele>147.0</ele><time>2026-05-01T15:14:50.959Z</time></trkpt><trkpt lat="48.8102212" lon="4.3949429"><ele>147.0</ele><time>2026-05-01T15:14:51.967Z</time></trkpt><trkpt lat="48.810012" lon="4.3948294"><ele>147.0</ele><time>2026-05-01T15:14:52.965Z</time></trkpt><trkpt lat="48.8097919" lon="4.3947385"><ele>147.5</ele><time>2026-05-01T15:14:53.974Z</time></trkpt><trkpt lat="48.8095685" lon="4.3946628"><ele>148.0</ele><time>2026-05-01T15:14:54.961Z</time></trkpt><trkpt lat="48.8093481" lon="4.3945836"><ele>149.0</ele><time>2026-05-01T15:14:55.962Z</time></trkpt><trkpt lat="48.8091264" lon="4.3944991"><ele>150.0</ele><time>2026-05-01T15:14:56.967Z</time></trkpt><trkpt lat="48.8089053" lon="4.3944123"><ele>150.0</ele><time>2026-05-01T15:14:57.963Z</time></trkpt><trkpt lat="48.8086856" lon="4.394328"><ele>150.0</ele><time>2026-05-01T15:14:58.963Z</time></trkpt><trkpt lat="48.8084635" lon="4.3942438"><ele>150.0</ele><time>2026-05-01T15:14:59.966Z</time></trkpt><trkpt lat="48.8082385" lon="4.3941674"><ele>150.0</ele><time>2026-05-01T15:15:00.967Z</time></trkpt><trkpt lat="48.8080093" lon="4.3940832"><ele>150.0</ele><time>2026-05-01T15:15:01.963Z</time></trkpt><trkpt lat="48.8077816" lon="4.3940006"><ele>150.0</ele><time>2026-05-01T15:15:02.96Z</time></trkpt><trkpt lat="48.8075516" lon="4.3939183"><ele>151.0</ele><time>2026-05-01T15:15:03.972Z</time></trkpt><trkpt lat="48.8073245" lon="4.3938347"><ele>152.0</ele><time>2026-05-01T15:15:04.97Z</time></trkpt><trkpt lat="48.807097" lon="4.3937504"><ele>152.0</ele><time>2026-05-01T15:15:05.963Z</time></trkpt><trkpt lat="48.8068706" lon="4.3936738"><ele>152.0</ele><time>2026-05-01T15:15:06.963Z</time></trkpt><trkpt lat="48.8066419" lon="4.3935925"><ele>151.5</ele><time>2026-05-01T15:15:07.966Z</time></trkpt><trkpt lat="48.8064112" lon="4.3935089"><ele>151.0</ele><time>2026-05-01T15:15:08.963Z</time></trkpt><trkpt lat="48.8061847" lon="4.3934348"><ele>151.5</ele><time>2026-05-01T15:15:09.962Z</time></trkpt><trkpt lat="48.8059619" lon="4.393364"><ele>152.0</ele><time>2026-05-01T15:15:10.963Z</time></trkpt><trkpt lat="48.8057379" lon="4.3932884"><ele>152.0</ele><time>2026-05-01T15:15:11.967Z</time></trkpt><trkpt lat="48.8055149" lon="4.3932049"><ele>152.0</ele><time>2026-05-01T15:15:12.958Z</time></trkpt><trkpt lat="48.8052905" lon="4.3931255"><ele>154.5</ele><time>2026-05-01T15:15:13.968Z</time></trkpt><trkpt lat="48.8050665" lon="4.3930434"><ele>157.0</ele><time>2026-05-01T15:15:14.972Z</time></trkpt><trkpt lat="48.8048389" lon="4.3929643"><ele>157.5</ele><time>2026-05-01T15:15:15.966Z</time></trkpt><trkpt lat="48.8046124" lon="4.3928839"><ele>158.0</ele><time>2026-05-01T15:15:16.961Z</time></trkpt><trkpt lat="48.8043891" lon="4.3927982"><ele>159.0</ele><time>2026-05-01T15:15:17.963Z</time></trkpt><trkpt lat="48.8041655" lon="4.3927136"><ele>160.0</ele><time>2026-05-01T15:15:18.96Z</time></trkpt><trkpt lat="48.8039393" lon="4.3926336"><ele>160.0</ele><time>2026-05-01T15:15:19.962Z</time></trkpt><trkpt lat="48.8037168" lon="4.3925559"><ele>160.0</ele><time>2026-05-01T15:15:20.966Z</time></trkpt><trkpt lat="48.8034955" lon="4.3924768"><ele>161.5</ele><time>2026-05-01T15:15:21.96Z</time></trkpt><trkpt lat="48.8032753" lon="4.3923978"><ele>163.0</ele><time>2026-05-01T15:15:22.964Z</time></trkpt><trkpt lat="48.8030563" lon="4.3923163"><ele>163.0</ele><time>2026-05-01T15:15:23.966Z</time></trkpt><trkpt lat="48.8028382" lon="4.3922341"><ele>163.0</ele><time>2026-05-01T15:15:24.968Z</time></trkpt><trkpt lat="48.8026284" lon="4.3921592"><ele>163.0</ele><time>2026-05-01T15:15:25.965Z</time></trkpt><trkpt lat="48.8024219" lon="4.392085"><ele>162.33333333333334</ele><time>2026-05-01T15:15:26.958Z</time></trkpt><trkpt lat="48.8022202" lon="4.39201"><ele>161.66666666666666</ele><time>2026-05-01T15:15:27.962Z</time></trkpt><trkpt lat="48.8020203" lon="4.3919373"><ele>161.0</ele><time>2026-05-01T15:15:28.963Z</time></trkpt><trkpt lat="48.8018188" lon="4.391867"><ele>159.0</ele><time>2026-05-01T15:15:29.962Z</time></trkpt><trkpt lat="48.801621" lon="4.3918023"><ele>157.0</ele><time>2026-05-01T15:15:30.965Z</time></trkpt><trkpt lat="48.8014286" lon="4.3917409"><ele>155.0</ele><time>2026-05-01T15:15:31.973Z</time></trkpt><trkpt lat="48.8012344" lon="4.3916482"><ele>155.0</ele><time>2026-05-01T15:15:32.965Z</time></trkpt><trkpt lat="48.8010633" lon="4.3914969"><ele>155.0</ele><time>2026-05-01T15:15:33.966Z</time></trkpt><trkpt lat="48.8008995" lon="4.3912942"><ele>155.0</ele><time>2026-05-01T15:15:34.961Z</time></trkpt><trkpt lat="48.8007577" lon="4.3910645"><ele>154.33333333333331</ele><time>2026-05-01T15:15:35.964Z</time></trkpt><trkpt lat="48.8006128" lon="4.3908264"><ele>153.66666666666666</ele><time>2026-05-01T15:15:36.999Z</time></trkpt><trkpt lat="48.8004637" lon="4.390594"><ele>153.0</ele><time>2026-05-01T15:15:37.967Z</time></trkpt><trkpt lat="48.8003165" lon="4.3903584"><ele>152.33333333333334</ele><time>2026-05-01T15:15:38.964Z</time></trkpt><trkpt lat="48.8001689" lon="4.3901091"><ele>151.66666666666669</ele><time>2026-05-01T15:15:39.966Z</time></trkpt><trkpt lat="48.8000171" lon="4.3898655"><ele>151.0</ele><time>2026-05-01T15:15:40.967Z</time></trkpt><trkpt lat="48.7998739" lon="4.3896247"><ele>149.0</ele><time>2026-05-01T15:15:41.969Z</time></trkpt><trkpt lat="48.7997303" lon="4.3893859"><ele>147.0</ele><time>2026-05-01T15:15:42.97Z</time></trkpt><trkpt lat="48.7995938" lon="4.3891573"><ele>145.0</ele><time>2026-05-01T15:15:43.964Z</time></trkpt><trkpt lat="48.7994576" lon="4.3889326"><ele>143.0</ele><time>2026-05-01T15:15:44.972Z</time></trkpt><trkpt lat="48.7993233" lon="4.3887173"><ele>141.0</ele><time>2026-05-01T15:15:45.976Z</time></trkpt><trkpt lat="48.7991922" lon="4.3885088"><ele>139.0</ele><time>2026-05-01T15:15:46.973Z</time></trkpt><trkpt lat="48.7990595" lon="4.3883006"><ele>139.0</ele><time>2026-05-01T15:15:47.975Z</time></trkpt><trkpt lat="48.7989314" lon="4.3880961"><ele>139.0</ele><time>2026-05-01T15:15:48.965Z</time></trkpt><trkpt lat="48.7987987" lon="4.3878966"><ele>139.0</ele><time>2026-05-01T15:15:49.962Z</time></trkpt><trkpt lat="48.798677" lon="4.3876904"><ele>138.0</ele><time>2026-05-01T15:15:50.962Z</time></trkpt><trkpt lat="48.7985645" lon="4.3874773"><ele>137.0</ele><time>2026-05-01T15:15:51.967Z</time></trkpt><trkpt lat="48.7984724" lon="4.387257"><ele>136.0</ele><time>2026-05-01T15:15:52.963Z</time></trkpt><trkpt lat="48.7984096" lon="4.3870191"><ele>133.0</ele><time>2026-05-01T15:15:53.963Z</time></trkpt><trkpt lat="48.798367" lon="4.3867804"><ele>130.0</ele><time>2026-05-01T15:15:54.967Z</time></trkpt><trkpt lat="48.7983395" lon="4.386528"><ele>127.0</ele><time>2026-05-01T15:15:55.969Z</time></trkpt><trkpt lat="48.7983045" lon="4.3862866"><ele>127.0</ele><time>2026-05-01T15:15:56.963Z</time></trkpt><trkpt lat="48.7982513" lon="4.3860577"><ele>127.0</ele><time>2026-05-01T15:15:57.967Z</time></trkpt><trkpt lat="48.7981842" lon="4.385858"><ele>127.0</ele><time>2026-05-01T15:15:58.963Z</time></trkpt><trkpt lat="48.7981206" lon="4.3856675"><ele>127.0</ele><time>2026-05-01T15:15:59.964Z</time></trkpt><trkpt lat="48.7980584" lon="4.3854894"><ele>127.0</ele><time>2026-05-01T15:16:00.966Z</time></trkpt><trkpt lat="48.7979909" lon="4.3853209"><ele>127.0</ele><time>2026-05-01T15:16:01.989Z</time></trkpt><trkpt lat="48.7979212" lon="4.3851681"><ele>127.0</ele><time>2026-05-01T15:16:02.964Z</time></trkpt><trkpt lat="48.7978483" lon="4.3850255"><ele>127.0</ele><time>2026-05-01T15:16:03.961Z</time></trkpt><trkpt lat="48.7977748" lon="4.384886"><ele>127.00000000000001</ele><time>2026-05-01T15:16:04.967Z</time></trkpt><trkpt lat="48.7977086" lon="4.3847639"><ele>127.0</ele><time>2026-05-01T15:16:05.965Z</time></trkpt><trkpt lat="48.7976467" lon="4.3846554"><ele>127.0</ele><time>2026-05-01T15:16:06.969Z</time></trkpt><trkpt lat="48.7975879" lon="4.3845587"><ele>127.0</ele><time>2026-05-01T15:16:07.962Z</time></trkpt><trkpt lat="48.7975408" lon="4.3844734"><ele>127.00000000000001</ele><time>2026-05-01T15:16:08.96Z</time></trkpt><trkpt lat="48.7974935" lon="4.3843819"><ele>127.0</ele><time>2026-05-01T15:16:09.966Z</time></trkpt><trkpt lat="48.7974565" lon="4.3842713"><ele>127.0</ele><time>2026-05-01T15:16:10.965Z</time></trkpt><trkpt lat="48.7974377" lon="4.3841379"><ele>126.99999999999999</ele><time>2026-05-01T15:16:11.964Z</time></trkpt><trkpt lat="48.7974281" lon="4.3839978"><ele>126.99999999999999</ele><time>2026-05-01T15:16:12.962Z</time></trkpt><trkpt lat="48.7974106" lon="4.383853"><ele>127.0</ele><time>2026-05-01T15:16:13.962Z</time></trkpt><trkpt lat="48.797392" lon="4.383694"><ele>127.0</ele><time>2026-05-01T15:16:14.974Z</time></trkpt><trkpt lat="48.7973652" lon="4.3835264"><ele>126.8</ele><time>2026-05-01T15:16:15.958Z</time></trkpt><trkpt lat="48.7973366" lon="4.383372"><ele>126.6</ele><time>2026-05-01T15:16:16.964Z</time></trkpt><trkpt lat="48.797316" lon="4.3832196"><ele>126.39999999999999</ele><time>2026-05-01T15:16:17.965Z</time></trkpt><trkpt lat="48.7972909" lon="4.383058"><ele>126.19999999999999</ele><time>2026-05-01T15:16:18.969Z</time></trkpt><trkpt lat="48.797262" lon="4.3829007"><ele>126.0</ele><time>2026-05-01T15:16:19.967Z</time></trkpt><trkpt lat="48.7972331" lon="4.3827329"><ele>125.75</ele><time>2026-05-01T15:16:20.964Z</time></trkpt><trkpt lat="48.7972031" lon="4.3825677"><ele>125.5</ele><time>2026-05-01T15:16:21.965Z</time></trkpt><trkpt lat="48.7971734" lon="4.3823929"><ele>125.25</ele><time>2026-05-01T15:16:22.967Z</time></trkpt><trkpt lat="48.797147" lon="4.3822151"><ele>125.0</ele><time>2026-05-01T15:16:23.967Z</time></trkpt><trkpt lat="48.7971132" lon="4.3820305"><ele>124.25</ele><time>2026-05-01T15:16:24.964Z</time></trkpt><trkpt lat="48.7970756" lon="4.3818572"><ele>123.5</ele><time>2026-05-01T15:16:25.967Z</time></trkpt><trkpt lat="48.7970397" lon="4.3816858"><ele>122.75</ele><time>2026-05-01T15:16:26.973Z</time></trkpt><trkpt lat="48.7970101" lon="4.3815255"><ele>122.0</ele><time>2026-05-01T15:16:27.966Z</time></trkpt><trkpt lat="48.7969966" lon="4.3813578"><ele>122.0</ele><time>2026-05-01T15:16:28.966Z</time></trkpt><trkpt lat="48.7970122" lon="4.3811846"><ele>122.0</ele><time>2026-05-01T15:16:29.967Z</time></trkpt><trkpt lat="48.7970592" lon="4.3810264"><ele>122.0</ele><time>2026-05-01T15:16:30.964Z</time></trkpt><trkpt lat="48.7971371" lon="4.3808935"><ele>122.0</ele><time>2026-05-01T15:16:31.965Z</time></trkpt><trkpt lat="48.797245" lon="4.3807907"><ele>122.0</ele><time>2026-05-01T15:16:32.97Z</time></trkpt><trkpt lat="48.7973546" lon="4.3807051"><ele>122.0</ele><time>2026-05-01T15:16:34.008Z</time></trkpt><trkpt lat="48.7974726" lon="4.3806387"><ele>122.0</ele><time>2026-05-01T15:16:34.971Z</time></trkpt><trkpt lat="48.7975997" lon="4.3805739"><ele>122.0</ele><time>2026-05-01T15:16:35.969Z</time></trkpt><trkpt lat="48.7977224" lon="4.3805085"><ele>122.5</ele><time>2026-05-01T15:16:36.969Z</time></trkpt><trkpt lat="48.7978472" lon="4.3804481"><ele>123.0</ele><time>2026-05-01T15:16:37.962Z</time></trkpt><trkpt lat="48.7979724" lon="4.3803807"><ele>123.5</ele><time>2026-05-01T15:16:38.963Z</time></trkpt><trkpt lat="48.7980971" lon="4.3803095"><ele>124.0</ele><time>2026-05-01T15:16:39.97Z</time></trkpt><trkpt lat="48.7982217" lon="4.3802226"><ele>124.0</ele><time>2026-05-01T15:16:40.966Z</time></trkpt><trkpt lat="48.7983439" lon="4.3801277"><ele>124.0</ele><time>2026-05-01T15:16:41.964Z</time></trkpt><trkpt lat="48.798463" lon="4.3800232"><ele>124.0</ele><time>2026-05-01T15:16:42.966Z</time></trkpt><trkpt lat="48.7985664" lon="4.379901"><ele>124.0</ele><time>2026-05-01T15:16:43.967Z</time></trkpt><trkpt lat="48.7986791" lon="4.3797648"><ele>125.66666666666667</ele><time>2026-05-01T15:16:44.971Z</time></trkpt><trkpt lat="48.7987938" lon="4.3796188"><ele>127.33333333333334</ele><time>2026-05-01T15:16:45.968Z</time></trkpt><trkpt lat="48.7989275" lon="4.3794708"><ele>129.0</ele><time>2026-05-01T15:16:46.97Z</time></trkpt><trkpt lat="48.7990733" lon="4.3793415"><ele>129.0</ele><time>2026-05-01T15:16:47.973Z</time></trkpt><trkpt lat="48.7992339" lon="4.3792371"><ele>129.0</ele><time>2026-05-01T15:16:48.967Z</time></trkpt><trkpt lat="48.7994002" lon="4.3791324"><ele>129.0</ele><time>2026-05-01T15:16:49.967Z</time></trkpt><trkpt lat="48.7995814" lon="4.3790298"><ele>128.66666666666666</ele><time>2026-05-01T15:16:50.967Z</time></trkpt><trkpt lat="48.7997578" lon="4.3789127"><ele>128.33333333333331</ele><time>2026-05-01T15:16:51.966Z</time></trkpt><trkpt lat="48.7999435" lon="4.3787962"><ele>128.0</ele><time>2026-05-01T15:16:52.962Z</time></trkpt><trkpt lat="48.8001281" lon="4.3786761"><ele>127.0</ele><time>2026-05-01T15:16:53.969Z</time></trkpt><trkpt lat="48.8003207" lon="4.3785637"><ele>126.0</ele><time>2026-05-01T15:16:54.993Z</time></trkpt><trkpt lat="48.800512" lon="4.3784476"><ele>125.0</ele><time>2026-05-01T15:16:55.967Z</time></trkpt><trkpt lat="48.8007072" lon="4.3783252"><ele>125.0</ele><time>2026-05-01T15:16:56.964Z</time></trkpt><trkpt lat="48.8009038" lon="4.3782056"><ele>125.0</ele><time>2026-05-01T15:16:57.963Z</time></trkpt><trkpt lat="48.801099" lon="4.3780857"><ele>125.0</ele><time>2026-05-01T15:16:58.963Z</time></trkpt><trkpt lat="48.8012964" lon="4.3779604"><ele>125.33333333333333</ele><time>2026-05-01T15:16:59.966Z</time></trkpt><trkpt lat="48.8014933" lon="4.3778429"><ele>125.66666666666666</ele><time>2026-05-01T15:17:00.961Z</time></trkpt><trkpt lat="48.8016905" lon="4.3777228"><ele>126.0</ele><time>2026-05-01T15:17:01.961Z</time></trkpt><trkpt lat="48.8018842" lon="4.3776016"><ele>125.33333333333334</ele><time>2026-05-01T15:17:02.962Z</time></trkpt><trkpt lat="48.8020731" lon="4.3774619"><ele>124.66666666666667</ele><time>2026-05-01T15:17:03.969Z</time></trkpt><trkpt lat="48.8022618" lon="4.3773048"><ele>124.0</ele><time>2026-05-01T15:17:04.962Z</time></trkpt><trkpt lat="48.8024344" lon="4.3771208"><ele>124.0</ele><time>2026-05-01T15:17:05.964Z</time></trkpt><trkpt lat="48.8025983" lon="4.3769008"><ele>124.0</ele><time>2026-05-01T15:17:06.994Z</time></trkpt><trkpt lat="48.8027408" lon="4.3766488"><ele>124.0</ele><time>2026-05-01T15:17:07.966Z</time></trkpt><trkpt lat="48.8028811" lon="4.376378"><ele>122.33333333333334</ele><time>2026-05-01T15:17:08.964Z</time></trkpt><trkpt lat="48.8030167" lon="4.3761134"><ele>120.66666666666666</ele><time>2026-05-01T15:17:09.964Z</time></trkpt><trkpt lat="48.8031664" lon="4.3758565"><ele>119.0</ele><time>2026-05-01T15:17:10.969Z</time></trkpt><trkpt lat="48.8033212" lon="4.3756351"><ele>119.66666666666666</ele><time>2026-05-01T15:17:11.966Z</time></trkpt><trkpt lat="48.8034957" lon="4.3754393"><ele>120.33333333333334</ele><time>2026-05-01T15:17:12.961Z</time></trkpt><trkpt lat="48.8036845" lon="4.3752659"><ele>121.0</ele><time>2026-05-01T15:17:13.964Z</time></trkpt><trkpt lat="48.8038841" lon="4.3751168"><ele>121.0</ele><time>2026-05-01T15:17:14.968Z</time></trkpt><trkpt lat="48.8040828" lon="4.3749753"><ele>121.0</ele><time>2026-05-01T15:17:15.962Z</time></trkpt><trkpt lat="48.8042778" lon="4.3748314"><ele>121.0</ele><time>2026-05-01T15:17:16.961Z</time></trkpt><trkpt lat="48.8044758" lon="4.3746926"><ele>121.33333333333334</ele><time>2026-05-01T15:17:17.963Z</time></trkpt><trkpt lat="48.8046699" lon="4.374557"><ele>121.66666666666666</ele><time>2026-05-01T15:17:18.972Z</time></trkpt><trkpt lat="48.8048691" lon="4.3744257"><ele>122.0</ele><time>2026-05-01T15:17:19.965Z</time></trkpt><trkpt lat="48.8050733" lon="4.3742975"><ele>121.66666666666666</ele><time>2026-05-01T15:17:20.966Z</time></trkpt><trkpt lat="48.8052765" lon="4.3741753"><ele>121.33333333333334</ele><time>2026-05-01T15:17:21.962Z</time></trkpt><trkpt lat="48.8054819" lon="4.374065"><ele>121.0</ele><time>2026-05-01T15:17:22.969Z</time></trkpt><trkpt lat="48.8056935" lon="4.373979"><ele>121.0</ele><time>2026-05-01T15:17:23.966Z</time></trkpt><trkpt lat="48.8059098" lon="4.3739062"><ele>121.0</ele><time>2026-05-01T15:17:24.962Z</time></trkpt><trkpt lat="48.8061341" lon="4.3738411"><ele>122.0</ele><time>2026-05-01T15:17:25.969Z</time></trkpt><trkpt lat="48.8063555" lon="4.3737771"><ele>123.0</ele><time>2026-05-01T15:17:26.972Z</time></trkpt><trkpt lat="48.8065765" lon="4.3737176"><ele>123.0</ele><time>2026-05-01T15:17:27.963Z</time></trkpt><trkpt lat="48.8067913" lon="4.3736518"><ele>123.0</ele><time>2026-05-01T15:17:28.96Z</time></trkpt><trkpt lat="48.8070059" lon="4.3735609"><ele>123.0</ele><time>2026-05-01T15:17:29.966Z</time></trkpt><trkpt lat="48.8072193" lon="4.3734496"><ele>121.5</ele><time>2026-05-01T15:17:30.966Z</time></trkpt><trkpt lat="48.8074306" lon="4.3733215"><ele>120.0</ele><time>2026-05-01T15:17:31.964Z</time></trkpt><trkpt lat="48.80764" lon="4.3731715"><ele>120.0</ele><time>2026-05-01T15:17:32.964Z</time></trkpt><trkpt lat="48.807848" lon="4.3730134"><ele>120.0</ele><time>2026-05-01T15:17:33.982Z</time></trkpt><trkpt lat="48.8080551" lon="4.3728543"><ele>120.0</ele><time>2026-05-01T15:17:34.966Z</time></trkpt><trkpt lat="48.8082568" lon="4.3726945"><ele>120.0</ele><time>2026-05-01T15:17:35.964Z</time></trkpt><trkpt lat="48.8084568" lon="4.3725283"><ele>120.0</ele><time>2026-05-01T15:17:36.988Z</time></trkpt><trkpt lat="48.8086509" lon="4.3723504"><ele>120.0</ele><time>2026-05-01T15:17:37.964Z</time></trkpt><trkpt lat="48.8088436" lon="4.3721621"><ele>120.5</ele><time>2026-05-01T15:17:38.976Z</time></trkpt><trkpt lat="48.8090315" lon="4.3719643"><ele>121.0</ele><time>2026-05-01T15:17:39.979Z</time></trkpt><trkpt lat="48.8092181" lon="4.3717571"><ele>118.0</ele><time>2026-05-01T15:17:40.968Z</time></trkpt><trkpt lat="48.8094061" lon="4.3715546"><ele>115.0</ele><time>2026-05-01T15:17:41.963Z</time></trkpt><trkpt lat="48.8095969" lon="4.3713669"><ele>116.5</ele><time>2026-05-01T15:17:42.967Z</time></trkpt><trkpt lat="48.809792" lon="4.3711857"><ele>118.0</ele><time>2026-05-01T15:17:43.963Z</time></trkpt><trkpt lat="48.8099901" lon="4.3710177"><ele>117.0</ele><time>2026-05-01T15:17:44.967Z</time></trkpt><trkpt lat="48.8101884" lon="4.3708451"><ele>116.0</ele><time>2026-05-01T15:17:45.961Z</time></trkpt><trkpt lat="48.8103805" lon="4.370669"><ele>117.5</ele><time>2026-05-01T15:17:46.968Z</time></trkpt><trkpt lat="48.810575" lon="4.3704967"><ele>119.0</ele><time>2026-05-01T15:17:47.962Z</time></trkpt><trkpt lat="48.8107732" lon="4.3703253"><ele>119.0</ele><time>2026-05-01T15:17:48.965Z</time></trkpt><trkpt lat="48.8109731" lon="4.3701594"><ele>119.0</ele><time>2026-05-01T15:17:49.966Z</time></trkpt><trkpt lat="48.811173" lon="4.3699884"><ele>119.0</ele><time>2026-05-01T15:17:50.969Z</time></trkpt><trkpt lat="48.8113709" lon="4.369817"><ele>119.0</ele><time>2026-05-01T15:17:51.969Z</time></trkpt><trkpt lat="48.8115697" lon="4.3696539"><ele>120.5</ele><time>2026-05-01T15:17:52.967Z</time></trkpt><trkpt lat="48.8117686" lon="4.3694825"><ele>122.0</ele><time>2026-05-01T15:17:53.966Z</time></trkpt><trkpt lat="48.8119673" lon="4.3693136"><ele>122.0</ele><time>2026-05-01T15:17:54.97Z</time></trkpt><trkpt lat="48.8121594" lon="4.3691454"><ele>122.0</ele><time>2026-05-01T15:17:55.969Z</time></trkpt><trkpt lat="48.812346" lon="4.3689612"><ele>122.0</ele><time>2026-05-01T15:17:56.966Z</time></trkpt><trkpt lat="48.8125231" lon="4.3687545"><ele>121.0</ele><time>2026-05-01T15:17:57.963Z</time></trkpt><trkpt lat="48.8126803" lon="4.3685245"><ele>120.0</ele><time>2026-05-01T15:17:58.964Z</time></trkpt><trkpt lat="48.812841" lon="4.3682765"><ele>119.0</ele><time>2026-05-01T15:17:59.966Z</time></trkpt><trkpt lat="48.8129933" lon="4.3680306"><ele>120.0</ele><time>2026-05-01T15:18:00.964Z</time></trkpt><trkpt lat="48.813149" lon="4.3677877"><ele>121.0</ele><time>2026-05-01T15:18:01.966Z</time></trkpt><trkpt lat="48.8133007" lon="4.3675388"><ele>122.0</ele><time>2026-05-01T15:18:02.966Z</time></trkpt><trkpt lat="48.8134489" lon="4.3672847"><ele>121.33333333333333</ele><time>2026-05-01T15:18:03.966Z</time></trkpt><trkpt lat="48.8135991" lon="4.3670369"><ele>120.66666666666666</ele><time>2026-05-01T15:18:04.965Z</time></trkpt><trkpt lat="48.8137467" lon="4.3667891"><ele>120.0</ele><time>2026-05-01T15:18:05.962Z</time></trkpt><trkpt lat="48.8138978" lon="4.3665434"><ele>120.0</ele><time>2026-05-01T15:18:06.967Z</time></trkpt><trkpt lat="48.8140573" lon="4.3663147"><ele>120.0</ele><time>2026-05-01T15:18:07.961Z</time></trkpt><trkpt lat="48.8142344" lon="4.3661279"><ele>120.0</ele><time>2026-05-01T15:18:08.964Z</time></trkpt><trkpt lat="48.8144109" lon="4.3659584"><ele>120.0</ele><time>2026-05-01T15:18:09.967Z</time></trkpt><trkpt lat="48.8145886" lon="4.3658048"><ele>120.0</ele><time>2026-05-01T15:18:10.969Z</time></trkpt><trkpt lat="48.8147642" lon="4.3656788"><ele>120.0</ele><time>2026-05-01T15:18:11.97Z</time></trkpt><trkpt lat="48.8149309" lon="4.3655775"><ele>119.75</ele><time>2026-05-01T15:18:12.968Z</time></trkpt><trkpt lat="48.8150866" lon="4.3654908"><ele>119.5</ele><time>2026-05-01T15:18:13.967Z</time></trkpt><trkpt lat="48.8152251" lon="4.3654208"><ele>119.25</ele><time>2026-05-01T15:18:14.965Z</time></trkpt><trkpt lat="48.8153541" lon="4.3653587"><ele>119.0</ele><time>2026-05-01T15:18:15.976Z</time></trkpt><trkpt lat="48.8154724" lon="4.3652948"><ele>119.0</ele><time>2026-05-01T15:18:16.962Z</time></trkpt><trkpt lat="48.8155809" lon="4.3652305"><ele>119.0</ele><time>2026-05-01T15:18:17.97Z</time></trkpt><trkpt lat="48.8156871" lon="4.3651793"><ele>119.0</ele><time>2026-05-01T15:18:18.999Z</time></trkpt><trkpt lat="48.8157874" lon="4.3651296"><ele>119.0</ele><time>2026-05-01T15:18:19.972Z</time></trkpt><trkpt lat="48.8158804" lon="4.3650921"><ele>119.0</ele><time>2026-05-01T15:18:20.968Z</time></trkpt><trkpt lat="48.8159683" lon="4.3650472"><ele>118.33333333333333</ele><time>2026-05-01T15:18:21.963Z</time></trkpt><trkpt lat="48.8160587" lon="4.3650052"><ele>117.66666666666666</ele><time>2026-05-01T15:18:22.962Z</time></trkpt><trkpt lat="48.8161388" lon="4.364951"><ele>117.0</ele><time>2026-05-01T15:18:23.97Z</time></trkpt><trkpt lat="48.8162194" lon="4.3649151"><ele>116.33333333333334</ele><time>2026-05-01T15:18:24.965Z</time></trkpt><trkpt lat="48.816299" lon="4.3648832"><ele>115.66666666666667</ele><time>2026-05-01T15:18:25.965Z</time></trkpt><trkpt lat="48.8163756" lon="4.3648384"><ele>115.0</ele><time>2026-05-01T15:18:26.963Z</time></trkpt><trkpt lat="48.8164559" lon="4.364798"><ele>115.00000000000001</ele><time>2026-05-01T15:18:27.961Z</time></trkpt><trkpt lat="48.8165336" lon="4.364754"><ele>115.0</ele><time>2026-05-01T15:18:28.977Z</time></trkpt><trkpt lat="48.816602" lon="4.364705"><ele>115.0</ele><time>2026-05-01T15:18:29.972Z</time></trkpt><trkpt lat="48.8166819" lon="4.3646746"><ele>115.0</ele><time>2026-05-01T15:18:30.961Z</time></trkpt><trkpt lat="48.8167544" lon="4.3646369"><ele>115.00000000000001</ele><time>2026-05-01T15:18:31.968Z</time></trkpt><trkpt lat="48.8168269" lon="4.3646121"><ele>115.0</ele><time>2026-05-01T15:18:32.968Z</time></trkpt><trkpt lat="48.8169196" lon="4.3645912"><ele>118.0</ele><time>2026-05-01T15:18:34.979Z</time></trkpt><trkpt lat="48.8169852" lon="4.3645757"><ele>118.0</ele><time>2026-05-01T15:18:38.966Z</time></trkpt><trkpt lat="48.8169932" lon="4.3644767"><ele>118.0</ele><time>2026-05-01T15:18:56.975Z</time></trkpt><trkpt lat="48.8169503" lon="4.3643844"><ele>118.0</ele><time>2026-05-01T15:19:00.972Z</time></trkpt></trkseg></trk></gpx>